<?xml version="1.0" encoding="UTF-8" standalone="no" ?>
<gpx xmlns="http://www.topografix.com/GPX/1/1" xmlns:xsi="http://www.w3.org/2001/XMLSchema-instance" xsi:schemaLocation="http://www.topografix.com/GPX/1/1 http://www.topografix.com/GPX/1/1/gpx.xsd" version="1.1" creator="VisuGPX - https://www.visugpx.com">
  <metadata>
    <name>Roc Laissagais 2019 (50 km)</name>
    <desc><![CDATA[Parcours du 50 km du Roc Laissagais 2019]]></desc>
  </metadata>
  <trk>
    <name><![CDATA[Move]]></name>
    <trkseg>
      <trkpt lat="44.38543" lon="2.82242">
        <ele>585.20001220703</ele>
        <time>2019-04-07T08:29:20.579Z</time>
      </trkpt>
      <trkpt lat="44.38544" lon="2.82246">
        <ele>587</ele>
        <time>2019-04-07T08:30:05.579Z</time>
      </trkpt>
      <trkpt lat="44.38545" lon="2.8226">
        <ele>587</ele>
        <time>2019-04-07T08:30:08.579Z</time>
      </trkpt>
      <trkpt lat="44.38545" lon="2.82273">
        <ele>587</ele>
        <time>2019-04-07T08:30:10.579Z</time>
      </trkpt>
      <trkpt lat="44.38542" lon="2.82283">
        <ele>587</ele>
        <time>2019-04-07T08:30:12.579Z</time>
      </trkpt>
      <trkpt lat="44.38534" lon="2.82291">
        <ele>587</ele>
        <time>2019-04-07T08:30:14.579Z</time>
      </trkpt>
      <trkpt lat="44.38522" lon="2.82294">
        <ele>587</ele>
        <time>2019-04-07T08:30:16.579Z</time>
      </trkpt>
      <trkpt lat="44.38516" lon="2.82296">
        <ele>587</ele>
        <time>2019-04-07T08:30:17.579Z</time>
      </trkpt>
      <trkpt lat="44.3851" lon="2.82297">
        <ele>587</ele>
        <time>2019-04-07T08:30:18.579Z</time>
      </trkpt>
      <trkpt lat="44.38504" lon="2.82299">
        <ele>587.1389952</ele>
        <time>2019-04-07T08:30:19.579Z</time>
      </trkpt>
      <trkpt lat="44.38498" lon="2.82302">
        <ele>588</ele>
        <time>2019-04-07T08:30:20.579Z</time>
      </trkpt>
      <trkpt lat="44.38492" lon="2.82305">
        <ele>588</ele>
        <time>2019-04-07T08:30:21.579Z</time>
      </trkpt>
      <trkpt lat="44.38487" lon="2.82309">
        <ele>588</ele>
        <time>2019-04-07T08:30:22.579Z</time>
      </trkpt>
      <trkpt lat="44.38483" lon="2.82315">
        <ele>588</ele>
        <time>2019-04-07T08:30:23.579Z</time>
      </trkpt>
      <trkpt lat="44.38479" lon="2.82319">
        <ele>588</ele>
        <time>2019-04-07T08:30:24.579Z</time>
      </trkpt>
      <trkpt lat="44.38474" lon="2.82323">
        <ele>588</ele>
        <time>2019-04-07T08:30:25.579Z</time>
      </trkpt>
      <trkpt lat="44.38468" lon="2.82326">
        <ele>588</ele>
        <time>2019-04-07T08:30:26.579Z</time>
      </trkpt>
      <trkpt lat="44.38462" lon="2.82328">
        <ele>588</ele>
        <time>2019-04-07T08:30:27.579Z</time>
      </trkpt>
      <trkpt lat="44.38456" lon="2.82329">
        <ele>588</ele>
        <time>2019-04-07T08:30:28.579Z</time>
      </trkpt>
      <trkpt lat="44.3845" lon="2.8233">
        <ele>588.1389952</ele>
        <time>2019-04-07T08:30:29.579Z</time>
      </trkpt>
      <trkpt lat="44.38444" lon="2.8233">
        <ele>589</ele>
        <time>2019-04-07T08:30:30.579Z</time>
      </trkpt>
      <trkpt lat="44.38439" lon="2.82328">
        <ele>589</ele>
        <time>2019-04-07T08:30:31.579Z</time>
      </trkpt>
      <trkpt lat="44.38433" lon="2.82324">
        <ele>589</ele>
        <time>2019-04-07T08:30:32.579Z</time>
      </trkpt>
      <trkpt lat="44.38429" lon="2.82318">
        <ele>589</ele>
        <time>2019-04-07T08:30:33.579Z</time>
      </trkpt>
      <trkpt lat="44.38424" lon="2.82312">
        <ele>589</ele>
        <time>2019-04-07T08:30:34.579Z</time>
      </trkpt>
      <trkpt lat="44.38419" lon="2.82306">
        <ele>589</ele>
        <time>2019-04-07T08:30:35.579Z</time>
      </trkpt>
      <trkpt lat="44.38415" lon="2.82298">
        <ele>589</ele>
        <time>2019-04-07T08:30:36.579Z</time>
      </trkpt>
      <trkpt lat="44.38412" lon="2.8229">
        <ele>589</ele>
        <time>2019-04-07T08:30:37.579Z</time>
      </trkpt>
      <trkpt lat="44.3841" lon="2.82281">
        <ele>589</ele>
        <time>2019-04-07T08:30:38.579Z</time>
      </trkpt>
      <trkpt lat="44.38407" lon="2.82272">
        <ele>589.1389952</ele>
        <time>2019-04-07T08:30:39.579Z</time>
      </trkpt>
      <trkpt lat="44.38406" lon="2.82263">
        <ele>590</ele>
        <time>2019-04-07T08:30:40.579Z</time>
      </trkpt>
      <trkpt lat="44.38405" lon="2.82253">
        <ele>590</ele>
        <time>2019-04-07T08:30:41.579Z</time>
      </trkpt>
      <trkpt lat="44.38404" lon="2.82243">
        <ele>590</ele>
        <time>2019-04-07T08:30:42.579Z</time>
      </trkpt>
      <trkpt lat="44.38403" lon="2.82233">
        <ele>590</ele>
        <time>2019-04-07T08:30:43.579Z</time>
      </trkpt>
      <trkpt lat="44.38402" lon="2.82223">
        <ele>590</ele>
        <time>2019-04-07T08:30:44.579Z</time>
      </trkpt>
      <trkpt lat="44.38401" lon="2.82213">
        <ele>590</ele>
        <time>2019-04-07T08:30:45.579Z</time>
      </trkpt>
      <trkpt lat="44.38396" lon="2.82193">
        <ele>590</ele>
        <time>2019-04-07T08:30:47.579Z</time>
      </trkpt>
      <trkpt lat="44.38386" lon="2.82182">
        <ele>589.87857058893</ele>
        <time>2019-04-07T08:30:49.579Z</time>
      </trkpt>
      <trkpt lat="44.38379" lon="2.82179">
        <ele>589</ele>
        <time>2019-04-07T08:30:50.579Z</time>
      </trkpt>
      <trkpt lat="44.38372" lon="2.8218">
        <ele>589</ele>
        <time>2019-04-07T08:30:51.579Z</time>
      </trkpt>
      <trkpt lat="44.38364" lon="2.82181">
        <ele>589</ele>
        <time>2019-04-07T08:30:52.579Z</time>
      </trkpt>
      <trkpt lat="44.38357" lon="2.82182">
        <ele>589</ele>
        <time>2019-04-07T08:30:53.579Z</time>
      </trkpt>
      <trkpt lat="44.3835" lon="2.82183">
        <ele>589</ele>
        <time>2019-04-07T08:30:54.579Z</time>
      </trkpt>
      <trkpt lat="44.38343" lon="2.82184">
        <ele>589</ele>
        <time>2019-04-07T08:30:55.579Z</time>
      </trkpt>
      <trkpt lat="44.38335" lon="2.82185">
        <ele>589</ele>
        <time>2019-04-07T08:30:56.579Z</time>
      </trkpt>
      <trkpt lat="44.38328" lon="2.82186">
        <ele>589</ele>
        <time>2019-04-07T08:30:57.579Z</time>
      </trkpt>
      <trkpt lat="44.3832" lon="2.82186">
        <ele>589</ele>
        <time>2019-04-07T08:30:58.579Z</time>
      </trkpt>
      <trkpt lat="44.38312" lon="2.82187">
        <ele>589.1389952</ele>
        <time>2019-04-07T08:30:59.579Z</time>
      </trkpt>
      <trkpt lat="44.38304" lon="2.82188">
        <ele>590</ele>
        <time>2019-04-07T08:31:00.579Z</time>
      </trkpt>
      <trkpt lat="44.38296" lon="2.82188">
        <ele>590</ele>
        <time>2019-04-07T08:31:01.579Z</time>
      </trkpt>
      <trkpt lat="44.38289" lon="2.82189">
        <ele>590</ele>
        <time>2019-04-07T08:31:02.579Z</time>
      </trkpt>
      <trkpt lat="44.38281" lon="2.82189">
        <ele>590</ele>
        <time>2019-04-07T08:31:03.579Z</time>
      </trkpt>
      <trkpt lat="44.38274" lon="2.82189">
        <ele>590</ele>
        <time>2019-04-07T08:31:04.579Z</time>
      </trkpt>
      <trkpt lat="44.38266" lon="2.82189">
        <ele>590</ele>
        <time>2019-04-07T08:31:05.579Z</time>
      </trkpt>
      <trkpt lat="44.38259" lon="2.8219">
        <ele>590</ele>
        <time>2019-04-07T08:31:06.579Z</time>
      </trkpt>
      <trkpt lat="44.38252" lon="2.8219">
        <ele>590</ele>
        <time>2019-04-07T08:31:07.579Z</time>
      </trkpt>
      <trkpt lat="44.38245" lon="2.8219">
        <ele>590</ele>
        <time>2019-04-07T08:31:08.579Z</time>
      </trkpt>
      <trkpt lat="44.38238" lon="2.82189">
        <ele>590.2779904</ele>
        <time>2019-04-07T08:31:09.579Z</time>
      </trkpt>
      <trkpt lat="44.38218" lon="2.82184">
        <ele>592</ele>
        <time>2019-04-07T08:31:12.579Z</time>
      </trkpt>
      <trkpt lat="44.38211" lon="2.82182">
        <ele>592</ele>
        <time>2019-04-07T08:31:13.579Z</time>
      </trkpt>
      <trkpt lat="44.38205" lon="2.82179">
        <ele>592</ele>
        <time>2019-04-07T08:31:14.579Z</time>
      </trkpt>
      <trkpt lat="44.38198" lon="2.82177">
        <ele>592</ele>
        <time>2019-04-07T08:31:15.579Z</time>
      </trkpt>
      <trkpt lat="44.38192" lon="2.82174">
        <ele>592</ele>
        <time>2019-04-07T08:31:16.579Z</time>
      </trkpt>
      <trkpt lat="44.38186" lon="2.82171">
        <ele>592</ele>
        <time>2019-04-07T08:31:17.579Z</time>
      </trkpt>
      <trkpt lat="44.38179" lon="2.82169">
        <ele>592</ele>
        <time>2019-04-07T08:31:18.579Z</time>
      </trkpt>
      <trkpt lat="44.38173" lon="2.82166">
        <ele>592.4169856</ele>
        <time>2019-04-07T08:31:19.579Z</time>
      </trkpt>
      <trkpt lat="44.38167" lon="2.82164">
        <ele>595</ele>
        <time>2019-04-07T08:31:20.579Z</time>
      </trkpt>
      <trkpt lat="44.38161" lon="2.82162">
        <ele>595</ele>
        <time>2019-04-07T08:31:21.579Z</time>
      </trkpt>
      <trkpt lat="44.38155" lon="2.8216">
        <ele>595</ele>
        <time>2019-04-07T08:31:22.579Z</time>
      </trkpt>
      <trkpt lat="44.3815" lon="2.82158">
        <ele>595</ele>
        <time>2019-04-07T08:31:23.579Z</time>
      </trkpt>
      <trkpt lat="44.38144" lon="2.82155">
        <ele>595.2779904</ele>
        <time>2019-04-07T08:31:24.579Z</time>
      </trkpt>
      <trkpt lat="44.38139" lon="2.82152">
        <ele>597</ele>
        <time>2019-04-07T08:31:25.579Z</time>
      </trkpt>
      <trkpt lat="44.38135" lon="2.82147">
        <ele>597</ele>
        <time>2019-04-07T08:31:26.579Z</time>
      </trkpt>
      <trkpt lat="44.38132" lon="2.8214">
        <ele>597</ele>
        <time>2019-04-07T08:31:27.579Z</time>
      </trkpt>
      <trkpt lat="44.38131" lon="2.82131">
        <ele>597</ele>
        <time>2019-04-07T08:31:28.579Z</time>
      </trkpt>
      <trkpt lat="44.3813" lon="2.82122">
        <ele>597</ele>
        <time>2019-04-07T08:31:29.579Z</time>
      </trkpt>
      <trkpt lat="44.38129" lon="2.82112">
        <ele>597</ele>
        <time>2019-04-07T08:31:30.579Z</time>
      </trkpt>
      <trkpt lat="44.38129" lon="2.82102">
        <ele>597</ele>
        <time>2019-04-07T08:31:31.579Z</time>
      </trkpt>
      <trkpt lat="44.38128" lon="2.82091">
        <ele>597</ele>
        <time>2019-04-07T08:31:32.579Z</time>
      </trkpt>
      <trkpt lat="44.38128" lon="2.8208">
        <ele>597</ele>
        <time>2019-04-07T08:31:33.579Z</time>
      </trkpt>
      <trkpt lat="44.38127" lon="2.82069">
        <ele>597</ele>
        <time>2019-04-07T08:31:34.579Z</time>
      </trkpt>
      <trkpt lat="44.38128" lon="2.82057">
        <ele>597</ele>
        <time>2019-04-07T08:31:35.579Z</time>
      </trkpt>
      <trkpt lat="44.38128" lon="2.82046">
        <ele>597</ele>
        <time>2019-04-07T08:31:36.579Z</time>
      </trkpt>
      <trkpt lat="44.38127" lon="2.82034">
        <ele>597</ele>
        <time>2019-04-07T08:31:37.579Z</time>
      </trkpt>
      <trkpt lat="44.38126" lon="2.82023">
        <ele>597</ele>
        <time>2019-04-07T08:31:38.579Z</time>
      </trkpt>
      <trkpt lat="44.38126" lon="2.82012">
        <ele>597</ele>
        <time>2019-04-07T08:31:39.579Z</time>
      </trkpt>
      <trkpt lat="44.38125" lon="2.82001">
        <ele>597</ele>
        <time>2019-04-07T08:31:40.579Z</time>
      </trkpt>
      <trkpt lat="44.38125" lon="2.8199">
        <ele>597</ele>
        <time>2019-04-07T08:31:41.579Z</time>
      </trkpt>
      <trkpt lat="44.38124" lon="2.8198">
        <ele>597</ele>
        <time>2019-04-07T08:31:42.579Z</time>
      </trkpt>
      <trkpt lat="44.38124" lon="2.81969">
        <ele>597</ele>
        <time>2019-04-07T08:31:43.579Z</time>
      </trkpt>
      <trkpt lat="44.38123" lon="2.81959">
        <ele>597</ele>
        <time>2019-04-07T08:31:44.579Z</time>
      </trkpt>
      <trkpt lat="44.38123" lon="2.8195">
        <ele>597</ele>
        <time>2019-04-07T08:31:45.579Z</time>
      </trkpt>
      <trkpt lat="44.38122" lon="2.8194">
        <ele>597</ele>
        <time>2019-04-07T08:31:46.579Z</time>
      </trkpt>
      <trkpt lat="44.38121" lon="2.81922">
        <ele>597</ele>
        <time>2019-04-07T08:31:48.579Z</time>
      </trkpt>
      <trkpt lat="44.38121" lon="2.81913">
        <ele>597.1389952</ele>
        <time>2019-04-07T08:31:49.579Z</time>
      </trkpt>
      <trkpt lat="44.3812" lon="2.81905">
        <ele>598</ele>
        <time>2019-04-07T08:31:50.579Z</time>
      </trkpt>
      <trkpt lat="44.3812" lon="2.81896">
        <ele>598</ele>
        <time>2019-04-07T08:31:51.579Z</time>
      </trkpt>
      <trkpt lat="44.3812" lon="2.81888">
        <ele>598</ele>
        <time>2019-04-07T08:31:52.579Z</time>
      </trkpt>
      <trkpt lat="44.38119" lon="2.8188">
        <ele>598</ele>
        <time>2019-04-07T08:31:53.579Z</time>
      </trkpt>
      <trkpt lat="44.38119" lon="2.81872">
        <ele>598</ele>
        <time>2019-04-07T08:31:54.579Z</time>
      </trkpt>
      <trkpt lat="44.38119" lon="2.81864">
        <ele>598</ele>
        <time>2019-04-07T08:31:55.579Z</time>
      </trkpt>
      <trkpt lat="44.38118" lon="2.81856">
        <ele>598</ele>
        <time>2019-04-07T08:31:56.579Z</time>
      </trkpt>
      <trkpt lat="44.38118" lon="2.81849">
        <ele>598</ele>
        <time>2019-04-07T08:31:57.579Z</time>
      </trkpt>
      <trkpt lat="44.38118" lon="2.81841">
        <ele>598</ele>
        <time>2019-04-07T08:31:58.579Z</time>
      </trkpt>
      <trkpt lat="44.38118" lon="2.81834">
        <ele>598.694976</ele>
        <time>2019-04-07T08:31:59.579Z</time>
      </trkpt>
      <trkpt lat="44.38118" lon="2.81827">
        <ele>603</ele>
        <time>2019-04-07T08:32:00.579Z</time>
      </trkpt>
      <trkpt lat="44.38117" lon="2.8182">
        <ele>603</ele>
        <time>2019-04-07T08:32:01.579Z</time>
      </trkpt>
      <trkpt lat="44.38117" lon="2.81813">
        <ele>603</ele>
        <time>2019-04-07T08:32:02.579Z</time>
      </trkpt>
      <trkpt lat="44.38116" lon="2.81806">
        <ele>603</ele>
        <time>2019-04-07T08:32:03.579Z</time>
      </trkpt>
      <trkpt lat="44.38116" lon="2.81799">
        <ele>603.1389952</ele>
        <time>2019-04-07T08:32:04.579Z</time>
      </trkpt>
      <trkpt lat="44.38116" lon="2.81792">
        <ele>604</ele>
        <time>2019-04-07T08:32:05.579Z</time>
      </trkpt>
      <trkpt lat="44.38116" lon="2.81785">
        <ele>604</ele>
        <time>2019-04-07T08:32:06.579Z</time>
      </trkpt>
      <trkpt lat="44.38115" lon="2.81778">
        <ele>604</ele>
        <time>2019-04-07T08:32:07.579Z</time>
      </trkpt>
      <trkpt lat="44.38115" lon="2.81771">
        <ele>604</ele>
        <time>2019-04-07T08:32:08.579Z</time>
      </trkpt>
      <trkpt lat="44.38115" lon="2.81764">
        <ele>604.2779904</ele>
        <time>2019-04-07T08:32:09.579Z</time>
      </trkpt>
      <trkpt lat="44.38114" lon="2.81758">
        <ele>606</ele>
        <time>2019-04-07T08:32:10.579Z</time>
      </trkpt>
      <trkpt lat="44.38114" lon="2.81751">
        <ele>606</ele>
        <time>2019-04-07T08:32:11.579Z</time>
      </trkpt>
      <trkpt lat="44.38114" lon="2.81744">
        <ele>606</ele>
        <time>2019-04-07T08:32:12.579Z</time>
      </trkpt>
      <trkpt lat="44.38114" lon="2.81738">
        <ele>606</ele>
        <time>2019-04-07T08:32:13.579Z</time>
      </trkpt>
      <trkpt lat="44.38115" lon="2.81731">
        <ele>606.1389952</ele>
        <time>2019-04-07T08:32:14.579Z</time>
      </trkpt>
      <trkpt lat="44.38115" lon="2.81725">
        <ele>607</ele>
        <time>2019-04-07T08:32:15.579Z</time>
      </trkpt>
      <trkpt lat="44.38116" lon="2.81718">
        <ele>607</ele>
        <time>2019-04-07T08:32:16.579Z</time>
      </trkpt>
      <trkpt lat="44.38117" lon="2.81712">
        <ele>607</ele>
        <time>2019-04-07T08:32:17.579Z</time>
      </trkpt>
      <trkpt lat="44.38117" lon="2.81705">
        <ele>607</ele>
        <time>2019-04-07T08:32:18.579Z</time>
      </trkpt>
      <trkpt lat="44.38118" lon="2.81699">
        <ele>607.1389952</ele>
        <time>2019-04-07T08:32:19.579Z</time>
      </trkpt>
      <trkpt lat="44.38119" lon="2.81693">
        <ele>608</ele>
        <time>2019-04-07T08:32:20.579Z</time>
      </trkpt>
      <trkpt lat="44.3812" lon="2.81687">
        <ele>608</ele>
        <time>2019-04-07T08:32:21.579Z</time>
      </trkpt>
      <trkpt lat="44.38118" lon="2.81676">
        <ele>608</ele>
        <time>2019-04-07T08:32:23.579Z</time>
      </trkpt>
      <trkpt lat="44.38111" lon="2.81669">
        <ele>610</ele>
        <time>2019-04-07T08:32:26.579Z</time>
      </trkpt>
      <trkpt lat="44.38103" lon="2.81667">
        <ele>610.4169856</ele>
        <time>2019-04-07T08:32:29.579Z</time>
      </trkpt>
      <trkpt lat="44.38096" lon="2.81666">
        <ele>613</ele>
        <time>2019-04-07T08:32:31.579Z</time>
      </trkpt>
      <trkpt lat="44.38087" lon="2.81661">
        <ele>613.1389952</ele>
        <time>2019-04-07T08:32:34.579Z</time>
      </trkpt>
      <trkpt lat="44.38083" lon="2.81653">
        <ele>614</ele>
        <time>2019-04-07T08:32:36.579Z</time>
      </trkpt>
      <trkpt lat="44.38085" lon="2.81641">
        <ele>614.2779904</ele>
        <time>2019-04-07T08:32:39.579Z</time>
      </trkpt>
      <trkpt lat="44.3809" lon="2.81626">
        <ele>616</ele>
        <time>2019-04-07T08:32:43.579Z</time>
      </trkpt>
      <trkpt lat="44.38095" lon="2.81614">
        <ele>617</ele>
        <time>2019-04-07T08:32:46.579Z</time>
      </trkpt>
      <trkpt lat="44.38099" lon="2.81602">
        <ele>617.2779904</ele>
        <time>2019-04-07T08:32:49.579Z</time>
      </trkpt>
      <trkpt lat="44.38103" lon="2.81589">
        <ele>619</ele>
        <time>2019-04-07T08:32:52.579Z</time>
      </trkpt>
      <trkpt lat="44.38107" lon="2.81575">
        <ele>620</ele>
        <time>2019-04-07T08:32:55.579Z</time>
      </trkpt>
      <trkpt lat="44.3811" lon="2.81559">
        <ele>620</ele>
        <time>2019-04-07T08:32:58.579Z</time>
      </trkpt>
      <trkpt lat="44.38113" lon="2.81547">
        <ele>619</ele>
        <time>2019-04-07T08:33:00.579Z</time>
      </trkpt>
      <trkpt lat="44.38116" lon="2.81534">
        <ele>619</ele>
        <time>2019-04-07T08:33:02.579Z</time>
      </trkpt>
      <trkpt lat="44.38119" lon="2.8152">
        <ele>619</ele>
        <time>2019-04-07T08:33:04.579Z</time>
      </trkpt>
      <trkpt lat="44.38122" lon="2.81504">
        <ele>619</ele>
        <time>2019-04-07T08:33:06.579Z</time>
      </trkpt>
      <trkpt lat="44.38125" lon="2.81488">
        <ele>619</ele>
        <time>2019-04-07T08:33:08.579Z</time>
      </trkpt>
      <trkpt lat="44.38127" lon="2.81469">
        <ele>619</ele>
        <time>2019-04-07T08:33:10.579Z</time>
      </trkpt>
      <trkpt lat="44.38129" lon="2.81451">
        <ele>619</ele>
        <time>2019-04-07T08:33:12.579Z</time>
      </trkpt>
      <trkpt lat="44.38131" lon="2.81432">
        <ele>619</ele>
        <time>2019-04-07T08:33:14.579Z</time>
      </trkpt>
      <trkpt lat="44.38133" lon="2.81414">
        <ele>619</ele>
        <time>2019-04-07T08:33:16.579Z</time>
      </trkpt>
      <trkpt lat="44.38134" lon="2.81404">
        <ele>619</ele>
        <time>2019-04-07T08:33:17.579Z</time>
      </trkpt>
      <trkpt lat="44.38135" lon="2.81394">
        <ele>619</ele>
        <time>2019-04-07T08:33:18.579Z</time>
      </trkpt>
      <trkpt lat="44.38135" lon="2.81384">
        <ele>618.8610048</ele>
        <time>2019-04-07T08:33:19.579Z</time>
      </trkpt>
      <trkpt lat="44.38136" lon="2.81374">
        <ele>618</ele>
        <time>2019-04-07T08:33:20.579Z</time>
      </trkpt>
      <trkpt lat="44.38137" lon="2.81363">
        <ele>618</ele>
        <time>2019-04-07T08:33:21.579Z</time>
      </trkpt>
      <trkpt lat="44.38138" lon="2.81351">
        <ele>618</ele>
        <time>2019-04-07T08:33:22.579Z</time>
      </trkpt>
      <trkpt lat="44.3814" lon="2.81328">
        <ele>618</ele>
        <time>2019-04-07T08:33:24.579Z</time>
      </trkpt>
      <trkpt lat="44.38141" lon="2.81316">
        <ele>618</ele>
        <time>2019-04-07T08:33:25.579Z</time>
      </trkpt>
      <trkpt lat="44.38142" lon="2.81303">
        <ele>618</ele>
        <time>2019-04-07T08:33:26.579Z</time>
      </trkpt>
      <trkpt lat="44.38143" lon="2.8129">
        <ele>618</ele>
        <time>2019-04-07T08:33:27.579Z</time>
      </trkpt>
      <trkpt lat="44.38145" lon="2.81277">
        <ele>618</ele>
        <time>2019-04-07T08:33:28.579Z</time>
      </trkpt>
      <trkpt lat="44.38146" lon="2.81263">
        <ele>617.5830144</ele>
        <time>2019-04-07T08:33:29.579Z</time>
      </trkpt>
      <trkpt lat="44.38147" lon="2.81249">
        <ele>615</ele>
        <time>2019-04-07T08:33:30.579Z</time>
      </trkpt>
      <trkpt lat="44.38149" lon="2.81235">
        <ele>615</ele>
        <time>2019-04-07T08:33:31.579Z</time>
      </trkpt>
      <trkpt lat="44.3815" lon="2.81222">
        <ele>615</ele>
        <time>2019-04-07T08:33:32.579Z</time>
      </trkpt>
      <trkpt lat="44.38151" lon="2.81208">
        <ele>615</ele>
        <time>2019-04-07T08:33:33.579Z</time>
      </trkpt>
      <trkpt lat="44.38152" lon="2.81195">
        <ele>614.7220096</ele>
        <time>2019-04-07T08:33:34.579Z</time>
      </trkpt>
      <trkpt lat="44.38153" lon="2.81182">
        <ele>613</ele>
        <time>2019-04-07T08:33:35.579Z</time>
      </trkpt>
      <trkpt lat="44.38154" lon="2.81169">
        <ele>613</ele>
        <time>2019-04-07T08:33:36.579Z</time>
      </trkpt>
      <trkpt lat="44.38154" lon="2.81156">
        <ele>613</ele>
        <time>2019-04-07T08:33:37.579Z</time>
      </trkpt>
      <trkpt lat="44.38155" lon="2.81144">
        <ele>613</ele>
        <time>2019-04-07T08:33:38.579Z</time>
      </trkpt>
      <trkpt lat="44.38156" lon="2.81131">
        <ele>612.8610048</ele>
        <time>2019-04-07T08:33:39.579Z</time>
      </trkpt>
      <trkpt lat="44.38158" lon="2.81119">
        <ele>612</ele>
        <time>2019-04-07T08:33:40.579Z</time>
      </trkpt>
      <trkpt lat="44.38159" lon="2.81107">
        <ele>612</ele>
        <time>2019-04-07T08:33:41.579Z</time>
      </trkpt>
      <trkpt lat="44.3816" lon="2.81094">
        <ele>612</ele>
        <time>2019-04-07T08:33:42.579Z</time>
      </trkpt>
      <trkpt lat="44.38162" lon="2.81082">
        <ele>612</ele>
        <time>2019-04-07T08:33:43.579Z</time>
      </trkpt>
      <trkpt lat="44.38164" lon="2.8107">
        <ele>611.8610048</ele>
        <time>2019-04-07T08:33:44.579Z</time>
      </trkpt>
      <trkpt lat="44.38166" lon="2.81058">
        <ele>611</ele>
        <time>2019-04-07T08:33:45.579Z</time>
      </trkpt>
      <trkpt lat="44.38168" lon="2.81046">
        <ele>611</ele>
        <time>2019-04-07T08:33:46.579Z</time>
      </trkpt>
      <trkpt lat="44.38171" lon="2.81034">
        <ele>611</ele>
        <time>2019-04-07T08:33:47.579Z</time>
      </trkpt>
      <trkpt lat="44.38173" lon="2.81023">
        <ele>611</ele>
        <time>2019-04-07T08:33:48.579Z</time>
      </trkpt>
      <trkpt lat="44.38176" lon="2.81012">
        <ele>610.8610048</ele>
        <time>2019-04-07T08:33:49.579Z</time>
      </trkpt>
      <trkpt lat="44.38179" lon="2.81001">
        <ele>610</ele>
        <time>2019-04-07T08:33:50.579Z</time>
      </trkpt>
      <trkpt lat="44.38182" lon="2.80989">
        <ele>610</ele>
        <time>2019-04-07T08:33:51.579Z</time>
      </trkpt>
      <trkpt lat="44.38184" lon="2.80978">
        <ele>610</ele>
        <time>2019-04-07T08:33:52.579Z</time>
      </trkpt>
      <trkpt lat="44.38187" lon="2.80968">
        <ele>610</ele>
        <time>2019-04-07T08:33:53.579Z</time>
      </trkpt>
      <trkpt lat="44.3819" lon="2.80957">
        <ele>610</ele>
        <time>2019-04-07T08:33:54.579Z</time>
      </trkpt>
      <trkpt lat="44.38192" lon="2.80947">
        <ele>610</ele>
        <time>2019-04-07T08:33:55.579Z</time>
      </trkpt>
      <trkpt lat="44.38195" lon="2.80937">
        <ele>610</ele>
        <time>2019-04-07T08:33:56.579Z</time>
      </trkpt>
      <trkpt lat="44.38198" lon="2.80927">
        <ele>610</ele>
        <time>2019-04-07T08:33:57.579Z</time>
      </trkpt>
      <trkpt lat="44.38202" lon="2.80917">
        <ele>610</ele>
        <time>2019-04-07T08:33:58.579Z</time>
      </trkpt>
      <trkpt lat="44.38205" lon="2.80908">
        <ele>610.1389952</ele>
        <time>2019-04-07T08:33:59.579Z</time>
      </trkpt>
      <trkpt lat="44.38209" lon="2.80898">
        <ele>611</ele>
        <time>2019-04-07T08:34:00.579Z</time>
      </trkpt>
      <trkpt lat="44.38212" lon="2.80889">
        <ele>611</ele>
        <time>2019-04-07T08:34:01.579Z</time>
      </trkpt>
      <trkpt lat="44.38216" lon="2.8088">
        <ele>611</ele>
        <time>2019-04-07T08:34:02.579Z</time>
      </trkpt>
      <trkpt lat="44.3822" lon="2.8087">
        <ele>611</ele>
        <time>2019-04-07T08:34:03.579Z</time>
      </trkpt>
      <trkpt lat="44.38224" lon="2.80861">
        <ele>611</ele>
        <time>2019-04-07T08:34:04.579Z</time>
      </trkpt>
      <trkpt lat="44.38228" lon="2.80852">
        <ele>611</ele>
        <time>2019-04-07T08:34:05.579Z</time>
      </trkpt>
      <trkpt lat="44.38232" lon="2.80842">
        <ele>611</ele>
        <time>2019-04-07T08:34:06.579Z</time>
      </trkpt>
      <trkpt lat="44.38236" lon="2.80833">
        <ele>611</ele>
        <time>2019-04-07T08:34:07.579Z</time>
      </trkpt>
      <trkpt lat="44.3824" lon="2.80823">
        <ele>611</ele>
        <time>2019-04-07T08:34:08.579Z</time>
      </trkpt>
      <trkpt lat="44.38244" lon="2.80814">
        <ele>610.8610048</ele>
        <time>2019-04-07T08:34:09.579Z</time>
      </trkpt>
      <trkpt lat="44.38249" lon="2.80804">
        <ele>610</ele>
        <time>2019-04-07T08:34:10.579Z</time>
      </trkpt>
      <trkpt lat="44.38253" lon="2.80793">
        <ele>610</ele>
        <time>2019-04-07T08:34:11.579Z</time>
      </trkpt>
      <trkpt lat="44.38257" lon="2.80783">
        <ele>610</ele>
        <time>2019-04-07T08:34:12.579Z</time>
      </trkpt>
      <trkpt lat="44.38262" lon="2.80773">
        <ele>610</ele>
        <time>2019-04-07T08:34:13.579Z</time>
      </trkpt>
      <trkpt lat="44.38266" lon="2.80762">
        <ele>610</ele>
        <time>2019-04-07T08:34:14.579Z</time>
      </trkpt>
      <trkpt lat="44.3827" lon="2.80751">
        <ele>610</ele>
        <time>2019-04-07T08:34:15.579Z</time>
      </trkpt>
      <trkpt lat="44.38274" lon="2.80741">
        <ele>610</ele>
        <time>2019-04-07T08:34:16.579Z</time>
      </trkpt>
      <trkpt lat="44.38278" lon="2.80731">
        <ele>610</ele>
        <time>2019-04-07T08:34:17.579Z</time>
      </trkpt>
      <trkpt lat="44.38282" lon="2.80721">
        <ele>610</ele>
        <time>2019-04-07T08:34:18.579Z</time>
      </trkpt>
      <trkpt lat="44.38286" lon="2.80711">
        <ele>609.7220096</ele>
        <time>2019-04-07T08:34:19.579Z</time>
      </trkpt>
      <trkpt lat="44.3829" lon="2.80701">
        <ele>608</ele>
        <time>2019-04-07T08:34:20.579Z</time>
      </trkpt>
      <trkpt lat="44.38294" lon="2.80691">
        <ele>608</ele>
        <time>2019-04-07T08:34:21.579Z</time>
      </trkpt>
      <trkpt lat="44.38298" lon="2.80682">
        <ele>608</ele>
        <time>2019-04-07T08:34:22.579Z</time>
      </trkpt>
      <trkpt lat="44.38302" lon="2.80672">
        <ele>608</ele>
        <time>2019-04-07T08:34:23.579Z</time>
      </trkpt>
      <trkpt lat="44.38306" lon="2.80663">
        <ele>608</ele>
        <time>2019-04-07T08:34:24.579Z</time>
      </trkpt>
      <trkpt lat="44.3831" lon="2.80654">
        <ele>608</ele>
        <time>2019-04-07T08:34:25.579Z</time>
      </trkpt>
      <trkpt lat="44.38314" lon="2.80645">
        <ele>608</ele>
        <time>2019-04-07T08:34:26.579Z</time>
      </trkpt>
      <trkpt lat="44.38318" lon="2.80637">
        <ele>608</ele>
        <time>2019-04-07T08:34:27.579Z</time>
      </trkpt>
      <trkpt lat="44.38321" lon="2.80628">
        <ele>608</ele>
        <time>2019-04-07T08:34:28.579Z</time>
      </trkpt>
      <trkpt lat="44.38325" lon="2.80619">
        <ele>608</ele>
        <time>2019-04-07T08:34:29.579Z</time>
      </trkpt>
      <trkpt lat="44.38328" lon="2.80611">
        <ele>608.1389952</ele>
        <time>2019-04-07T08:34:30.579Z</time>
      </trkpt>
      <trkpt lat="44.38332" lon="2.80602">
        <ele>609</ele>
        <time>2019-04-07T08:34:31.579Z</time>
      </trkpt>
      <trkpt lat="44.38338" lon="2.80585">
        <ele>609</ele>
        <time>2019-04-07T08:34:33.579Z</time>
      </trkpt>
      <trkpt lat="44.38341" lon="2.80577">
        <ele>609</ele>
        <time>2019-04-07T08:34:34.579Z</time>
      </trkpt>
      <trkpt lat="44.38344" lon="2.80568">
        <ele>609</ele>
        <time>2019-04-07T08:34:35.579Z</time>
      </trkpt>
      <trkpt lat="44.38347" lon="2.8056">
        <ele>609</ele>
        <time>2019-04-07T08:34:36.579Z</time>
      </trkpt>
      <trkpt lat="44.3835" lon="2.80551">
        <ele>609</ele>
        <time>2019-04-07T08:34:37.579Z</time>
      </trkpt>
      <trkpt lat="44.38352" lon="2.80542">
        <ele>609</ele>
        <time>2019-04-07T08:34:38.579Z</time>
      </trkpt>
      <trkpt lat="44.38354" lon="2.80533">
        <ele>609</ele>
        <time>2019-04-07T08:34:39.579Z</time>
      </trkpt>
      <trkpt lat="44.38357" lon="2.80525">
        <ele>609.2779904</ele>
        <time>2019-04-07T08:34:40.579Z</time>
      </trkpt>
      <trkpt lat="44.3836" lon="2.80508">
        <ele>611</ele>
        <time>2019-04-07T08:34:42.579Z</time>
      </trkpt>
      <trkpt lat="44.38363" lon="2.80493">
        <ele>611</ele>
        <time>2019-04-07T08:34:44.579Z</time>
      </trkpt>
      <trkpt lat="44.38365" lon="2.80477">
        <ele>611</ele>
        <time>2019-04-07T08:34:46.579Z</time>
      </trkpt>
      <trkpt lat="44.38367" lon="2.80462">
        <ele>611</ele>
        <time>2019-04-07T08:34:48.579Z</time>
      </trkpt>
      <trkpt lat="44.3837" lon="2.80446">
        <ele>611.2779904</ele>
        <time>2019-04-07T08:34:50.579Z</time>
      </trkpt>
      <trkpt lat="44.38371" lon="2.8043">
        <ele>613</ele>
        <time>2019-04-07T08:34:52.579Z</time>
      </trkpt>
      <trkpt lat="44.38372" lon="2.80414">
        <ele>613</ele>
        <time>2019-04-07T08:34:54.579Z</time>
      </trkpt>
      <trkpt lat="44.38372" lon="2.80397">
        <ele>613</ele>
        <time>2019-04-07T08:34:56.579Z</time>
      </trkpt>
      <trkpt lat="44.38372" lon="2.8038">
        <ele>613</ele>
        <time>2019-04-07T08:34:58.579Z</time>
      </trkpt>
      <trkpt lat="44.38373" lon="2.80362">
        <ele>612.8610048</ele>
        <time>2019-04-07T08:35:00.579Z</time>
      </trkpt>
      <trkpt lat="44.38373" lon="2.80353">
        <ele>612</ele>
        <time>2019-04-07T08:35:01.579Z</time>
      </trkpt>
      <trkpt lat="44.38373" lon="2.80334">
        <ele>612</ele>
        <time>2019-04-07T08:35:03.579Z</time>
      </trkpt>
      <trkpt lat="44.38373" lon="2.80316">
        <ele>612</ele>
        <time>2019-04-07T08:35:05.579Z</time>
      </trkpt>
      <trkpt lat="44.38373" lon="2.80307">
        <ele>612</ele>
        <time>2019-04-07T08:35:06.579Z</time>
      </trkpt>
      <trkpt lat="44.38373" lon="2.80289">
        <ele>612</ele>
        <time>2019-04-07T08:35:08.579Z</time>
      </trkpt>
      <trkpt lat="44.38372" lon="2.8028">
        <ele>612</ele>
        <time>2019-04-07T08:35:09.579Z</time>
      </trkpt>
      <trkpt lat="44.38371" lon="2.80271">
        <ele>612.2779904</ele>
        <time>2019-04-07T08:35:10.579Z</time>
      </trkpt>
      <trkpt lat="44.38369" lon="2.80264">
        <ele>614</ele>
        <time>2019-04-07T08:35:11.579Z</time>
      </trkpt>
      <trkpt lat="44.38366" lon="2.80257">
        <ele>614</ele>
        <time>2019-04-07T08:35:12.579Z</time>
      </trkpt>
      <trkpt lat="44.38363" lon="2.80251">
        <ele>614</ele>
        <time>2019-04-07T08:35:13.579Z</time>
      </trkpt>
      <trkpt lat="44.38359" lon="2.80245">
        <ele>614</ele>
        <time>2019-04-07T08:35:14.579Z</time>
      </trkpt>
      <trkpt lat="44.38355" lon="2.8024">
        <ele>614</ele>
        <time>2019-04-07T08:35:15.579Z</time>
      </trkpt>
      <trkpt lat="44.38352" lon="2.80235">
        <ele>614</ele>
        <time>2019-04-07T08:35:16.579Z</time>
      </trkpt>
      <trkpt lat="44.38348" lon="2.8023">
        <ele>614</ele>
        <time>2019-04-07T08:35:17.579Z</time>
      </trkpt>
      <trkpt lat="44.38345" lon="2.80225">
        <ele>614</ele>
        <time>2019-04-07T08:35:18.579Z</time>
      </trkpt>
      <trkpt lat="44.38335" lon="2.80219">
        <ele>614.2779904</ele>
        <time>2019-04-07T08:35:20.579Z</time>
      </trkpt>
      <trkpt lat="44.3833" lon="2.80216">
        <ele>616</ele>
        <time>2019-04-07T08:35:21.579Z</time>
      </trkpt>
      <trkpt lat="44.38325" lon="2.80213">
        <ele>616</ele>
        <time>2019-04-07T08:35:22.579Z</time>
      </trkpt>
      <trkpt lat="44.3832" lon="2.80211">
        <ele>616</ele>
        <time>2019-04-07T08:35:23.579Z</time>
      </trkpt>
      <trkpt lat="44.38315" lon="2.80207">
        <ele>616</ele>
        <time>2019-04-07T08:35:24.579Z</time>
      </trkpt>
      <trkpt lat="44.3831" lon="2.80202">
        <ele>616</ele>
        <time>2019-04-07T08:35:25.579Z</time>
      </trkpt>
      <trkpt lat="44.38301" lon="2.80194">
        <ele>616</ele>
        <time>2019-04-07T08:35:27.579Z</time>
      </trkpt>
      <trkpt lat="44.38296" lon="2.80188">
        <ele>616</ele>
        <time>2019-04-07T08:35:28.579Z</time>
      </trkpt>
      <trkpt lat="44.38291" lon="2.80183">
        <ele>616</ele>
        <time>2019-04-07T08:35:29.579Z</time>
      </trkpt>
      <trkpt lat="44.38286" lon="2.80176">
        <ele>616.1389952</ele>
        <time>2019-04-07T08:35:30.579Z</time>
      </trkpt>
      <trkpt lat="44.3828" lon="2.8017">
        <ele>617</ele>
        <time>2019-04-07T08:35:31.579Z</time>
      </trkpt>
      <trkpt lat="44.38275" lon="2.80163">
        <ele>617</ele>
        <time>2019-04-07T08:35:32.579Z</time>
      </trkpt>
      <trkpt lat="44.38269" lon="2.80157">
        <ele>617</ele>
        <time>2019-04-07T08:35:33.579Z</time>
      </trkpt>
      <trkpt lat="44.38265" lon="2.80151">
        <ele>617</ele>
        <time>2019-04-07T08:35:34.579Z</time>
      </trkpt>
      <trkpt lat="44.3826" lon="2.80145">
        <ele>617</ele>
        <time>2019-04-07T08:35:35.579Z</time>
      </trkpt>
      <trkpt lat="44.38255" lon="2.80139">
        <ele>617</ele>
        <time>2019-04-07T08:35:36.579Z</time>
      </trkpt>
      <trkpt lat="44.3825" lon="2.80134">
        <ele>617</ele>
        <time>2019-04-07T08:35:37.579Z</time>
      </trkpt>
      <trkpt lat="44.38245" lon="2.80129">
        <ele>617</ele>
        <time>2019-04-07T08:35:38.579Z</time>
      </trkpt>
      <trkpt lat="44.38239" lon="2.80124">
        <ele>617</ele>
        <time>2019-04-07T08:35:39.579Z</time>
      </trkpt>
      <trkpt lat="44.38234" lon="2.80119">
        <ele>617</ele>
        <time>2019-04-07T08:35:40.579Z</time>
      </trkpt>
      <trkpt lat="44.38228" lon="2.80115">
        <ele>617</ele>
        <time>2019-04-07T08:35:41.579Z</time>
      </trkpt>
      <trkpt lat="44.38222" lon="2.80111">
        <ele>617</ele>
        <time>2019-04-07T08:35:42.579Z</time>
      </trkpt>
      <trkpt lat="44.38217" lon="2.80106">
        <ele>617</ele>
        <time>2019-04-07T08:35:43.579Z</time>
      </trkpt>
      <trkpt lat="44.38211" lon="2.80101">
        <ele>617</ele>
        <time>2019-04-07T08:35:44.579Z</time>
      </trkpt>
      <trkpt lat="44.38206" lon="2.80097">
        <ele>617</ele>
        <time>2019-04-07T08:35:45.579Z</time>
      </trkpt>
      <trkpt lat="44.38201" lon="2.80092">
        <ele>617</ele>
        <time>2019-04-07T08:35:46.579Z</time>
      </trkpt>
      <trkpt lat="44.38196" lon="2.80087">
        <ele>617</ele>
        <time>2019-04-07T08:35:47.579Z</time>
      </trkpt>
      <trkpt lat="44.38191" lon="2.80081">
        <ele>617</ele>
        <time>2019-04-07T08:35:48.579Z</time>
      </trkpt>
      <trkpt lat="44.38186" lon="2.80076">
        <ele>617</ele>
        <time>2019-04-07T08:35:49.579Z</time>
      </trkpt>
      <trkpt lat="44.38181" lon="2.80072">
        <ele>617.2779904</ele>
        <time>2019-04-07T08:35:50.579Z</time>
      </trkpt>
      <trkpt lat="44.38176" lon="2.80067">
        <ele>619</ele>
        <time>2019-04-07T08:35:51.579Z</time>
      </trkpt>
      <trkpt lat="44.38172" lon="2.80063">
        <ele>619</ele>
        <time>2019-04-07T08:35:52.579Z</time>
      </trkpt>
      <trkpt lat="44.38167" lon="2.80059">
        <ele>619</ele>
        <time>2019-04-07T08:35:53.579Z</time>
      </trkpt>
      <trkpt lat="44.38162" lon="2.80056">
        <ele>619</ele>
        <time>2019-04-07T08:35:54.579Z</time>
      </trkpt>
      <trkpt lat="44.38157" lon="2.80054">
        <ele>619</ele>
        <time>2019-04-07T08:35:55.579Z</time>
      </trkpt>
      <trkpt lat="44.38151" lon="2.80051">
        <ele>619</ele>
        <time>2019-04-07T08:35:56.579Z</time>
      </trkpt>
      <trkpt lat="44.38146" lon="2.8005">
        <ele>619</ele>
        <time>2019-04-07T08:35:57.579Z</time>
      </trkpt>
      <trkpt lat="44.38142" lon="2.80048">
        <ele>619</ele>
        <time>2019-04-07T08:35:58.579Z</time>
      </trkpt>
      <trkpt lat="44.38137" lon="2.80047">
        <ele>619</ele>
        <time>2019-04-07T08:35:59.579Z</time>
      </trkpt>
      <trkpt lat="44.38133" lon="2.80046">
        <ele>619.694976</ele>
        <time>2019-04-07T08:36:00.579Z</time>
      </trkpt>
      <trkpt lat="44.38124" lon="2.80044">
        <ele>623.1389952</ele>
        <time>2019-04-07T08:36:02.579Z</time>
      </trkpt>
      <trkpt lat="44.38111" lon="2.80041">
        <ele>624</ele>
        <time>2019-04-07T08:36:05.579Z</time>
      </trkpt>
      <trkpt lat="44.381" lon="2.80037">
        <ele>626</ele>
        <time>2019-04-07T08:36:08.579Z</time>
      </trkpt>
      <trkpt lat="44.38098" lon="2.80022">
        <ele>627</ele>
        <time>2019-04-07T08:36:12.579Z</time>
      </trkpt>
      <trkpt lat="44.38108" lon="2.80018">
        <ele>627.2779904</ele>
        <time>2019-04-07T08:36:15.579Z</time>
      </trkpt>
      <trkpt lat="44.38118" lon="2.80017">
        <ele>629</ele>
        <time>2019-04-07T08:36:18.579Z</time>
      </trkpt>
      <trkpt lat="44.3813" lon="2.80017">
        <ele>630</ele>
        <time>2019-04-07T08:36:22.579Z</time>
      </trkpt>
      <trkpt lat="44.38141" lon="2.80018">
        <ele>631</ele>
        <time>2019-04-07T08:36:26.579Z</time>
      </trkpt>
      <trkpt lat="44.38146" lon="2.80018">
        <ele>631</ele>
        <time>2019-04-07T08:36:28.579Z</time>
      </trkpt>
      <trkpt lat="44.38151" lon="2.80018">
        <ele>631.4169856</ele>
        <time>2019-04-07T08:36:30.579Z</time>
      </trkpt>
      <trkpt lat="44.38158" lon="2.80015">
        <ele>634</ele>
        <time>2019-04-07T08:36:33.579Z</time>
      </trkpt>
      <trkpt lat="44.38166" lon="2.80007">
        <ele>636</ele>
        <time>2019-04-07T08:36:38.579Z</time>
      </trkpt>
      <trkpt lat="44.38169" lon="2.8">
        <ele>638</ele>
        <time>2019-04-07T08:36:41.579Z</time>
      </trkpt>
      <trkpt lat="44.38173" lon="2.79993">
        <ele>638</ele>
        <time>2019-04-07T08:36:44.579Z</time>
      </trkpt>
      <trkpt lat="44.38176" lon="2.79987">
        <ele>639</ele>
        <time>2019-04-07T08:36:46.579Z</time>
      </trkpt>
      <trkpt lat="44.38179" lon="2.79975">
        <ele>639.13761944592</ele>
        <time>2019-04-07T08:36:50.579Z</time>
      </trkpt>
      <trkpt lat="44.38178" lon="2.79959">
        <ele>640.1389952</ele>
        <time>2019-04-07T08:36:55.579Z</time>
      </trkpt>
      <trkpt lat="44.38178" lon="2.79943">
        <ele>641.2779904</ele>
        <time>2019-04-07T08:37:00.579Z</time>
      </trkpt>
      <trkpt lat="44.38179" lon="2.79928">
        <ele>643.1389952</ele>
        <time>2019-04-07T08:37:05.579Z</time>
      </trkpt>
      <trkpt lat="44.3818" lon="2.79914">
        <ele>644</ele>
        <time>2019-04-07T08:37:10.579Z</time>
      </trkpt>
      <trkpt lat="44.38181" lon="2.79898">
        <ele>644</ele>
        <time>2019-04-07T08:37:15.579Z</time>
      </trkpt>
      <trkpt lat="44.38182" lon="2.79885">
        <ele>644</ele>
        <time>2019-04-07T08:37:19.579Z</time>
      </trkpt>
      <trkpt lat="44.38183" lon="2.79871">
        <ele>646</ele>
        <time>2019-04-07T08:37:24.579Z</time>
      </trkpt>
      <trkpt lat="44.38184" lon="2.79857">
        <ele>646</ele>
        <time>2019-04-07T08:37:29.579Z</time>
      </trkpt>
      <trkpt lat="44.38185" lon="2.79846">
        <ele>648</ele>
        <time>2019-04-07T08:37:33.579Z</time>
      </trkpt>
      <trkpt lat="44.38187" lon="2.79837">
        <ele>649</ele>
        <time>2019-04-07T08:37:36.579Z</time>
      </trkpt>
      <trkpt lat="44.38188" lon="2.79827">
        <ele>649</ele>
        <time>2019-04-07T08:37:39.579Z</time>
      </trkpt>
      <trkpt lat="44.38192" lon="2.79819">
        <ele>650</ele>
        <time>2019-04-07T08:37:42.579Z</time>
      </trkpt>
      <trkpt lat="44.38198" lon="2.79812">
        <ele>650</ele>
        <time>2019-04-07T08:37:45.579Z</time>
      </trkpt>
      <trkpt lat="44.38203" lon="2.79806">
        <ele>650</ele>
        <time>2019-04-07T08:37:47.579Z</time>
      </trkpt>
      <trkpt lat="44.38209" lon="2.798">
        <ele>650</ele>
        <time>2019-04-07T08:37:49.579Z</time>
      </trkpt>
      <trkpt lat="44.38216" lon="2.79792">
        <ele>650</ele>
        <time>2019-04-07T08:37:51.579Z</time>
      </trkpt>
      <trkpt lat="44.38223" lon="2.79784">
        <ele>650</ele>
        <time>2019-04-07T08:37:53.579Z</time>
      </trkpt>
      <trkpt lat="44.3823" lon="2.79776">
        <ele>650</ele>
        <time>2019-04-07T08:37:55.579Z</time>
      </trkpt>
      <trkpt lat="44.38233" lon="2.79771">
        <ele>650</ele>
        <time>2019-04-07T08:37:56.579Z</time>
      </trkpt>
      <trkpt lat="44.38237" lon="2.79767">
        <ele>650</ele>
        <time>2019-04-07T08:37:57.579Z</time>
      </trkpt>
      <trkpt lat="44.3824" lon="2.79763">
        <ele>650</ele>
        <time>2019-04-07T08:37:58.579Z</time>
      </trkpt>
      <trkpt lat="44.38244" lon="2.79758">
        <ele>650</ele>
        <time>2019-04-07T08:37:59.579Z</time>
      </trkpt>
      <trkpt lat="44.38247" lon="2.79754">
        <ele>649.7220096</ele>
        <time>2019-04-07T08:38:00.579Z</time>
      </trkpt>
      <trkpt lat="44.38251" lon="2.7975">
        <ele>648</ele>
        <time>2019-04-07T08:38:01.579Z</time>
      </trkpt>
      <trkpt lat="44.38255" lon="2.79746">
        <ele>648</ele>
        <time>2019-04-07T08:38:02.579Z</time>
      </trkpt>
      <trkpt lat="44.38259" lon="2.79742">
        <ele>648</ele>
        <time>2019-04-07T08:38:03.579Z</time>
      </trkpt>
      <trkpt lat="44.38263" lon="2.79738">
        <ele>648</ele>
        <time>2019-04-07T08:38:04.579Z</time>
      </trkpt>
      <trkpt lat="44.38268" lon="2.79734">
        <ele>648</ele>
        <time>2019-04-07T08:38:05.579Z</time>
      </trkpt>
      <trkpt lat="44.38272" lon="2.79729">
        <ele>648</ele>
        <time>2019-04-07T08:38:06.579Z</time>
      </trkpt>
      <trkpt lat="44.38275" lon="2.79725">
        <ele>648</ele>
        <time>2019-04-07T08:38:07.579Z</time>
      </trkpt>
      <trkpt lat="44.38278" lon="2.79719">
        <ele>648</ele>
        <time>2019-04-07T08:38:08.579Z</time>
      </trkpt>
      <trkpt lat="44.38281" lon="2.79713">
        <ele>648</ele>
        <time>2019-04-07T08:38:09.579Z</time>
      </trkpt>
      <trkpt lat="44.38282" lon="2.79706">
        <ele>648</ele>
        <time>2019-04-07T08:38:10.579Z</time>
      </trkpt>
      <trkpt lat="44.38282" lon="2.79699">
        <ele>648</ele>
        <time>2019-04-07T08:38:11.579Z</time>
      </trkpt>
      <trkpt lat="44.38278" lon="2.79688">
        <ele>648</ele>
        <time>2019-04-07T08:38:13.579Z</time>
      </trkpt>
      <trkpt lat="44.38273" lon="2.79676">
        <ele>648</ele>
        <time>2019-04-07T08:38:15.579Z</time>
      </trkpt>
      <trkpt lat="44.38268" lon="2.79662">
        <ele>648</ele>
        <time>2019-04-07T08:38:17.579Z</time>
      </trkpt>
      <trkpt lat="44.38264" lon="2.79649">
        <ele>648</ele>
        <time>2019-04-07T08:38:19.579Z</time>
      </trkpt>
      <trkpt lat="44.38262" lon="2.79634">
        <ele>647</ele>
        <time>2019-04-07T08:38:21.579Z</time>
      </trkpt>
      <trkpt lat="44.38259" lon="2.79619">
        <ele>647</ele>
        <time>2019-04-07T08:38:23.579Z</time>
      </trkpt>
      <trkpt lat="44.38258" lon="2.79603">
        <ele>647</ele>
        <time>2019-04-07T08:38:25.579Z</time>
      </trkpt>
      <trkpt lat="44.38258" lon="2.79592">
        <ele>647</ele>
        <time>2019-04-07T08:38:27.579Z</time>
      </trkpt>
      <trkpt lat="44.38258" lon="2.79578">
        <ele>647.1389952</ele>
        <time>2019-04-07T08:38:30.579Z</time>
      </trkpt>
      <trkpt lat="44.38256" lon="2.79565">
        <ele>648</ele>
        <time>2019-04-07T08:38:33.579Z</time>
      </trkpt>
      <trkpt lat="44.38255" lon="2.79553">
        <ele>648</ele>
        <time>2019-04-07T08:38:36.579Z</time>
      </trkpt>
      <trkpt lat="44.38255" lon="2.79542">
        <ele>648</ele>
        <time>2019-04-07T08:38:39.579Z</time>
      </trkpt>
      <trkpt lat="44.38254" lon="2.79532">
        <ele>649</ele>
        <time>2019-04-07T08:38:42.579Z</time>
      </trkpt>
      <trkpt lat="44.38252" lon="2.79523">
        <ele>649</ele>
        <time>2019-04-07T08:38:45.579Z</time>
      </trkpt>
      <trkpt lat="44.38251" lon="2.79516">
        <ele>649</ele>
        <time>2019-04-07T08:38:47.579Z</time>
      </trkpt>
      <trkpt lat="44.38247" lon="2.79503">
        <ele>652</ele>
        <time>2019-04-07T08:38:52.579Z</time>
      </trkpt>
      <trkpt lat="44.38243" lon="2.79493">
        <ele>652.2779904</ele>
        <time>2019-04-07T08:38:55.579Z</time>
      </trkpt>
      <trkpt lat="44.38238" lon="2.79485">
        <ele>654</ele>
        <time>2019-04-07T08:38:58.579Z</time>
      </trkpt>
      <trkpt lat="44.38233" lon="2.79477">
        <ele>653.8610048</ele>
        <time>2019-04-07T08:39:00.579Z</time>
      </trkpt>
      <trkpt lat="44.38226" lon="2.79469">
        <ele>653</ele>
        <time>2019-04-07T08:39:02.579Z</time>
      </trkpt>
      <trkpt lat="44.38221" lon="2.79459">
        <ele>653</ele>
        <time>2019-04-07T08:39:04.579Z</time>
      </trkpt>
      <trkpt lat="44.38221" lon="2.79447">
        <ele>653</ele>
        <time>2019-04-07T08:39:06.579Z</time>
      </trkpt>
      <trkpt lat="44.38222" lon="2.79432">
        <ele>653</ele>
        <time>2019-04-07T08:39:09.579Z</time>
      </trkpt>
      <trkpt lat="44.38226" lon="2.79418">
        <ele>654</ele>
        <time>2019-04-07T08:39:12.579Z</time>
      </trkpt>
      <trkpt lat="44.38232" lon="2.79408">
        <ele>654</ele>
        <time>2019-04-07T08:39:15.579Z</time>
      </trkpt>
      <trkpt lat="44.38239" lon="2.79404">
        <ele>654</ele>
        <time>2019-04-07T08:39:17.579Z</time>
      </trkpt>
      <trkpt lat="44.38244" lon="2.79399">
        <ele>654.2779904</ele>
        <time>2019-04-07T08:39:20.579Z</time>
      </trkpt>
      <trkpt lat="44.3825" lon="2.79395">
        <ele>656</ele>
        <time>2019-04-07T08:39:24.579Z</time>
      </trkpt>
      <trkpt lat="44.38255" lon="2.7939">
        <ele>656</ele>
        <time>2019-04-07T08:39:28.579Z</time>
      </trkpt>
      <trkpt lat="44.38261" lon="2.79382">
        <ele>657</ele>
        <time>2019-04-07T08:39:33.579Z</time>
      </trkpt>
      <trkpt lat="44.38269" lon="2.79369">
        <ele>657</ele>
        <time>2019-04-07T08:39:38.579Z</time>
      </trkpt>
      <trkpt lat="44.38273" lon="2.79363">
        <ele>657.4169856</ele>
        <time>2019-04-07T08:39:40.579Z</time>
      </trkpt>
      <trkpt lat="44.38277" lon="2.79357">
        <ele>660</ele>
        <time>2019-04-07T08:39:42.579Z</time>
      </trkpt>
      <trkpt lat="44.38281" lon="2.7935">
        <ele>660</ele>
        <time>2019-04-07T08:39:44.579Z</time>
      </trkpt>
      <trkpt lat="44.38284" lon="2.79343">
        <ele>661</ele>
        <time>2019-04-07T08:39:46.579Z</time>
      </trkpt>
      <trkpt lat="44.38287" lon="2.79335">
        <ele>661</ele>
        <time>2019-04-07T08:39:48.579Z</time>
      </trkpt>
      <trkpt lat="44.38291" lon="2.79326">
        <ele>661.13030099297</ele>
        <time>2019-04-07T08:39:50.579Z</time>
      </trkpt>
      <trkpt lat="44.38294" lon="2.79318">
        <ele>662</ele>
        <time>2019-04-07T08:39:52.579Z</time>
      </trkpt>
      <trkpt lat="44.38298" lon="2.79309">
        <ele>662</ele>
        <time>2019-04-07T08:39:54.579Z</time>
      </trkpt>
      <trkpt lat="44.38301" lon="2.793">
        <ele>662</ele>
        <time>2019-04-07T08:39:56.579Z</time>
      </trkpt>
      <trkpt lat="44.38304" lon="2.79291">
        <ele>662</ele>
        <time>2019-04-07T08:39:58.579Z</time>
      </trkpt>
      <trkpt lat="44.38306" lon="2.79282">
        <ele>662.1389952</ele>
        <time>2019-04-07T08:40:00.579Z</time>
      </trkpt>
      <trkpt lat="44.38308" lon="2.79272">
        <ele>663</ele>
        <time>2019-04-07T08:40:02.579Z</time>
      </trkpt>
      <trkpt lat="44.38312" lon="2.79258">
        <ele>663</ele>
        <time>2019-04-07T08:40:05.579Z</time>
      </trkpt>
      <trkpt lat="44.38312" lon="2.79246">
        <ele>663</ele>
        <time>2019-04-07T08:40:08.579Z</time>
      </trkpt>
      <trkpt lat="44.38309" lon="2.7924">
        <ele>663.1389952</ele>
        <time>2019-04-07T08:40:10.579Z</time>
      </trkpt>
      <trkpt lat="44.38302" lon="2.79238">
        <ele>664</ele>
        <time>2019-04-07T08:40:14.579Z</time>
      </trkpt>
      <trkpt lat="44.38295" lon="2.79239">
        <ele>664</ele>
        <time>2019-04-07T08:40:18.579Z</time>
      </trkpt>
      <trkpt lat="44.3829" lon="2.79241">
        <ele>666</ele>
        <time>2019-04-07T08:40:21.579Z</time>
      </trkpt>
      <trkpt lat="44.38284" lon="2.79244">
        <ele>666</ele>
        <time>2019-04-07T08:40:25.579Z</time>
      </trkpt>
      <trkpt lat="44.38277" lon="2.79246">
        <ele>666</ele>
        <time>2019-04-07T08:40:29.579Z</time>
      </trkpt>
      <trkpt lat="44.38269" lon="2.79247">
        <ele>668</ele>
        <time>2019-04-07T08:40:33.579Z</time>
      </trkpt>
      <trkpt lat="44.38262" lon="2.79247">
        <ele>670</ele>
        <time>2019-04-07T08:40:37.579Z</time>
      </trkpt>
      <trkpt lat="44.38256" lon="2.79249">
        <ele>671</ele>
        <time>2019-04-07T08:40:41.579Z</time>
      </trkpt>
      <trkpt lat="44.3825" lon="2.79249">
        <ele>671.2779904</ele>
        <time>2019-04-07T08:40:45.579Z</time>
      </trkpt>
      <trkpt lat="44.38243" lon="2.79249">
        <ele>673.1389952</ele>
        <time>2019-04-07T08:40:50.579Z</time>
      </trkpt>
      <trkpt lat="44.38237" lon="2.79252">
        <ele>674</ele>
        <time>2019-04-07T08:40:54.579Z</time>
      </trkpt>
      <trkpt lat="44.38233" lon="2.79256">
        <ele>675</ele>
        <time>2019-04-07T08:40:57.579Z</time>
      </trkpt>
      <trkpt lat="44.38227" lon="2.7926">
        <ele>675</ele>
        <time>2019-04-07T08:41:01.579Z</time>
      </trkpt>
      <trkpt lat="44.38222" lon="2.79264">
        <ele>675</ele>
        <time>2019-04-07T08:41:04.579Z</time>
      </trkpt>
      <trkpt lat="44.38217" lon="2.79266">
        <ele>675</ele>
        <time>2019-04-07T08:41:07.579Z</time>
      </trkpt>
      <trkpt lat="44.38213" lon="2.79268">
        <ele>675.4169856</ele>
        <time>2019-04-07T08:41:10.579Z</time>
      </trkpt>
      <trkpt lat="44.38209" lon="2.7927">
        <ele>678</ele>
        <time>2019-04-07T08:41:12.579Z</time>
      </trkpt>
      <trkpt lat="44.38205" lon="2.79271">
        <ele>678</ele>
        <time>2019-04-07T08:41:14.579Z</time>
      </trkpt>
      <trkpt lat="44.38199" lon="2.79273">
        <ele>679</ele>
        <time>2019-04-07T08:41:17.579Z</time>
      </trkpt>
      <trkpt lat="44.38191" lon="2.79277">
        <ele>680</ele>
        <time>2019-04-07T08:41:21.579Z</time>
      </trkpt>
      <trkpt lat="44.38184" lon="2.79282">
        <ele>680</ele>
        <time>2019-04-07T08:41:26.579Z</time>
      </trkpt>
      <trkpt lat="44.38177" lon="2.79288">
        <ele>682</ele>
        <time>2019-04-07T08:41:31.579Z</time>
      </trkpt>
      <trkpt lat="44.38171" lon="2.79294">
        <ele>682</ele>
        <time>2019-04-07T08:41:37.579Z</time>
      </trkpt>
      <trkpt lat="44.38163" lon="2.793">
        <ele>684</ele>
        <time>2019-04-07T08:41:41.579Z</time>
      </trkpt>
      <trkpt lat="44.38156" lon="2.79299">
        <ele>684.4169856</ele>
        <time>2019-04-07T08:41:45.579Z</time>
      </trkpt>
      <trkpt lat="44.38147" lon="2.79296">
        <ele>688</ele>
        <time>2019-04-07T08:41:53.579Z</time>
      </trkpt>
      <trkpt lat="44.38137" lon="2.79297">
        <ele>690</ele>
        <time>2019-04-07T08:42:01.579Z</time>
      </trkpt>
      <trkpt lat="44.38127" lon="2.793">
        <ele>690</ele>
        <time>2019-04-07T08:42:05.579Z</time>
      </trkpt>
      <trkpt lat="44.38119" lon="2.79305">
        <ele>690.2779904</ele>
        <time>2019-04-07T08:42:10.579Z</time>
      </trkpt>
      <trkpt lat="44.38111" lon="2.79314">
        <ele>692</ele>
        <time>2019-04-07T08:42:16.579Z</time>
      </trkpt>
      <trkpt lat="44.38104" lon="2.7932">
        <ele>692.26060198593</ele>
        <time>2019-04-07T08:42:20.579Z</time>
      </trkpt>
      <trkpt lat="44.38098" lon="2.79326">
        <ele>694</ele>
        <time>2019-04-07T08:42:24.579Z</time>
      </trkpt>
      <trkpt lat="44.38091" lon="2.79332">
        <ele>695</ele>
        <time>2019-04-07T08:42:27.579Z</time>
      </trkpt>
      <trkpt lat="44.38082" lon="2.79341">
        <ele>696</ele>
        <time>2019-04-07T08:42:32.579Z</time>
      </trkpt>
      <trkpt lat="44.38073" lon="2.79351">
        <ele>696</ele>
        <time>2019-04-07T08:42:38.579Z</time>
      </trkpt>
      <trkpt lat="44.38065" lon="2.79359">
        <ele>698</ele>
        <time>2019-04-07T08:42:45.579Z</time>
      </trkpt>
      <trkpt lat="44.38055" lon="2.79367">
        <ele>700</ele>
        <time>2019-04-07T08:42:51.579Z</time>
      </trkpt>
      <trkpt lat="44.38045" lon="2.79372">
        <ele>700</ele>
        <time>2019-04-07T08:42:57.579Z</time>
      </trkpt>
      <trkpt lat="44.38038" lon="2.79375">
        <ele>703</ele>
        <time>2019-04-07T08:43:02.579Z</time>
      </trkpt>
      <trkpt lat="44.38032" lon="2.79377">
        <ele>705</ele>
        <time>2019-04-07T08:43:07.579Z</time>
      </trkpt>
      <trkpt lat="44.38026" lon="2.79381">
        <ele>707</ele>
        <time>2019-04-07T08:43:12.579Z</time>
      </trkpt>
      <trkpt lat="44.38022" lon="2.79383">
        <ele>707.2779904</ele>
        <time>2019-04-07T08:43:15.579Z</time>
      </trkpt>
      <trkpt lat="44.38017" lon="2.79386">
        <ele>709</ele>
        <time>2019-04-07T08:43:18.579Z</time>
      </trkpt>
      <trkpt lat="44.38012" lon="2.79391">
        <ele>710</ele>
        <time>2019-04-07T08:43:21.579Z</time>
      </trkpt>
      <trkpt lat="44.38006" lon="2.79397">
        <ele>710.13761944592</ele>
        <time>2019-04-07T08:43:25.579Z</time>
      </trkpt>
      <trkpt lat="44.38001" lon="2.79401">
        <ele>711</ele>
        <time>2019-04-07T08:43:28.579Z</time>
      </trkpt>
      <trkpt lat="44.37996" lon="2.79406">
        <ele>713</ele>
        <time>2019-04-07T08:43:32.579Z</time>
      </trkpt>
      <trkpt lat="44.3799" lon="2.79409">
        <ele>715</ele>
        <time>2019-04-07T08:43:36.579Z</time>
      </trkpt>
      <trkpt lat="44.37985" lon="2.79411">
        <ele>715</ele>
        <time>2019-04-07T08:43:40.579Z</time>
      </trkpt>
      <trkpt lat="44.37979" lon="2.79415">
        <ele>715</ele>
        <time>2019-04-07T08:43:43.579Z</time>
      </trkpt>
      <trkpt lat="44.37971" lon="2.79423">
        <ele>715</ele>
        <time>2019-04-07T08:43:48.579Z</time>
      </trkpt>
      <trkpt lat="44.37964" lon="2.79428">
        <ele>717</ele>
        <time>2019-04-07T08:43:51.579Z</time>
      </trkpt>
      <trkpt lat="44.37958" lon="2.79435">
        <ele>717</ele>
        <time>2019-04-07T08:43:55.579Z</time>
      </trkpt>
      <trkpt lat="44.37952" lon="2.79442">
        <ele>717</ele>
        <time>2019-04-07T08:43:59.579Z</time>
      </trkpt>
      <trkpt lat="44.37946" lon="2.79449">
        <ele>720</ele>
        <time>2019-04-07T08:44:03.579Z</time>
      </trkpt>
      <trkpt lat="44.37939" lon="2.79455">
        <ele>720</ele>
        <time>2019-04-07T08:44:07.579Z</time>
      </trkpt>
      <trkpt lat="44.37933" lon="2.79462">
        <ele>722</ele>
        <time>2019-04-07T08:44:11.579Z</time>
      </trkpt>
      <trkpt lat="44.37928" lon="2.79466">
        <ele>722</ele>
        <time>2019-04-07T08:44:17.579Z</time>
      </trkpt>
      <trkpt lat="44.37922" lon="2.79473">
        <ele>724</ele>
        <time>2019-04-07T08:44:23.579Z</time>
      </trkpt>
      <trkpt lat="44.37917" lon="2.7948">
        <ele>724</ele>
        <time>2019-04-07T08:44:26.579Z</time>
      </trkpt>
      <trkpt lat="44.37911" lon="2.79485">
        <ele>724</ele>
        <time>2019-04-07T08:44:29.579Z</time>
      </trkpt>
      <trkpt lat="44.37904" lon="2.79489">
        <ele>726</ele>
        <time>2019-04-07T08:44:32.579Z</time>
      </trkpt>
      <trkpt lat="44.37896" lon="2.79491">
        <ele>726</ele>
        <time>2019-04-07T08:44:35.579Z</time>
      </trkpt>
      <trkpt lat="44.3789" lon="2.79493">
        <ele>726</ele>
        <time>2019-04-07T08:44:37.579Z</time>
      </trkpt>
      <trkpt lat="44.37881" lon="2.79491">
        <ele>726.2779904</ele>
        <time>2019-04-07T08:44:40.579Z</time>
      </trkpt>
      <trkpt lat="44.37873" lon="2.79488">
        <ele>728</ele>
        <time>2019-04-07T08:44:43.579Z</time>
      </trkpt>
      <trkpt lat="44.37867" lon="2.7949">
        <ele>727.7220096</ele>
        <time>2019-04-07T08:44:50.579Z</time>
      </trkpt>
      <trkpt lat="44.37861" lon="2.79496">
        <ele>726</ele>
        <time>2019-04-07T08:44:53.579Z</time>
      </trkpt>
      <trkpt lat="44.37853" lon="2.79502">
        <ele>726</ele>
        <time>2019-04-07T08:44:56.579Z</time>
      </trkpt>
      <trkpt lat="44.37844" lon="2.79506">
        <ele>726</ele>
        <time>2019-04-07T08:44:59.579Z</time>
      </trkpt>
      <trkpt lat="44.37836" lon="2.79517">
        <ele>720</ele>
        <time>2019-04-07T08:45:02.579Z</time>
      </trkpt>
      <trkpt lat="44.37827" lon="2.79527">
        <ele>718.8610048</ele>
        <time>2019-04-07T08:45:04.579Z</time>
      </trkpt>
      <trkpt lat="44.37819" lon="2.79537">
        <ele>718</ele>
        <time>2019-04-07T08:45:06.579Z</time>
      </trkpt>
      <trkpt lat="44.37811" lon="2.7955">
        <ele>715.8610048</ele>
        <time>2019-04-07T08:45:09.579Z</time>
      </trkpt>
      <trkpt lat="44.37805" lon="2.79566">
        <ele>712.8610048</ele>
        <time>2019-04-07T08:45:12.579Z</time>
      </trkpt>
      <trkpt lat="44.378" lon="2.79583">
        <ele>711.8610048</ele>
        <time>2019-04-07T08:45:15.579Z</time>
      </trkpt>
      <trkpt lat="44.37798" lon="2.79604">
        <ele>709.8610048</ele>
        <time>2019-04-07T08:45:18.579Z</time>
      </trkpt>
      <trkpt lat="44.378" lon="2.79625">
        <ele>707.8610048</ele>
        <time>2019-04-07T08:45:21.579Z</time>
      </trkpt>
      <trkpt lat="44.37798" lon="2.79641">
        <ele>705.86969900703</ele>
        <time>2019-04-07T08:45:23.579Z</time>
      </trkpt>
      <trkpt lat="44.37796" lon="2.79654">
        <ele>704</ele>
        <time>2019-04-07T08:45:25.579Z</time>
      </trkpt>
      <trkpt lat="44.37791" lon="2.79674">
        <ele>702</ele>
        <time>2019-04-07T08:45:28.579Z</time>
      </trkpt>
      <trkpt lat="44.37787" lon="2.79687">
        <ele>701.8610048</ele>
        <time>2019-04-07T08:45:30.579Z</time>
      </trkpt>
      <trkpt lat="44.37782" lon="2.79703">
        <ele>698</ele>
        <time>2019-04-07T08:45:33.579Z</time>
      </trkpt>
      <trkpt lat="44.37779" lon="2.79717">
        <ele>695.8610048</ele>
        <time>2019-04-07T08:45:36.579Z</time>
      </trkpt>
      <trkpt lat="44.37781" lon="2.79731">
        <ele>693</ele>
        <time>2019-04-07T08:45:39.579Z</time>
      </trkpt>
      <trkpt lat="44.3779" lon="2.79745">
        <ele>691</ele>
        <time>2019-04-07T08:45:42.579Z</time>
      </trkpt>
      <trkpt lat="44.37781" lon="2.79754">
        <ele>689.1389952</ele>
        <time>2019-04-07T08:45:48.579Z</time>
      </trkpt>
      <trkpt lat="44.37775" lon="2.79743">
        <ele>690</ele>
        <time>2019-04-07T08:45:52.579Z</time>
      </trkpt>
      <trkpt lat="44.37765" lon="2.79733">
        <ele>690</ele>
        <time>2019-04-07T08:45:55.579Z</time>
      </trkpt>
      <trkpt lat="44.37754" lon="2.79728">
        <ele>690</ele>
        <time>2019-04-07T08:45:58.579Z</time>
      </trkpt>
      <trkpt lat="44.37744" lon="2.79719">
        <ele>692</ele>
        <time>2019-04-07T08:46:01.579Z</time>
      </trkpt>
      <trkpt lat="44.37734" lon="2.79708">
        <ele>692</ele>
        <time>2019-04-07T08:46:04.579Z</time>
      </trkpt>
      <trkpt lat="44.37722" lon="2.79701">
        <ele>692</ele>
        <time>2019-04-07T08:46:07.579Z</time>
      </trkpt>
      <trkpt lat="44.37713" lon="2.79694">
        <ele>692.1389952</ele>
        <time>2019-04-07T08:46:10.579Z</time>
      </trkpt>
      <trkpt lat="44.37703" lon="2.7969">
        <ele>693</ele>
        <time>2019-04-07T08:46:13.579Z</time>
      </trkpt>
      <trkpt lat="44.3769" lon="2.79686">
        <ele>693</ele>
        <time>2019-04-07T08:46:17.579Z</time>
      </trkpt>
      <trkpt lat="44.37678" lon="2.79683">
        <ele>695</ele>
        <time>2019-04-07T08:46:21.579Z</time>
      </trkpt>
      <trkpt lat="44.3767" lon="2.79676">
        <ele>695</ele>
        <time>2019-04-07T08:46:25.579Z</time>
      </trkpt>
      <trkpt lat="44.3766" lon="2.79665">
        <ele>695</ele>
        <time>2019-04-07T08:46:29.579Z</time>
      </trkpt>
      <trkpt lat="44.3765" lon="2.79654">
        <ele>698</ele>
        <time>2019-04-07T08:46:33.579Z</time>
      </trkpt>
      <trkpt lat="44.37641" lon="2.79641">
        <ele>699</ele>
        <time>2019-04-07T08:46:37.579Z</time>
      </trkpt>
      <trkpt lat="44.37633" lon="2.79627">
        <ele>700</ele>
        <time>2019-04-07T08:46:41.579Z</time>
      </trkpt>
      <trkpt lat="44.37624" lon="2.79614">
        <ele>700</ele>
        <time>2019-04-07T08:46:45.579Z</time>
      </trkpt>
      <trkpt lat="44.37617" lon="2.79603">
        <ele>700</ele>
        <time>2019-04-07T08:46:48.579Z</time>
      </trkpt>
      <trkpt lat="44.37607" lon="2.79593">
        <ele>701</ele>
        <time>2019-04-07T08:46:52.579Z</time>
      </trkpt>
      <trkpt lat="44.37597" lon="2.79584">
        <ele>701</ele>
        <time>2019-04-07T08:46:56.579Z</time>
      </trkpt>
      <trkpt lat="44.37588" lon="2.79574">
        <ele>701.2779904</ele>
        <time>2019-04-07T08:47:00.579Z</time>
      </trkpt>
      <trkpt lat="44.37581" lon="2.79562">
        <ele>703</ele>
        <time>2019-04-07T08:47:04.579Z</time>
      </trkpt>
      <trkpt lat="44.37577" lon="2.79554">
        <ele>703</ele>
        <time>2019-04-07T08:47:07.579Z</time>
      </trkpt>
      <trkpt lat="44.37572" lon="2.79546">
        <ele>703.2779904</ele>
        <time>2019-04-07T08:47:10.579Z</time>
      </trkpt>
      <trkpt lat="44.37568" lon="2.79535">
        <ele>705</ele>
        <time>2019-04-07T08:47:14.579Z</time>
      </trkpt>
      <trkpt lat="44.37563" lon="2.79525">
        <ele>705</ele>
        <time>2019-04-07T08:47:19.579Z</time>
      </trkpt>
      <trkpt lat="44.37559" lon="2.79512">
        <ele>707</ele>
        <time>2019-04-07T08:47:24.579Z</time>
      </trkpt>
      <trkpt lat="44.37555" lon="2.79502">
        <ele>707</ele>
        <time>2019-04-07T08:47:28.579Z</time>
      </trkpt>
      <trkpt lat="44.3755" lon="2.79491">
        <ele>708</ele>
        <time>2019-04-07T08:47:32.579Z</time>
      </trkpt>
      <trkpt lat="44.37547" lon="2.79481">
        <ele>708</ele>
        <time>2019-04-07T08:47:36.579Z</time>
      </trkpt>
      <trkpt lat="44.37545" lon="2.79473">
        <ele>708.1389952</ele>
        <time>2019-04-07T08:47:40.579Z</time>
      </trkpt>
      <trkpt lat="44.37543" lon="2.79465">
        <ele>709</ele>
        <time>2019-04-07T08:47:45.579Z</time>
      </trkpt>
      <trkpt lat="44.3754" lon="2.79455">
        <ele>709</ele>
        <time>2019-04-07T08:47:50.579Z</time>
      </trkpt>
      <trkpt lat="44.37536" lon="2.79443">
        <ele>710</ele>
        <time>2019-04-07T08:48:02.579Z</time>
      </trkpt>
      <trkpt lat="44.37533" lon="2.79431">
        <ele>710.1389952</ele>
        <time>2019-04-07T08:48:10.579Z</time>
      </trkpt>
      <trkpt lat="44.37532" lon="2.79416">
        <ele>711</ele>
        <time>2019-04-07T08:48:19.579Z</time>
      </trkpt>
      <trkpt lat="44.37531" lon="2.79402">
        <ele>712</ele>
        <time>2019-04-07T08:48:26.579Z</time>
      </trkpt>
      <trkpt lat="44.37534" lon="2.79389">
        <ele>712</ele>
        <time>2019-04-07T08:48:36.579Z</time>
      </trkpt>
      <trkpt lat="44.37537" lon="2.79376">
        <ele>714</ele>
        <time>2019-04-07T08:48:44.579Z</time>
      </trkpt>
      <trkpt lat="44.37538" lon="2.79361">
        <ele>714</ele>
        <time>2019-04-07T08:48:50.579Z</time>
      </trkpt>
      <trkpt lat="44.37541" lon="2.79346">
        <ele>714</ele>
        <time>2019-04-07T08:48:57.579Z</time>
      </trkpt>
      <trkpt lat="44.37544" lon="2.79334">
        <ele>716</ele>
        <time>2019-04-07T08:49:02.579Z</time>
      </trkpt>
      <trkpt lat="44.37545" lon="2.79322">
        <ele>716</ele>
        <time>2019-04-07T08:49:09.579Z</time>
      </trkpt>
      <trkpt lat="44.37545" lon="2.79308">
        <ele>716</ele>
        <time>2019-04-07T08:49:18.579Z</time>
      </trkpt>
      <trkpt lat="44.37546" lon="2.79294">
        <ele>717</ele>
        <time>2019-04-07T08:49:28.579Z</time>
      </trkpt>
      <trkpt lat="44.37544" lon="2.79281">
        <ele>718</ele>
        <time>2019-04-07T08:49:32.579Z</time>
      </trkpt>
      <trkpt lat="44.37545" lon="2.79264">
        <ele>718</ele>
        <time>2019-04-07T08:49:39.579Z</time>
      </trkpt>
      <trkpt lat="44.37543" lon="2.7925">
        <ele>720</ele>
        <time>2019-04-07T08:49:44.579Z</time>
      </trkpt>
      <trkpt lat="44.37543" lon="2.79233">
        <ele>720</ele>
        <time>2019-04-07T08:49:49.579Z</time>
      </trkpt>
      <trkpt lat="44.37543" lon="2.79218">
        <ele>721</ele>
        <time>2019-04-07T08:49:54.579Z</time>
      </trkpt>
      <trkpt lat="44.37545" lon="2.79204">
        <ele>721</ele>
        <time>2019-04-07T08:49:59.579Z</time>
      </trkpt>
      <trkpt lat="44.37545" lon="2.7919">
        <ele>723</ele>
        <time>2019-04-07T08:50:05.579Z</time>
      </trkpt>
      <trkpt lat="44.37546" lon="2.79175">
        <ele>724</ele>
        <time>2019-04-07T08:50:12.579Z</time>
      </trkpt>
      <trkpt lat="44.3755" lon="2.79161">
        <ele>724.2779904</ele>
        <time>2019-04-07T08:50:20.579Z</time>
      </trkpt>
      <trkpt lat="44.37553" lon="2.79144">
        <ele>726</ele>
        <time>2019-04-07T08:50:26.579Z</time>
      </trkpt>
      <trkpt lat="44.37554" lon="2.79133">
        <ele>726</ele>
        <time>2019-04-07T08:50:29.579Z</time>
      </trkpt>
      <trkpt lat="44.37553" lon="2.79119">
        <ele>728</ele>
        <time>2019-04-07T08:50:33.579Z</time>
      </trkpt>
      <trkpt lat="44.37552" lon="2.79105">
        <ele>728</ele>
        <time>2019-04-07T08:50:38.579Z</time>
      </trkpt>
      <trkpt lat="44.37551" lon="2.79093">
        <ele>729</ele>
        <time>2019-04-07T08:50:44.579Z</time>
      </trkpt>
      <trkpt lat="44.37551" lon="2.79082">
        <ele>729</ele>
        <time>2019-04-07T08:50:47.579Z</time>
      </trkpt>
      <trkpt lat="44.3755" lon="2.79073">
        <ele>729.2779904</ele>
        <time>2019-04-07T08:50:50.579Z</time>
      </trkpt>
      <trkpt lat="44.3755" lon="2.79065">
        <ele>731</ele>
        <time>2019-04-07T08:50:53.579Z</time>
      </trkpt>
      <trkpt lat="44.37551" lon="2.79057">
        <ele>731</ele>
        <time>2019-04-07T08:50:57.579Z</time>
      </trkpt>
      <trkpt lat="44.37551" lon="2.79046">
        <ele>732</ele>
        <time>2019-04-07T08:51:01.579Z</time>
      </trkpt>
      <trkpt lat="44.37552" lon="2.79031">
        <ele>732</ele>
        <time>2019-04-07T08:51:07.579Z</time>
      </trkpt>
      <trkpt lat="44.37547" lon="2.79022">
        <ele>734</ele>
        <time>2019-04-07T08:51:11.579Z</time>
      </trkpt>
      <trkpt lat="44.3754" lon="2.79015">
        <ele>734</ele>
        <time>2019-04-07T08:51:16.579Z</time>
      </trkpt>
      <trkpt lat="44.3753" lon="2.79013">
        <ele>735</ele>
        <time>2019-04-07T08:51:21.579Z</time>
      </trkpt>
      <trkpt lat="44.37523" lon="2.79011">
        <ele>735</ele>
        <time>2019-04-07T08:51:25.579Z</time>
      </trkpt>
      <trkpt lat="44.37516" lon="2.79004">
        <ele>735</ele>
        <time>2019-04-07T08:51:28.579Z</time>
      </trkpt>
      <trkpt lat="44.37511" lon="2.78994">
        <ele>737</ele>
        <time>2019-04-07T08:51:31.579Z</time>
      </trkpt>
      <trkpt lat="44.37505" lon="2.78983">
        <ele>737</ele>
        <time>2019-04-07T08:51:35.579Z</time>
      </trkpt>
      <trkpt lat="44.37502" lon="2.7897">
        <ele>737</ele>
        <time>2019-04-07T08:51:39.579Z</time>
      </trkpt>
      <trkpt lat="44.37498" lon="2.78959">
        <ele>738</ele>
        <time>2019-04-07T08:51:43.579Z</time>
      </trkpt>
      <trkpt lat="44.37492" lon="2.78946">
        <ele>738</ele>
        <time>2019-04-07T08:51:48.579Z</time>
      </trkpt>
      <trkpt lat="44.37489" lon="2.78929">
        <ele>739</ele>
        <time>2019-04-07T08:51:53.579Z</time>
      </trkpt>
      <trkpt lat="44.37484" lon="2.78914">
        <ele>739</ele>
        <time>2019-04-07T08:51:58.579Z</time>
      </trkpt>
      <trkpt lat="44.37481" lon="2.789">
        <ele>742</ele>
        <time>2019-04-07T08:52:02.579Z</time>
      </trkpt>
      <trkpt lat="44.3748" lon="2.78885">
        <ele>742</ele>
        <time>2019-04-07T08:52:06.579Z</time>
      </trkpt>
      <trkpt lat="44.37479" lon="2.78876">
        <ele>742</ele>
        <time>2019-04-07T08:52:08.579Z</time>
      </trkpt>
      <trkpt lat="44.37479" lon="2.78869">
        <ele>742.1389952</ele>
        <time>2019-04-07T08:52:10.579Z</time>
      </trkpt>
      <trkpt lat="44.37478" lon="2.78862">
        <ele>743</ele>
        <time>2019-04-07T08:52:12.579Z</time>
      </trkpt>
      <trkpt lat="44.37477" lon="2.78856">
        <ele>743</ele>
        <time>2019-04-07T08:52:14.579Z</time>
      </trkpt>
      <trkpt lat="44.37476" lon="2.78849">
        <ele>743</ele>
        <time>2019-04-07T08:52:16.579Z</time>
      </trkpt>
      <trkpt lat="44.37475" lon="2.78842">
        <ele>743</ele>
        <time>2019-04-07T08:52:19.579Z</time>
      </trkpt>
      <trkpt lat="44.37473" lon="2.78833">
        <ele>744</ele>
        <time>2019-04-07T08:52:22.579Z</time>
      </trkpt>
      <trkpt lat="44.37471" lon="2.78824">
        <ele>744</ele>
        <time>2019-04-07T08:52:25.579Z</time>
      </trkpt>
      <trkpt lat="44.3747" lon="2.78815">
        <ele>744</ele>
        <time>2019-04-07T08:52:28.579Z</time>
      </trkpt>
      <trkpt lat="44.37469" lon="2.78807">
        <ele>746</ele>
        <time>2019-04-07T08:52:31.579Z</time>
      </trkpt>
      <trkpt lat="44.37467" lon="2.78797">
        <ele>746</ele>
        <time>2019-04-07T08:52:34.579Z</time>
      </trkpt>
      <trkpt lat="44.37464" lon="2.7879">
        <ele>746</ele>
        <time>2019-04-07T08:52:37.579Z</time>
      </trkpt>
      <trkpt lat="44.37461" lon="2.78782">
        <ele>747</ele>
        <time>2019-04-07T08:52:41.579Z</time>
      </trkpt>
      <trkpt lat="44.37458" lon="2.78775">
        <ele>747</ele>
        <time>2019-04-07T08:52:44.579Z</time>
      </trkpt>
      <trkpt lat="44.37449" lon="2.78768">
        <ele>747.2779904</ele>
        <time>2019-04-07T08:52:50.579Z</time>
      </trkpt>
      <trkpt lat="44.37441" lon="2.78769">
        <ele>749</ele>
        <time>2019-04-07T08:52:54.579Z</time>
      </trkpt>
      <trkpt lat="44.37431" lon="2.78773">
        <ele>749</ele>
        <time>2019-04-07T08:52:58.579Z</time>
      </trkpt>
      <trkpt lat="44.37422" lon="2.78781">
        <ele>751</ele>
        <time>2019-04-07T08:53:02.579Z</time>
      </trkpt>
      <trkpt lat="44.37414" lon="2.78781">
        <ele>751</ele>
        <time>2019-04-07T08:53:05.579Z</time>
      </trkpt>
      <trkpt lat="44.37406" lon="2.78779">
        <ele>751</ele>
        <time>2019-04-07T08:53:08.579Z</time>
      </trkpt>
      <trkpt lat="44.374" lon="2.78774">
        <ele>752</ele>
        <time>2019-04-07T08:53:11.579Z</time>
      </trkpt>
      <trkpt lat="44.37394" lon="2.78764">
        <ele>752</ele>
        <time>2019-04-07T08:53:15.579Z</time>
      </trkpt>
      <trkpt lat="44.3739" lon="2.78752">
        <ele>752.2779904</ele>
        <time>2019-04-07T08:53:20.579Z</time>
      </trkpt>
      <trkpt lat="44.37387" lon="2.7874">
        <ele>754</ele>
        <time>2019-04-07T08:53:24.579Z</time>
      </trkpt>
      <trkpt lat="44.37385" lon="2.7873">
        <ele>754</ele>
        <time>2019-04-07T08:53:27.579Z</time>
      </trkpt>
      <trkpt lat="44.37383" lon="2.78719">
        <ele>754.2779904</ele>
        <time>2019-04-07T08:53:30.579Z</time>
      </trkpt>
      <trkpt lat="44.37382" lon="2.7871">
        <ele>756</ele>
        <time>2019-04-07T08:53:33.579Z</time>
      </trkpt>
      <trkpt lat="44.3738" lon="2.787">
        <ele>757</ele>
        <time>2019-04-07T08:53:36.579Z</time>
      </trkpt>
      <trkpt lat="44.37377" lon="2.78684">
        <ele>757</ele>
        <time>2019-04-07T08:53:40.579Z</time>
      </trkpt>
      <trkpt lat="44.37377" lon="2.78672">
        <ele>757</ele>
        <time>2019-04-07T08:53:44.579Z</time>
      </trkpt>
      <trkpt lat="44.37374" lon="2.78657">
        <ele>757</ele>
        <time>2019-04-07T08:53:49.579Z</time>
      </trkpt>
      <trkpt lat="44.37373" lon="2.78644">
        <ele>759</ele>
        <time>2019-04-07T08:53:52.579Z</time>
      </trkpt>
      <trkpt lat="44.37373" lon="2.7863">
        <ele>759</ele>
        <time>2019-04-07T08:53:56.579Z</time>
      </trkpt>
      <trkpt lat="44.37371" lon="2.78613">
        <ele>762</ele>
        <time>2019-04-07T08:54:01.579Z</time>
      </trkpt>
      <trkpt lat="44.3737" lon="2.78597">
        <ele>763</ele>
        <time>2019-04-07T08:54:06.579Z</time>
      </trkpt>
      <trkpt lat="44.37368" lon="2.78583">
        <ele>763.1389952</ele>
        <time>2019-04-07T08:54:10.579Z</time>
      </trkpt>
      <trkpt lat="44.37366" lon="2.78568">
        <ele>764</ele>
        <time>2019-04-07T08:54:14.579Z</time>
      </trkpt>
      <trkpt lat="44.37364" lon="2.78553">
        <ele>764</ele>
        <time>2019-04-07T08:54:18.579Z</time>
      </trkpt>
      <trkpt lat="44.37363" lon="2.78539">
        <ele>765</ele>
        <time>2019-04-07T08:54:23.579Z</time>
      </trkpt>
      <trkpt lat="44.37362" lon="2.78528">
        <ele>765</ele>
        <time>2019-04-07T08:54:26.579Z</time>
      </trkpt>
      <trkpt lat="44.37361" lon="2.78513">
        <ele>767</ele>
        <time>2019-04-07T08:54:31.579Z</time>
      </trkpt>
      <trkpt lat="44.37362" lon="2.78498">
        <ele>767</ele>
        <time>2019-04-07T08:54:36.579Z</time>
      </trkpt>
      <trkpt lat="44.37362" lon="2.78483">
        <ele>768</ele>
        <time>2019-04-07T08:54:41.579Z</time>
      </trkpt>
      <trkpt lat="44.3736" lon="2.78466">
        <ele>768</ele>
        <time>2019-04-07T08:54:46.579Z</time>
      </trkpt>
      <trkpt lat="44.3736" lon="2.78452">
        <ele>768.2779904</ele>
        <time>2019-04-07T08:54:50.579Z</time>
      </trkpt>
      <trkpt lat="44.3736" lon="2.78442">
        <ele>770</ele>
        <time>2019-04-07T08:54:53.579Z</time>
      </trkpt>
      <trkpt lat="44.3736" lon="2.78433">
        <ele>770</ele>
        <time>2019-04-07T08:54:56.579Z</time>
      </trkpt>
      <trkpt lat="44.37359" lon="2.78421">
        <ele>770.5559808</ele>
        <time>2019-04-07T08:55:00.579Z</time>
      </trkpt>
      <trkpt lat="44.37359" lon="2.78411">
        <ele>774</ele>
        <time>2019-04-07T08:55:04.579Z</time>
      </trkpt>
      <trkpt lat="44.37358" lon="2.78402">
        <ele>774</ele>
        <time>2019-04-07T08:55:07.579Z</time>
      </trkpt>
      <trkpt lat="44.37357" lon="2.7839">
        <ele>774</ele>
        <time>2019-04-07T08:55:11.579Z</time>
      </trkpt>
      <trkpt lat="44.37356" lon="2.78379">
        <ele>774</ele>
        <time>2019-04-07T08:55:15.579Z</time>
      </trkpt>
      <trkpt lat="44.37356" lon="2.78364">
        <ele>776</ele>
        <time>2019-04-07T08:55:21.579Z</time>
      </trkpt>
      <trkpt lat="44.37365" lon="2.78354">
        <ele>776</ele>
        <time>2019-04-07T08:55:25.579Z</time>
      </trkpt>
      <trkpt lat="44.37379" lon="2.78354">
        <ele>776</ele>
        <time>2019-04-07T08:55:28.579Z</time>
      </trkpt>
      <trkpt lat="44.37389" lon="2.78353">
        <ele>775.8610048</ele>
        <time>2019-04-07T08:55:30.579Z</time>
      </trkpt>
      <trkpt lat="44.37401" lon="2.7835">
        <ele>775</ele>
        <time>2019-04-07T08:55:32.579Z</time>
      </trkpt>
      <trkpt lat="44.37413" lon="2.78344">
        <ele>775</ele>
        <time>2019-04-07T08:55:34.579Z</time>
      </trkpt>
      <trkpt lat="44.37425" lon="2.78338">
        <ele>775</ele>
        <time>2019-04-07T08:55:36.579Z</time>
      </trkpt>
      <trkpt lat="44.37437" lon="2.7833">
        <ele>775</ele>
        <time>2019-04-07T08:55:38.579Z</time>
      </trkpt>
      <trkpt lat="44.3745" lon="2.78322">
        <ele>774.8610048</ele>
        <time>2019-04-07T08:55:40.579Z</time>
      </trkpt>
      <trkpt lat="44.37456" lon="2.78318">
        <ele>774</ele>
        <time>2019-04-07T08:55:41.579Z</time>
      </trkpt>
      <trkpt lat="44.3747" lon="2.78309">
        <ele>774</ele>
        <time>2019-04-07T08:55:43.579Z</time>
      </trkpt>
      <trkpt lat="44.37485" lon="2.783">
        <ele>774</ele>
        <time>2019-04-07T08:55:45.579Z</time>
      </trkpt>
      <trkpt lat="44.37501" lon="2.78291">
        <ele>774</ele>
        <time>2019-04-07T08:55:47.579Z</time>
      </trkpt>
      <trkpt lat="44.37518" lon="2.78282">
        <ele>774</ele>
        <time>2019-04-07T08:55:49.579Z</time>
      </trkpt>
      <trkpt lat="44.37535" lon="2.78271">
        <ele>770</ele>
        <time>2019-04-07T08:55:51.579Z</time>
      </trkpt>
      <trkpt lat="44.37543" lon="2.78266">
        <ele>770</ele>
        <time>2019-04-07T08:55:52.579Z</time>
      </trkpt>
      <trkpt lat="44.37552" lon="2.78261">
        <ele>770</ele>
        <time>2019-04-07T08:55:53.579Z</time>
      </trkpt>
      <trkpt lat="44.37561" lon="2.78255">
        <ele>770</ele>
        <time>2019-04-07T08:55:54.579Z</time>
      </trkpt>
      <trkpt lat="44.3757" lon="2.7825">
        <ele>769.4440192</ele>
        <time>2019-04-07T08:55:55.579Z</time>
      </trkpt>
      <trkpt lat="44.37579" lon="2.78245">
        <ele>766</ele>
        <time>2019-04-07T08:55:56.579Z</time>
      </trkpt>
      <trkpt lat="44.37588" lon="2.78239">
        <ele>766</ele>
        <time>2019-04-07T08:55:57.579Z</time>
      </trkpt>
      <trkpt lat="44.37596" lon="2.78233">
        <ele>766</ele>
        <time>2019-04-07T08:55:58.579Z</time>
      </trkpt>
      <trkpt lat="44.37605" lon="2.78228">
        <ele>766</ele>
        <time>2019-04-07T08:55:59.579Z</time>
      </trkpt>
      <trkpt lat="44.37614" lon="2.78224">
        <ele>765.5830144</ele>
        <time>2019-04-07T08:56:00.579Z</time>
      </trkpt>
      <trkpt lat="44.37623" lon="2.7822">
        <ele>763.1389952</ele>
        <time>2019-04-07T08:56:01.579Z</time>
      </trkpt>
      <trkpt lat="44.37631" lon="2.78216">
        <ele>763.8610048</ele>
        <time>2019-04-07T08:56:02.579Z</time>
      </trkpt>
      <trkpt lat="44.3764" lon="2.78214">
        <ele>762.8610048</ele>
        <time>2019-04-07T08:56:03.579Z</time>
      </trkpt>
      <trkpt lat="44.37655" lon="2.78207">
        <ele>760.8610048</ele>
        <time>2019-04-07T08:56:05.579Z</time>
      </trkpt>
      <trkpt lat="44.37666" lon="2.78199">
        <ele>760</ele>
        <time>2019-04-07T08:56:07.579Z</time>
      </trkpt>
      <trkpt lat="44.37673" lon="2.78198">
        <ele>760.1389952</ele>
        <time>2019-04-07T08:56:09.579Z</time>
      </trkpt>
      <trkpt lat="44.37676" lon="2.78207">
        <ele>761</ele>
        <time>2019-04-07T08:56:13.579Z</time>
      </trkpt>
      <trkpt lat="44.37681" lon="2.78212">
        <ele>761</ele>
        <time>2019-04-07T08:56:18.579Z</time>
      </trkpt>
      <trkpt lat="44.37687" lon="2.78206">
        <ele>764</ele>
        <time>2019-04-07T08:56:22.579Z</time>
      </trkpt>
      <trkpt lat="44.37692" lon="2.78201">
        <ele>764.1389952</ele>
        <time>2019-04-07T08:56:25.579Z</time>
      </trkpt>
      <trkpt lat="44.377" lon="2.78193">
        <ele>765</ele>
        <time>2019-04-07T08:56:29.579Z</time>
      </trkpt>
      <trkpt lat="44.3771" lon="2.78185">
        <ele>765</ele>
        <time>2019-04-07T08:56:33.579Z</time>
      </trkpt>
      <trkpt lat="44.37718" lon="2.78178">
        <ele>765</ele>
        <time>2019-04-07T08:56:36.579Z</time>
      </trkpt>
      <trkpt lat="44.37725" lon="2.78171">
        <ele>765</ele>
        <time>2019-04-07T08:56:39.579Z</time>
      </trkpt>
      <trkpt lat="44.37732" lon="2.78164">
        <ele>763</ele>
        <time>2019-04-07T08:56:41.579Z</time>
      </trkpt>
      <trkpt lat="44.37737" lon="2.78157">
        <ele>763</ele>
        <time>2019-04-07T08:56:43.579Z</time>
      </trkpt>
      <trkpt lat="44.37743" lon="2.78148">
        <ele>763</ele>
        <time>2019-04-07T08:56:46.579Z</time>
      </trkpt>
      <trkpt lat="44.37749" lon="2.7814">
        <ele>763</ele>
        <time>2019-04-07T08:56:49.579Z</time>
      </trkpt>
      <trkpt lat="44.37761" lon="2.78132">
        <ele>761</ele>
        <time>2019-04-07T08:56:53.579Z</time>
      </trkpt>
      <trkpt lat="44.37767" lon="2.78127">
        <ele>761</ele>
        <time>2019-04-07T08:56:55.579Z</time>
      </trkpt>
      <trkpt lat="44.37778" lon="2.78121">
        <ele>761</ele>
        <time>2019-04-07T08:56:58.579Z</time>
      </trkpt>
      <trkpt lat="44.37787" lon="2.78118">
        <ele>760.6090970211</ele>
        <time>2019-04-07T08:57:00.579Z</time>
      </trkpt>
      <trkpt lat="44.37798" lon="2.78111">
        <ele>758</ele>
        <time>2019-04-07T08:57:03.579Z</time>
      </trkpt>
      <trkpt lat="44.37805" lon="2.78103">
        <ele>757.8610048</ele>
        <time>2019-04-07T08:57:05.579Z</time>
      </trkpt>
      <trkpt lat="44.37815" lon="2.78093">
        <ele>757</ele>
        <time>2019-04-07T08:57:07.579Z</time>
      </trkpt>
      <trkpt lat="44.37823" lon="2.78084">
        <ele>757</ele>
        <time>2019-04-07T08:57:09.579Z</time>
      </trkpt>
      <trkpt lat="44.37831" lon="2.78077">
        <ele>757</ele>
        <time>2019-04-07T08:57:11.579Z</time>
      </trkpt>
      <trkpt lat="44.37842" lon="2.78068">
        <ele>757</ele>
        <time>2019-04-07T08:57:13.579Z</time>
      </trkpt>
      <trkpt lat="44.37852" lon="2.7806">
        <ele>757</ele>
        <time>2019-04-07T08:57:15.579Z</time>
      </trkpt>
      <trkpt lat="44.37861" lon="2.78052">
        <ele>757</ele>
        <time>2019-04-07T08:57:17.579Z</time>
      </trkpt>
      <trkpt lat="44.37871" lon="2.78047">
        <ele>757</ele>
        <time>2019-04-07T08:57:19.579Z</time>
      </trkpt>
      <trkpt lat="44.37884" lon="2.78053">
        <ele>754</ele>
        <time>2019-04-07T08:57:22.579Z</time>
      </trkpt>
      <trkpt lat="44.37892" lon="2.78064">
        <ele>754.1389952</ele>
        <time>2019-04-07T08:57:25.579Z</time>
      </trkpt>
      <trkpt lat="44.37896" lon="2.78078">
        <ele>757</ele>
        <time>2019-04-07T08:57:33.579Z</time>
      </trkpt>
      <trkpt lat="44.37901" lon="2.7809">
        <ele>758</ele>
        <time>2019-04-07T08:57:39.579Z</time>
      </trkpt>
      <trkpt lat="44.37906" lon="2.78102">
        <ele>761.2779904</ele>
        <time>2019-04-07T08:57:45.579Z</time>
      </trkpt>
      <trkpt lat="44.37911" lon="2.78111">
        <ele>765</ele>
        <time>2019-04-07T08:57:51.579Z</time>
      </trkpt>
      <trkpt lat="44.37921" lon="2.78115">
        <ele>767</ele>
        <time>2019-04-07T08:57:57.579Z</time>
      </trkpt>
      <trkpt lat="44.37929" lon="2.78119">
        <ele>768</ele>
        <time>2019-04-07T08:58:02.579Z</time>
      </trkpt>
      <trkpt lat="44.37936" lon="2.78122">
        <ele>770</ele>
        <time>2019-04-07T08:58:06.579Z</time>
      </trkpt>
      <trkpt lat="44.37944" lon="2.78123">
        <ele>770</ele>
        <time>2019-04-07T08:58:11.579Z</time>
      </trkpt>
      <trkpt lat="44.37951" lon="2.78123">
        <ele>771</ele>
        <time>2019-04-07T08:58:14.579Z</time>
      </trkpt>
      <trkpt lat="44.37959" lon="2.78124">
        <ele>771</ele>
        <time>2019-04-07T08:58:19.579Z</time>
      </trkpt>
      <trkpt lat="44.37968" lon="2.78126">
        <ele>773</ele>
        <time>2019-04-07T08:58:23.579Z</time>
      </trkpt>
      <trkpt lat="44.37976" lon="2.78128">
        <ele>773</ele>
        <time>2019-04-07T08:58:27.579Z</time>
      </trkpt>
      <trkpt lat="44.37988" lon="2.78128">
        <ele>773</ele>
        <time>2019-04-07T08:58:30.579Z</time>
      </trkpt>
      <trkpt lat="44.38" lon="2.78127">
        <ele>773</ele>
        <time>2019-04-07T08:58:33.579Z</time>
      </trkpt>
      <trkpt lat="44.3801" lon="2.78129">
        <ele>773</ele>
        <time>2019-04-07T08:58:37.579Z</time>
      </trkpt>
      <trkpt lat="44.38017" lon="2.78138">
        <ele>774</ele>
        <time>2019-04-07T08:58:41.579Z</time>
      </trkpt>
      <trkpt lat="44.38022" lon="2.7815">
        <ele>774</ele>
        <time>2019-04-07T08:58:45.579Z</time>
      </trkpt>
      <trkpt lat="44.38026" lon="2.78162">
        <ele>774</ele>
        <time>2019-04-07T08:58:49.579Z</time>
      </trkpt>
      <trkpt lat="44.3803" lon="2.78173">
        <ele>776</ele>
        <time>2019-04-07T08:58:52.579Z</time>
      </trkpt>
      <trkpt lat="44.38035" lon="2.78184">
        <ele>776</ele>
        <time>2019-04-07T08:58:55.579Z</time>
      </trkpt>
      <trkpt lat="44.38039" lon="2.78195">
        <ele>776</ele>
        <time>2019-04-07T08:58:58.579Z</time>
      </trkpt>
      <trkpt lat="44.38043" lon="2.78209">
        <ele>778</ele>
        <time>2019-04-07T08:59:02.579Z</time>
      </trkpt>
      <trkpt lat="44.38041" lon="2.78219">
        <ele>778</ele>
        <time>2019-04-07T08:59:05.579Z</time>
      </trkpt>
      <trkpt lat="44.38036" lon="2.78227">
        <ele>778</ele>
        <time>2019-04-07T08:59:09.579Z</time>
      </trkpt>
      <trkpt lat="44.38035" lon="2.78234">
        <ele>780</ele>
        <time>2019-04-07T08:59:12.579Z</time>
      </trkpt>
      <trkpt lat="44.38034" lon="2.78246">
        <ele>780</ele>
        <time>2019-04-07T08:59:17.579Z</time>
      </trkpt>
      <trkpt lat="44.38044" lon="2.78253">
        <ele>779.8610048</ele>
        <time>2019-04-07T08:59:20.579Z</time>
      </trkpt>
      <trkpt lat="44.38055" lon="2.78255">
        <ele>779</ele>
        <time>2019-04-07T08:59:22.579Z</time>
      </trkpt>
      <trkpt lat="44.38069" lon="2.78262">
        <ele>779</ele>
        <time>2019-04-07T08:59:25.579Z</time>
      </trkpt>
      <trkpt lat="44.38082" lon="2.78272">
        <ele>779</ele>
        <time>2019-04-07T08:59:27.579Z</time>
      </trkpt>
      <trkpt lat="44.38094" lon="2.78286">
        <ele>779</ele>
        <time>2019-04-07T08:59:29.579Z</time>
      </trkpt>
      <trkpt lat="44.38104" lon="2.783">
        <ele>767.1660288</ele>
        <time>2019-04-07T08:59:31.579Z</time>
      </trkpt>
      <trkpt lat="44.38111" lon="2.78312">
        <ele>761.8610048</ele>
        <time>2019-04-07T08:59:33.579Z</time>
      </trkpt>
      <trkpt lat="44.38122" lon="2.78299">
        <ele>754.73939801407</ele>
        <time>2019-04-07T08:59:40.579Z</time>
      </trkpt>
      <trkpt lat="44.3813" lon="2.78286">
        <ele>751.8610048</ele>
        <time>2019-04-07T08:59:42.579Z</time>
      </trkpt>
      <trkpt lat="44.38139" lon="2.78277">
        <ele>749.8610048</ele>
        <time>2019-04-07T08:59:44.579Z</time>
      </trkpt>
      <trkpt lat="44.3815" lon="2.78265">
        <ele>745.8610048</ele>
        <time>2019-04-07T08:59:46.579Z</time>
      </trkpt>
      <trkpt lat="44.38161" lon="2.78254">
        <ele>744</ele>
        <time>2019-04-07T08:59:48.579Z</time>
      </trkpt>
      <trkpt lat="44.38173" lon="2.78245">
        <ele>743</ele>
        <time>2019-04-07T08:59:50.579Z</time>
      </trkpt>
      <trkpt lat="44.38182" lon="2.7823">
        <ele>741.8610048</ele>
        <time>2019-04-07T08:59:53.579Z</time>
      </trkpt>
      <trkpt lat="44.3819" lon="2.78216">
        <ele>738.8610048</ele>
        <time>2019-04-07T08:59:56.579Z</time>
      </trkpt>
      <trkpt lat="44.38198" lon="2.78206">
        <ele>735</ele>
        <time>2019-04-07T08:59:59.579Z</time>
      </trkpt>
      <trkpt lat="44.38209" lon="2.78199">
        <ele>732.8610048</ele>
        <time>2019-04-07T09:00:02.579Z</time>
      </trkpt>
      <trkpt lat="44.38218" lon="2.78194">
        <ele>731.7220096</ele>
        <time>2019-04-07T09:00:04.579Z</time>
      </trkpt>
      <trkpt lat="44.3823" lon="2.78188">
        <ele>729</ele>
        <time>2019-04-07T09:00:06.579Z</time>
      </trkpt>
      <trkpt lat="44.3824" lon="2.78182">
        <ele>727.8610048</ele>
        <time>2019-04-07T09:00:08.579Z</time>
      </trkpt>
      <trkpt lat="44.38251" lon="2.78172">
        <ele>726</ele>
        <time>2019-04-07T09:00:11.579Z</time>
      </trkpt>
      <trkpt lat="44.38263" lon="2.78161">
        <ele>723</ele>
        <time>2019-04-07T09:00:14.579Z</time>
      </trkpt>
      <trkpt lat="44.38278" lon="2.78159">
        <ele>719.8610048</ele>
        <time>2019-04-07T09:00:17.579Z</time>
      </trkpt>
      <trkpt lat="44.38293" lon="2.78158">
        <ele>717</ele>
        <time>2019-04-07T09:00:20.579Z</time>
      </trkpt>
      <trkpt lat="44.38311" lon="2.78158">
        <ele>715.8610048</ele>
        <time>2019-04-07T09:00:22.579Z</time>
      </trkpt>
      <trkpt lat="44.38327" lon="2.78156">
        <ele>715</ele>
        <time>2019-04-07T09:00:24.579Z</time>
      </trkpt>
      <trkpt lat="44.38344" lon="2.78154">
        <ele>713.7220096</ele>
        <time>2019-04-07T09:00:26.579Z</time>
      </trkpt>
      <trkpt lat="44.38352" lon="2.78147">
        <ele>710.7220096</ele>
        <time>2019-04-07T09:00:28.579Z</time>
      </trkpt>
      <trkpt lat="44.38363" lon="2.78135">
        <ele>708</ele>
        <time>2019-04-07T09:00:31.579Z</time>
      </trkpt>
      <trkpt lat="44.38373" lon="2.78131">
        <ele>705.7220096</ele>
        <time>2019-04-07T09:00:34.579Z</time>
      </trkpt>
      <trkpt lat="44.38386" lon="2.78132">
        <ele>701.8610048</ele>
        <time>2019-04-07T09:00:37.579Z</time>
      </trkpt>
      <trkpt lat="44.38397" lon="2.78141">
        <ele>698.86969900703</ele>
        <time>2019-04-07T09:00:40.579Z</time>
      </trkpt>
      <trkpt lat="44.38409" lon="2.78147">
        <ele>697.7220096</ele>
        <time>2019-04-07T09:00:42.579Z</time>
      </trkpt>
      <trkpt lat="44.3842" lon="2.7814">
        <ele>694.8610048</ele>
        <time>2019-04-07T09:00:44.579Z</time>
      </trkpt>
      <trkpt lat="44.38433" lon="2.78152">
        <ele>693.8610048</ele>
        <time>2019-04-07T09:00:48.579Z</time>
      </trkpt>
      <trkpt lat="44.38438" lon="2.78166">
        <ele>692.8610048</ele>
        <time>2019-04-07T09:00:50.579Z</time>
      </trkpt>
      <trkpt lat="44.38443" lon="2.7818">
        <ele>691</ele>
        <time>2019-04-07T09:00:52.579Z</time>
      </trkpt>
      <trkpt lat="44.38446" lon="2.78194">
        <ele>690.8610048</ele>
        <time>2019-04-07T09:00:54.579Z</time>
      </trkpt>
      <trkpt lat="44.38451" lon="2.78207">
        <ele>690</ele>
        <time>2019-04-07T09:00:56.579Z</time>
      </trkpt>
      <trkpt lat="44.38455" lon="2.78224">
        <ele>689</ele>
        <time>2019-04-07T09:00:59.579Z</time>
      </trkpt>
      <trkpt lat="44.38456" lon="2.78243">
        <ele>686.8610048</ele>
        <time>2019-04-07T09:01:02.579Z</time>
      </trkpt>
      <trkpt lat="44.38468" lon="2.78241">
        <ele>683.8610048</ele>
        <time>2019-04-07T09:01:10.579Z</time>
      </trkpt>
      <trkpt lat="44.38476" lon="2.7823">
        <ele>683</ele>
        <time>2019-04-07T09:01:12.579Z</time>
      </trkpt>
      <trkpt lat="44.38486" lon="2.78216">
        <ele>683</ele>
        <time>2019-04-07T09:01:14.579Z</time>
      </trkpt>
      <trkpt lat="44.38495" lon="2.78203">
        <ele>681</ele>
        <time>2019-04-07T09:01:16.579Z</time>
      </trkpt>
      <trkpt lat="44.385" lon="2.7819">
        <ele>681</ele>
        <time>2019-04-07T09:01:18.579Z</time>
      </trkpt>
      <trkpt lat="44.38505" lon="2.78173">
        <ele>680.4440192</ele>
        <time>2019-04-07T09:01:20.579Z</time>
      </trkpt>
      <trkpt lat="44.3851" lon="2.78158">
        <ele>675</ele>
        <time>2019-04-07T09:01:22.579Z</time>
      </trkpt>
      <trkpt lat="44.38515" lon="2.78143">
        <ele>675</ele>
        <time>2019-04-07T09:01:24.579Z</time>
      </trkpt>
      <trkpt lat="44.3852" lon="2.78128">
        <ele>673.8610048</ele>
        <time>2019-04-07T09:01:26.579Z</time>
      </trkpt>
      <trkpt lat="44.38524" lon="2.78114">
        <ele>672</ele>
        <time>2019-04-07T09:01:28.579Z</time>
      </trkpt>
      <trkpt lat="44.38528" lon="2.78099">
        <ele>670.7220096</ele>
        <time>2019-04-07T09:01:30.579Z</time>
      </trkpt>
      <trkpt lat="44.3853" lon="2.78083">
        <ele>668</ele>
        <time>2019-04-07T09:01:32.579Z</time>
      </trkpt>
      <trkpt lat="44.38532" lon="2.78066">
        <ele>665.8610048</ele>
        <time>2019-04-07T09:01:34.579Z</time>
      </trkpt>
      <trkpt lat="44.38536" lon="2.7805">
        <ele>665</ele>
        <time>2019-04-07T09:01:36.579Z</time>
      </trkpt>
      <trkpt lat="44.38538" lon="2.78033">
        <ele>663</ele>
        <time>2019-04-07T09:01:39.579Z</time>
      </trkpt>
      <trkpt lat="44.38549" lon="2.78023">
        <ele>660.8610048</ele>
        <time>2019-04-07T09:01:43.579Z</time>
      </trkpt>
      <trkpt lat="44.38563" lon="2.78014">
        <ele>659.8610048</ele>
        <time>2019-04-07T09:01:46.579Z</time>
      </trkpt>
      <trkpt lat="44.38575" lon="2.78022">
        <ele>658.8610048</ele>
        <time>2019-04-07T09:01:48.579Z</time>
      </trkpt>
      <trkpt lat="44.38586" lon="2.78027">
        <ele>657</ele>
        <time>2019-04-07T09:01:50.579Z</time>
      </trkpt>
      <trkpt lat="44.38597" lon="2.78028">
        <ele>657</ele>
        <time>2019-04-07T09:01:52.579Z</time>
      </trkpt>
      <trkpt lat="44.38609" lon="2.78029">
        <ele>657</ele>
        <time>2019-04-07T09:01:54.579Z</time>
      </trkpt>
      <trkpt lat="44.38623" lon="2.78033">
        <ele>654</ele>
        <time>2019-04-07T09:01:57.579Z</time>
      </trkpt>
      <trkpt lat="44.38633" lon="2.7803">
        <ele>650</ele>
        <time>2019-04-07T09:02:01.579Z</time>
      </trkpt>
      <trkpt lat="44.38645" lon="2.78022">
        <ele>648</ele>
        <time>2019-04-07T09:02:05.579Z</time>
      </trkpt>
      <trkpt lat="44.38653" lon="2.78013">
        <ele>647</ele>
        <time>2019-04-07T09:02:08.579Z</time>
      </trkpt>
      <trkpt lat="44.38655" lon="2.77996">
        <ele>646</ele>
        <time>2019-04-07T09:02:11.579Z</time>
      </trkpt>
      <trkpt lat="44.38664" lon="2.77983">
        <ele>646</ele>
        <time>2019-04-07T09:02:14.579Z</time>
      </trkpt>
      <trkpt lat="44.38673" lon="2.77979">
        <ele>645</ele>
        <time>2019-04-07T09:02:16.579Z</time>
      </trkpt>
      <trkpt lat="44.38683" lon="2.77976">
        <ele>645</ele>
        <time>2019-04-07T09:02:18.579Z</time>
      </trkpt>
      <trkpt lat="44.38693" lon="2.77972">
        <ele>644.8610048</ele>
        <time>2019-04-07T09:02:20.579Z</time>
      </trkpt>
      <trkpt lat="44.38706" lon="2.77967">
        <ele>644</ele>
        <time>2019-04-07T09:02:22.579Z</time>
      </trkpt>
      <trkpt lat="44.38712" lon="2.77965">
        <ele>644</ele>
        <time>2019-04-07T09:02:23.579Z</time>
      </trkpt>
      <trkpt lat="44.38719" lon="2.77964">
        <ele>644</ele>
        <time>2019-04-07T09:02:24.579Z</time>
      </trkpt>
      <trkpt lat="44.38732" lon="2.77961">
        <ele>644</ele>
        <time>2019-04-07T09:02:26.579Z</time>
      </trkpt>
      <trkpt lat="44.38744" lon="2.77958">
        <ele>644</ele>
        <time>2019-04-07T09:02:28.579Z</time>
      </trkpt>
      <trkpt lat="44.38753" lon="2.77954">
        <ele>643.8610048</ele>
        <time>2019-04-07T09:02:30.579Z</time>
      </trkpt>
      <trkpt lat="44.38766" lon="2.77947">
        <ele>643</ele>
        <time>2019-04-07T09:02:33.579Z</time>
      </trkpt>
      <trkpt lat="44.38777" lon="2.7794">
        <ele>643</ele>
        <time>2019-04-07T09:02:36.579Z</time>
      </trkpt>
      <trkpt lat="44.38787" lon="2.77931">
        <ele>643</ele>
        <time>2019-04-07T09:02:39.579Z</time>
      </trkpt>
      <trkpt lat="44.38798" lon="2.77922">
        <ele>644</ele>
        <time>2019-04-07T09:02:42.579Z</time>
      </trkpt>
      <trkpt lat="44.38804" lon="2.77911">
        <ele>644</ele>
        <time>2019-04-07T09:02:45.579Z</time>
      </trkpt>
      <trkpt lat="44.38814" lon="2.77901">
        <ele>644</ele>
        <time>2019-04-07T09:02:48.579Z</time>
      </trkpt>
      <trkpt lat="44.38821" lon="2.77894">
        <ele>644.1389952</ele>
        <time>2019-04-07T09:02:50.579Z</time>
      </trkpt>
      <trkpt lat="44.38833" lon="2.77885">
        <ele>645</ele>
        <time>2019-04-07T09:02:53.579Z</time>
      </trkpt>
      <trkpt lat="44.38837" lon="2.77881">
        <ele>645</ele>
        <time>2019-04-07T09:02:54.579Z</time>
      </trkpt>
      <trkpt lat="44.38841" lon="2.77877">
        <ele>645</ele>
        <time>2019-04-07T09:02:55.579Z</time>
      </trkpt>
      <trkpt lat="44.38848" lon="2.77869">
        <ele>645</ele>
        <time>2019-04-07T09:02:57.579Z</time>
      </trkpt>
      <trkpt lat="44.38856" lon="2.7786">
        <ele>645</ele>
        <time>2019-04-07T09:02:59.579Z</time>
      </trkpt>
      <trkpt lat="44.38868" lon="2.77852">
        <ele>644</ele>
        <time>2019-04-07T09:03:01.579Z</time>
      </trkpt>
      <trkpt lat="44.38881" lon="2.77844">
        <ele>644</ele>
        <time>2019-04-07T09:03:03.579Z</time>
      </trkpt>
      <trkpt lat="44.38893" lon="2.77839">
        <ele>644</ele>
        <time>2019-04-07T09:03:05.579Z</time>
      </trkpt>
      <trkpt lat="44.38906" lon="2.77834">
        <ele>644</ele>
        <time>2019-04-07T09:03:07.579Z</time>
      </trkpt>
      <trkpt lat="44.38921" lon="2.77827">
        <ele>644</ele>
        <time>2019-04-07T09:03:09.579Z</time>
      </trkpt>
      <trkpt lat="44.38938" lon="2.7782">
        <ele>639</ele>
        <time>2019-04-07T09:03:11.579Z</time>
      </trkpt>
      <trkpt lat="44.38952" lon="2.77812">
        <ele>639</ele>
        <time>2019-04-07T09:03:13.579Z</time>
      </trkpt>
      <trkpt lat="44.38964" lon="2.77806">
        <ele>638.2181940422</ele>
        <time>2019-04-07T09:03:15.579Z</time>
      </trkpt>
      <trkpt lat="44.38977" lon="2.778">
        <ele>633</ele>
        <time>2019-04-07T09:03:17.579Z</time>
      </trkpt>
      <trkpt lat="44.38988" lon="2.77794">
        <ele>633</ele>
        <time>2019-04-07T09:03:19.579Z</time>
      </trkpt>
      <trkpt lat="44.39" lon="2.77786">
        <ele>626.7220096</ele>
        <time>2019-04-07T09:03:21.579Z</time>
      </trkpt>
      <trkpt lat="44.39008" lon="2.77775">
        <ele>623.8610048</ele>
        <time>2019-04-07T09:03:23.579Z</time>
      </trkpt>
      <trkpt lat="44.39019" lon="2.77766">
        <ele>621.7220096</ele>
        <time>2019-04-07T09:03:25.579Z</time>
      </trkpt>
      <trkpt lat="44.39033" lon="2.77759">
        <ele>618</ele>
        <time>2019-04-07T09:03:27.579Z</time>
      </trkpt>
      <trkpt lat="44.39049" lon="2.77755">
        <ele>616.7220096</ele>
        <time>2019-04-07T09:03:29.579Z</time>
      </trkpt>
      <trkpt lat="44.3906" lon="2.7775">
        <ele>613.8610048</ele>
        <time>2019-04-07T09:03:31.579Z</time>
      </trkpt>
      <trkpt lat="44.39072" lon="2.77747">
        <ele>611.8610048</ele>
        <time>2019-04-07T09:03:33.579Z</time>
      </trkpt>
      <trkpt lat="44.39084" lon="2.77744">
        <ele>609.8610048</ele>
        <time>2019-04-07T09:03:35.579Z</time>
      </trkpt>
      <trkpt lat="44.39097" lon="2.77746">
        <ele>607.7220096</ele>
        <time>2019-04-07T09:03:37.579Z</time>
      </trkpt>
      <trkpt lat="44.39107" lon="2.7775">
        <ele>605</ele>
        <time>2019-04-07T09:03:39.579Z</time>
      </trkpt>
      <trkpt lat="44.39117" lon="2.77752">
        <ele>603.7220096</ele>
        <time>2019-04-07T09:03:41.579Z</time>
      </trkpt>
      <trkpt lat="44.39126" lon="2.77755">
        <ele>601</ele>
        <time>2019-04-07T09:03:43.579Z</time>
      </trkpt>
      <trkpt lat="44.39136" lon="2.77758">
        <ele>600</ele>
        <time>2019-04-07T09:03:45.579Z</time>
      </trkpt>
      <trkpt lat="44.3915" lon="2.77759">
        <ele>599</ele>
        <time>2019-04-07T09:03:48.579Z</time>
      </trkpt>
      <trkpt lat="44.3916" lon="2.7776">
        <ele>598</ele>
        <time>2019-04-07T09:03:50.579Z</time>
      </trkpt>
      <trkpt lat="44.39172" lon="2.77759">
        <ele>596</ele>
        <time>2019-04-07T09:03:53.579Z</time>
      </trkpt>
      <trkpt lat="44.39166" lon="2.77748">
        <ele>596</ele>
        <time>2019-04-07T09:03:58.579Z</time>
      </trkpt>
      <trkpt lat="44.39156" lon="2.77746">
        <ele>596</ele>
        <time>2019-04-07T09:04:02.579Z</time>
      </trkpt>
      <trkpt lat="44.39146" lon="2.77741">
        <ele>596</ele>
        <time>2019-04-07T09:04:05.579Z</time>
      </trkpt>
      <trkpt lat="44.39139" lon="2.77737">
        <ele>596</ele>
        <time>2019-04-07T09:04:08.579Z</time>
      </trkpt>
      <trkpt lat="44.39131" lon="2.77732">
        <ele>598</ele>
        <time>2019-04-07T09:04:11.579Z</time>
      </trkpt>
      <trkpt lat="44.39124" lon="2.77721">
        <ele>598</ele>
        <time>2019-04-07T09:04:14.579Z</time>
      </trkpt>
      <trkpt lat="44.39119" lon="2.77711">
        <ele>598</ele>
        <time>2019-04-07T09:04:16.579Z</time>
      </trkpt>
      <trkpt lat="44.39109" lon="2.77699">
        <ele>598</ele>
        <time>2019-04-07T09:04:19.579Z</time>
      </trkpt>
      <trkpt lat="44.39098" lon="2.77686">
        <ele>599</ele>
        <time>2019-04-07T09:04:22.579Z</time>
      </trkpt>
      <trkpt lat="44.39089" lon="2.77677">
        <ele>599</ele>
        <time>2019-04-07T09:04:24.579Z</time>
      </trkpt>
      <trkpt lat="44.3908" lon="2.77669">
        <ele>599</ele>
        <time>2019-04-07T09:04:26.579Z</time>
      </trkpt>
      <trkpt lat="44.39071" lon="2.77661">
        <ele>599</ele>
        <time>2019-04-07T09:04:28.579Z</time>
      </trkpt>
      <trkpt lat="44.39061" lon="2.77654">
        <ele>599</ele>
        <time>2019-04-07T09:04:30.579Z</time>
      </trkpt>
      <trkpt lat="44.39051" lon="2.77652">
        <ele>599</ele>
        <time>2019-04-07T09:04:32.579Z</time>
      </trkpt>
      <trkpt lat="44.3904" lon="2.77653">
        <ele>599</ele>
        <time>2019-04-07T09:04:34.579Z</time>
      </trkpt>
      <trkpt lat="44.39029" lon="2.77652">
        <ele>599</ele>
        <time>2019-04-07T09:04:36.579Z</time>
      </trkpt>
      <trkpt lat="44.39019" lon="2.77651">
        <ele>599</ele>
        <time>2019-04-07T09:04:38.579Z</time>
      </trkpt>
      <trkpt lat="44.39008" lon="2.77652">
        <ele>599</ele>
        <time>2019-04-07T09:04:40.579Z</time>
      </trkpt>
      <trkpt lat="44.38998" lon="2.77653">
        <ele>599</ele>
        <time>2019-04-07T09:04:42.579Z</time>
      </trkpt>
      <trkpt lat="44.38984" lon="2.7765">
        <ele>599</ele>
        <time>2019-04-07T09:04:45.579Z</time>
      </trkpt>
      <trkpt lat="44.38971" lon="2.77646">
        <ele>599</ele>
        <time>2019-04-07T09:04:48.579Z</time>
      </trkpt>
      <trkpt lat="44.38959" lon="2.77642">
        <ele>600</ele>
        <time>2019-04-07T09:04:51.579Z</time>
      </trkpt>
      <trkpt lat="44.38946" lon="2.7764">
        <ele>600</ele>
        <time>2019-04-07T09:04:54.579Z</time>
      </trkpt>
      <trkpt lat="44.38934" lon="2.77639">
        <ele>600</ele>
        <time>2019-04-07T09:04:56.579Z</time>
      </trkpt>
      <trkpt lat="44.38923" lon="2.77637">
        <ele>600</ele>
        <time>2019-04-07T09:04:58.579Z</time>
      </trkpt>
      <trkpt lat="44.38913" lon="2.77635">
        <ele>600</ele>
        <time>2019-04-07T09:05:00.579Z</time>
      </trkpt>
      <trkpt lat="44.38901" lon="2.77634">
        <ele>600</ele>
        <time>2019-04-07T09:05:02.579Z</time>
      </trkpt>
      <trkpt lat="44.3889" lon="2.77637">
        <ele>600</ele>
        <time>2019-04-07T09:05:04.579Z</time>
      </trkpt>
      <trkpt lat="44.3888" lon="2.77642">
        <ele>600</ele>
        <time>2019-04-07T09:05:06.579Z</time>
      </trkpt>
      <trkpt lat="44.38871" lon="2.77647">
        <ele>600</ele>
        <time>2019-04-07T09:05:08.579Z</time>
      </trkpt>
      <trkpt lat="44.38861" lon="2.77651">
        <ele>600</ele>
        <time>2019-04-07T09:05:10.579Z</time>
      </trkpt>
      <trkpt lat="44.3885" lon="2.77658">
        <ele>600</ele>
        <time>2019-04-07T09:05:12.579Z</time>
      </trkpt>
      <trkpt lat="44.3884" lon="2.77665">
        <ele>600</ele>
        <time>2019-04-07T09:05:14.579Z</time>
      </trkpt>
      <trkpt lat="44.38829" lon="2.77675">
        <ele>600</ele>
        <time>2019-04-07T09:05:16.579Z</time>
      </trkpt>
      <trkpt lat="44.38821" lon="2.77684">
        <ele>600</ele>
        <time>2019-04-07T09:05:18.579Z</time>
      </trkpt>
      <trkpt lat="44.38812" lon="2.77694">
        <ele>602</ele>
        <time>2019-04-07T09:05:21.579Z</time>
      </trkpt>
      <trkpt lat="44.38801" lon="2.77705">
        <ele>602</ele>
        <time>2019-04-07T09:05:24.579Z</time>
      </trkpt>
      <trkpt lat="44.3879" lon="2.77713">
        <ele>602</ele>
        <time>2019-04-07T09:05:26.579Z</time>
      </trkpt>
      <trkpt lat="44.38779" lon="2.7772">
        <ele>602</ele>
        <time>2019-04-07T09:05:29.579Z</time>
      </trkpt>
      <trkpt lat="44.38768" lon="2.77722">
        <ele>604</ele>
        <time>2019-04-07T09:05:32.579Z</time>
      </trkpt>
      <trkpt lat="44.38757" lon="2.77717">
        <ele>604</ele>
        <time>2019-04-07T09:05:35.579Z</time>
      </trkpt>
      <trkpt lat="44.38745" lon="2.77716">
        <ele>604</ele>
        <time>2019-04-07T09:05:38.579Z</time>
      </trkpt>
      <trkpt lat="44.38732" lon="2.77715">
        <ele>606</ele>
        <time>2019-04-07T09:05:42.579Z</time>
      </trkpt>
      <trkpt lat="44.38721" lon="2.77711">
        <ele>606</ele>
        <time>2019-04-07T09:05:45.579Z</time>
      </trkpt>
      <trkpt lat="44.3871" lon="2.77714">
        <ele>606.2779904</ele>
        <time>2019-04-07T09:05:50.579Z</time>
      </trkpt>
      <trkpt lat="44.38697" lon="2.77715">
        <ele>608</ele>
        <time>2019-04-07T09:05:54.579Z</time>
      </trkpt>
      <trkpt lat="44.38686" lon="2.7771">
        <ele>608</ele>
        <time>2019-04-07T09:05:58.579Z</time>
      </trkpt>
      <trkpt lat="44.38677" lon="2.77705">
        <ele>609</ele>
        <time>2019-04-07T09:06:01.579Z</time>
      </trkpt>
      <trkpt lat="44.38667" lon="2.77702">
        <ele>609</ele>
        <time>2019-04-07T09:06:04.579Z</time>
      </trkpt>
      <trkpt lat="44.38656" lon="2.77701">
        <ele>609</ele>
        <time>2019-04-07T09:06:08.579Z</time>
      </trkpt>
      <trkpt lat="44.38645" lon="2.77698">
        <ele>610</ele>
        <time>2019-04-07T09:06:12.579Z</time>
      </trkpt>
      <trkpt lat="44.38634" lon="2.77692">
        <ele>610</ele>
        <time>2019-04-07T09:06:17.579Z</time>
      </trkpt>
      <trkpt lat="44.38622" lon="2.7769">
        <ele>612</ele>
        <time>2019-04-07T09:06:21.579Z</time>
      </trkpt>
      <trkpt lat="44.3861" lon="2.77686">
        <ele>612</ele>
        <time>2019-04-07T09:06:26.579Z</time>
      </trkpt>
      <trkpt lat="44.386" lon="2.77687">
        <ele>612.4169856</ele>
        <time>2019-04-07T09:06:30.579Z</time>
      </trkpt>
      <trkpt lat="44.3859" lon="2.77692">
        <ele>615</ele>
        <time>2019-04-07T09:06:35.579Z</time>
      </trkpt>
      <trkpt lat="44.38579" lon="2.77696">
        <ele>615</ele>
        <time>2019-04-07T09:06:39.579Z</time>
      </trkpt>
      <trkpt lat="44.38568" lon="2.777">
        <ele>617</ele>
        <time>2019-04-07T09:06:44.579Z</time>
      </trkpt>
      <trkpt lat="44.38558" lon="2.77703">
        <ele>617.2779904</ele>
        <time>2019-04-07T09:06:50.579Z</time>
      </trkpt>
      <trkpt lat="44.38547" lon="2.77706">
        <ele>621</ele>
        <time>2019-04-07T09:06:57.579Z</time>
      </trkpt>
      <trkpt lat="44.38537" lon="2.77708">
        <ele>621</ele>
        <time>2019-04-07T09:07:02.579Z</time>
      </trkpt>
      <trkpt lat="44.38526" lon="2.77712">
        <ele>621</ele>
        <time>2019-04-07T09:07:08.579Z</time>
      </trkpt>
      <trkpt lat="44.38515" lon="2.77715">
        <ele>623</ele>
        <time>2019-04-07T09:07:13.579Z</time>
      </trkpt>
      <trkpt lat="44.38504" lon="2.77716">
        <ele>623</ele>
        <time>2019-04-07T09:07:17.579Z</time>
      </trkpt>
      <trkpt lat="44.38493" lon="2.77715">
        <ele>626</ele>
        <time>2019-04-07T09:07:21.579Z</time>
      </trkpt>
      <trkpt lat="44.38483" lon="2.7771">
        <ele>627</ele>
        <time>2019-04-07T09:07:26.579Z</time>
      </trkpt>
      <trkpt lat="44.38474" lon="2.77704">
        <ele>628</ele>
        <time>2019-04-07T09:07:32.579Z</time>
      </trkpt>
      <trkpt lat="44.38465" lon="2.77699">
        <ele>628</ele>
        <time>2019-04-07T09:07:37.579Z</time>
      </trkpt>
      <trkpt lat="44.38454" lon="2.77697">
        <ele>630</ele>
        <time>2019-04-07T09:07:42.579Z</time>
      </trkpt>
      <trkpt lat="44.38446" lon="2.77687">
        <ele>630</ele>
        <time>2019-04-07T09:07:47.579Z</time>
      </trkpt>
      <trkpt lat="44.38436" lon="2.77679">
        <ele>631</ele>
        <time>2019-04-07T09:07:52.579Z</time>
      </trkpt>
      <trkpt lat="44.38427" lon="2.7767">
        <ele>631</ele>
        <time>2019-04-07T09:07:55.579Z</time>
      </trkpt>
      <trkpt lat="44.38418" lon="2.7766">
        <ele>631</ele>
        <time>2019-04-07T09:07:58.579Z</time>
      </trkpt>
      <trkpt lat="44.38409" lon="2.7765">
        <ele>631</ele>
        <time>2019-04-07T09:08:01.579Z</time>
      </trkpt>
      <trkpt lat="44.38399" lon="2.77641">
        <ele>631</ele>
        <time>2019-04-07T09:08:05.579Z</time>
      </trkpt>
      <trkpt lat="44.3839" lon="2.77633">
        <ele>631</ele>
        <time>2019-04-07T09:08:08.579Z</time>
      </trkpt>
      <trkpt lat="44.38381" lon="2.77627">
        <ele>633</ele>
        <time>2019-04-07T09:08:11.579Z</time>
      </trkpt>
      <trkpt lat="44.3837" lon="2.77623">
        <ele>633</ele>
        <time>2019-04-07T09:08:17.579Z</time>
      </trkpt>
      <trkpt lat="44.38361" lon="2.77621">
        <ele>636</ele>
        <time>2019-04-07T09:08:21.579Z</time>
      </trkpt>
      <trkpt lat="44.38353" lon="2.77616">
        <ele>636.1389952</ele>
        <time>2019-04-07T09:08:25.579Z</time>
      </trkpt>
      <trkpt lat="44.38344" lon="2.77608">
        <ele>638</ele>
        <time>2019-04-07T09:08:33.579Z</time>
      </trkpt>
      <trkpt lat="44.38333" lon="2.77602">
        <ele>639.1389952</ele>
        <time>2019-04-07T09:08:40.579Z</time>
      </trkpt>
      <trkpt lat="44.38324" lon="2.77596">
        <ele>640</ele>
        <time>2019-04-07T09:08:46.579Z</time>
      </trkpt>
      <trkpt lat="44.38316" lon="2.77592">
        <ele>642</ele>
        <time>2019-04-07T09:08:51.579Z</time>
      </trkpt>
      <trkpt lat="44.38307" lon="2.77588">
        <ele>642</ele>
        <time>2019-04-07T09:08:56.579Z</time>
      </trkpt>
      <trkpt lat="44.38301" lon="2.77583">
        <ele>642.4169856</ele>
        <time>2019-04-07T09:09:00.579Z</time>
      </trkpt>
      <trkpt lat="44.38293" lon="2.77576">
        <ele>646</ele>
        <time>2019-04-07T09:09:07.579Z</time>
      </trkpt>
      <trkpt lat="44.38286" lon="2.77571">
        <ele>648</ele>
        <time>2019-04-07T09:09:12.579Z</time>
      </trkpt>
      <trkpt lat="44.38277" lon="2.77563">
        <ele>649</ele>
        <time>2019-04-07T09:09:18.579Z</time>
      </trkpt>
      <trkpt lat="44.38272" lon="2.77556">
        <ele>651</ele>
        <time>2019-04-07T09:09:22.579Z</time>
      </trkpt>
      <trkpt lat="44.38267" lon="2.77549">
        <ele>653</ele>
        <time>2019-04-07T09:09:26.579Z</time>
      </trkpt>
      <trkpt lat="44.38262" lon="2.77543">
        <ele>653.1389952</ele>
        <time>2019-04-07T09:09:30.579Z</time>
      </trkpt>
      <trkpt lat="44.38256" lon="2.77535">
        <ele>654</ele>
        <time>2019-04-07T09:09:34.579Z</time>
      </trkpt>
      <trkpt lat="44.3825" lon="2.77524">
        <ele>655.2779904</ele>
        <time>2019-04-07T09:09:40.579Z</time>
      </trkpt>
      <trkpt lat="44.38243" lon="2.77512">
        <ele>658</ele>
        <time>2019-04-07T09:09:48.579Z</time>
      </trkpt>
      <trkpt lat="44.38233" lon="2.77507">
        <ele>660</ele>
        <time>2019-04-07T09:09:54.579Z</time>
      </trkpt>
      <trkpt lat="44.38224" lon="2.77502">
        <ele>663</ele>
        <time>2019-04-07T09:10:01.579Z</time>
      </trkpt>
      <trkpt lat="44.38215" lon="2.77494">
        <ele>663</ele>
        <time>2019-04-07T09:10:09.579Z</time>
      </trkpt>
      <trkpt lat="44.38204" lon="2.77489">
        <ele>667</ele>
        <time>2019-04-07T09:10:17.579Z</time>
      </trkpt>
      <trkpt lat="44.38194" lon="2.77485">
        <ele>668</ele>
        <time>2019-04-07T09:10:23.579Z</time>
      </trkpt>
      <trkpt lat="44.38184" lon="2.7748">
        <ele>669</ele>
        <time>2019-04-07T09:10:32.579Z</time>
      </trkpt>
      <trkpt lat="44.38175" lon="2.77472">
        <ele>669</ele>
        <time>2019-04-07T09:10:38.579Z</time>
      </trkpt>
      <trkpt lat="44.38162" lon="2.77471">
        <ele>671</ele>
        <time>2019-04-07T09:10:44.579Z</time>
      </trkpt>
      <trkpt lat="44.38152" lon="2.77474">
        <ele>671</ele>
        <time>2019-04-07T09:10:47.579Z</time>
      </trkpt>
      <trkpt lat="44.38142" lon="2.77477">
        <ele>672</ele>
        <time>2019-04-07T09:10:51.579Z</time>
      </trkpt>
      <trkpt lat="44.38132" lon="2.77469">
        <ele>672</ele>
        <time>2019-04-07T09:10:58.579Z</time>
      </trkpt>
      <trkpt lat="44.38123" lon="2.77462">
        <ele>673</ele>
        <time>2019-04-07T09:11:04.579Z</time>
      </trkpt>
      <trkpt lat="44.38113" lon="2.77458">
        <ele>675</ele>
        <time>2019-04-07T09:11:11.579Z</time>
      </trkpt>
      <trkpt lat="44.38102" lon="2.77455">
        <ele>675</ele>
        <time>2019-04-07T09:11:18.579Z</time>
      </trkpt>
      <trkpt lat="44.38092" lon="2.77448">
        <ele>677</ele>
        <time>2019-04-07T09:11:26.579Z</time>
      </trkpt>
      <trkpt lat="44.38081" lon="2.77446">
        <ele>680</ele>
        <time>2019-04-07T09:11:33.579Z</time>
      </trkpt>
      <trkpt lat="44.3807" lon="2.77441">
        <ele>681.1389952</ele>
        <time>2019-04-07T09:11:40.579Z</time>
      </trkpt>
      <trkpt lat="44.3806" lon="2.77437">
        <ele>682.1389952</ele>
        <time>2019-04-07T09:11:50.579Z</time>
      </trkpt>
      <trkpt lat="44.3807" lon="2.7743">
        <ele>683</ele>
        <time>2019-04-07T09:11:58.579Z</time>
      </trkpt>
      <trkpt lat="44.38082" lon="2.77428">
        <ele>685</ele>
        <time>2019-04-07T09:12:03.579Z</time>
      </trkpt>
      <trkpt lat="44.38092" lon="2.77427">
        <ele>685</ele>
        <time>2019-04-07T09:12:07.579Z</time>
      </trkpt>
      <trkpt lat="44.381" lon="2.77424">
        <ele>687</ele>
        <time>2019-04-07T09:12:11.579Z</time>
      </trkpt>
      <trkpt lat="44.38111" lon="2.7742">
        <ele>687</ele>
        <time>2019-04-07T09:12:16.579Z</time>
      </trkpt>
      <trkpt lat="44.38121" lon="2.77418">
        <ele>687.2779904</ele>
        <time>2019-04-07T09:12:20.579Z</time>
      </trkpt>
      <trkpt lat="44.38132" lon="2.77417">
        <ele>689</ele>
        <time>2019-04-07T09:12:24.579Z</time>
      </trkpt>
      <trkpt lat="44.38143" lon="2.77417">
        <ele>689</ele>
        <time>2019-04-07T09:12:29.579Z</time>
      </trkpt>
      <trkpt lat="44.38157" lon="2.77417">
        <ele>692</ele>
        <time>2019-04-07T09:12:34.579Z</time>
      </trkpt>
      <trkpt lat="44.38169" lon="2.77418">
        <ele>693</ele>
        <time>2019-04-07T09:12:37.579Z</time>
      </trkpt>
      <trkpt lat="44.3818" lon="2.77419">
        <ele>693.1389952</ele>
        <time>2019-04-07T09:12:40.579Z</time>
      </trkpt>
      <trkpt lat="44.38191" lon="2.77417">
        <ele>694</ele>
        <time>2019-04-07T09:12:43.579Z</time>
      </trkpt>
      <trkpt lat="44.38203" lon="2.77419">
        <ele>694</ele>
        <time>2019-04-07T09:12:49.579Z</time>
      </trkpt>
      <trkpt lat="44.38214" lon="2.77422">
        <ele>695</ele>
        <time>2019-04-07T09:12:53.579Z</time>
      </trkpt>
      <trkpt lat="44.38225" lon="2.77424">
        <ele>695</ele>
        <time>2019-04-07T09:12:59.579Z</time>
      </trkpt>
      <trkpt lat="44.38236" lon="2.77426">
        <ele>698</ele>
        <time>2019-04-07T09:13:04.579Z</time>
      </trkpt>
      <trkpt lat="44.38247" lon="2.77426">
        <ele>699</ele>
        <time>2019-04-07T09:13:08.579Z</time>
      </trkpt>
      <trkpt lat="44.38258" lon="2.77425">
        <ele>700</ele>
        <time>2019-04-07T09:13:13.579Z</time>
      </trkpt>
      <trkpt lat="44.38268" lon="2.77423">
        <ele>701</ele>
        <time>2019-04-07T09:13:17.579Z</time>
      </trkpt>
      <trkpt lat="44.38281" lon="2.77419">
        <ele>701.1389952</ele>
        <time>2019-04-07T09:13:20.579Z</time>
      </trkpt>
      <trkpt lat="44.38291" lon="2.77416">
        <ele>702</ele>
        <time>2019-04-07T09:13:22.579Z</time>
      </trkpt>
      <trkpt lat="44.38302" lon="2.77408">
        <ele>702</ele>
        <time>2019-04-07T09:13:25.579Z</time>
      </trkpt>
      <trkpt lat="44.38311" lon="2.77398">
        <ele>702</ele>
        <time>2019-04-07T09:13:28.579Z</time>
      </trkpt>
      <trkpt lat="44.38318" lon="2.77386">
        <ele>702</ele>
        <time>2019-04-07T09:13:32.579Z</time>
      </trkpt>
      <trkpt lat="44.38328" lon="2.77376">
        <ele>702</ele>
        <time>2019-04-07T09:13:36.579Z</time>
      </trkpt>
      <trkpt lat="44.38338" lon="2.77369">
        <ele>702</ele>
        <time>2019-04-07T09:13:39.579Z</time>
      </trkpt>
      <trkpt lat="44.38348" lon="2.77361">
        <ele>704</ele>
        <time>2019-04-07T09:13:42.579Z</time>
      </trkpt>
      <trkpt lat="44.38358" lon="2.77353">
        <ele>704</ele>
        <time>2019-04-07T09:13:46.579Z</time>
      </trkpt>
      <trkpt lat="44.38369" lon="2.77347">
        <ele>704</ele>
        <time>2019-04-07T09:13:49.579Z</time>
      </trkpt>
      <trkpt lat="44.38376" lon="2.77336">
        <ele>706</ele>
        <time>2019-04-07T09:13:53.579Z</time>
      </trkpt>
      <trkpt lat="44.38386" lon="2.77326">
        <ele>706</ele>
        <time>2019-04-07T09:13:56.579Z</time>
      </trkpt>
      <trkpt lat="44.38388" lon="2.77311">
        <ele>706.4169856</ele>
        <time>2019-04-07T09:14:00.579Z</time>
      </trkpt>
      <trkpt lat="44.38388" lon="2.77293">
        <ele>709</ele>
        <time>2019-04-07T09:14:04.579Z</time>
      </trkpt>
      <trkpt lat="44.38388" lon="2.77275">
        <ele>709</ele>
        <time>2019-04-07T09:14:08.579Z</time>
      </trkpt>
      <trkpt lat="44.38394" lon="2.77259">
        <ele>710</ele>
        <time>2019-04-07T09:14:12.579Z</time>
      </trkpt>
      <trkpt lat="44.38403" lon="2.77249">
        <ele>710</ele>
        <time>2019-04-07T09:14:15.579Z</time>
      </trkpt>
      <trkpt lat="44.3841" lon="2.77238">
        <ele>710</ele>
        <time>2019-04-07T09:14:18.579Z</time>
      </trkpt>
      <trkpt lat="44.38417" lon="2.77224">
        <ele>710</ele>
        <time>2019-04-07T09:14:22.579Z</time>
      </trkpt>
      <trkpt lat="44.38424" lon="2.77209">
        <ele>710</ele>
        <time>2019-04-07T09:14:26.579Z</time>
      </trkpt>
      <trkpt lat="44.38425" lon="2.77192">
        <ele>710.4169856</ele>
        <time>2019-04-07T09:14:30.579Z</time>
      </trkpt>
      <trkpt lat="44.38424" lon="2.77178">
        <ele>713.2779904</ele>
        <time>2019-04-07T09:14:35.579Z</time>
      </trkpt>
      <trkpt lat="44.38428" lon="2.77162">
        <ele>715</ele>
        <time>2019-04-07T09:14:39.579Z</time>
      </trkpt>
      <trkpt lat="44.3843" lon="2.77148">
        <ele>716</ele>
        <time>2019-04-07T09:14:44.579Z</time>
      </trkpt>
      <trkpt lat="44.38429" lon="2.77134">
        <ele>717</ele>
        <time>2019-04-07T09:14:48.579Z</time>
      </trkpt>
      <trkpt lat="44.38429" lon="2.77115">
        <ele>717</ele>
        <time>2019-04-07T09:14:52.579Z</time>
      </trkpt>
      <trkpt lat="44.38426" lon="2.77098">
        <ele>717</ele>
        <time>2019-04-07T09:14:55.579Z</time>
      </trkpt>
      <trkpt lat="44.38419" lon="2.77085">
        <ele>717</ele>
        <time>2019-04-07T09:14:58.579Z</time>
      </trkpt>
      <trkpt lat="44.38414" lon="2.77073">
        <ele>719</ele>
        <time>2019-04-07T09:15:02.579Z</time>
      </trkpt>
      <trkpt lat="44.38415" lon="2.77056">
        <ele>719</ele>
        <time>2019-04-07T09:15:06.579Z</time>
      </trkpt>
      <trkpt lat="44.38418" lon="2.77041">
        <ele>719</ele>
        <time>2019-04-07T09:15:09.579Z</time>
      </trkpt>
      <trkpt lat="44.38425" lon="2.77029">
        <ele>721</ele>
        <time>2019-04-07T09:15:12.579Z</time>
      </trkpt>
      <trkpt lat="44.38434" lon="2.7702">
        <ele>721</ele>
        <time>2019-04-07T09:15:15.579Z</time>
      </trkpt>
      <trkpt lat="44.38442" lon="2.77007">
        <ele>721</ele>
        <time>2019-04-07T09:15:19.579Z</time>
      </trkpt>
      <trkpt lat="44.38442" lon="2.76991">
        <ele>723</ele>
        <time>2019-04-07T09:15:23.579Z</time>
      </trkpt>
      <trkpt lat="44.38447" lon="2.76977">
        <ele>723</ele>
        <time>2019-04-07T09:15:28.579Z</time>
      </trkpt>
      <trkpt lat="44.38455" lon="2.76968">
        <ele>725</ele>
        <time>2019-04-07T09:15:31.579Z</time>
      </trkpt>
      <trkpt lat="44.38463" lon="2.7696">
        <ele>725</ele>
        <time>2019-04-07T09:15:34.579Z</time>
      </trkpt>
      <trkpt lat="44.38472" lon="2.76951">
        <ele>725</ele>
        <time>2019-04-07T09:15:37.579Z</time>
      </trkpt>
      <trkpt lat="44.3848" lon="2.76942">
        <ele>725.1389952</ele>
        <time>2019-04-07T09:15:40.579Z</time>
      </trkpt>
      <trkpt lat="44.38487" lon="2.76929">
        <ele>726</ele>
        <time>2019-04-07T09:15:44.579Z</time>
      </trkpt>
      <trkpt lat="44.38488" lon="2.76912">
        <ele>726</ele>
        <time>2019-04-07T09:15:49.579Z</time>
      </trkpt>
      <trkpt lat="44.38479" lon="2.769">
        <ele>728</ele>
        <time>2019-04-07T09:15:52.579Z</time>
      </trkpt>
      <trkpt lat="44.38486" lon="2.76886">
        <ele>728</ele>
        <time>2019-04-07T09:15:57.579Z</time>
      </trkpt>
      <trkpt lat="44.38491" lon="2.76872">
        <ele>732</ele>
        <time>2019-04-07T09:16:01.579Z</time>
      </trkpt>
      <trkpt lat="44.38493" lon="2.76858">
        <ele>732</ele>
        <time>2019-04-07T09:16:05.579Z</time>
      </trkpt>
      <trkpt lat="44.38498" lon="2.76845">
        <ele>732</ele>
        <time>2019-04-07T09:16:09.579Z</time>
      </trkpt>
      <trkpt lat="44.38491" lon="2.76832">
        <ele>733</ele>
        <time>2019-04-07T09:16:14.579Z</time>
      </trkpt>
      <trkpt lat="44.38495" lon="2.76817">
        <ele>733</ele>
        <time>2019-04-07T09:16:18.579Z</time>
      </trkpt>
      <trkpt lat="44.38496" lon="2.76802">
        <ele>735</ele>
        <time>2019-04-07T09:16:22.579Z</time>
      </trkpt>
      <trkpt lat="44.38488" lon="2.76787">
        <ele>735</ele>
        <time>2019-04-07T09:16:25.579Z</time>
      </trkpt>
      <trkpt lat="44.38483" lon="2.76773">
        <ele>735</ele>
        <time>2019-04-07T09:16:29.579Z</time>
      </trkpt>
      <trkpt lat="44.38478" lon="2.76759">
        <ele>736</ele>
        <time>2019-04-07T09:16:33.579Z</time>
      </trkpt>
      <trkpt lat="44.38473" lon="2.76745">
        <ele>736</ele>
        <time>2019-04-07T09:16:37.579Z</time>
      </trkpt>
      <trkpt lat="44.38467" lon="2.76731">
        <ele>738</ele>
        <time>2019-04-07T09:16:41.579Z</time>
      </trkpt>
      <trkpt lat="44.3846" lon="2.7672">
        <ele>738</ele>
        <time>2019-04-07T09:16:45.579Z</time>
      </trkpt>
      <trkpt lat="44.38453" lon="2.76709">
        <ele>738</ele>
        <time>2019-04-07T09:16:48.579Z</time>
      </trkpt>
      <trkpt lat="44.38447" lon="2.76696">
        <ele>739</ele>
        <time>2019-04-07T09:16:51.579Z</time>
      </trkpt>
      <trkpt lat="44.38439" lon="2.76677">
        <ele>739</ele>
        <time>2019-04-07T09:16:54.579Z</time>
      </trkpt>
      <trkpt lat="44.38433" lon="2.76661">
        <ele>739</ele>
        <time>2019-04-07T09:16:56.579Z</time>
      </trkpt>
      <trkpt lat="44.38426" lon="2.76647">
        <ele>739</ele>
        <time>2019-04-07T09:16:58.579Z</time>
      </trkpt>
      <trkpt lat="44.38418" lon="2.76636">
        <ele>738.7220096</ele>
        <time>2019-04-07T09:17:00.579Z</time>
      </trkpt>
      <trkpt lat="44.38412" lon="2.76626">
        <ele>738</ele>
        <time>2019-04-07T09:17:02.579Z</time>
      </trkpt>
      <trkpt lat="44.38405" lon="2.76615">
        <ele>738</ele>
        <time>2019-04-07T09:17:04.579Z</time>
      </trkpt>
      <trkpt lat="44.38398" lon="2.76605">
        <ele>738</ele>
        <time>2019-04-07T09:17:06.579Z</time>
      </trkpt>
      <trkpt lat="44.38389" lon="2.76592">
        <ele>738</ele>
        <time>2019-04-07T09:17:08.579Z</time>
      </trkpt>
      <trkpt lat="44.38379" lon="2.76578">
        <ele>737.7220096</ele>
        <time>2019-04-07T09:17:10.579Z</time>
      </trkpt>
      <trkpt lat="44.38367" lon="2.76562">
        <ele>736</ele>
        <time>2019-04-07T09:17:12.579Z</time>
      </trkpt>
      <trkpt lat="44.38358" lon="2.76547">
        <ele>736</ele>
        <time>2019-04-07T09:17:14.579Z</time>
      </trkpt>
      <trkpt lat="44.3835" lon="2.76533">
        <ele>736</ele>
        <time>2019-04-07T09:17:16.579Z</time>
      </trkpt>
      <trkpt lat="44.38343" lon="2.76521">
        <ele>736</ele>
        <time>2019-04-07T09:17:18.579Z</time>
      </trkpt>
      <trkpt lat="44.38336" lon="2.76505">
        <ele>735.34849503517</ele>
        <time>2019-04-07T09:17:20.579Z</time>
      </trkpt>
      <trkpt lat="44.38335" lon="2.76489">
        <ele>726.8610048</ele>
        <time>2019-04-07T09:17:23.579Z</time>
      </trkpt>
      <trkpt lat="44.38348" lon="2.76495">
        <ele>725</ele>
        <time>2019-04-07T09:17:26.579Z</time>
      </trkpt>
      <trkpt lat="44.38357" lon="2.76507">
        <ele>725</ele>
        <time>2019-04-07T09:17:28.579Z</time>
      </trkpt>
      <trkpt lat="44.3837" lon="2.76518">
        <ele>725</ele>
        <time>2019-04-07T09:17:30.579Z</time>
      </trkpt>
      <trkpt lat="44.38384" lon="2.76528">
        <ele>725</ele>
        <time>2019-04-07T09:17:32.579Z</time>
      </trkpt>
      <trkpt lat="44.38394" lon="2.76539">
        <ele>725</ele>
        <time>2019-04-07T09:17:34.579Z</time>
      </trkpt>
      <trkpt lat="44.38409" lon="2.76546">
        <ele>724.8610048</ele>
        <time>2019-04-07T09:17:36.579Z</time>
      </trkpt>
      <trkpt lat="44.38423" lon="2.76552">
        <ele>720.7220096</ele>
        <time>2019-04-07T09:17:38.579Z</time>
      </trkpt>
      <trkpt lat="44.38437" lon="2.76558">
        <ele>718.7220096</ele>
        <time>2019-04-07T09:17:40.579Z</time>
      </trkpt>
      <trkpt lat="44.3845" lon="2.76564">
        <ele>714.8610048</ele>
        <time>2019-04-07T09:17:42.579Z</time>
      </trkpt>
      <trkpt lat="44.38462" lon="2.76571">
        <ele>712.7220096</ele>
        <time>2019-04-07T09:17:44.579Z</time>
      </trkpt>
      <trkpt lat="44.38474" lon="2.76581">
        <ele>708</ele>
        <time>2019-04-07T09:17:47.579Z</time>
      </trkpt>
      <trkpt lat="44.38484" lon="2.76586">
        <ele>705.8610048</ele>
        <time>2019-04-07T09:17:49.579Z</time>
      </trkpt>
      <trkpt lat="44.385" lon="2.76591">
        <ele>703.8610048</ele>
        <time>2019-04-07T09:17:51.579Z</time>
      </trkpt>
      <trkpt lat="44.38511" lon="2.76596">
        <ele>700.86969900703</ele>
        <time>2019-04-07T09:17:53.579Z</time>
      </trkpt>
      <trkpt lat="44.38523" lon="2.766">
        <ele>698.7220096</ele>
        <time>2019-04-07T09:17:55.579Z</time>
      </trkpt>
      <trkpt lat="44.38535" lon="2.76604">
        <ele>695.7220096</ele>
        <time>2019-04-07T09:17:57.579Z</time>
      </trkpt>
      <trkpt lat="44.3855" lon="2.76611">
        <ele>691.7220096</ele>
        <time>2019-04-07T09:18:00.579Z</time>
      </trkpt>
      <trkpt lat="44.3856" lon="2.76617">
        <ele>690</ele>
        <time>2019-04-07T09:18:02.579Z</time>
      </trkpt>
      <trkpt lat="44.38573" lon="2.76624">
        <ele>686.8610048</ele>
        <time>2019-04-07T09:18:04.579Z</time>
      </trkpt>
      <trkpt lat="44.38585" lon="2.76631">
        <ele>684.7220096</ele>
        <time>2019-04-07T09:18:06.579Z</time>
      </trkpt>
      <trkpt lat="44.38595" lon="2.76638">
        <ele>681.8610048</ele>
        <time>2019-04-07T09:18:08.579Z</time>
      </trkpt>
      <trkpt lat="44.38603" lon="2.76646">
        <ele>679.7220096</ele>
        <time>2019-04-07T09:18:10.579Z</time>
      </trkpt>
      <trkpt lat="44.38614" lon="2.7666">
        <ele>675.8610048</ele>
        <time>2019-04-07T09:18:13.579Z</time>
      </trkpt>
      <trkpt lat="44.38622" lon="2.76668">
        <ele>672.8610048</ele>
        <time>2019-04-07T09:18:15.579Z</time>
      </trkpt>
      <trkpt lat="44.38633" lon="2.76679">
        <ele>670.7220096</ele>
        <time>2019-04-07T09:18:18.579Z</time>
      </trkpt>
      <trkpt lat="44.38642" lon="2.76687">
        <ele>668</ele>
        <time>2019-04-07T09:18:20.579Z</time>
      </trkpt>
      <trkpt lat="44.38652" lon="2.76694">
        <ele>668</ele>
        <time>2019-04-07T09:18:22.579Z</time>
      </trkpt>
      <trkpt lat="44.38662" lon="2.76705">
        <ele>665.8610048</ele>
        <time>2019-04-07T09:18:24.579Z</time>
      </trkpt>
      <trkpt lat="44.38674" lon="2.76715">
        <ele>663.86969900703</ele>
        <time>2019-04-07T09:18:26.579Z</time>
      </trkpt>
      <trkpt lat="44.38683" lon="2.76726">
        <ele>662.8610048</ele>
        <time>2019-04-07T09:18:28.579Z</time>
      </trkpt>
      <trkpt lat="44.3869" lon="2.76741">
        <ele>661.8610048</ele>
        <time>2019-04-07T09:18:30.579Z</time>
      </trkpt>
      <trkpt lat="44.38698" lon="2.76757">
        <ele>660</ele>
        <time>2019-04-07T09:18:32.579Z</time>
      </trkpt>
      <trkpt lat="44.38708" lon="2.76774">
        <ele>659</ele>
        <time>2019-04-07T09:18:34.579Z</time>
      </trkpt>
      <trkpt lat="44.38709" lon="2.76791">
        <ele>658</ele>
        <time>2019-04-07T09:18:36.579Z</time>
      </trkpt>
      <trkpt lat="44.38713" lon="2.76805">
        <ele>656</ele>
        <time>2019-04-07T09:18:38.579Z</time>
      </trkpt>
      <trkpt lat="44.3872" lon="2.76818">
        <ele>654</ele>
        <time>2019-04-07T09:18:40.579Z</time>
      </trkpt>
      <trkpt lat="44.38728" lon="2.76825">
        <ele>654</ele>
        <time>2019-04-07T09:18:41.579Z</time>
      </trkpt>
      <trkpt lat="44.3874" lon="2.76839">
        <ele>653</ele>
        <time>2019-04-07T09:18:43.579Z</time>
      </trkpt>
      <trkpt lat="44.38747" lon="2.76854">
        <ele>652</ele>
        <time>2019-04-07T09:18:45.579Z</time>
      </trkpt>
      <trkpt lat="44.38756" lon="2.76867">
        <ele>650.8610048</ele>
        <time>2019-04-07T09:18:47.579Z</time>
      </trkpt>
      <trkpt lat="44.38765" lon="2.76881">
        <ele>649.8610048</ele>
        <time>2019-04-07T09:18:49.579Z</time>
      </trkpt>
      <trkpt lat="44.38772" lon="2.76891">
        <ele>649</ele>
        <time>2019-04-07T09:18:51.579Z</time>
      </trkpt>
      <trkpt lat="44.38782" lon="2.76885">
        <ele>648.7220096</ele>
        <time>2019-04-07T09:18:55.579Z</time>
      </trkpt>
      <trkpt lat="44.38788" lon="2.76871">
        <ele>647</ele>
        <time>2019-04-07T09:18:57.579Z</time>
      </trkpt>
      <trkpt lat="44.38792" lon="2.76855">
        <ele>646.5830144</ele>
        <time>2019-04-07T09:19:00.579Z</time>
      </trkpt>
      <trkpt lat="44.38791" lon="2.76836">
        <ele>640.8610048</ele>
        <time>2019-04-07T09:19:03.579Z</time>
      </trkpt>
      <trkpt lat="44.38789" lon="2.7682">
        <ele>638.8610048</ele>
        <time>2019-04-07T09:19:05.579Z</time>
      </trkpt>
      <trkpt lat="44.38788" lon="2.76804">
        <ele>636.8610048</ele>
        <time>2019-04-07T09:19:07.579Z</time>
      </trkpt>
      <trkpt lat="44.38791" lon="2.7679">
        <ele>635.8610048</ele>
        <time>2019-04-07T09:19:10.579Z</time>
      </trkpt>
      <trkpt lat="44.38801" lon="2.76775">
        <ele>631.7220096</ele>
        <time>2019-04-07T09:19:13.579Z</time>
      </trkpt>
      <trkpt lat="44.38812" lon="2.76762">
        <ele>627.8610048</ele>
        <time>2019-04-07T09:19:16.579Z</time>
      </trkpt>
      <trkpt lat="44.38821" lon="2.76751">
        <ele>623.7220096</ele>
        <time>2019-04-07T09:19:19.579Z</time>
      </trkpt>
      <trkpt lat="44.38831" lon="2.76739">
        <ele>619.8610048</ele>
        <time>2019-04-07T09:19:22.579Z</time>
      </trkpt>
      <trkpt lat="44.3884" lon="2.76731">
        <ele>618</ele>
        <time>2019-04-07T09:19:24.579Z</time>
      </trkpt>
      <trkpt lat="44.38847" lon="2.76718">
        <ele>618</ele>
        <time>2019-04-07T09:19:27.579Z</time>
      </trkpt>
      <trkpt lat="44.38844" lon="2.76705">
        <ele>619</ele>
        <time>2019-04-07T09:19:29.579Z</time>
      </trkpt>
      <trkpt lat="44.38842" lon="2.76686">
        <ele>619</ele>
        <time>2019-04-07T09:19:31.579Z</time>
      </trkpt>
      <trkpt lat="44.38839" lon="2.76673">
        <ele>619</ele>
        <time>2019-04-07T09:19:33.579Z</time>
      </trkpt>
      <trkpt lat="44.38832" lon="2.76654">
        <ele>619</ele>
        <time>2019-04-07T09:19:36.579Z</time>
      </trkpt>
      <trkpt lat="44.38826" lon="2.76642">
        <ele>619</ele>
        <time>2019-04-07T09:19:38.579Z</time>
      </trkpt>
      <trkpt lat="44.38819" lon="2.7663">
        <ele>619.1389952</ele>
        <time>2019-04-07T09:19:40.579Z</time>
      </trkpt>
      <trkpt lat="44.3881" lon="2.76618">
        <ele>620</ele>
        <time>2019-04-07T09:19:42.579Z</time>
      </trkpt>
      <trkpt lat="44.38801" lon="2.76608">
        <ele>620</ele>
        <time>2019-04-07T09:19:44.579Z</time>
      </trkpt>
      <trkpt lat="44.38792" lon="2.76598">
        <ele>620</ele>
        <time>2019-04-07T09:19:46.579Z</time>
      </trkpt>
      <trkpt lat="44.38784" lon="2.76586">
        <ele>620</ele>
        <time>2019-04-07T09:19:48.579Z</time>
      </trkpt>
      <trkpt lat="44.38776" lon="2.76575">
        <ele>620.2779904</ele>
        <time>2019-04-07T09:19:50.579Z</time>
      </trkpt>
      <trkpt lat="44.38769" lon="2.76563">
        <ele>622</ele>
        <time>2019-04-07T09:19:52.579Z</time>
      </trkpt>
      <trkpt lat="44.38761" lon="2.7655">
        <ele>622</ele>
        <time>2019-04-07T09:19:54.579Z</time>
      </trkpt>
      <trkpt lat="44.38755" lon="2.76536">
        <ele>622</ele>
        <time>2019-04-07T09:19:56.579Z</time>
      </trkpt>
      <trkpt lat="44.38751" lon="2.76521">
        <ele>622</ele>
        <time>2019-04-07T09:19:58.579Z</time>
      </trkpt>
      <trkpt lat="44.3875" lon="2.76506">
        <ele>622</ele>
        <time>2019-04-07T09:20:00.579Z</time>
      </trkpt>
      <trkpt lat="44.38752" lon="2.76488">
        <ele>622</ele>
        <time>2019-04-07T09:20:03.579Z</time>
      </trkpt>
      <trkpt lat="44.38765" lon="2.76486">
        <ele>622</ele>
        <time>2019-04-07T09:20:06.579Z</time>
      </trkpt>
      <trkpt lat="44.38776" lon="2.76484">
        <ele>622</ele>
        <time>2019-04-07T09:20:09.579Z</time>
      </trkpt>
      <trkpt lat="44.38788" lon="2.76485">
        <ele>626</ele>
        <time>2019-04-07T09:20:14.579Z</time>
      </trkpt>
      <trkpt lat="44.38798" lon="2.76485">
        <ele>628</ele>
        <time>2019-04-07T09:20:17.579Z</time>
      </trkpt>
      <trkpt lat="44.38809" lon="2.76484">
        <ele>628</ele>
        <time>2019-04-07T09:20:21.579Z</time>
      </trkpt>
      <trkpt lat="44.38821" lon="2.76481">
        <ele>630</ele>
        <time>2019-04-07T09:20:26.579Z</time>
      </trkpt>
      <trkpt lat="44.38833" lon="2.76479">
        <ele>630.4169856</ele>
        <time>2019-04-07T09:20:30.579Z</time>
      </trkpt>
      <trkpt lat="44.38845" lon="2.7648">
        <ele>633</ele>
        <time>2019-04-07T09:20:34.579Z</time>
      </trkpt>
      <trkpt lat="44.38857" lon="2.76482">
        <ele>635</ele>
        <time>2019-04-07T09:20:38.579Z</time>
      </trkpt>
      <trkpt lat="44.38872" lon="2.76481">
        <ele>636</ele>
        <time>2019-04-07T09:20:42.579Z</time>
      </trkpt>
      <trkpt lat="44.38883" lon="2.76481">
        <ele>636</ele>
        <time>2019-04-07T09:20:44.579Z</time>
      </trkpt>
      <trkpt lat="44.38896" lon="2.7648">
        <ele>636</ele>
        <time>2019-04-07T09:20:47.579Z</time>
      </trkpt>
      <trkpt lat="44.38907" lon="2.76476">
        <ele>636</ele>
        <time>2019-04-07T09:20:51.579Z</time>
      </trkpt>
      <trkpt lat="44.38919" lon="2.76469">
        <ele>636</ele>
        <time>2019-04-07T09:20:54.579Z</time>
      </trkpt>
      <trkpt lat="44.3893" lon="2.76461">
        <ele>636</ele>
        <time>2019-04-07T09:20:57.579Z</time>
      </trkpt>
      <trkpt lat="44.38938" lon="2.76449">
        <ele>636.2779904</ele>
        <time>2019-04-07T09:21:00.579Z</time>
      </trkpt>
      <trkpt lat="44.3894" lon="2.76436">
        <ele>638</ele>
        <time>2019-04-07T09:21:03.579Z</time>
      </trkpt>
      <trkpt lat="44.38938" lon="2.76421">
        <ele>638</ele>
        <time>2019-04-07T09:21:06.579Z</time>
      </trkpt>
      <trkpt lat="44.38938" lon="2.76404">
        <ele>638</ele>
        <time>2019-04-07T09:21:09.579Z</time>
      </trkpt>
      <trkpt lat="44.38943" lon="2.76391">
        <ele>640</ele>
        <time>2019-04-07T09:21:14.579Z</time>
      </trkpt>
      <trkpt lat="44.3895" lon="2.76377">
        <ele>640</ele>
        <time>2019-04-07T09:21:18.579Z</time>
      </trkpt>
      <trkpt lat="44.38954" lon="2.76365">
        <ele>643</ele>
        <time>2019-04-07T09:21:21.579Z</time>
      </trkpt>
      <trkpt lat="44.38957" lon="2.7635">
        <ele>643</ele>
        <time>2019-04-07T09:21:24.579Z</time>
      </trkpt>
      <trkpt lat="44.38961" lon="2.76335">
        <ele>644</ele>
        <time>2019-04-07T09:21:27.579Z</time>
      </trkpt>
      <trkpt lat="44.38969" lon="2.76323">
        <ele>644.1389952</ele>
        <time>2019-04-07T09:21:30.579Z</time>
      </trkpt>
      <trkpt lat="44.38968" lon="2.76304">
        <ele>645</ele>
        <time>2019-04-07T09:21:34.579Z</time>
      </trkpt>
      <trkpt lat="44.3897" lon="2.76286">
        <ele>646</ele>
        <time>2019-04-07T09:21:38.579Z</time>
      </trkpt>
      <trkpt lat="44.38973" lon="2.76271">
        <ele>646</ele>
        <time>2019-04-07T09:21:41.579Z</time>
      </trkpt>
      <trkpt lat="44.38979" lon="2.76255">
        <ele>646</ele>
        <time>2019-04-07T09:21:44.579Z</time>
      </trkpt>
      <trkpt lat="44.38981" lon="2.76236">
        <ele>646</ele>
        <time>2019-04-07T09:21:47.579Z</time>
      </trkpt>
      <trkpt lat="44.38984" lon="2.76222">
        <ele>646</ele>
        <time>2019-04-07T09:21:49.579Z</time>
      </trkpt>
      <trkpt lat="44.38986" lon="2.76205">
        <ele>646</ele>
        <time>2019-04-07T09:21:52.579Z</time>
      </trkpt>
      <trkpt lat="44.38988" lon="2.76189">
        <ele>646</ele>
        <time>2019-04-07T09:21:56.579Z</time>
      </trkpt>
      <trkpt lat="44.38986" lon="2.76174">
        <ele>651</ele>
        <time>2019-04-07T09:22:01.579Z</time>
      </trkpt>
      <trkpt lat="44.38986" lon="2.7616">
        <ele>653</ele>
        <time>2019-04-07T09:22:08.579Z</time>
      </trkpt>
      <trkpt lat="44.38981" lon="2.76145">
        <ele>654</ele>
        <time>2019-04-07T09:22:14.579Z</time>
      </trkpt>
      <trkpt lat="44.38975" lon="2.76134">
        <ele>654.2779904</ele>
        <time>2019-04-07T09:22:20.579Z</time>
      </trkpt>
      <trkpt lat="44.38968" lon="2.76123">
        <ele>658</ele>
        <time>2019-04-07T09:22:26.579Z</time>
      </trkpt>
      <trkpt lat="44.3896" lon="2.76113">
        <ele>660</ele>
        <time>2019-04-07T09:22:31.579Z</time>
      </trkpt>
      <trkpt lat="44.38952" lon="2.761">
        <ele>662</ele>
        <time>2019-04-07T09:22:37.579Z</time>
      </trkpt>
      <trkpt lat="44.38946" lon="2.76089">
        <ele>663</ele>
        <time>2019-04-07T09:22:43.579Z</time>
      </trkpt>
      <trkpt lat="44.3894" lon="2.76078">
        <ele>664</ele>
        <time>2019-04-07T09:22:48.579Z</time>
      </trkpt>
      <trkpt lat="44.38929" lon="2.76073">
        <ele>666</ele>
        <time>2019-04-07T09:22:51.579Z</time>
      </trkpt>
      <trkpt lat="44.3892" lon="2.76064">
        <ele>669</ele>
        <time>2019-04-07T09:22:57.579Z</time>
      </trkpt>
      <trkpt lat="44.38914" lon="2.76052">
        <ele>670</ele>
        <time>2019-04-07T09:23:03.579Z</time>
      </trkpt>
      <trkpt lat="44.38913" lon="2.76038">
        <ele>671</ele>
        <time>2019-04-07T09:23:08.579Z</time>
      </trkpt>
      <trkpt lat="44.38906" lon="2.76024">
        <ele>672</ele>
        <time>2019-04-07T09:23:13.579Z</time>
      </trkpt>
      <trkpt lat="44.38901" lon="2.76009">
        <ele>672</ele>
        <time>2019-04-07T09:23:19.579Z</time>
      </trkpt>
      <trkpt lat="44.38898" lon="2.75996">
        <ele>674</ele>
        <time>2019-04-07T09:23:24.579Z</time>
      </trkpt>
      <trkpt lat="44.38896" lon="2.75982">
        <ele>674</ele>
        <time>2019-04-07T09:23:28.579Z</time>
      </trkpt>
      <trkpt lat="44.38892" lon="2.75965">
        <ele>675</ele>
        <time>2019-04-07T09:23:32.579Z</time>
      </trkpt>
      <trkpt lat="44.38892" lon="2.7595">
        <ele>675</ele>
        <time>2019-04-07T09:23:35.579Z</time>
      </trkpt>
      <trkpt lat="44.38889" lon="2.75934">
        <ele>675</ele>
        <time>2019-04-07T09:23:39.579Z</time>
      </trkpt>
      <trkpt lat="44.38886" lon="2.75916">
        <ele>677</ele>
        <time>2019-04-07T09:23:43.579Z</time>
      </trkpt>
      <trkpt lat="44.38886" lon="2.75899">
        <ele>677</ele>
        <time>2019-04-07T09:23:47.579Z</time>
      </trkpt>
      <trkpt lat="44.38889" lon="2.75885">
        <ele>680</ele>
        <time>2019-04-07T09:23:51.579Z</time>
      </trkpt>
      <trkpt lat="44.38893" lon="2.75871">
        <ele>680.1389952</ele>
        <time>2019-04-07T09:23:55.579Z</time>
      </trkpt>
      <trkpt lat="44.38899" lon="2.75858">
        <ele>681</ele>
        <time>2019-04-07T09:23:59.579Z</time>
      </trkpt>
      <trkpt lat="44.38903" lon="2.75842">
        <ele>682</ele>
        <time>2019-04-07T09:24:04.579Z</time>
      </trkpt>
      <trkpt lat="44.38908" lon="2.75826">
        <ele>683</ele>
        <time>2019-04-07T09:24:09.579Z</time>
      </trkpt>
      <trkpt lat="44.38911" lon="2.75812">
        <ele>685</ele>
        <time>2019-04-07T09:24:13.579Z</time>
      </trkpt>
      <trkpt lat="44.3891" lon="2.75795">
        <ele>687</ele>
        <time>2019-04-07T09:24:18.579Z</time>
      </trkpt>
      <trkpt lat="44.38911" lon="2.7578">
        <ele>689</ele>
        <time>2019-04-07T09:24:22.579Z</time>
      </trkpt>
      <trkpt lat="44.38912" lon="2.75763">
        <ele>690</ele>
        <time>2019-04-07T09:24:27.579Z</time>
      </trkpt>
      <trkpt lat="44.38911" lon="2.75748">
        <ele>690</ele>
        <time>2019-04-07T09:24:31.579Z</time>
      </trkpt>
      <trkpt lat="44.3891" lon="2.75732">
        <ele>690</ele>
        <time>2019-04-07T09:24:36.579Z</time>
      </trkpt>
      <trkpt lat="44.38909" lon="2.75716">
        <ele>692</ele>
        <time>2019-04-07T09:24:41.579Z</time>
      </trkpt>
      <trkpt lat="44.38907" lon="2.757">
        <ele>692</ele>
        <time>2019-04-07T09:24:46.579Z</time>
      </trkpt>
      <trkpt lat="44.38909" lon="2.75684">
        <ele>695</ele>
        <time>2019-04-07T09:24:51.579Z</time>
      </trkpt>
      <trkpt lat="44.38913" lon="2.75668">
        <ele>695.2779904</ele>
        <time>2019-04-07T09:24:55.579Z</time>
      </trkpt>
      <trkpt lat="44.38914" lon="2.75651">
        <ele>697</ele>
        <time>2019-04-07T09:24:59.579Z</time>
      </trkpt>
      <trkpt lat="44.3891" lon="2.75634">
        <ele>698</ele>
        <time>2019-04-07T09:25:03.579Z</time>
      </trkpt>
      <trkpt lat="44.38905" lon="2.75621">
        <ele>699</ele>
        <time>2019-04-07T09:25:06.579Z</time>
      </trkpt>
      <trkpt lat="44.38902" lon="2.75606">
        <ele>699</ele>
        <time>2019-04-07T09:25:10.579Z</time>
      </trkpt>
      <trkpt lat="44.38901" lon="2.7559">
        <ele>699</ele>
        <time>2019-04-07T09:25:13.579Z</time>
      </trkpt>
      <trkpt lat="44.38901" lon="2.75575">
        <ele>699</ele>
        <time>2019-04-07T09:25:15.579Z</time>
      </trkpt>
      <trkpt lat="44.38901" lon="2.75559">
        <ele>699</ele>
        <time>2019-04-07T09:25:17.579Z</time>
      </trkpt>
      <trkpt lat="44.38899" lon="2.75542">
        <ele>699</ele>
        <time>2019-04-07T09:25:19.579Z</time>
      </trkpt>
      <trkpt lat="44.38894" lon="2.75528">
        <ele>695</ele>
        <time>2019-04-07T09:25:21.579Z</time>
      </trkpt>
      <trkpt lat="44.38885" lon="2.75515">
        <ele>695</ele>
        <time>2019-04-07T09:25:23.579Z</time>
      </trkpt>
      <trkpt lat="44.38875" lon="2.75502">
        <ele>694.5830144</ele>
        <time>2019-04-07T09:25:25.579Z</time>
      </trkpt>
      <trkpt lat="44.38866" lon="2.7549">
        <ele>692</ele>
        <time>2019-04-07T09:25:27.579Z</time>
      </trkpt>
      <trkpt lat="44.38856" lon="2.75483">
        <ele>692</ele>
        <time>2019-04-07T09:25:30.579Z</time>
      </trkpt>
      <trkpt lat="44.38846" lon="2.75479">
        <ele>692</ele>
        <time>2019-04-07T09:25:34.579Z</time>
      </trkpt>
      <trkpt lat="44.38837" lon="2.75476">
        <ele>694</ele>
        <time>2019-04-07T09:25:38.579Z</time>
      </trkpt>
      <trkpt lat="44.38828" lon="2.75475">
        <ele>696</ele>
        <time>2019-04-07T09:25:42.579Z</time>
      </trkpt>
      <trkpt lat="44.38823" lon="2.75472">
        <ele>696.2779904</ele>
        <time>2019-04-07T09:25:45.579Z</time>
      </trkpt>
      <trkpt lat="44.38818" lon="2.75468">
        <ele>698</ele>
        <time>2019-04-07T09:25:47.579Z</time>
      </trkpt>
      <trkpt lat="44.38813" lon="2.75459">
        <ele>698</ele>
        <time>2019-04-07T09:25:49.579Z</time>
      </trkpt>
      <trkpt lat="44.38805" lon="2.75444">
        <ele>696</ele>
        <time>2019-04-07T09:25:51.579Z</time>
      </trkpt>
      <trkpt lat="44.38796" lon="2.75426">
        <ele>696</ele>
        <time>2019-04-07T09:25:53.579Z</time>
      </trkpt>
      <trkpt lat="44.38788" lon="2.75409">
        <ele>696</ele>
        <time>2019-04-07T09:25:55.579Z</time>
      </trkpt>
      <trkpt lat="44.38785" lon="2.75394">
        <ele>696</ele>
        <time>2019-04-07T09:25:57.579Z</time>
      </trkpt>
      <trkpt lat="44.388" lon="2.75401">
        <ele>687</ele>
        <time>2019-04-07T09:26:02.579Z</time>
      </trkpt>
      <trkpt lat="44.38812" lon="2.75415">
        <ele>685.8610048</ele>
        <time>2019-04-07T09:26:04.579Z</time>
      </trkpt>
      <trkpt lat="44.38825" lon="2.75426">
        <ele>685</ele>
        <time>2019-04-07T09:26:06.579Z</time>
      </trkpt>
      <trkpt lat="44.38841" lon="2.75437">
        <ele>684.8610048</ele>
        <time>2019-04-07T09:26:08.579Z</time>
      </trkpt>
      <trkpt lat="44.38854" lon="2.75448">
        <ele>682.8610048</ele>
        <time>2019-04-07T09:26:10.579Z</time>
      </trkpt>
      <trkpt lat="44.38865" lon="2.75457">
        <ele>682</ele>
        <time>2019-04-07T09:26:12.579Z</time>
      </trkpt>
      <trkpt lat="44.38881" lon="2.75466">
        <ele>682</ele>
        <time>2019-04-07T09:26:14.579Z</time>
      </trkpt>
      <trkpt lat="44.38896" lon="2.75472">
        <ele>680</ele>
        <time>2019-04-07T09:26:16.579Z</time>
      </trkpt>
      <trkpt lat="44.3891" lon="2.7548">
        <ele>680</ele>
        <time>2019-04-07T09:26:18.579Z</time>
      </trkpt>
      <trkpt lat="44.38924" lon="2.7549">
        <ele>679.0270336</ele>
        <time>2019-04-07T09:26:20.579Z</time>
      </trkpt>
      <trkpt lat="44.38938" lon="2.755">
        <ele>668.58714166223</ele>
        <time>2019-04-07T09:26:22.579Z</time>
      </trkpt>
      <trkpt lat="44.38953" lon="2.75514">
        <ele>664.8610048</ele>
        <time>2019-04-07T09:26:24.579Z</time>
      </trkpt>
      <trkpt lat="44.38962" lon="2.75524">
        <ele>662.5830144</ele>
        <time>2019-04-07T09:26:26.579Z</time>
      </trkpt>
      <trkpt lat="44.38976" lon="2.75529">
        <ele>656.7220096</ele>
        <time>2019-04-07T09:26:29.579Z</time>
      </trkpt>
      <trkpt lat="44.38991" lon="2.75524">
        <ele>653.7220096</ele>
        <time>2019-04-07T09:26:32.579Z</time>
      </trkpt>
      <trkpt lat="44.39001" lon="2.75511">
        <ele>650.8610048</ele>
        <time>2019-04-07T09:26:34.579Z</time>
      </trkpt>
      <trkpt lat="44.39003" lon="2.75493">
        <ele>648.8610048</ele>
        <time>2019-04-07T09:26:36.579Z</time>
      </trkpt>
      <trkpt lat="44.38992" lon="2.75471">
        <ele>646.8610048</ele>
        <time>2019-04-07T09:26:38.579Z</time>
      </trkpt>
      <trkpt lat="44.38985" lon="2.75448">
        <ele>645.8610048</ele>
        <time>2019-04-07T09:26:40.579Z</time>
      </trkpt>
      <trkpt lat="44.38976" lon="2.7543">
        <ele>643.8610048</ele>
        <time>2019-04-07T09:26:42.579Z</time>
      </trkpt>
      <trkpt lat="44.38966" lon="2.75412">
        <ele>640.8610048</ele>
        <time>2019-04-07T09:26:44.579Z</time>
      </trkpt>
      <trkpt lat="44.38959" lon="2.75396">
        <ele>638.8610048</ele>
        <time>2019-04-07T09:26:46.579Z</time>
      </trkpt>
      <trkpt lat="44.38968" lon="2.75391">
        <ele>637</ele>
        <time>2019-04-07T09:26:51.579Z</time>
      </trkpt>
      <trkpt lat="44.3898" lon="2.75392">
        <ele>634.8610048</ele>
        <time>2019-04-07T09:26:53.579Z</time>
      </trkpt>
      <trkpt lat="44.3899" lon="2.75394">
        <ele>633.8610048</ele>
        <time>2019-04-07T09:26:54.579Z</time>
      </trkpt>
      <trkpt lat="44.39007" lon="2.75402">
        <ele>631.87858206421</ele>
        <time>2019-04-07T09:26:56.579Z</time>
      </trkpt>
      <trkpt lat="44.39024" lon="2.75413">
        <ele>628.8610048</ele>
        <time>2019-04-07T09:26:58.579Z</time>
      </trkpt>
      <trkpt lat="44.39033" lon="2.7542">
        <ele>628</ele>
        <time>2019-04-07T09:26:59.579Z</time>
      </trkpt>
      <trkpt lat="44.39049" lon="2.75435">
        <ele>627</ele>
        <time>2019-04-07T09:27:01.579Z</time>
      </trkpt>
      <trkpt lat="44.39062" lon="2.75444">
        <ele>627.8610048</ele>
        <time>2019-04-07T09:27:03.579Z</time>
      </trkpt>
      <trkpt lat="44.39073" lon="2.7545">
        <ele>625</ele>
        <time>2019-04-07T09:27:18.579Z</time>
      </trkpt>
      <trkpt lat="44.39081" lon="2.75442">
        <ele>613</ele>
        <time>2019-04-07T09:27:29.579Z</time>
      </trkpt>
      <trkpt lat="44.39086" lon="2.75429">
        <ele>614</ele>
        <time>2019-04-07T09:27:35.579Z</time>
      </trkpt>
      <trkpt lat="44.39098" lon="2.75429">
        <ele>615</ele>
        <time>2019-04-07T09:27:40.579Z</time>
      </trkpt>
      <trkpt lat="44.39109" lon="2.75435">
        <ele>615</ele>
        <time>2019-04-07T09:27:44.579Z</time>
      </trkpt>
      <trkpt lat="44.39118" lon="2.75443">
        <ele>615.2779904</ele>
        <time>2019-04-07T09:27:50.579Z</time>
      </trkpt>
      <trkpt lat="44.3913" lon="2.75451">
        <ele>617</ele>
        <time>2019-04-07T09:27:54.579Z</time>
      </trkpt>
      <trkpt lat="44.3914" lon="2.75459">
        <ele>617</ele>
        <time>2019-04-07T09:27:57.579Z</time>
      </trkpt>
      <trkpt lat="44.3915" lon="2.7546">
        <ele>620</ele>
        <time>2019-04-07T09:28:02.579Z</time>
      </trkpt>
      <trkpt lat="44.39161" lon="2.75457">
        <ele>621</ele>
        <time>2019-04-07T09:28:09.579Z</time>
      </trkpt>
      <trkpt lat="44.3917" lon="2.75446">
        <ele>625</ele>
        <time>2019-04-07T09:28:16.579Z</time>
      </trkpt>
      <trkpt lat="44.39178" lon="2.75439">
        <ele>627</ele>
        <time>2019-04-07T09:28:22.579Z</time>
      </trkpt>
      <trkpt lat="44.39187" lon="2.7543">
        <ele>628</ele>
        <time>2019-04-07T09:28:28.579Z</time>
      </trkpt>
      <trkpt lat="44.39197" lon="2.75425">
        <ele>629</ele>
        <time>2019-04-07T09:28:33.579Z</time>
      </trkpt>
      <trkpt lat="44.39206" lon="2.75417">
        <ele>630</ele>
        <time>2019-04-07T09:28:38.579Z</time>
      </trkpt>
      <trkpt lat="44.39215" lon="2.7541">
        <ele>630</ele>
        <time>2019-04-07T09:28:43.579Z</time>
      </trkpt>
      <trkpt lat="44.39222" lon="2.754">
        <ele>630</ele>
        <time>2019-04-07T09:28:47.579Z</time>
      </trkpt>
      <trkpt lat="44.39231" lon="2.75392">
        <ele>630.1389952</ele>
        <time>2019-04-07T09:28:50.579Z</time>
      </trkpt>
      <trkpt lat="44.39241" lon="2.75386">
        <ele>631</ele>
        <time>2019-04-07T09:28:52.579Z</time>
      </trkpt>
      <trkpt lat="44.39255" lon="2.75379">
        <ele>631</ele>
        <time>2019-04-07T09:28:54.579Z</time>
      </trkpt>
      <trkpt lat="44.39267" lon="2.75369">
        <ele>631</ele>
        <time>2019-04-07T09:28:56.579Z</time>
      </trkpt>
      <trkpt lat="44.39277" lon="2.75363">
        <ele>631</ele>
        <time>2019-04-07T09:28:58.579Z</time>
      </trkpt>
      <trkpt lat="44.39287" lon="2.75354">
        <ele>630.1660288</ele>
        <time>2019-04-07T09:29:00.579Z</time>
      </trkpt>
      <trkpt lat="44.39293" lon="2.75336">
        <ele>624</ele>
        <time>2019-04-07T09:29:03.579Z</time>
      </trkpt>
      <trkpt lat="44.39293" lon="2.75316">
        <ele>623</ele>
        <time>2019-04-07T09:29:05.579Z</time>
      </trkpt>
      <trkpt lat="44.3929" lon="2.75294">
        <ele>622</ele>
        <time>2019-04-07T09:29:07.579Z</time>
      </trkpt>
      <trkpt lat="44.39286" lon="2.75276">
        <ele>620.8610048</ele>
        <time>2019-04-07T09:29:09.579Z</time>
      </trkpt>
      <trkpt lat="44.39283" lon="2.75258">
        <ele>618.8610048</ele>
        <time>2019-04-07T09:29:11.579Z</time>
      </trkpt>
      <trkpt lat="44.39281" lon="2.75238">
        <ele>615.8610048</ele>
        <time>2019-04-07T09:29:13.579Z</time>
      </trkpt>
      <trkpt lat="44.39279" lon="2.7522">
        <ele>614.8610048</ele>
        <time>2019-04-07T09:29:15.579Z</time>
      </trkpt>
      <trkpt lat="44.39276" lon="2.75206">
        <ele>614</ele>
        <time>2019-04-07T09:29:17.579Z</time>
      </trkpt>
      <trkpt lat="44.3927" lon="2.7519">
        <ele>615</ele>
        <time>2019-04-07T09:29:20.579Z</time>
      </trkpt>
      <trkpt lat="44.39267" lon="2.75174">
        <ele>615</ele>
        <time>2019-04-07T09:29:23.579Z</time>
      </trkpt>
      <trkpt lat="44.39266" lon="2.75158">
        <ele>616</ele>
        <time>2019-04-07T09:29:26.579Z</time>
      </trkpt>
      <trkpt lat="44.39265" lon="2.75142">
        <ele>616</ele>
        <time>2019-04-07T09:29:29.579Z</time>
      </trkpt>
      <trkpt lat="44.39263" lon="2.75122">
        <ele>618</ele>
        <time>2019-04-07T09:29:32.579Z</time>
      </trkpt>
      <trkpt lat="44.39265" lon="2.75106">
        <ele>618</ele>
        <time>2019-04-07T09:29:35.579Z</time>
      </trkpt>
      <trkpt lat="44.3927" lon="2.7509">
        <ele>618</ele>
        <time>2019-04-07T09:29:39.579Z</time>
      </trkpt>
      <trkpt lat="44.39279" lon="2.75078">
        <ele>619</ele>
        <time>2019-04-07T09:29:43.579Z</time>
      </trkpt>
      <trkpt lat="44.3929" lon="2.75068">
        <ele>619</ele>
        <time>2019-04-07T09:29:46.579Z</time>
      </trkpt>
      <trkpt lat="44.39297" lon="2.75057">
        <ele>619</ele>
        <time>2019-04-07T09:29:49.579Z</time>
      </trkpt>
      <trkpt lat="44.39305" lon="2.75046">
        <ele>622</ele>
        <time>2019-04-07T09:29:52.579Z</time>
      </trkpt>
      <trkpt lat="44.39311" lon="2.75035">
        <ele>622.2779904</ele>
        <time>2019-04-07T09:29:55.579Z</time>
      </trkpt>
      <trkpt lat="44.39314" lon="2.7502">
        <ele>624</ele>
        <time>2019-04-07T09:29:58.579Z</time>
      </trkpt>
      <trkpt lat="44.39315" lon="2.75005">
        <ele>626</ele>
        <time>2019-04-07T09:30:01.579Z</time>
      </trkpt>
      <trkpt lat="44.39318" lon="2.74991">
        <ele>626</ele>
        <time>2019-04-07T09:30:04.579Z</time>
      </trkpt>
      <trkpt lat="44.39325" lon="2.74976">
        <ele>627</ele>
        <time>2019-04-07T09:30:08.579Z</time>
      </trkpt>
      <trkpt lat="44.3933" lon="2.74963">
        <ele>627</ele>
        <time>2019-04-07T09:30:11.579Z</time>
      </trkpt>
      <trkpt lat="44.39334" lon="2.7495">
        <ele>627</ele>
        <time>2019-04-07T09:30:14.579Z</time>
      </trkpt>
      <trkpt lat="44.39335" lon="2.74936">
        <ele>627</ele>
        <time>2019-04-07T09:30:17.579Z</time>
      </trkpt>
      <trkpt lat="44.39339" lon="2.74919">
        <ele>629</ele>
        <time>2019-04-07T09:30:21.579Z</time>
      </trkpt>
      <trkpt lat="44.39342" lon="2.74905">
        <ele>629</ele>
        <time>2019-04-07T09:30:24.579Z</time>
      </trkpt>
      <trkpt lat="44.39341" lon="2.74886">
        <ele>629</ele>
        <time>2019-04-07T09:30:27.579Z</time>
      </trkpt>
      <trkpt lat="44.39345" lon="2.7487">
        <ele>629.1389952</ele>
        <time>2019-04-07T09:30:30.579Z</time>
      </trkpt>
      <trkpt lat="44.39349" lon="2.74855">
        <ele>630</ele>
        <time>2019-04-07T09:30:32.579Z</time>
      </trkpt>
      <trkpt lat="44.39355" lon="2.74839">
        <ele>631</ele>
        <time>2019-04-07T09:30:34.579Z</time>
      </trkpt>
      <trkpt lat="44.39359" lon="2.74821">
        <ele>631</ele>
        <time>2019-04-07T09:30:36.579Z</time>
      </trkpt>
      <trkpt lat="44.39362" lon="2.74803">
        <ele>631</ele>
        <time>2019-04-07T09:30:38.579Z</time>
      </trkpt>
      <trkpt lat="44.39365" lon="2.74786">
        <ele>630.8610048</ele>
        <time>2019-04-07T09:30:40.579Z</time>
      </trkpt>
      <trkpt lat="44.39369" lon="2.7477">
        <ele>630</ele>
        <time>2019-04-07T09:30:42.579Z</time>
      </trkpt>
      <trkpt lat="44.39372" lon="2.74754">
        <ele>630</ele>
        <time>2019-04-07T09:30:44.579Z</time>
      </trkpt>
      <trkpt lat="44.39376" lon="2.74736">
        <ele>630</ele>
        <time>2019-04-07T09:30:46.579Z</time>
      </trkpt>
      <trkpt lat="44.39382" lon="2.74717">
        <ele>630</ele>
        <time>2019-04-07T09:30:48.579Z</time>
      </trkpt>
      <trkpt lat="44.39391" lon="2.747">
        <ele>629.5830144</ele>
        <time>2019-04-07T09:30:50.579Z</time>
      </trkpt>
      <trkpt lat="44.39406" lon="2.74691">
        <ele>627</ele>
        <time>2019-04-07T09:30:52.579Z</time>
      </trkpt>
      <trkpt lat="44.39419" lon="2.74683">
        <ele>627</ele>
        <time>2019-04-07T09:30:54.579Z</time>
      </trkpt>
      <trkpt lat="44.39432" lon="2.74678">
        <ele>626</ele>
        <time>2019-04-07T09:30:56.579Z</time>
      </trkpt>
      <trkpt lat="44.39442" lon="2.74672">
        <ele>626</ele>
        <time>2019-04-07T09:30:58.579Z</time>
      </trkpt>
      <trkpt lat="44.3945" lon="2.74662">
        <ele>626.4169856</ele>
        <time>2019-04-07T09:31:00.579Z</time>
      </trkpt>
      <trkpt lat="44.39459" lon="2.74648">
        <ele>629</ele>
        <time>2019-04-07T09:31:03.579Z</time>
      </trkpt>
      <trkpt lat="44.39466" lon="2.74633">
        <ele>629</ele>
        <time>2019-04-07T09:31:06.579Z</time>
      </trkpt>
      <trkpt lat="44.39473" lon="2.74618">
        <ele>629</ele>
        <time>2019-04-07T09:31:09.579Z</time>
      </trkpt>
      <trkpt lat="44.3948" lon="2.74603">
        <ele>631</ele>
        <time>2019-04-07T09:31:12.579Z</time>
      </trkpt>
      <trkpt lat="44.39486" lon="2.74589">
        <ele>631</ele>
        <time>2019-04-07T09:31:15.579Z</time>
      </trkpt>
      <trkpt lat="44.39494" lon="2.74575">
        <ele>631</ele>
        <time>2019-04-07T09:31:18.579Z</time>
      </trkpt>
      <trkpt lat="44.395" lon="2.74565">
        <ele>631.2779904</ele>
        <time>2019-04-07T09:31:20.579Z</time>
      </trkpt>
      <trkpt lat="44.39506" lon="2.74554">
        <ele>633</ele>
        <time>2019-04-07T09:31:22.579Z</time>
      </trkpt>
      <trkpt lat="44.39513" lon="2.74543">
        <ele>633</ele>
        <time>2019-04-07T09:31:24.579Z</time>
      </trkpt>
      <trkpt lat="44.3952" lon="2.7453">
        <ele>633</ele>
        <time>2019-04-07T09:31:26.579Z</time>
      </trkpt>
      <trkpt lat="44.39528" lon="2.74516">
        <ele>633</ele>
        <time>2019-04-07T09:31:28.579Z</time>
      </trkpt>
      <trkpt lat="44.39536" lon="2.74499">
        <ele>632.72476110815</ele>
        <time>2019-04-07T09:31:30.579Z</time>
      </trkpt>
      <trkpt lat="44.3954" lon="2.7449">
        <ele>631</ele>
        <time>2019-04-07T09:31:31.579Z</time>
      </trkpt>
      <trkpt lat="44.39543" lon="2.74481">
        <ele>631</ele>
        <time>2019-04-07T09:31:32.579Z</time>
      </trkpt>
      <trkpt lat="44.39545" lon="2.74471">
        <ele>631</ele>
        <time>2019-04-07T09:31:33.579Z</time>
      </trkpt>
      <trkpt lat="44.39547" lon="2.74461">
        <ele>631</ele>
        <time>2019-04-07T09:31:34.579Z</time>
      </trkpt>
      <trkpt lat="44.39548" lon="2.74451">
        <ele>631</ele>
        <time>2019-04-07T09:31:35.579Z</time>
      </trkpt>
      <trkpt lat="44.39549" lon="2.74431">
        <ele>631</ele>
        <time>2019-04-07T09:31:37.579Z</time>
      </trkpt>
      <trkpt lat="44.39549" lon="2.74422">
        <ele>631</ele>
        <time>2019-04-07T09:31:38.579Z</time>
      </trkpt>
      <trkpt lat="44.3955" lon="2.74412">
        <ele>631</ele>
        <time>2019-04-07T09:31:39.579Z</time>
      </trkpt>
      <trkpt lat="44.39551" lon="2.74403">
        <ele>630.8610048</ele>
        <time>2019-04-07T09:31:40.579Z</time>
      </trkpt>
      <trkpt lat="44.39552" lon="2.74394">
        <ele>630</ele>
        <time>2019-04-07T09:31:41.579Z</time>
      </trkpt>
      <trkpt lat="44.39552" lon="2.74385">
        <ele>630</ele>
        <time>2019-04-07T09:31:42.579Z</time>
      </trkpt>
      <trkpt lat="44.39553" lon="2.74376">
        <ele>630</ele>
        <time>2019-04-07T09:31:43.579Z</time>
      </trkpt>
      <trkpt lat="44.39553" lon="2.74366">
        <ele>630</ele>
        <time>2019-04-07T09:31:44.579Z</time>
      </trkpt>
      <trkpt lat="44.39554" lon="2.74358">
        <ele>630</ele>
        <time>2019-04-07T09:31:45.579Z</time>
      </trkpt>
      <trkpt lat="44.39554" lon="2.74349">
        <ele>630</ele>
        <time>2019-04-07T09:31:46.579Z</time>
      </trkpt>
      <trkpt lat="44.39555" lon="2.7434">
        <ele>630</ele>
        <time>2019-04-07T09:31:47.579Z</time>
      </trkpt>
      <trkpt lat="44.39555" lon="2.74331">
        <ele>630</ele>
        <time>2019-04-07T09:31:48.579Z</time>
      </trkpt>
      <trkpt lat="44.39555" lon="2.74322">
        <ele>630</ele>
        <time>2019-04-07T09:31:49.579Z</time>
      </trkpt>
      <trkpt lat="44.39555" lon="2.74313">
        <ele>629.8610048</ele>
        <time>2019-04-07T09:31:50.579Z</time>
      </trkpt>
      <trkpt lat="44.39554" lon="2.74304">
        <ele>629</ele>
        <time>2019-04-07T09:31:51.579Z</time>
      </trkpt>
      <trkpt lat="44.39553" lon="2.74294">
        <ele>629</ele>
        <time>2019-04-07T09:31:52.579Z</time>
      </trkpt>
      <trkpt lat="44.3955" lon="2.74275">
        <ele>629</ele>
        <time>2019-04-07T09:31:54.579Z</time>
      </trkpt>
      <trkpt lat="44.39547" lon="2.74253">
        <ele>629</ele>
        <time>2019-04-07T09:31:56.579Z</time>
      </trkpt>
      <trkpt lat="44.39546" lon="2.7424">
        <ele>629</ele>
        <time>2019-04-07T09:31:57.579Z</time>
      </trkpt>
      <trkpt lat="44.39546" lon="2.74227">
        <ele>629</ele>
        <time>2019-04-07T09:31:58.579Z</time>
      </trkpt>
      <trkpt lat="44.39545" lon="2.74213">
        <ele>629</ele>
        <time>2019-04-07T09:31:59.579Z</time>
      </trkpt>
      <trkpt lat="44.39545" lon="2.74197">
        <ele>627.3320576</ele>
        <time>2019-04-07T09:32:00.579Z</time>
      </trkpt>
      <trkpt lat="44.39544" lon="2.7418">
        <ele>617</ele>
        <time>2019-04-07T09:32:01.579Z</time>
      </trkpt>
      <trkpt lat="44.39544" lon="2.74147">
        <ele>615.8610048</ele>
        <time>2019-04-07T09:32:03.579Z</time>
      </trkpt>
      <trkpt lat="44.39545" lon="2.7413">
        <ele>615</ele>
        <time>2019-04-07T09:32:04.579Z</time>
      </trkpt>
      <trkpt lat="44.39546" lon="2.74114">
        <ele>614.8610048</ele>
        <time>2019-04-07T09:32:05.579Z</time>
      </trkpt>
      <trkpt lat="44.39547" lon="2.741">
        <ele>613.8610048</ele>
        <time>2019-04-07T09:32:06.579Z</time>
      </trkpt>
      <trkpt lat="44.39553" lon="2.74074">
        <ele>614</ele>
        <time>2019-04-07T09:32:08.579Z</time>
      </trkpt>
      <trkpt lat="44.39561" lon="2.74053">
        <ele>613</ele>
        <time>2019-04-07T09:32:10.579Z</time>
      </trkpt>
      <trkpt lat="44.39574" lon="2.74032">
        <ele>613</ele>
        <time>2019-04-07T09:32:12.579Z</time>
      </trkpt>
      <trkpt lat="44.39587" lon="2.74012">
        <ele>613</ele>
        <time>2019-04-07T09:32:14.579Z</time>
      </trkpt>
      <trkpt lat="44.39593" lon="2.74001">
        <ele>612.5830144</ele>
        <time>2019-04-07T09:32:15.579Z</time>
      </trkpt>
      <trkpt lat="44.39599" lon="2.73989">
        <ele>610</ele>
        <time>2019-04-07T09:32:16.579Z</time>
      </trkpt>
      <trkpt lat="44.39606" lon="2.73979">
        <ele>610</ele>
        <time>2019-04-07T09:32:17.579Z</time>
      </trkpt>
      <trkpt lat="44.39614" lon="2.7397">
        <ele>610</ele>
        <time>2019-04-07T09:32:18.579Z</time>
      </trkpt>
      <trkpt lat="44.39626" lon="2.73951">
        <ele>609.8610048</ele>
        <time>2019-04-07T09:32:20.579Z</time>
      </trkpt>
      <trkpt lat="44.39635" lon="2.73932">
        <ele>610</ele>
        <time>2019-04-07T09:32:22.579Z</time>
      </trkpt>
      <trkpt lat="44.39641" lon="2.73914">
        <ele>610</ele>
        <time>2019-04-07T09:32:24.579Z</time>
      </trkpt>
      <trkpt lat="44.39646" lon="2.73898">
        <ele>611</ele>
        <time>2019-04-07T09:32:26.579Z</time>
      </trkpt>
      <trkpt lat="44.39648" lon="2.73883">
        <ele>611</ele>
        <time>2019-04-07T09:32:28.579Z</time>
      </trkpt>
      <trkpt lat="44.39645" lon="2.73869">
        <ele>613</ele>
        <time>2019-04-07T09:32:31.579Z</time>
      </trkpt>
      <trkpt lat="44.39636" lon="2.73869">
        <ele>613.2779904</ele>
        <time>2019-04-07T09:32:35.579Z</time>
      </trkpt>
      <trkpt lat="44.39631" lon="2.73878">
        <ele>615</ele>
        <time>2019-04-07T09:32:39.579Z</time>
      </trkpt>
      <trkpt lat="44.39626" lon="2.73887">
        <ele>617</ele>
        <time>2019-04-07T09:32:43.579Z</time>
      </trkpt>
      <trkpt lat="44.39619" lon="2.73893">
        <ele>619</ele>
        <time>2019-04-07T09:32:47.579Z</time>
      </trkpt>
      <trkpt lat="44.39613" lon="2.73896">
        <ele>619.1389952</ele>
        <time>2019-04-07T09:32:50.579Z</time>
      </trkpt>
      <trkpt lat="44.39607" lon="2.73899">
        <ele>620</ele>
        <time>2019-04-07T09:32:53.579Z</time>
      </trkpt>
      <trkpt lat="44.396" lon="2.739">
        <ele>622</ele>
        <time>2019-04-07T09:32:56.579Z</time>
      </trkpt>
      <trkpt lat="44.3959" lon="2.739">
        <ele>622</ele>
        <time>2019-04-07T09:33:00.579Z</time>
      </trkpt>
      <trkpt lat="44.39585" lon="2.73899">
        <ele>622</ele>
        <time>2019-04-07T09:33:02.579Z</time>
      </trkpt>
      <trkpt lat="44.3958" lon="2.73899">
        <ele>622</ele>
        <time>2019-04-07T09:33:04.579Z</time>
      </trkpt>
      <trkpt lat="44.39575" lon="2.73899">
        <ele>622</ele>
        <time>2019-04-07T09:33:06.579Z</time>
      </trkpt>
      <trkpt lat="44.39569" lon="2.739">
        <ele>622</ele>
        <time>2019-04-07T09:33:08.579Z</time>
      </trkpt>
      <trkpt lat="44.39564" lon="2.73901">
        <ele>622.4169856</ele>
        <time>2019-04-07T09:33:10.579Z</time>
      </trkpt>
      <trkpt lat="44.39556" lon="2.73902">
        <ele>625</ele>
        <time>2019-04-07T09:33:13.579Z</time>
      </trkpt>
      <trkpt lat="44.39549" lon="2.73905">
        <ele>626</ele>
        <time>2019-04-07T09:33:16.579Z</time>
      </trkpt>
      <trkpt lat="44.39543" lon="2.73908">
        <ele>626</ele>
        <time>2019-04-07T09:33:19.579Z</time>
      </trkpt>
      <trkpt lat="44.39537" lon="2.73913">
        <ele>627</ele>
        <time>2019-04-07T09:33:22.579Z</time>
      </trkpt>
      <trkpt lat="44.39534" lon="2.73921">
        <ele>627</ele>
        <time>2019-04-07T09:33:25.579Z</time>
      </trkpt>
      <trkpt lat="44.3953" lon="2.73933">
        <ele>627</ele>
        <time>2019-04-07T09:33:29.579Z</time>
      </trkpt>
      <trkpt lat="44.39527" lon="2.73944">
        <ele>630</ele>
        <time>2019-04-07T09:33:33.579Z</time>
      </trkpt>
      <trkpt lat="44.39523" lon="2.73954">
        <ele>632</ele>
        <time>2019-04-07T09:33:37.579Z</time>
      </trkpt>
      <trkpt lat="44.39518" lon="2.73964">
        <ele>633</ele>
        <time>2019-04-07T09:33:41.579Z</time>
      </trkpt>
      <trkpt lat="44.39513" lon="2.73972">
        <ele>633</ele>
        <time>2019-04-07T09:33:44.579Z</time>
      </trkpt>
      <trkpt lat="44.39508" lon="2.73981">
        <ele>634</ele>
        <time>2019-04-07T09:33:47.579Z</time>
      </trkpt>
      <trkpt lat="44.39501" lon="2.73991">
        <ele>635</ele>
        <time>2019-04-07T09:33:50.579Z</time>
      </trkpt>
      <trkpt lat="44.39495" lon="2.74">
        <ele>636</ele>
        <time>2019-04-07T09:33:53.579Z</time>
      </trkpt>
      <trkpt lat="44.39488" lon="2.74008">
        <ele>636</ele>
        <time>2019-04-07T09:33:56.579Z</time>
      </trkpt>
      <trkpt lat="44.39481" lon="2.74018">
        <ele>636.4169856</ele>
        <time>2019-04-07T09:34:00.579Z</time>
      </trkpt>
      <trkpt lat="44.39475" lon="2.74028">
        <ele>639</ele>
        <time>2019-04-07T09:34:04.579Z</time>
      </trkpt>
      <trkpt lat="44.39471" lon="2.74038">
        <ele>639</ele>
        <time>2019-04-07T09:34:07.579Z</time>
      </trkpt>
      <trkpt lat="44.39467" lon="2.74045">
        <ele>639</ele>
        <time>2019-04-07T09:34:09.579Z</time>
      </trkpt>
      <trkpt lat="44.39462" lon="2.74056">
        <ele>640</ele>
        <time>2019-04-07T09:34:12.579Z</time>
      </trkpt>
      <trkpt lat="44.39459" lon="2.74062">
        <ele>640</ele>
        <time>2019-04-07T09:34:14.579Z</time>
      </trkpt>
      <trkpt lat="44.39452" lon="2.74073">
        <ele>640</ele>
        <time>2019-04-07T09:34:18.579Z</time>
      </trkpt>
      <trkpt lat="44.39443" lon="2.74082">
        <ele>641</ele>
        <time>2019-04-07T09:34:23.579Z</time>
      </trkpt>
      <trkpt lat="44.39436" lon="2.74088">
        <ele>641</ele>
        <time>2019-04-07T09:34:26.579Z</time>
      </trkpt>
      <trkpt lat="44.39429" lon="2.74095">
        <ele>641</ele>
        <time>2019-04-07T09:34:29.579Z</time>
      </trkpt>
      <trkpt lat="44.39422" lon="2.74106">
        <ele>643</ele>
        <time>2019-04-07T09:34:32.579Z</time>
      </trkpt>
      <trkpt lat="44.39414" lon="2.74118">
        <ele>643</ele>
        <time>2019-04-07T09:34:35.579Z</time>
      </trkpt>
      <trkpt lat="44.39406" lon="2.74132">
        <ele>643</ele>
        <time>2019-04-07T09:34:38.579Z</time>
      </trkpt>
      <trkpt lat="44.39399" lon="2.74145">
        <ele>644</ele>
        <time>2019-04-07T09:34:41.579Z</time>
      </trkpt>
      <trkpt lat="44.39393" lon="2.7416">
        <ele>644</ele>
        <time>2019-04-07T09:34:44.579Z</time>
      </trkpt>
      <trkpt lat="44.39389" lon="2.74169">
        <ele>644</ele>
        <time>2019-04-07T09:34:46.579Z</time>
      </trkpt>
      <trkpt lat="44.39383" lon="2.7418">
        <ele>644</ele>
        <time>2019-04-07T09:34:49.579Z</time>
      </trkpt>
      <trkpt lat="44.39377" lon="2.74191">
        <ele>645</ele>
        <time>2019-04-07T09:34:52.579Z</time>
      </trkpt>
      <trkpt lat="44.39371" lon="2.74203">
        <ele>645</ele>
        <time>2019-04-07T09:34:55.579Z</time>
      </trkpt>
      <trkpt lat="44.39365" lon="2.74212">
        <ele>645</ele>
        <time>2019-04-07T09:34:57.579Z</time>
      </trkpt>
      <trkpt lat="44.3936" lon="2.7422">
        <ele>645</ele>
        <time>2019-04-07T09:34:59.579Z</time>
      </trkpt>
      <trkpt lat="44.39356" lon="2.74228">
        <ele>645</ele>
        <time>2019-04-07T09:35:01.579Z</time>
      </trkpt>
      <trkpt lat="44.39352" lon="2.74237">
        <ele>645</ele>
        <time>2019-04-07T09:35:03.579Z</time>
      </trkpt>
      <trkpt lat="44.3935" lon="2.74246">
        <ele>645.1389952</ele>
        <time>2019-04-07T09:35:05.579Z</time>
      </trkpt>
      <trkpt lat="44.39345" lon="2.74259">
        <ele>646</ele>
        <time>2019-04-07T09:35:08.579Z</time>
      </trkpt>
      <trkpt lat="44.39342" lon="2.74267">
        <ele>646.1389952</ele>
        <time>2019-04-07T09:35:10.579Z</time>
      </trkpt>
      <trkpt lat="44.39338" lon="2.74275">
        <ele>647</ele>
        <time>2019-04-07T09:35:12.579Z</time>
      </trkpt>
      <trkpt lat="44.39335" lon="2.74283">
        <ele>648</ele>
        <time>2019-04-07T09:35:14.579Z</time>
      </trkpt>
      <trkpt lat="44.39332" lon="2.74291">
        <ele>648</ele>
        <time>2019-04-07T09:35:16.579Z</time>
      </trkpt>
      <trkpt lat="44.39329" lon="2.74299">
        <ele>648</ele>
        <time>2019-04-07T09:35:18.579Z</time>
      </trkpt>
      <trkpt lat="44.39327" lon="2.74307">
        <ele>648.26060198593</ele>
        <time>2019-04-07T09:35:20.579Z</time>
      </trkpt>
      <trkpt lat="44.39323" lon="2.74318">
        <ele>650</ele>
        <time>2019-04-07T09:35:23.579Z</time>
      </trkpt>
      <trkpt lat="44.39319" lon="2.74327">
        <ele>650</ele>
        <time>2019-04-07T09:35:26.579Z</time>
      </trkpt>
      <trkpt lat="44.39314" lon="2.7434">
        <ele>651.1389952</ele>
        <time>2019-04-07T09:35:30.579Z</time>
      </trkpt>
      <trkpt lat="44.39309" lon="2.74352">
        <ele>652</ele>
        <time>2019-04-07T09:35:34.579Z</time>
      </trkpt>
      <trkpt lat="44.39305" lon="2.74361">
        <ele>652</ele>
        <time>2019-04-07T09:35:37.579Z</time>
      </trkpt>
      <trkpt lat="44.39302" lon="2.7437">
        <ele>653.1389952</ele>
        <time>2019-04-07T09:35:40.579Z</time>
      </trkpt>
      <trkpt lat="44.39299" lon="2.74375">
        <ele>654</ele>
        <time>2019-04-07T09:35:42.579Z</time>
      </trkpt>
      <trkpt lat="44.39296" lon="2.74384">
        <ele>654</ele>
        <time>2019-04-07T09:35:45.579Z</time>
      </trkpt>
      <trkpt lat="44.39294" lon="2.7439">
        <ele>654</ele>
        <time>2019-04-07T09:35:47.579Z</time>
      </trkpt>
      <trkpt lat="44.39292" lon="2.74396">
        <ele>655</ele>
        <time>2019-04-07T09:35:49.579Z</time>
      </trkpt>
      <trkpt lat="44.3929" lon="2.74402">
        <ele>657</ele>
        <time>2019-04-07T09:35:51.579Z</time>
      </trkpt>
      <trkpt lat="44.39289" lon="2.74408">
        <ele>657</ele>
        <time>2019-04-07T09:35:53.579Z</time>
      </trkpt>
      <trkpt lat="44.39284" lon="2.74415">
        <ele>659</ele>
        <time>2019-04-07T09:35:56.579Z</time>
      </trkpt>
      <trkpt lat="44.39278" lon="2.74423">
        <ele>661</ele>
        <time>2019-04-07T09:36:01.579Z</time>
      </trkpt>
      <trkpt lat="44.39271" lon="2.74428">
        <ele>661.1389952</ele>
        <time>2019-04-07T09:36:05.579Z</time>
      </trkpt>
      <trkpt lat="44.39264" lon="2.74436">
        <ele>662.1389952</ele>
        <time>2019-04-07T09:36:10.579Z</time>
      </trkpt>
      <trkpt lat="44.39256" lon="2.74443">
        <ele>663</ele>
        <time>2019-04-07T09:36:15.579Z</time>
      </trkpt>
      <trkpt lat="44.3925" lon="2.7445">
        <ele>663</ele>
        <time>2019-04-07T09:36:19.579Z</time>
      </trkpt>
      <trkpt lat="44.39242" lon="2.74458">
        <ele>665</ele>
        <time>2019-04-07T09:36:24.579Z</time>
      </trkpt>
      <trkpt lat="44.39234" lon="2.74463">
        <ele>665</ele>
        <time>2019-04-07T09:36:29.579Z</time>
      </trkpt>
      <trkpt lat="44.39228" lon="2.74472">
        <ele>667</ele>
        <time>2019-04-07T09:36:36.579Z</time>
      </trkpt>
      <trkpt lat="44.39222" lon="2.74482">
        <ele>670</ele>
        <time>2019-04-07T09:36:44.579Z</time>
      </trkpt>
      <trkpt lat="44.39215" lon="2.74492">
        <ele>672</ele>
        <time>2019-04-07T09:36:53.579Z</time>
      </trkpt>
      <trkpt lat="44.3921" lon="2.74504">
        <ele>673.1389952</ele>
        <time>2019-04-07T09:37:05.579Z</time>
      </trkpt>
      <trkpt lat="44.39201" lon="2.74512">
        <ele>675</ele>
        <time>2019-04-07T09:37:15.579Z</time>
      </trkpt>
      <trkpt lat="44.39192" lon="2.7452">
        <ele>677</ele>
        <time>2019-04-07T09:37:27.579Z</time>
      </trkpt>
      <trkpt lat="44.39181" lon="2.7452">
        <ele>683</ele>
        <time>2019-04-07T09:37:43.579Z</time>
      </trkpt>
      <trkpt lat="44.39172" lon="2.74515">
        <ele>684</ele>
        <time>2019-04-07T09:37:54.579Z</time>
      </trkpt>
      <trkpt lat="44.39162" lon="2.74511">
        <ele>686</ele>
        <time>2019-04-07T09:38:03.579Z</time>
      </trkpt>
      <trkpt lat="44.39152" lon="2.74505">
        <ele>688</ele>
        <time>2019-04-07T09:38:12.579Z</time>
      </trkpt>
      <trkpt lat="44.39142" lon="2.74499">
        <ele>688</ele>
        <time>2019-04-07T09:38:18.579Z</time>
      </trkpt>
      <trkpt lat="44.39132" lon="2.74491">
        <ele>689</ele>
        <time>2019-04-07T09:38:27.579Z</time>
      </trkpt>
      <trkpt lat="44.39123" lon="2.74487">
        <ele>691</ele>
        <time>2019-04-07T09:38:38.579Z</time>
      </trkpt>
      <trkpt lat="44.39113" lon="2.74483">
        <ele>693.13847108275</ele>
        <time>2019-04-07T09:38:50.579Z</time>
      </trkpt>
      <trkpt lat="44.39104" lon="2.74479">
        <ele>694.4199808</ele>
        <time>2019-04-07T09:39:00.579Z</time>
      </trkpt>
      <trkpt lat="44.39093" lon="2.74474">
        <ele>700</ele>
        <time>2019-04-07T09:39:11.579Z</time>
      </trkpt>
      <trkpt lat="44.39084" lon="2.74469">
        <ele>701</ele>
        <time>2019-04-07T09:39:19.579Z</time>
      </trkpt>
      <trkpt lat="44.39075" lon="2.74467">
        <ele>702</ele>
        <time>2019-04-07T09:39:31.579Z</time>
      </trkpt>
      <trkpt lat="44.39065" lon="2.7447">
        <ele>702</ele>
        <time>2019-04-07T09:39:39.579Z</time>
      </trkpt>
      <trkpt lat="44.39055" lon="2.74476">
        <ele>705.1389952</ele>
        <time>2019-04-07T09:39:45.579Z</time>
      </trkpt>
      <trkpt lat="44.39045" lon="2.74478">
        <ele>706</ele>
        <time>2019-04-07T09:39:49.579Z</time>
      </trkpt>
      <trkpt lat="44.39037" lon="2.74484">
        <ele>707</ele>
        <time>2019-04-07T09:39:55.579Z</time>
      </trkpt>
      <trkpt lat="44.3903" lon="2.74489">
        <ele>710</ele>
        <time>2019-04-07T09:40:01.579Z</time>
      </trkpt>
      <trkpt lat="44.39023" lon="2.74495">
        <ele>711</ele>
        <time>2019-04-07T09:40:08.579Z</time>
      </trkpt>
      <trkpt lat="44.39015" lon="2.74501">
        <ele>711</ele>
        <time>2019-04-07T09:40:16.579Z</time>
      </trkpt>
      <trkpt lat="44.39009" lon="2.7451">
        <ele>713</ele>
        <time>2019-04-07T09:40:25.579Z</time>
      </trkpt>
      <trkpt lat="44.39001" lon="2.74516">
        <ele>715</ele>
        <time>2019-04-07T09:40:34.579Z</time>
      </trkpt>
      <trkpt lat="44.38995" lon="2.74524">
        <ele>717</ele>
        <time>2019-04-07T09:40:41.579Z</time>
      </trkpt>
      <trkpt lat="44.38988" lon="2.74528">
        <ele>717</ele>
        <time>2019-04-07T09:40:49.579Z</time>
      </trkpt>
      <trkpt lat="44.38982" lon="2.74535">
        <ele>718</ele>
        <time>2019-04-07T09:40:56.579Z</time>
      </trkpt>
      <trkpt lat="44.38976" lon="2.74542">
        <ele>718.2779904</ele>
        <time>2019-04-07T09:41:00.579Z</time>
      </trkpt>
      <trkpt lat="44.38969" lon="2.74547">
        <ele>720</ele>
        <time>2019-04-07T09:41:04.579Z</time>
      </trkpt>
      <trkpt lat="44.38963" lon="2.74556">
        <ele>720</ele>
        <time>2019-04-07T09:41:08.579Z</time>
      </trkpt>
      <trkpt lat="44.38956" lon="2.74562">
        <ele>721</ele>
        <time>2019-04-07T09:41:13.579Z</time>
      </trkpt>
      <trkpt lat="44.38949" lon="2.7457">
        <ele>721.2779904</ele>
        <time>2019-04-07T09:41:20.579Z</time>
      </trkpt>
      <trkpt lat="44.3894" lon="2.7458">
        <ele>723</ele>
        <time>2019-04-07T09:41:27.579Z</time>
      </trkpt>
      <trkpt lat="44.3893" lon="2.74586">
        <ele>725</ele>
        <time>2019-04-07T09:41:32.579Z</time>
      </trkpt>
      <trkpt lat="44.38922" lon="2.74592">
        <ele>725</ele>
        <time>2019-04-07T09:41:38.579Z</time>
      </trkpt>
      <trkpt lat="44.38913" lon="2.74595">
        <ele>727</ele>
        <time>2019-04-07T09:41:44.579Z</time>
      </trkpt>
      <trkpt lat="44.38906" lon="2.74597">
        <ele>727</ele>
        <time>2019-04-07T09:41:48.579Z</time>
      </trkpt>
      <trkpt lat="44.38896" lon="2.746">
        <ele>729</ele>
        <time>2019-04-07T09:41:53.579Z</time>
      </trkpt>
      <trkpt lat="44.38889" lon="2.74603">
        <ele>731</ele>
        <time>2019-04-07T09:41:59.579Z</time>
      </trkpt>
      <trkpt lat="44.3888" lon="2.74607">
        <ele>734</ele>
        <time>2019-04-07T09:42:06.579Z</time>
      </trkpt>
      <trkpt lat="44.38871" lon="2.7461">
        <ele>735</ele>
        <time>2019-04-07T09:42:11.579Z</time>
      </trkpt>
      <trkpt lat="44.38863" lon="2.74612">
        <ele>735</ele>
        <time>2019-04-07T09:42:15.579Z</time>
      </trkpt>
      <trkpt lat="44.38856" lon="2.74615">
        <ele>735</ele>
        <time>2019-04-07T09:42:19.579Z</time>
      </trkpt>
      <trkpt lat="44.38846" lon="2.74619">
        <ele>737</ele>
        <time>2019-04-07T09:42:24.579Z</time>
      </trkpt>
      <trkpt lat="44.38839" lon="2.74623">
        <ele>737</ele>
        <time>2019-04-07T09:42:29.579Z</time>
      </trkpt>
      <trkpt lat="44.3883" lon="2.74626">
        <ele>738</ele>
        <time>2019-04-07T09:42:34.579Z</time>
      </trkpt>
      <trkpt lat="44.38821" lon="2.74632">
        <ele>738</ele>
        <time>2019-04-07T09:42:39.579Z</time>
      </trkpt>
      <trkpt lat="44.38813" lon="2.74639">
        <ele>739</ele>
        <time>2019-04-07T09:42:44.579Z</time>
      </trkpt>
      <trkpt lat="44.38804" lon="2.74643">
        <ele>739</ele>
        <time>2019-04-07T09:42:48.579Z</time>
      </trkpt>
      <trkpt lat="44.38796" lon="2.74648">
        <ele>741</ele>
        <time>2019-04-07T09:42:52.579Z</time>
      </trkpt>
      <trkpt lat="44.38788" lon="2.74654">
        <ele>741</ele>
        <time>2019-04-07T09:42:59.579Z</time>
      </trkpt>
      <trkpt lat="44.3878" lon="2.74661">
        <ele>744</ele>
        <time>2019-04-07T09:43:04.579Z</time>
      </trkpt>
      <trkpt lat="44.38772" lon="2.74668">
        <ele>746</ele>
        <time>2019-04-07T09:43:12.579Z</time>
      </trkpt>
      <trkpt lat="44.38764" lon="2.74676">
        <ele>746</ele>
        <time>2019-04-07T09:43:19.579Z</time>
      </trkpt>
      <trkpt lat="44.38757" lon="2.74687">
        <ele>747</ele>
        <time>2019-04-07T09:43:25.579Z</time>
      </trkpt>
      <trkpt lat="44.38749" lon="2.74696">
        <ele>749</ele>
        <time>2019-04-07T09:43:31.579Z</time>
      </trkpt>
      <trkpt lat="44.38741" lon="2.74702">
        <ele>749</ele>
        <time>2019-04-07T09:43:36.579Z</time>
      </trkpt>
      <trkpt lat="44.38733" lon="2.74706">
        <ele>749.4169856</ele>
        <time>2019-04-07T09:43:40.579Z</time>
      </trkpt>
      <trkpt lat="44.38722" lon="2.74709">
        <ele>752</ele>
        <time>2019-04-07T09:43:44.579Z</time>
      </trkpt>
      <trkpt lat="44.38715" lon="2.74715">
        <ele>753</ele>
        <time>2019-04-07T09:43:48.579Z</time>
      </trkpt>
      <trkpt lat="44.38707" lon="2.7472">
        <ele>754</ele>
        <time>2019-04-07T09:43:52.579Z</time>
      </trkpt>
      <trkpt lat="44.38699" lon="2.74725">
        <ele>754</ele>
        <time>2019-04-07T09:43:55.579Z</time>
      </trkpt>
      <trkpt lat="44.38691" lon="2.74732">
        <ele>754</ele>
        <time>2019-04-07T09:43:59.579Z</time>
      </trkpt>
      <trkpt lat="44.38681" lon="2.74737">
        <ele>756</ele>
        <time>2019-04-07T09:44:06.579Z</time>
      </trkpt>
      <trkpt lat="44.38671" lon="2.74743">
        <ele>757</ele>
        <time>2019-04-07T09:44:12.579Z</time>
      </trkpt>
      <trkpt lat="44.38661" lon="2.74752">
        <ele>757</ele>
        <time>2019-04-07T09:44:16.579Z</time>
      </trkpt>
      <trkpt lat="44.38652" lon="2.74758">
        <ele>757.4169856</ele>
        <time>2019-04-07T09:44:20.579Z</time>
      </trkpt>
      <trkpt lat="44.38643" lon="2.74764">
        <ele>760</ele>
        <time>2019-04-07T09:44:25.579Z</time>
      </trkpt>
      <trkpt lat="44.38635" lon="2.74769">
        <ele>760.1389952</ele>
        <time>2019-04-07T09:44:30.579Z</time>
      </trkpt>
      <trkpt lat="44.38625" lon="2.74776">
        <ele>761</ele>
        <time>2019-04-07T09:44:35.579Z</time>
      </trkpt>
      <trkpt lat="44.38614" lon="2.74784">
        <ele>761.2779904</ele>
        <time>2019-04-07T09:44:40.579Z</time>
      </trkpt>
      <trkpt lat="44.38605" lon="2.74792">
        <ele>763</ele>
        <time>2019-04-07T09:44:44.579Z</time>
      </trkpt>
      <trkpt lat="44.386" lon="2.74802">
        <ele>763</ele>
        <time>2019-04-07T09:44:48.579Z</time>
      </trkpt>
      <trkpt lat="44.38595" lon="2.74816">
        <ele>766</ele>
        <time>2019-04-07T09:44:53.579Z</time>
      </trkpt>
      <trkpt lat="44.38586" lon="2.74825">
        <ele>767</ele>
        <time>2019-04-07T09:44:59.579Z</time>
      </trkpt>
      <trkpt lat="44.38579" lon="2.74831">
        <ele>768</ele>
        <time>2019-04-07T09:45:03.579Z</time>
      </trkpt>
      <trkpt lat="44.38574" lon="2.7484">
        <ele>769</ele>
        <time>2019-04-07T09:45:07.579Z</time>
      </trkpt>
      <trkpt lat="44.38569" lon="2.74852">
        <ele>769</ele>
        <time>2019-04-07T09:45:13.579Z</time>
      </trkpt>
      <trkpt lat="44.38564" lon="2.74862">
        <ele>769</ele>
        <time>2019-04-07T09:45:17.579Z</time>
      </trkpt>
      <trkpt lat="44.38559" lon="2.74873">
        <ele>771</ele>
        <time>2019-04-07T09:45:21.579Z</time>
      </trkpt>
      <trkpt lat="44.38554" lon="2.74886">
        <ele>771</ele>
        <time>2019-04-07T09:45:26.579Z</time>
      </trkpt>
      <trkpt lat="44.38549" lon="2.74899">
        <ele>771.4169856</ele>
        <time>2019-04-07T09:45:30.579Z</time>
      </trkpt>
      <trkpt lat="44.38544" lon="2.7491">
        <ele>774</ele>
        <time>2019-04-07T09:45:34.579Z</time>
      </trkpt>
      <trkpt lat="44.38534" lon="2.74918">
        <ele>775</ele>
        <time>2019-04-07T09:45:39.579Z</time>
      </trkpt>
      <trkpt lat="44.38525" lon="2.7492">
        <ele>776</ele>
        <time>2019-04-07T09:45:43.579Z</time>
      </trkpt>
      <trkpt lat="44.38516" lon="2.74923">
        <ele>776</ele>
        <time>2019-04-07T09:45:49.579Z</time>
      </trkpt>
      <trkpt lat="44.38507" lon="2.74924">
        <ele>778</ele>
        <time>2019-04-07T09:45:55.579Z</time>
      </trkpt>
      <trkpt lat="44.38498" lon="2.74927">
        <ele>780</ele>
        <time>2019-04-07T09:46:06.579Z</time>
      </trkpt>
      <trkpt lat="44.38491" lon="2.74932">
        <ele>780.2779904</ele>
        <time>2019-04-07T09:46:10.579Z</time>
      </trkpt>
      <trkpt lat="44.38481" lon="2.74935">
        <ele>782</ele>
        <time>2019-04-07T09:46:15.579Z</time>
      </trkpt>
      <trkpt lat="44.38473" lon="2.74939">
        <ele>782.2779904</ele>
        <time>2019-04-07T09:46:20.579Z</time>
      </trkpt>
      <trkpt lat="44.38465" lon="2.74943">
        <ele>784</ele>
        <time>2019-04-07T09:46:29.579Z</time>
      </trkpt>
      <trkpt lat="44.38454" lon="2.74947">
        <ele>785</ele>
        <time>2019-04-07T09:46:39.579Z</time>
      </trkpt>
      <trkpt lat="44.38444" lon="2.7495">
        <ele>788.13030099297</ele>
        <time>2019-04-07T09:46:45.579Z</time>
      </trkpt>
      <trkpt lat="44.38435" lon="2.74952">
        <ele>790</ele>
        <time>2019-04-07T09:46:54.579Z</time>
      </trkpt>
      <trkpt lat="44.38426" lon="2.74956">
        <ele>792</ele>
        <time>2019-04-07T09:47:03.579Z</time>
      </trkpt>
      <trkpt lat="44.38418" lon="2.74961">
        <ele>792.2779904</ele>
        <time>2019-04-07T09:47:10.579Z</time>
      </trkpt>
      <trkpt lat="44.38407" lon="2.74965">
        <ele>794</ele>
        <time>2019-04-07T09:47:17.579Z</time>
      </trkpt>
      <trkpt lat="44.38397" lon="2.74968">
        <ele>796</ele>
        <time>2019-04-07T09:47:23.579Z</time>
      </trkpt>
      <trkpt lat="44.38387" lon="2.74973">
        <ele>796.4169856</ele>
        <time>2019-04-07T09:47:30.579Z</time>
      </trkpt>
      <trkpt lat="44.38377" lon="2.74971">
        <ele>800</ele>
        <time>2019-04-07T09:47:36.579Z</time>
      </trkpt>
      <trkpt lat="44.38367" lon="2.74965">
        <ele>802</ele>
        <time>2019-04-07T09:47:42.579Z</time>
      </trkpt>
      <trkpt lat="44.38358" lon="2.74962">
        <ele>803</ele>
        <time>2019-04-07T09:47:47.579Z</time>
      </trkpt>
      <trkpt lat="44.38348" lon="2.74959">
        <ele>803.1389952</ele>
        <time>2019-04-07T09:47:50.579Z</time>
      </trkpt>
      <trkpt lat="44.3834" lon="2.74956">
        <ele>804</ele>
        <time>2019-04-07T09:47:53.579Z</time>
      </trkpt>
      <trkpt lat="44.38329" lon="2.74955">
        <ele>804</ele>
        <time>2019-04-07T09:47:58.579Z</time>
      </trkpt>
      <trkpt lat="44.38321" lon="2.74955">
        <ele>805</ele>
        <time>2019-04-07T09:48:02.579Z</time>
      </trkpt>
      <trkpt lat="44.38312" lon="2.74957">
        <ele>805</ele>
        <time>2019-04-07T09:48:08.579Z</time>
      </trkpt>
      <trkpt lat="44.38303" lon="2.74958">
        <ele>806</ele>
        <time>2019-04-07T09:48:13.579Z</time>
      </trkpt>
      <trkpt lat="44.38294" lon="2.74956">
        <ele>806.1389952</ele>
        <time>2019-04-07T09:48:18.579Z</time>
      </trkpt>
      <trkpt lat="44.38284" lon="2.74953">
        <ele>809</ele>
        <time>2019-04-07T09:48:24.579Z</time>
      </trkpt>
      <trkpt lat="44.38275" lon="2.74952">
        <ele>812</ele>
        <time>2019-04-07T09:48:30.579Z</time>
      </trkpt>
      <trkpt lat="44.38266" lon="2.74952">
        <ele>812.2779904</ele>
        <time>2019-04-07T09:48:35.579Z</time>
      </trkpt>
      <trkpt lat="44.38257" lon="2.74952">
        <ele>814.1389952</ele>
        <time>2019-04-07T09:48:40.579Z</time>
      </trkpt>
      <trkpt lat="44.38246" lon="2.74953">
        <ele>817</ele>
        <time>2019-04-07T09:48:48.579Z</time>
      </trkpt>
      <trkpt lat="44.38236" lon="2.74954">
        <ele>818</ele>
        <time>2019-04-07T09:48:54.579Z</time>
      </trkpt>
      <trkpt lat="44.38227" lon="2.74954">
        <ele>818</ele>
        <time>2019-04-07T09:48:59.579Z</time>
      </trkpt>
      <trkpt lat="44.38217" lon="2.74955">
        <ele>820</ele>
        <time>2019-04-07T09:49:04.579Z</time>
      </trkpt>
      <trkpt lat="44.38209" lon="2.74957">
        <ele>821</ele>
        <time>2019-04-07T09:49:09.579Z</time>
      </trkpt>
      <trkpt lat="44.38201" lon="2.74958">
        <ele>823.1389952</ele>
        <time>2019-04-07T09:49:15.579Z</time>
      </trkpt>
      <trkpt lat="44.38192" lon="2.74958">
        <ele>825</ele>
        <time>2019-04-07T09:49:22.579Z</time>
      </trkpt>
      <trkpt lat="44.38184" lon="2.74957">
        <ele>825</ele>
        <time>2019-04-07T09:49:27.579Z</time>
      </trkpt>
      <trkpt lat="44.38175" lon="2.74958">
        <ele>827</ele>
        <time>2019-04-07T09:49:32.579Z</time>
      </trkpt>
      <trkpt lat="44.38166" lon="2.74959">
        <ele>827</ele>
        <time>2019-04-07T09:49:37.579Z</time>
      </trkpt>
      <trkpt lat="44.38158" lon="2.74959">
        <ele>829</ele>
        <time>2019-04-07T09:49:41.579Z</time>
      </trkpt>
      <trkpt lat="44.38151" lon="2.74962">
        <ele>829.1389952</ele>
        <time>2019-04-07T09:49:45.579Z</time>
      </trkpt>
      <trkpt lat="44.38144" lon="2.74966">
        <ele>830.2779904</ele>
        <time>2019-04-07T09:49:50.579Z</time>
      </trkpt>
      <trkpt lat="44.38138" lon="2.74969">
        <ele>832</ele>
        <time>2019-04-07T09:49:55.579Z</time>
      </trkpt>
      <trkpt lat="44.38129" lon="2.74972">
        <ele>832</ele>
        <time>2019-04-07T09:50:05.579Z</time>
      </trkpt>
      <trkpt lat="44.38123" lon="2.74976">
        <ele>832.2779904</ele>
        <time>2019-04-07T09:50:10.579Z</time>
      </trkpt>
      <trkpt lat="44.38116" lon="2.74979">
        <ele>834</ele>
        <time>2019-04-07T09:50:15.579Z</time>
      </trkpt>
      <trkpt lat="44.38109" lon="2.74988">
        <ele>837</ele>
        <time>2019-04-07T09:50:23.579Z</time>
      </trkpt>
      <trkpt lat="44.38104" lon="2.74996">
        <ele>838.1389952</ele>
        <time>2019-04-07T09:50:30.579Z</time>
      </trkpt>
      <trkpt lat="44.38096" lon="2.75002">
        <ele>839</ele>
        <time>2019-04-07T09:50:35.579Z</time>
      </trkpt>
      <trkpt lat="44.38089" lon="2.75006">
        <ele>839</ele>
        <time>2019-04-07T09:50:38.579Z</time>
      </trkpt>
      <trkpt lat="44.3808" lon="2.75015">
        <ele>841</ele>
        <time>2019-04-07T09:50:43.579Z</time>
      </trkpt>
      <trkpt lat="44.38072" lon="2.75023">
        <ele>841</ele>
        <time>2019-04-07T09:50:46.579Z</time>
      </trkpt>
      <trkpt lat="44.38065" lon="2.75034">
        <ele>841</ele>
        <time>2019-04-07T09:50:49.579Z</time>
      </trkpt>
      <trkpt lat="44.38057" lon="2.75045">
        <ele>842</ele>
        <time>2019-04-07T09:50:52.579Z</time>
      </trkpt>
      <trkpt lat="44.38046" lon="2.75053">
        <ele>842</ele>
        <time>2019-04-07T09:50:55.579Z</time>
      </trkpt>
      <trkpt lat="44.38037" lon="2.7506">
        <ele>842</ele>
        <time>2019-04-07T09:50:58.579Z</time>
      </trkpt>
      <trkpt lat="44.38024" lon="2.75067">
        <ele>843</ele>
        <time>2019-04-07T09:51:01.579Z</time>
      </trkpt>
      <trkpt lat="44.38015" lon="2.75074">
        <ele>843</ele>
        <time>2019-04-07T09:51:03.579Z</time>
      </trkpt>
      <trkpt lat="44.38006" lon="2.75082">
        <ele>843</ele>
        <time>2019-04-07T09:51:05.579Z</time>
      </trkpt>
      <trkpt lat="44.37997" lon="2.75092">
        <ele>843</ele>
        <time>2019-04-07T09:51:07.579Z</time>
      </trkpt>
      <trkpt lat="44.37985" lon="2.75098">
        <ele>843</ele>
        <time>2019-04-07T09:51:09.579Z</time>
      </trkpt>
      <trkpt lat="44.37975" lon="2.75103">
        <ele>842</ele>
        <time>2019-04-07T09:51:11.579Z</time>
      </trkpt>
      <trkpt lat="44.37966" lon="2.7511">
        <ele>842</ele>
        <time>2019-04-07T09:51:13.579Z</time>
      </trkpt>
      <trkpt lat="44.37956" lon="2.75119">
        <ele>842</ele>
        <time>2019-04-07T09:51:16.579Z</time>
      </trkpt>
      <trkpt lat="44.37945" lon="2.75125">
        <ele>842</ele>
        <time>2019-04-07T09:51:19.579Z</time>
      </trkpt>
      <trkpt lat="44.37933" lon="2.75133">
        <ele>842</ele>
        <time>2019-04-07T09:51:22.579Z</time>
      </trkpt>
      <trkpt lat="44.3792" lon="2.75139">
        <ele>842</ele>
        <time>2019-04-07T09:51:25.579Z</time>
      </trkpt>
      <trkpt lat="44.37908" lon="2.75143">
        <ele>842</ele>
        <time>2019-04-07T09:51:28.579Z</time>
      </trkpt>
      <trkpt lat="44.37898" lon="2.75146">
        <ele>842.2779904</ele>
        <time>2019-04-07T09:51:30.579Z</time>
      </trkpt>
      <trkpt lat="44.37888" lon="2.75145">
        <ele>844</ele>
        <time>2019-04-07T09:51:32.579Z</time>
      </trkpt>
      <trkpt lat="44.37876" lon="2.75136">
        <ele>844</ele>
        <time>2019-04-07T09:51:35.579Z</time>
      </trkpt>
      <trkpt lat="44.37872" lon="2.75123">
        <ele>844</ele>
        <time>2019-04-07T09:51:37.579Z</time>
      </trkpt>
      <trkpt lat="44.3787" lon="2.75108">
        <ele>844</ele>
        <time>2019-04-07T09:51:39.579Z</time>
      </trkpt>
      <trkpt lat="44.37869" lon="2.75101">
        <ele>844.2779904</ele>
        <time>2019-04-07T09:51:40.579Z</time>
      </trkpt>
      <trkpt lat="44.37867" lon="2.75094">
        <ele>846</ele>
        <time>2019-04-07T09:51:41.579Z</time>
      </trkpt>
      <trkpt lat="44.37866" lon="2.75087">
        <ele>846</ele>
        <time>2019-04-07T09:51:42.579Z</time>
      </trkpt>
      <trkpt lat="44.37864" lon="2.75081">
        <ele>846</ele>
        <time>2019-04-07T09:51:43.579Z</time>
      </trkpt>
      <trkpt lat="44.37861" lon="2.75068">
        <ele>846</ele>
        <time>2019-04-07T09:51:45.579Z</time>
      </trkpt>
      <trkpt lat="44.37857" lon="2.75057">
        <ele>846</ele>
        <time>2019-04-07T09:51:47.579Z</time>
      </trkpt>
      <trkpt lat="44.37854" lon="2.75051">
        <ele>846</ele>
        <time>2019-04-07T09:51:48.579Z</time>
      </trkpt>
      <trkpt lat="44.37852" lon="2.75046">
        <ele>846</ele>
        <time>2019-04-07T09:51:49.579Z</time>
      </trkpt>
      <trkpt lat="44.37849" lon="2.75041">
        <ele>846.1389952</ele>
        <time>2019-04-07T09:51:50.579Z</time>
      </trkpt>
      <trkpt lat="44.37846" lon="2.75035">
        <ele>847</ele>
        <time>2019-04-07T09:51:51.579Z</time>
      </trkpt>
      <trkpt lat="44.37844" lon="2.75028">
        <ele>847</ele>
        <time>2019-04-07T09:51:52.579Z</time>
      </trkpt>
      <trkpt lat="44.37842" lon="2.75022">
        <ele>847</ele>
        <time>2019-04-07T09:51:53.579Z</time>
      </trkpt>
      <trkpt lat="44.37839" lon="2.75014">
        <ele>847</ele>
        <time>2019-04-07T09:51:54.579Z</time>
      </trkpt>
      <trkpt lat="44.37837" lon="2.75007">
        <ele>847</ele>
        <time>2019-04-07T09:51:55.579Z</time>
      </trkpt>
      <trkpt lat="44.37835" lon="2.74999">
        <ele>847</ele>
        <time>2019-04-07T09:51:56.579Z</time>
      </trkpt>
      <trkpt lat="44.37831" lon="2.74985">
        <ele>847</ele>
        <time>2019-04-07T09:51:58.579Z</time>
      </trkpt>
      <trkpt lat="44.37829" lon="2.74978">
        <ele>847</ele>
        <time>2019-04-07T09:51:59.579Z</time>
      </trkpt>
      <trkpt lat="44.37827" lon="2.74971">
        <ele>847</ele>
        <time>2019-04-07T09:52:00.579Z</time>
      </trkpt>
      <trkpt lat="44.37823" lon="2.74959">
        <ele>847</ele>
        <time>2019-04-07T09:52:02.579Z</time>
      </trkpt>
      <trkpt lat="44.3782" lon="2.74948">
        <ele>847</ele>
        <time>2019-04-07T09:52:04.579Z</time>
      </trkpt>
      <trkpt lat="44.37817" lon="2.74938">
        <ele>847</ele>
        <time>2019-04-07T09:52:06.579Z</time>
      </trkpt>
      <trkpt lat="44.37814" lon="2.74928">
        <ele>847</ele>
        <time>2019-04-07T09:52:08.579Z</time>
      </trkpt>
      <trkpt lat="44.37809" lon="2.74918">
        <ele>847.1389952</ele>
        <time>2019-04-07T09:52:10.579Z</time>
      </trkpt>
      <trkpt lat="44.37805" lon="2.74907">
        <ele>848</ele>
        <time>2019-04-07T09:52:12.579Z</time>
      </trkpt>
      <trkpt lat="44.37801" lon="2.74897">
        <ele>848</ele>
        <time>2019-04-07T09:52:14.579Z</time>
      </trkpt>
      <trkpt lat="44.37798" lon="2.74891">
        <ele>848</ele>
        <time>2019-04-07T09:52:15.579Z</time>
      </trkpt>
      <trkpt lat="44.37795" lon="2.74876">
        <ele>848</ele>
        <time>2019-04-07T09:52:17.579Z</time>
      </trkpt>
      <trkpt lat="44.37793" lon="2.74868">
        <ele>848</ele>
        <time>2019-04-07T09:52:18.579Z</time>
      </trkpt>
      <trkpt lat="44.37791" lon="2.7486">
        <ele>848</ele>
        <time>2019-04-07T09:52:19.579Z</time>
      </trkpt>
      <trkpt lat="44.37789" lon="2.74851">
        <ele>847.8610048</ele>
        <time>2019-04-07T09:52:20.579Z</time>
      </trkpt>
      <trkpt lat="44.37785" lon="2.74842">
        <ele>847</ele>
        <time>2019-04-07T09:52:21.579Z</time>
      </trkpt>
      <trkpt lat="44.37781" lon="2.74834">
        <ele>847</ele>
        <time>2019-04-07T09:52:22.579Z</time>
      </trkpt>
      <trkpt lat="44.37775" lon="2.74827">
        <ele>847</ele>
        <time>2019-04-07T09:52:23.579Z</time>
      </trkpt>
      <trkpt lat="44.3777" lon="2.74819">
        <ele>847</ele>
        <time>2019-04-07T09:52:24.579Z</time>
      </trkpt>
      <trkpt lat="44.37763" lon="2.74811">
        <ele>847</ele>
        <time>2019-04-07T09:52:25.579Z</time>
      </trkpt>
      <trkpt lat="44.37757" lon="2.74804">
        <ele>847</ele>
        <time>2019-04-07T09:52:26.579Z</time>
      </trkpt>
      <trkpt lat="44.37749" lon="2.74799">
        <ele>847</ele>
        <time>2019-04-07T09:52:27.579Z</time>
      </trkpt>
      <trkpt lat="44.37741" lon="2.74794">
        <ele>847</ele>
        <time>2019-04-07T09:52:28.579Z</time>
      </trkpt>
      <trkpt lat="44.37733" lon="2.7479">
        <ele>847</ele>
        <time>2019-04-07T09:52:29.579Z</time>
      </trkpt>
      <trkpt lat="44.37725" lon="2.74785">
        <ele>846.4440192</ele>
        <time>2019-04-07T09:52:30.579Z</time>
      </trkpt>
      <trkpt lat="44.37718" lon="2.74779">
        <ele>843</ele>
        <time>2019-04-07T09:52:31.579Z</time>
      </trkpt>
      <trkpt lat="44.37702" lon="2.74767">
        <ele>843</ele>
        <time>2019-04-07T09:52:33.579Z</time>
      </trkpt>
      <trkpt lat="44.37687" lon="2.74758">
        <ele>842.5830144</ele>
        <time>2019-04-07T09:52:35.579Z</time>
      </trkpt>
      <trkpt lat="44.37679" lon="2.74755">
        <ele>840</ele>
        <time>2019-04-07T09:52:36.579Z</time>
      </trkpt>
      <trkpt lat="44.37671" lon="2.74752">
        <ele>840</ele>
        <time>2019-04-07T09:52:37.579Z</time>
      </trkpt>
      <trkpt lat="44.37663" lon="2.7475">
        <ele>840</ele>
        <time>2019-04-07T09:52:38.579Z</time>
      </trkpt>
      <trkpt lat="44.37656" lon="2.74747">
        <ele>840</ele>
        <time>2019-04-07T09:52:39.579Z</time>
      </trkpt>
      <trkpt lat="44.37641" lon="2.74739">
        <ele>838</ele>
        <time>2019-04-07T09:52:41.579Z</time>
      </trkpt>
      <trkpt lat="44.37638" lon="2.74723">
        <ele>838</ele>
        <time>2019-04-07T09:52:43.579Z</time>
      </trkpt>
      <trkpt lat="44.3764" lon="2.74703">
        <ele>838</ele>
        <time>2019-04-07T09:52:45.579Z</time>
      </trkpt>
      <trkpt lat="44.37639" lon="2.74691">
        <ele>838</ele>
        <time>2019-04-07T09:52:46.579Z</time>
      </trkpt>
      <trkpt lat="44.37639" lon="2.7468">
        <ele>838</ele>
        <time>2019-04-07T09:52:47.579Z</time>
      </trkpt>
      <trkpt lat="44.37639" lon="2.74669">
        <ele>838</ele>
        <time>2019-04-07T09:52:48.579Z</time>
      </trkpt>
      <trkpt lat="44.37639" lon="2.74657">
        <ele>838</ele>
        <time>2019-04-07T09:52:49.579Z</time>
      </trkpt>
      <trkpt lat="44.3764" lon="2.74645">
        <ele>837.8610048</ele>
        <time>2019-04-07T09:52:50.579Z</time>
      </trkpt>
      <trkpt lat="44.37641" lon="2.74633">
        <ele>837</ele>
        <time>2019-04-07T09:52:51.579Z</time>
      </trkpt>
      <trkpt lat="44.37642" lon="2.74621">
        <ele>837</ele>
        <time>2019-04-07T09:52:52.579Z</time>
      </trkpt>
      <trkpt lat="44.37643" lon="2.74609">
        <ele>837</ele>
        <time>2019-04-07T09:52:53.579Z</time>
      </trkpt>
      <trkpt lat="44.37645" lon="2.74598">
        <ele>837</ele>
        <time>2019-04-07T09:52:54.579Z</time>
      </trkpt>
      <trkpt lat="44.37646" lon="2.74586">
        <ele>837</ele>
        <time>2019-04-07T09:52:55.579Z</time>
      </trkpt>
      <trkpt lat="44.37647" lon="2.74575">
        <ele>837</ele>
        <time>2019-04-07T09:52:56.579Z</time>
      </trkpt>
      <trkpt lat="44.37648" lon="2.74564">
        <ele>837</ele>
        <time>2019-04-07T09:52:57.579Z</time>
      </trkpt>
      <trkpt lat="44.37649" lon="2.74554">
        <ele>837</ele>
        <time>2019-04-07T09:52:58.579Z</time>
      </trkpt>
      <trkpt lat="44.37651" lon="2.74544">
        <ele>837</ele>
        <time>2019-04-07T09:52:59.579Z</time>
      </trkpt>
      <trkpt lat="44.37652" lon="2.74535">
        <ele>837.1389952</ele>
        <time>2019-04-07T09:53:00.579Z</time>
      </trkpt>
      <trkpt lat="44.37654" lon="2.74526">
        <ele>838</ele>
        <time>2019-04-07T09:53:01.579Z</time>
      </trkpt>
      <trkpt lat="44.37655" lon="2.74519">
        <ele>838</ele>
        <time>2019-04-07T09:53:02.579Z</time>
      </trkpt>
      <trkpt lat="44.37656" lon="2.74512">
        <ele>838</ele>
        <time>2019-04-07T09:53:03.579Z</time>
      </trkpt>
      <trkpt lat="44.37658" lon="2.74505">
        <ele>838</ele>
        <time>2019-04-07T09:53:04.579Z</time>
      </trkpt>
      <trkpt lat="44.37661" lon="2.74492">
        <ele>838</ele>
        <time>2019-04-07T09:53:06.579Z</time>
      </trkpt>
      <trkpt lat="44.37665" lon="2.7448">
        <ele>838</ele>
        <time>2019-04-07T09:53:08.579Z</time>
      </trkpt>
      <trkpt lat="44.37669" lon="2.74469">
        <ele>838.4169856</ele>
        <time>2019-04-07T09:53:10.579Z</time>
      </trkpt>
      <trkpt lat="44.37674" lon="2.74457">
        <ele>841</ele>
        <time>2019-04-07T09:53:12.579Z</time>
      </trkpt>
      <trkpt lat="44.37679" lon="2.74447">
        <ele>841</ele>
        <time>2019-04-07T09:53:14.579Z</time>
      </trkpt>
      <trkpt lat="44.37685" lon="2.74436">
        <ele>844</ele>
        <time>2019-04-07T09:53:16.579Z</time>
      </trkpt>
      <trkpt lat="44.37689" lon="2.74424">
        <ele>844</ele>
        <time>2019-04-07T09:53:18.579Z</time>
      </trkpt>
      <trkpt lat="44.37693" lon="2.74413">
        <ele>844</ele>
        <time>2019-04-07T09:53:20.579Z</time>
      </trkpt>
      <trkpt lat="44.37698" lon="2.74402">
        <ele>844</ele>
        <time>2019-04-07T09:53:22.579Z</time>
      </trkpt>
      <trkpt lat="44.37702" lon="2.74391">
        <ele>844</ele>
        <time>2019-04-07T09:53:24.579Z</time>
      </trkpt>
      <trkpt lat="44.37708" lon="2.74378">
        <ele>844</ele>
        <time>2019-04-07T09:53:26.579Z</time>
      </trkpt>
      <trkpt lat="44.37713" lon="2.74365">
        <ele>844</ele>
        <time>2019-04-07T09:53:28.579Z</time>
      </trkpt>
      <trkpt lat="44.37718" lon="2.74352">
        <ele>843.8610048</ele>
        <time>2019-04-07T09:53:30.579Z</time>
      </trkpt>
      <trkpt lat="44.37723" lon="2.74339">
        <ele>843</ele>
        <time>2019-04-07T09:53:32.579Z</time>
      </trkpt>
      <trkpt lat="44.37731" lon="2.74328">
        <ele>843</ele>
        <time>2019-04-07T09:53:34.579Z</time>
      </trkpt>
      <trkpt lat="44.37737" lon="2.74315">
        <ele>843</ele>
        <time>2019-04-07T09:53:36.579Z</time>
      </trkpt>
      <trkpt lat="44.3774" lon="2.743">
        <ele>843</ele>
        <time>2019-04-07T09:53:38.579Z</time>
      </trkpt>
      <trkpt lat="44.37744" lon="2.74284">
        <ele>842.8610048</ele>
        <time>2019-04-07T09:53:40.579Z</time>
      </trkpt>
      <trkpt lat="44.37744" lon="2.74269">
        <ele>842</ele>
        <time>2019-04-07T09:53:42.579Z</time>
      </trkpt>
      <trkpt lat="44.37745" lon="2.7425">
        <ele>842</ele>
        <time>2019-04-07T09:53:45.579Z</time>
      </trkpt>
      <trkpt lat="44.3775" lon="2.74233">
        <ele>842</ele>
        <time>2019-04-07T09:53:48.579Z</time>
      </trkpt>
      <trkpt lat="44.37756" lon="2.74217">
        <ele>842</ele>
        <time>2019-04-07T09:53:51.579Z</time>
      </trkpt>
      <trkpt lat="44.37756" lon="2.74197">
        <ele>842</ele>
        <time>2019-04-07T09:53:54.579Z</time>
      </trkpt>
      <trkpt lat="44.37759" lon="2.74184">
        <ele>842</ele>
        <time>2019-04-07T09:53:56.579Z</time>
      </trkpt>
      <trkpt lat="44.37764" lon="2.74172">
        <ele>842</ele>
        <time>2019-04-07T09:53:58.579Z</time>
      </trkpt>
      <trkpt lat="44.37769" lon="2.74154">
        <ele>841</ele>
        <time>2019-04-07T09:54:01.579Z</time>
      </trkpt>
      <trkpt lat="44.37773" lon="2.7414">
        <ele>841</ele>
        <time>2019-04-07T09:54:03.579Z</time>
      </trkpt>
      <trkpt lat="44.37775" lon="2.74125">
        <ele>841</ele>
        <time>2019-04-07T09:54:05.579Z</time>
      </trkpt>
      <trkpt lat="44.37776" lon="2.74109">
        <ele>841</ele>
        <time>2019-04-07T09:54:07.579Z</time>
      </trkpt>
      <trkpt lat="44.37779" lon="2.74094">
        <ele>841</ele>
        <time>2019-04-07T09:54:09.579Z</time>
      </trkpt>
      <trkpt lat="44.37783" lon="2.74079">
        <ele>841</ele>
        <time>2019-04-07T09:54:11.579Z</time>
      </trkpt>
      <trkpt lat="44.37788" lon="2.74063">
        <ele>841</ele>
        <time>2019-04-07T09:54:13.579Z</time>
      </trkpt>
      <trkpt lat="44.37793" lon="2.74047">
        <ele>841</ele>
        <time>2019-04-07T09:54:15.579Z</time>
      </trkpt>
      <trkpt lat="44.378" lon="2.74033">
        <ele>841</ele>
        <time>2019-04-07T09:54:17.579Z</time>
      </trkpt>
      <trkpt lat="44.37806" lon="2.7402">
        <ele>841</ele>
        <time>2019-04-07T09:54:19.579Z</time>
      </trkpt>
      <trkpt lat="44.37809" lon="2.74004">
        <ele>841</ele>
        <time>2019-04-07T09:54:23.579Z</time>
      </trkpt>
      <trkpt lat="44.37811" lon="2.73991">
        <ele>840</ele>
        <time>2019-04-07T09:54:33.579Z</time>
      </trkpt>
      <trkpt lat="44.37814" lon="2.73979">
        <ele>840</ele>
        <time>2019-04-07T09:54:37.579Z</time>
      </trkpt>
      <trkpt lat="44.37815" lon="2.73962">
        <ele>840.2779904</ele>
        <time>2019-04-07T09:54:40.579Z</time>
      </trkpt>
      <trkpt lat="44.37815" lon="2.73951">
        <ele>842</ele>
        <time>2019-04-07T09:54:42.579Z</time>
      </trkpt>
      <trkpt lat="44.37815" lon="2.73938">
        <ele>842</ele>
        <time>2019-04-07T09:54:44.579Z</time>
      </trkpt>
      <trkpt lat="44.37815" lon="2.73926">
        <ele>842</ele>
        <time>2019-04-07T09:54:46.579Z</time>
      </trkpt>
      <trkpt lat="44.37817" lon="2.73916">
        <ele>842</ele>
        <time>2019-04-07T09:54:48.579Z</time>
      </trkpt>
      <trkpt lat="44.3782" lon="2.73907">
        <ele>842.2779904</ele>
        <time>2019-04-07T09:54:50.579Z</time>
      </trkpt>
      <trkpt lat="44.37822" lon="2.73896">
        <ele>844</ele>
        <time>2019-04-07T09:54:52.579Z</time>
      </trkpt>
      <trkpt lat="44.37824" lon="2.73885">
        <ele>844</ele>
        <time>2019-04-07T09:54:54.579Z</time>
      </trkpt>
      <trkpt lat="44.37825" lon="2.7387">
        <ele>844</ele>
        <time>2019-04-07T09:54:57.579Z</time>
      </trkpt>
      <trkpt lat="44.37827" lon="2.73859">
        <ele>844</ele>
        <time>2019-04-07T09:54:59.579Z</time>
      </trkpt>
      <trkpt lat="44.37829" lon="2.73849">
        <ele>846</ele>
        <time>2019-04-07T09:55:01.579Z</time>
      </trkpt>
      <trkpt lat="44.37832" lon="2.73838">
        <ele>846</ele>
        <time>2019-04-07T09:55:03.579Z</time>
      </trkpt>
      <trkpt lat="44.37835" lon="2.73827">
        <ele>846</ele>
        <time>2019-04-07T09:55:05.579Z</time>
      </trkpt>
      <trkpt lat="44.37838" lon="2.73818">
        <ele>846</ele>
        <time>2019-04-07T09:55:07.579Z</time>
      </trkpt>
      <trkpt lat="44.37841" lon="2.7381">
        <ele>846</ele>
        <time>2019-04-07T09:55:09.579Z</time>
      </trkpt>
      <trkpt lat="44.37845" lon="2.73802">
        <ele>849</ele>
        <time>2019-04-07T09:55:11.579Z</time>
      </trkpt>
      <trkpt lat="44.37849" lon="2.73796">
        <ele>849</ele>
        <time>2019-04-07T09:55:13.579Z</time>
      </trkpt>
      <trkpt lat="44.37855" lon="2.73787">
        <ele>850</ele>
        <time>2019-04-07T09:55:16.579Z</time>
      </trkpt>
      <trkpt lat="44.37862" lon="2.73777">
        <ele>850</ele>
        <time>2019-04-07T09:55:20.579Z</time>
      </trkpt>
      <trkpt lat="44.37869" lon="2.73767">
        <ele>850</ele>
        <time>2019-04-07T09:55:24.579Z</time>
      </trkpt>
      <trkpt lat="44.37874" lon="2.7376">
        <ele>850</ele>
        <time>2019-04-07T09:55:27.579Z</time>
      </trkpt>
      <trkpt lat="44.37875" lon="2.73747">
        <ele>852</ele>
        <time>2019-04-07T09:55:34.579Z</time>
      </trkpt>
      <trkpt lat="44.37874" lon="2.73732">
        <ele>852</ele>
        <time>2019-04-07T09:55:39.579Z</time>
      </trkpt>
      <trkpt lat="44.37863" lon="2.73729">
        <ele>853</ele>
        <time>2019-04-07T09:55:44.579Z</time>
      </trkpt>
      <trkpt lat="44.37851" lon="2.7373">
        <ele>853</ele>
        <time>2019-04-07T09:55:48.579Z</time>
      </trkpt>
      <trkpt lat="44.37841" lon="2.73734">
        <ele>853</ele>
        <time>2019-04-07T09:55:52.579Z</time>
      </trkpt>
      <trkpt lat="44.37834" lon="2.73749">
        <ele>853</ele>
        <time>2019-04-07T09:55:56.579Z</time>
      </trkpt>
      <trkpt lat="44.37824" lon="2.73757">
        <ele>853</ele>
        <time>2019-04-07T09:55:59.579Z</time>
      </trkpt>
      <trkpt lat="44.37814" lon="2.73758">
        <ele>849</ele>
        <time>2019-04-07T09:56:01.579Z</time>
      </trkpt>
      <trkpt lat="44.37804" lon="2.73758">
        <ele>849</ele>
        <time>2019-04-07T09:56:03.579Z</time>
      </trkpt>
      <trkpt lat="44.37792" lon="2.73757">
        <ele>847</ele>
        <time>2019-04-07T09:56:06.579Z</time>
      </trkpt>
      <trkpt lat="44.37782" lon="2.73753">
        <ele>846.4440192</ele>
        <time>2019-04-07T09:56:10.579Z</time>
      </trkpt>
      <trkpt lat="44.37769" lon="2.73748">
        <ele>840.1389952</ele>
        <time>2019-04-07T09:56:15.579Z</time>
      </trkpt>
      <trkpt lat="44.3776" lon="2.73734">
        <ele>839.8610048</ele>
        <time>2019-04-07T09:56:18.579Z</time>
      </trkpt>
      <trkpt lat="44.37748" lon="2.73723">
        <ele>839</ele>
        <time>2019-04-07T09:56:21.579Z</time>
      </trkpt>
      <trkpt lat="44.37743" lon="2.73711">
        <ele>839</ele>
        <time>2019-04-07T09:56:23.579Z</time>
      </trkpt>
      <trkpt lat="44.37736" lon="2.73692">
        <ele>837</ele>
        <time>2019-04-07T09:56:26.579Z</time>
      </trkpt>
      <trkpt lat="44.37728" lon="2.73682">
        <ele>837</ele>
        <time>2019-04-07T09:56:29.579Z</time>
      </trkpt>
      <trkpt lat="44.37716" lon="2.73684">
        <ele>836</ele>
        <time>2019-04-07T09:56:33.579Z</time>
      </trkpt>
      <trkpt lat="44.37707" lon="2.73698">
        <ele>834</ele>
        <time>2019-04-07T09:56:36.579Z</time>
      </trkpt>
      <trkpt lat="44.37696" lon="2.73703">
        <ele>834</ele>
        <time>2019-04-07T09:56:39.579Z</time>
      </trkpt>
      <trkpt lat="44.37684" lon="2.73705">
        <ele>833</ele>
        <time>2019-04-07T09:56:42.579Z</time>
      </trkpt>
      <trkpt lat="44.37675" lon="2.73698">
        <ele>832.7220096</ele>
        <time>2019-04-07T09:56:45.579Z</time>
      </trkpt>
      <trkpt lat="44.37664" lon="2.73703">
        <ele>831</ele>
        <time>2019-04-07T09:56:49.579Z</time>
      </trkpt>
      <trkpt lat="44.37653" lon="2.73709">
        <ele>830</ele>
        <time>2019-04-07T09:56:52.579Z</time>
      </trkpt>
      <trkpt lat="44.37641" lon="2.73704">
        <ele>828</ele>
        <time>2019-04-07T09:56:56.579Z</time>
      </trkpt>
      <trkpt lat="44.37631" lon="2.73697">
        <ele>828</ele>
        <time>2019-04-07T09:56:59.579Z</time>
      </trkpt>
      <trkpt lat="44.37616" lon="2.73693">
        <ele>827</ele>
        <time>2019-04-07T09:57:02.579Z</time>
      </trkpt>
      <trkpt lat="44.37607" lon="2.73691">
        <ele>827</ele>
        <time>2019-04-07T09:57:04.579Z</time>
      </trkpt>
      <trkpt lat="44.37597" lon="2.73687">
        <ele>827</ele>
        <time>2019-04-07T09:57:07.579Z</time>
      </trkpt>
      <trkpt lat="44.37586" lon="2.73681">
        <ele>826.8610048</ele>
        <time>2019-04-07T09:57:10.579Z</time>
      </trkpt>
      <trkpt lat="44.37573" lon="2.73673">
        <ele>826</ele>
        <time>2019-04-07T09:57:14.579Z</time>
      </trkpt>
      <trkpt lat="44.37567" lon="2.73664">
        <ele>826</ele>
        <time>2019-04-07T09:57:16.579Z</time>
      </trkpt>
      <trkpt lat="44.37559" lon="2.73655">
        <ele>826</ele>
        <time>2019-04-07T09:57:19.579Z</time>
      </trkpt>
      <trkpt lat="44.37551" lon="2.73648">
        <ele>826</ele>
        <time>2019-04-07T09:57:22.579Z</time>
      </trkpt>
      <trkpt lat="44.37542" lon="2.7364">
        <ele>826</ele>
        <time>2019-04-07T09:57:26.579Z</time>
      </trkpt>
      <trkpt lat="44.37532" lon="2.73638">
        <ele>825.8610048</ele>
        <time>2019-04-07T09:57:30.579Z</time>
      </trkpt>
      <trkpt lat="44.37522" lon="2.73638">
        <ele>825</ele>
        <time>2019-04-07T09:57:34.579Z</time>
      </trkpt>
      <trkpt lat="44.37513" lon="2.73631">
        <ele>825</ele>
        <time>2019-04-07T09:57:38.579Z</time>
      </trkpt>
      <trkpt lat="44.37506" lon="2.73622">
        <ele>826</ele>
        <time>2019-04-07T09:57:41.579Z</time>
      </trkpt>
      <trkpt lat="44.37498" lon="2.7361">
        <ele>826</ele>
        <time>2019-04-07T09:57:44.579Z</time>
      </trkpt>
      <trkpt lat="44.37489" lon="2.73599">
        <ele>826</ele>
        <time>2019-04-07T09:57:48.579Z</time>
      </trkpt>
      <trkpt lat="44.37479" lon="2.73595">
        <ele>825</ele>
        <time>2019-04-07T09:57:51.579Z</time>
      </trkpt>
      <trkpt lat="44.37473" lon="2.73583">
        <ele>825</ele>
        <time>2019-04-07T09:57:56.579Z</time>
      </trkpt>
      <trkpt lat="44.37469" lon="2.73572">
        <ele>828</ele>
        <time>2019-04-07T09:58:02.579Z</time>
      </trkpt>
      <trkpt lat="44.37469" lon="2.7356">
        <ele>830</ele>
        <time>2019-04-07T09:58:12.579Z</time>
      </trkpt>
      <trkpt lat="44.37477" lon="2.7355">
        <ele>830.1389952</ele>
        <time>2019-04-07T09:58:20.579Z</time>
      </trkpt>
      <trkpt lat="44.37481" lon="2.73539">
        <ele>831</ele>
        <time>2019-04-07T09:58:26.579Z</time>
      </trkpt>
      <trkpt lat="44.37488" lon="2.73526">
        <ele>834</ele>
        <time>2019-04-07T09:58:31.579Z</time>
      </trkpt>
      <trkpt lat="44.3749" lon="2.73512">
        <ele>835</ele>
        <time>2019-04-07T09:58:36.579Z</time>
      </trkpt>
      <trkpt lat="44.37494" lon="2.73497">
        <ele>836</ele>
        <time>2019-04-07T09:58:42.579Z</time>
      </trkpt>
      <trkpt lat="44.37497" lon="2.73484">
        <ele>836</ele>
        <time>2019-04-07T09:58:47.579Z</time>
      </trkpt>
      <trkpt lat="44.37498" lon="2.73467">
        <ele>836</ele>
        <time>2019-04-07T09:58:52.579Z</time>
      </trkpt>
      <trkpt lat="44.37501" lon="2.73454">
        <ele>836</ele>
        <time>2019-04-07T09:58:56.579Z</time>
      </trkpt>
      <trkpt lat="44.37502" lon="2.73439">
        <ele>835.5830144</ele>
        <time>2019-04-07T09:59:00.579Z</time>
      </trkpt>
      <trkpt lat="44.37502" lon="2.73424">
        <ele>833</ele>
        <time>2019-04-07T09:59:03.579Z</time>
      </trkpt>
      <trkpt lat="44.37502" lon="2.73406">
        <ele>833</ele>
        <time>2019-04-07T09:59:07.579Z</time>
      </trkpt>
      <trkpt lat="44.375" lon="2.73387">
        <ele>833</ele>
        <time>2019-04-07T09:59:11.579Z</time>
      </trkpt>
      <trkpt lat="44.375" lon="2.73373">
        <ele>833</ele>
        <time>2019-04-07T09:59:14.579Z</time>
      </trkpt>
      <trkpt lat="44.37501" lon="2.73357">
        <ele>833</ele>
        <time>2019-04-07T09:59:17.579Z</time>
      </trkpt>
      <trkpt lat="44.37502" lon="2.73339">
        <ele>832.7220096</ele>
        <time>2019-04-07T09:59:20.579Z</time>
      </trkpt>
      <trkpt lat="44.37503" lon="2.73325">
        <ele>831</ele>
        <time>2019-04-07T09:59:22.579Z</time>
      </trkpt>
      <trkpt lat="44.37505" lon="2.73305">
        <ele>831</ele>
        <time>2019-04-07T09:59:25.579Z</time>
      </trkpt>
      <trkpt lat="44.37507" lon="2.73288">
        <ele>831</ele>
        <time>2019-04-07T09:59:28.579Z</time>
      </trkpt>
      <trkpt lat="44.37507" lon="2.73273">
        <ele>828</ele>
        <time>2019-04-07T09:59:32.579Z</time>
      </trkpt>
      <trkpt lat="44.37516" lon="2.73265">
        <ele>826</ele>
        <time>2019-04-07T09:59:37.579Z</time>
      </trkpt>
      <trkpt lat="44.37521" lon="2.73253">
        <ele>825.8610048</ele>
        <time>2019-04-07T09:59:40.579Z</time>
      </trkpt>
      <trkpt lat="44.37526" lon="2.73236">
        <ele>825</ele>
        <time>2019-04-07T09:59:43.579Z</time>
      </trkpt>
      <trkpt lat="44.37531" lon="2.73222">
        <ele>823</ele>
        <time>2019-04-07T09:59:46.579Z</time>
      </trkpt>
      <trkpt lat="44.3754" lon="2.73206">
        <ele>823</ele>
        <time>2019-04-07T09:59:49.579Z</time>
      </trkpt>
      <trkpt lat="44.37547" lon="2.73195">
        <ele>818.7220096</ele>
        <time>2019-04-07T09:59:51.579Z</time>
      </trkpt>
      <trkpt lat="44.37554" lon="2.73181">
        <ele>817</ele>
        <time>2019-04-07T09:59:54.579Z</time>
      </trkpt>
      <trkpt lat="44.37561" lon="2.73168">
        <ele>815</ele>
        <time>2019-04-07T09:59:58.579Z</time>
      </trkpt>
      <trkpt lat="44.37565" lon="2.73154">
        <ele>814</ele>
        <time>2019-04-07T10:00:02.579Z</time>
      </trkpt>
      <trkpt lat="44.37569" lon="2.73141">
        <ele>813.8610048</ele>
        <time>2019-04-07T10:00:05.579Z</time>
      </trkpt>
      <trkpt lat="44.37576" lon="2.73126">
        <ele>813</ele>
        <time>2019-04-07T10:00:09.579Z</time>
      </trkpt>
      <trkpt lat="44.37582" lon="2.73113">
        <ele>811</ele>
        <time>2019-04-07T10:00:12.579Z</time>
      </trkpt>
      <trkpt lat="44.37586" lon="2.73096">
        <ele>810.8610048</ele>
        <time>2019-04-07T10:00:15.579Z</time>
      </trkpt>
      <trkpt lat="44.37593" lon="2.73083">
        <ele>810</ele>
        <time>2019-04-07T10:00:18.579Z</time>
      </trkpt>
      <trkpt lat="44.376" lon="2.73068">
        <ele>807</ele>
        <time>2019-04-07T10:00:21.579Z</time>
      </trkpt>
      <trkpt lat="44.37612" lon="2.73064">
        <ele>807</ele>
        <time>2019-04-07T10:00:24.579Z</time>
      </trkpt>
      <trkpt lat="44.37623" lon="2.73058">
        <ele>805</ele>
        <time>2019-04-07T10:00:27.579Z</time>
      </trkpt>
      <trkpt lat="44.37634" lon="2.73049">
        <ele>804.7220096</ele>
        <time>2019-04-07T10:00:30.579Z</time>
      </trkpt>
      <trkpt lat="44.37643" lon="2.73041">
        <ele>803</ele>
        <time>2019-04-07T10:00:34.579Z</time>
      </trkpt>
      <trkpt lat="44.37651" lon="2.73031">
        <ele>800</ele>
        <time>2019-04-07T10:00:37.579Z</time>
      </trkpt>
      <trkpt lat="44.37656" lon="2.73019">
        <ele>799.5830144</ele>
        <time>2019-04-07T10:00:40.579Z</time>
      </trkpt>
      <trkpt lat="44.37664" lon="2.73009">
        <ele>796</ele>
        <time>2019-04-07T10:00:44.579Z</time>
      </trkpt>
      <trkpt lat="44.37671" lon="2.72994">
        <ele>796</ele>
        <time>2019-04-07T10:00:50.579Z</time>
      </trkpt>
      <trkpt lat="44.37674" lon="2.72981">
        <ele>796</ele>
        <time>2019-04-07T10:00:52.579Z</time>
      </trkpt>
      <trkpt lat="44.3768" lon="2.72963">
        <ele>796</ele>
        <time>2019-04-07T10:00:55.579Z</time>
      </trkpt>
      <trkpt lat="44.37682" lon="2.72946">
        <ele>796</ele>
        <time>2019-04-07T10:00:58.579Z</time>
      </trkpt>
      <trkpt lat="44.37688" lon="2.72929">
        <ele>789</ele>
        <time>2019-04-07T10:01:01.579Z</time>
      </trkpt>
      <trkpt lat="44.377" lon="2.72919">
        <ele>787</ele>
        <time>2019-04-07T10:01:04.579Z</time>
      </trkpt>
      <trkpt lat="44.37707" lon="2.72908">
        <ele>786.8610048</ele>
        <time>2019-04-07T10:01:08.579Z</time>
      </trkpt>
      <trkpt lat="44.37718" lon="2.72899">
        <ele>784</ele>
        <time>2019-04-07T10:01:12.579Z</time>
      </trkpt>
      <trkpt lat="44.37725" lon="2.7289">
        <ele>780.8610048</ele>
        <time>2019-04-07T10:01:15.579Z</time>
      </trkpt>
      <trkpt lat="44.37735" lon="2.72882">
        <ele>780</ele>
        <time>2019-04-07T10:01:18.579Z</time>
      </trkpt>
      <trkpt lat="44.37738" lon="2.72866">
        <ele>778</ele>
        <time>2019-04-07T10:01:21.579Z</time>
      </trkpt>
      <trkpt lat="44.3774" lon="2.72852">
        <ele>777</ele>
        <time>2019-04-07T10:01:26.579Z</time>
      </trkpt>
      <trkpt lat="44.37748" lon="2.7284">
        <ele>776.4440192</ele>
        <time>2019-04-07T10:01:30.579Z</time>
      </trkpt>
      <trkpt lat="44.37757" lon="2.72834">
        <ele>772.8610048</ele>
        <time>2019-04-07T10:01:35.579Z</time>
      </trkpt>
      <trkpt lat="44.3776" lon="2.7282">
        <ele>769.8610048</ele>
        <time>2019-04-07T10:01:39.579Z</time>
      </trkpt>
      <trkpt lat="44.3776" lon="2.72806">
        <ele>769</ele>
        <time>2019-04-07T10:01:42.579Z</time>
      </trkpt>
      <trkpt lat="44.37761" lon="2.7279">
        <ele>767</ele>
        <time>2019-04-07T10:01:46.579Z</time>
      </trkpt>
      <trkpt lat="44.37772" lon="2.72779">
        <ele>767</ele>
        <time>2019-04-07T10:01:49.579Z</time>
      </trkpt>
      <trkpt lat="44.37779" lon="2.72769">
        <ele>760</ele>
        <time>2019-04-07T10:01:52.579Z</time>
      </trkpt>
      <trkpt lat="44.37791" lon="2.72766">
        <ele>757.8610048</ele>
        <time>2019-04-07T10:01:55.579Z</time>
      </trkpt>
      <trkpt lat="44.37797" lon="2.72754">
        <ele>755</ele>
        <time>2019-04-07T10:01:58.579Z</time>
      </trkpt>
      <trkpt lat="44.37802" lon="2.72739">
        <ele>753</ele>
        <time>2019-04-07T10:02:01.579Z</time>
      </trkpt>
      <trkpt lat="44.37813" lon="2.72733">
        <ele>750.7220096</ele>
        <time>2019-04-07T10:02:05.579Z</time>
      </trkpt>
      <trkpt lat="44.37821" lon="2.7272">
        <ele>748</ele>
        <time>2019-04-07T10:02:09.579Z</time>
      </trkpt>
      <trkpt lat="44.37812" lon="2.7271">
        <ele>747</ele>
        <time>2019-04-07T10:02:13.579Z</time>
      </trkpt>
      <trkpt lat="44.37813" lon="2.72694">
        <ele>742.8610048</ele>
        <time>2019-04-07T10:02:18.579Z</time>
      </trkpt>
      <trkpt lat="44.3782" lon="2.72681">
        <ele>741</ele>
        <time>2019-04-07T10:02:21.579Z</time>
      </trkpt>
      <trkpt lat="44.3783" lon="2.72675">
        <ele>740</ele>
        <time>2019-04-07T10:02:24.579Z</time>
      </trkpt>
      <trkpt lat="44.37836" lon="2.72664">
        <ele>737</ele>
        <time>2019-04-07T10:02:29.579Z</time>
      </trkpt>
      <trkpt lat="44.37848" lon="2.72662">
        <ele>737</ele>
        <time>2019-04-07T10:02:33.579Z</time>
      </trkpt>
      <trkpt lat="44.37861" lon="2.72656">
        <ele>735</ele>
        <time>2019-04-07T10:02:36.579Z</time>
      </trkpt>
      <trkpt lat="44.37874" lon="2.72656">
        <ele>735</ele>
        <time>2019-04-07T10:02:39.579Z</time>
      </trkpt>
      <trkpt lat="44.37887" lon="2.72653">
        <ele>733</ele>
        <time>2019-04-07T10:02:42.579Z</time>
      </trkpt>
      <trkpt lat="44.37895" lon="2.72639">
        <ele>733</ele>
        <time>2019-04-07T10:02:44.579Z</time>
      </trkpt>
      <trkpt lat="44.379" lon="2.72626">
        <ele>728</ele>
        <time>2019-04-07T10:02:46.579Z</time>
      </trkpt>
      <trkpt lat="44.37905" lon="2.72611">
        <ele>728</ele>
        <time>2019-04-07T10:02:49.579Z</time>
      </trkpt>
      <trkpt lat="44.37915" lon="2.72606">
        <ele>723</ele>
        <time>2019-04-07T10:02:52.579Z</time>
      </trkpt>
      <trkpt lat="44.37921" lon="2.72592">
        <ele>720.8610048</ele>
        <time>2019-04-07T10:02:56.579Z</time>
      </trkpt>
      <trkpt lat="44.37931" lon="2.72589">
        <ele>719</ele>
        <time>2019-04-07T10:02:59.579Z</time>
      </trkpt>
      <trkpt lat="44.37938" lon="2.72577">
        <ele>715.8610048</ele>
        <time>2019-04-07T10:03:02.579Z</time>
      </trkpt>
      <trkpt lat="44.37948" lon="2.72567">
        <ele>712.8610048</ele>
        <time>2019-04-07T10:03:07.579Z</time>
      </trkpt>
      <trkpt lat="44.37947" lon="2.72552">
        <ele>709.8610048</ele>
        <time>2019-04-07T10:03:11.579Z</time>
      </trkpt>
      <trkpt lat="44.37938" lon="2.72551">
        <ele>711</ele>
        <time>2019-04-07T10:03:20.579Z</time>
      </trkpt>
      <trkpt lat="44.3793" lon="2.72557">
        <ele>711</ele>
        <time>2019-04-07T10:03:25.579Z</time>
      </trkpt>
      <trkpt lat="44.37921" lon="2.72558">
        <ele>711.2779904</ele>
        <time>2019-04-07T10:03:30.579Z</time>
      </trkpt>
      <trkpt lat="44.37911" lon="2.72561">
        <ele>713</ele>
        <time>2019-04-07T10:03:36.579Z</time>
      </trkpt>
      <trkpt lat="44.379" lon="2.72566">
        <ele>715</ele>
        <time>2019-04-07T10:03:42.579Z</time>
      </trkpt>
      <trkpt lat="44.37892" lon="2.72574">
        <ele>715</ele>
        <time>2019-04-07T10:03:49.579Z</time>
      </trkpt>
      <trkpt lat="44.37883" lon="2.72583">
        <ele>716</ele>
        <time>2019-04-07T10:03:55.579Z</time>
      </trkpt>
      <trkpt lat="44.37874" lon="2.72591">
        <ele>719</ele>
        <time>2019-04-07T10:04:02.579Z</time>
      </trkpt>
      <trkpt lat="44.37864" lon="2.72596">
        <ele>720</ele>
        <time>2019-04-07T10:04:08.579Z</time>
      </trkpt>
      <trkpt lat="44.37855" lon="2.72601">
        <ele>721</ele>
        <time>2019-04-07T10:04:13.579Z</time>
      </trkpt>
      <trkpt lat="44.37849" lon="2.72611">
        <ele>721.2779904</ele>
        <time>2019-04-07T10:04:20.579Z</time>
      </trkpt>
      <trkpt lat="44.3784" lon="2.72619">
        <ele>723</ele>
        <time>2019-04-07T10:04:27.579Z</time>
      </trkpt>
      <trkpt lat="44.37832" lon="2.72627">
        <ele>727</ele>
        <time>2019-04-07T10:04:38.579Z</time>
      </trkpt>
      <trkpt lat="44.37823" lon="2.72635">
        <ele>731</ele>
        <time>2019-04-07T10:04:51.579Z</time>
      </trkpt>
      <trkpt lat="44.37814" lon="2.72642">
        <ele>733</ele>
        <time>2019-04-07T10:05:02.579Z</time>
      </trkpt>
      <trkpt lat="44.37804" lon="2.7265">
        <ele>734</ele>
        <time>2019-04-07T10:05:14.579Z</time>
      </trkpt>
      <trkpt lat="44.37795" lon="2.72657">
        <ele>736</ele>
        <time>2019-04-07T10:05:22.579Z</time>
      </trkpt>
      <trkpt lat="44.37787" lon="2.72667">
        <ele>738</ele>
        <time>2019-04-07T10:05:31.579Z</time>
      </trkpt>
      <trkpt lat="44.37778" lon="2.72675">
        <ele>738</ele>
        <time>2019-04-07T10:05:35.579Z</time>
      </trkpt>
      <trkpt lat="44.37768" lon="2.72684">
        <ele>738.1389952</ele>
        <time>2019-04-07T10:05:40.579Z</time>
      </trkpt>
      <trkpt lat="44.37759" lon="2.72693">
        <ele>739</ele>
        <time>2019-04-07T10:05:44.579Z</time>
      </trkpt>
      <trkpt lat="44.3775" lon="2.72701">
        <ele>739</ele>
        <time>2019-04-07T10:05:48.579Z</time>
      </trkpt>
      <trkpt lat="44.3774" lon="2.72709">
        <ele>741</ele>
        <time>2019-04-07T10:05:53.579Z</time>
      </trkpt>
      <trkpt lat="44.3773" lon="2.72715">
        <ele>741</ele>
        <time>2019-04-07T10:05:59.579Z</time>
      </trkpt>
      <trkpt lat="44.3772" lon="2.72722">
        <ele>742</ele>
        <time>2019-04-07T10:06:04.579Z</time>
      </trkpt>
      <trkpt lat="44.3771" lon="2.7273">
        <ele>742</ele>
        <time>2019-04-07T10:06:08.579Z</time>
      </trkpt>
      <trkpt lat="44.377" lon="2.72736">
        <ele>743</ele>
        <time>2019-04-07T10:06:13.579Z</time>
      </trkpt>
      <trkpt lat="44.37689" lon="2.72741">
        <ele>743</ele>
        <time>2019-04-07T10:06:19.579Z</time>
      </trkpt>
      <trkpt lat="44.3768" lon="2.7275">
        <ele>745</ele>
        <time>2019-04-07T10:06:25.579Z</time>
      </trkpt>
      <trkpt lat="44.37671" lon="2.72756">
        <ele>745</ele>
        <time>2019-04-07T10:06:29.579Z</time>
      </trkpt>
      <trkpt lat="44.37661" lon="2.72764">
        <ele>747</ele>
        <time>2019-04-07T10:06:35.579Z</time>
      </trkpt>
      <trkpt lat="44.3765" lon="2.72768">
        <ele>747.26060198593</ele>
        <time>2019-04-07T10:06:40.579Z</time>
      </trkpt>
      <trkpt lat="44.3764" lon="2.72775">
        <ele>749</ele>
        <time>2019-04-07T10:06:45.579Z</time>
      </trkpt>
      <trkpt lat="44.37632" lon="2.72784">
        <ele>751</ele>
        <time>2019-04-07T10:06:51.579Z</time>
      </trkpt>
      <trkpt lat="44.37625" lon="2.72795">
        <ele>751</ele>
        <time>2019-04-07T10:06:57.579Z</time>
      </trkpt>
      <trkpt lat="44.37616" lon="2.72803">
        <ele>752</ele>
        <time>2019-04-07T10:07:03.579Z</time>
      </trkpt>
      <trkpt lat="44.37608" lon="2.72812">
        <ele>752</ele>
        <time>2019-04-07T10:07:09.579Z</time>
      </trkpt>
      <trkpt lat="44.376" lon="2.72823">
        <ele>754</ele>
        <time>2019-04-07T10:07:16.579Z</time>
      </trkpt>
      <trkpt lat="44.37597" lon="2.72836">
        <ele>757</ele>
        <time>2019-04-07T10:07:24.579Z</time>
      </trkpt>
      <trkpt lat="44.37589" lon="2.72845">
        <ele>759.1389952</ele>
        <time>2019-04-07T10:07:30.579Z</time>
      </trkpt>
      <trkpt lat="44.37584" lon="2.72858">
        <ele>760</ele>
        <time>2019-04-07T10:07:37.579Z</time>
      </trkpt>
      <trkpt lat="44.37576" lon="2.72867">
        <ele>760</ele>
        <time>2019-04-07T10:07:42.579Z</time>
      </trkpt>
      <trkpt lat="44.37567" lon="2.72876">
        <ele>760</ele>
        <time>2019-04-07T10:07:46.579Z</time>
      </trkpt>
      <trkpt lat="44.3756" lon="2.72887">
        <ele>760.2779904</ele>
        <time>2019-04-07T10:07:50.579Z</time>
      </trkpt>
      <trkpt lat="44.37551" lon="2.72898">
        <ele>762</ele>
        <time>2019-04-07T10:07:55.579Z</time>
      </trkpt>
      <trkpt lat="44.37543" lon="2.7291">
        <ele>762.2779904</ele>
        <time>2019-04-07T10:08:00.579Z</time>
      </trkpt>
      <trkpt lat="44.37537" lon="2.72921">
        <ele>764</ele>
        <time>2019-04-07T10:08:04.579Z</time>
      </trkpt>
      <trkpt lat="44.37529" lon="2.72933">
        <ele>764</ele>
        <time>2019-04-07T10:08:08.579Z</time>
      </trkpt>
      <trkpt lat="44.37523" lon="2.72947">
        <ele>766</ele>
        <time>2019-04-07T10:08:12.579Z</time>
      </trkpt>
      <trkpt lat="44.37514" lon="2.7296">
        <ele>766</ele>
        <time>2019-04-07T10:08:16.579Z</time>
      </trkpt>
      <trkpt lat="44.37506" lon="2.72968">
        <ele>766</ele>
        <time>2019-04-07T10:08:19.579Z</time>
      </trkpt>
      <trkpt lat="44.37496" lon="2.72978">
        <ele>767</ele>
        <time>2019-04-07T10:08:22.579Z</time>
      </trkpt>
      <trkpt lat="44.37487" lon="2.72987">
        <ele>767</ele>
        <time>2019-04-07T10:08:25.579Z</time>
      </trkpt>
      <trkpt lat="44.3748" lon="2.72997">
        <ele>767</ele>
        <time>2019-04-07T10:08:28.579Z</time>
      </trkpt>
      <trkpt lat="44.37475" lon="2.7301">
        <ele>768</ele>
        <time>2019-04-07T10:08:32.579Z</time>
      </trkpt>
      <trkpt lat="44.37471" lon="2.73025">
        <ele>768</ele>
        <time>2019-04-07T10:08:37.579Z</time>
      </trkpt>
      <trkpt lat="44.37463" lon="2.73038">
        <ele>769</ele>
        <time>2019-04-07T10:08:43.579Z</time>
      </trkpt>
      <trkpt lat="44.37454" lon="2.73047">
        <ele>769</ele>
        <time>2019-04-07T10:08:49.579Z</time>
      </trkpt>
      <trkpt lat="44.37448" lon="2.73059">
        <ele>770</ele>
        <time>2019-04-07T10:08:54.579Z</time>
      </trkpt>
      <trkpt lat="44.37442" lon="2.73072">
        <ele>770.2779904</ele>
        <time>2019-04-07T10:09:00.579Z</time>
      </trkpt>
      <trkpt lat="44.37435" lon="2.73083">
        <ele>772</ele>
        <time>2019-04-07T10:09:05.579Z</time>
      </trkpt>
      <trkpt lat="44.37427" lon="2.73093">
        <ele>774</ele>
        <time>2019-04-07T10:09:11.579Z</time>
      </trkpt>
      <trkpt lat="44.37418" lon="2.73102">
        <ele>774</ele>
        <time>2019-04-07T10:09:17.579Z</time>
      </trkpt>
      <trkpt lat="44.37412" lon="2.73114">
        <ele>776</ele>
        <time>2019-04-07T10:09:22.579Z</time>
      </trkpt>
      <trkpt lat="44.37407" lon="2.73127">
        <ele>776</ele>
        <time>2019-04-07T10:09:26.579Z</time>
      </trkpt>
      <trkpt lat="44.37399" lon="2.73138">
        <ele>778</ele>
        <time>2019-04-07T10:09:31.579Z</time>
      </trkpt>
      <trkpt lat="44.37393" lon="2.7315">
        <ele>778</ele>
        <time>2019-04-07T10:09:36.579Z</time>
      </trkpt>
      <trkpt lat="44.37388" lon="2.73164">
        <ele>779</ele>
        <time>2019-04-07T10:09:41.579Z</time>
      </trkpt>
      <trkpt lat="44.3738" lon="2.73172">
        <ele>779</ele>
        <time>2019-04-07T10:09:45.579Z</time>
      </trkpt>
      <trkpt lat="44.37383" lon="2.73185">
        <ele>779.2779904</ele>
        <time>2019-04-07T10:09:50.579Z</time>
      </trkpt>
      <trkpt lat="44.3738" lon="2.73199">
        <ele>781</ele>
        <time>2019-04-07T10:09:58.579Z</time>
      </trkpt>
      <trkpt lat="44.37375" lon="2.73211">
        <ele>783</ele>
        <time>2019-04-07T10:10:06.579Z</time>
      </trkpt>
      <trkpt lat="44.37369" lon="2.73223">
        <ele>784</ele>
        <time>2019-04-07T10:10:14.579Z</time>
      </trkpt>
      <trkpt lat="44.37363" lon="2.73234">
        <ele>784.1389952</ele>
        <time>2019-04-07T10:10:20.579Z</time>
      </trkpt>
      <trkpt lat="44.37356" lon="2.73246">
        <ele>786</ele>
        <time>2019-04-07T10:10:33.579Z</time>
      </trkpt>
      <trkpt lat="44.37347" lon="2.73258">
        <ele>787</ele>
        <time>2019-04-07T10:10:41.579Z</time>
      </trkpt>
      <trkpt lat="44.37337" lon="2.73259">
        <ele>787</ele>
        <time>2019-04-07T10:10:45.579Z</time>
      </trkpt>
      <trkpt lat="44.37326" lon="2.7325">
        <ele>787</ele>
        <time>2019-04-07T10:10:49.579Z</time>
      </trkpt>
      <trkpt lat="44.37318" lon="2.73238">
        <ele>787</ele>
        <time>2019-04-07T10:10:53.579Z</time>
      </trkpt>
      <trkpt lat="44.37315" lon="2.73222">
        <ele>787</ele>
        <time>2019-04-07T10:10:58.579Z</time>
      </trkpt>
      <trkpt lat="44.37313" lon="2.73209">
        <ele>787</ele>
        <time>2019-04-07T10:11:05.579Z</time>
      </trkpt>
      <trkpt lat="44.37313" lon="2.73193">
        <ele>789</ele>
        <time>2019-04-07T10:11:14.579Z</time>
      </trkpt>
      <trkpt lat="44.37321" lon="2.73182">
        <ele>790</ele>
        <time>2019-04-07T10:11:17.579Z</time>
      </trkpt>
      <trkpt lat="44.37328" lon="2.73172">
        <ele>790</ele>
        <time>2019-04-07T10:11:19.579Z</time>
      </trkpt>
      <trkpt lat="44.37336" lon="2.73161">
        <ele>788</ele>
        <time>2019-04-07T10:11:21.579Z</time>
      </trkpt>
      <trkpt lat="44.37344" lon="2.73147">
        <ele>788</ele>
        <time>2019-04-07T10:11:23.579Z</time>
      </trkpt>
      <trkpt lat="44.37352" lon="2.7313">
        <ele>788</ele>
        <time>2019-04-07T10:11:25.579Z</time>
      </trkpt>
      <trkpt lat="44.37358" lon="2.73111">
        <ele>788</ele>
        <time>2019-04-07T10:11:27.579Z</time>
      </trkpt>
      <trkpt lat="44.37364" lon="2.73096">
        <ele>788</ele>
        <time>2019-04-07T10:11:29.579Z</time>
      </trkpt>
      <trkpt lat="44.37372" lon="2.73079">
        <ele>782.58714166223</ele>
        <time>2019-04-07T10:11:31.579Z</time>
      </trkpt>
      <trkpt lat="44.37383" lon="2.73058">
        <ele>779</ele>
        <time>2019-04-07T10:11:33.579Z</time>
      </trkpt>
      <trkpt lat="44.3739" lon="2.73035">
        <ele>776.8610048</ele>
        <time>2019-04-07T10:11:35.579Z</time>
      </trkpt>
      <trkpt lat="44.37401" lon="2.73016">
        <ele>773.8610048</ele>
        <time>2019-04-07T10:11:37.579Z</time>
      </trkpt>
      <trkpt lat="44.37409" lon="2.73008">
        <ele>772.7220096</ele>
        <time>2019-04-07T10:11:38.579Z</time>
      </trkpt>
      <trkpt lat="44.37423" lon="2.72992">
        <ele>770</ele>
        <time>2019-04-07T10:11:40.579Z</time>
      </trkpt>
      <trkpt lat="44.37437" lon="2.72973">
        <ele>766.8610048</ele>
        <time>2019-04-07T10:11:42.579Z</time>
      </trkpt>
      <trkpt lat="44.37445" lon="2.72963">
        <ele>765.8610048</ele>
        <time>2019-04-07T10:11:43.579Z</time>
      </trkpt>
      <trkpt lat="44.37459" lon="2.72945">
        <ele>761.8610048</ele>
        <time>2019-04-07T10:11:45.579Z</time>
      </trkpt>
      <trkpt lat="44.37467" lon="2.72934">
        <ele>760.8610048</ele>
        <time>2019-04-07T10:11:46.579Z</time>
      </trkpt>
      <trkpt lat="44.37473" lon="2.72922">
        <ele>759.5830144</ele>
        <time>2019-04-07T10:11:47.579Z</time>
      </trkpt>
      <trkpt lat="44.37479" lon="2.7291">
        <ele>756.7220096</ele>
        <time>2019-04-07T10:11:48.579Z</time>
      </trkpt>
      <trkpt lat="44.37484" lon="2.72898">
        <ele>754.86238055408</ele>
        <time>2019-04-07T10:11:49.579Z</time>
      </trkpt>
      <trkpt lat="44.37491" lon="2.72886">
        <ele>753.73939801407</ele>
        <time>2019-04-07T10:11:50.579Z</time>
      </trkpt>
      <trkpt lat="44.37498" lon="2.72875">
        <ele>752</ele>
        <time>2019-04-07T10:11:51.579Z</time>
      </trkpt>
      <trkpt lat="44.3751" lon="2.7285">
        <ele>749.7220096</ele>
        <time>2019-04-07T10:11:53.579Z</time>
      </trkpt>
      <trkpt lat="44.37515" lon="2.72837">
        <ele>748</ele>
        <time>2019-04-07T10:11:54.579Z</time>
      </trkpt>
      <trkpt lat="44.37521" lon="2.72823">
        <ele>747.7220096</ele>
        <time>2019-04-07T10:11:55.579Z</time>
      </trkpt>
      <trkpt lat="44.37526" lon="2.7281">
        <ele>745.8610048</ele>
        <time>2019-04-07T10:11:56.579Z</time>
      </trkpt>
      <trkpt lat="44.37529" lon="2.72796">
        <ele>744.7220096</ele>
        <time>2019-04-07T10:11:57.579Z</time>
      </trkpt>
      <trkpt lat="44.37532" lon="2.72782">
        <ele>743</ele>
        <time>2019-04-07T10:11:58.579Z</time>
      </trkpt>
      <trkpt lat="44.37538" lon="2.72757">
        <ele>741.4440192</ele>
        <time>2019-04-07T10:12:00.579Z</time>
      </trkpt>
      <trkpt lat="44.37546" lon="2.72733">
        <ele>738</ele>
        <time>2019-04-07T10:12:02.579Z</time>
      </trkpt>
      <trkpt lat="44.37555" lon="2.72716">
        <ele>736.5830144</ele>
        <time>2019-04-07T10:12:04.579Z</time>
      </trkpt>
      <trkpt lat="44.37566" lon="2.727">
        <ele>734</ele>
        <time>2019-04-07T10:12:06.579Z</time>
      </trkpt>
      <trkpt lat="44.37576" lon="2.7268">
        <ele>734</ele>
        <time>2019-04-07T10:12:08.579Z</time>
      </trkpt>
      <trkpt lat="44.37589" lon="2.72668">
        <ele>731.8610048</ele>
        <time>2019-04-07T10:12:10.579Z</time>
      </trkpt>
      <trkpt lat="44.37603" lon="2.72656">
        <ele>728.5830144</ele>
        <time>2019-04-07T10:12:12.579Z</time>
      </trkpt>
      <trkpt lat="44.3762" lon="2.72643">
        <ele>725</ele>
        <time>2019-04-07T10:12:14.579Z</time>
      </trkpt>
      <trkpt lat="44.37638" lon="2.72634">
        <ele>722.8610048</ele>
        <time>2019-04-07T10:12:16.579Z</time>
      </trkpt>
      <trkpt lat="44.37648" lon="2.7263">
        <ele>722</ele>
        <time>2019-04-07T10:12:17.579Z</time>
      </trkpt>
      <trkpt lat="44.37658" lon="2.72625">
        <ele>721.86969900703</ele>
        <time>2019-04-07T10:12:18.579Z</time>
      </trkpt>
      <trkpt lat="44.37674" lon="2.72614">
        <ele>721</ele>
        <time>2019-04-07T10:12:20.579Z</time>
      </trkpt>
      <trkpt lat="44.3769" lon="2.72601">
        <ele>720.8610048</ele>
        <time>2019-04-07T10:12:22.579Z</time>
      </trkpt>
      <trkpt lat="44.377" lon="2.72586">
        <ele>720.2779904</ele>
        <time>2019-04-07T10:12:24.579Z</time>
      </trkpt>
      <trkpt lat="44.37706" lon="2.72575">
        <ele>722</ele>
        <time>2019-04-07T10:12:26.579Z</time>
      </trkpt>
      <trkpt lat="44.37703" lon="2.72562">
        <ele>723</ele>
        <time>2019-04-07T10:12:29.579Z</time>
      </trkpt>
      <trkpt lat="44.37702" lon="2.72546">
        <ele>723</ele>
        <time>2019-04-07T10:12:33.579Z</time>
      </trkpt>
      <trkpt lat="44.37699" lon="2.7253">
        <ele>723</ele>
        <time>2019-04-07T10:12:38.579Z</time>
      </trkpt>
      <trkpt lat="44.37687" lon="2.72528">
        <ele>725</ele>
        <time>2019-04-07T10:12:42.579Z</time>
      </trkpt>
      <trkpt lat="44.37677" lon="2.72527">
        <ele>725</ele>
        <time>2019-04-07T10:12:46.579Z</time>
      </trkpt>
      <trkpt lat="44.37665" lon="2.72527">
        <ele>729</ele>
        <time>2019-04-07T10:12:52.579Z</time>
      </trkpt>
      <trkpt lat="44.37654" lon="2.72527">
        <ele>730</ele>
        <time>2019-04-07T10:12:56.579Z</time>
      </trkpt>
      <trkpt lat="44.37644" lon="2.72528">
        <ele>732</ele>
        <time>2019-04-07T10:13:01.579Z</time>
      </trkpt>
      <trkpt lat="44.37632" lon="2.72524">
        <ele>732.1389952</ele>
        <time>2019-04-07T10:13:05.579Z</time>
      </trkpt>
      <trkpt lat="44.37622" lon="2.7252">
        <ele>733.1389952</ele>
        <time>2019-04-07T10:13:10.579Z</time>
      </trkpt>
      <trkpt lat="44.37612" lon="2.72515">
        <ele>734</ele>
        <time>2019-04-07T10:13:15.579Z</time>
      </trkpt>
      <trkpt lat="44.37602" lon="2.72511">
        <ele>734.1389952</ele>
        <time>2019-04-07T10:13:20.579Z</time>
      </trkpt>
      <trkpt lat="44.3759" lon="2.72506">
        <ele>735</ele>
        <time>2019-04-07T10:13:26.579Z</time>
      </trkpt>
      <trkpt lat="44.37581" lon="2.72504">
        <ele>735.4169856</ele>
        <time>2019-04-07T10:13:30.579Z</time>
      </trkpt>
      <trkpt lat="44.37571" lon="2.72503">
        <ele>738.2779904</ele>
        <time>2019-04-07T10:13:35.579Z</time>
      </trkpt>
      <trkpt lat="44.3756" lon="2.725">
        <ele>741</ele>
        <time>2019-04-07T10:13:41.579Z</time>
      </trkpt>
      <trkpt lat="44.3755" lon="2.72499">
        <ele>743</ele>
        <time>2019-04-07T10:13:47.579Z</time>
      </trkpt>
      <trkpt lat="44.37538" lon="2.72499">
        <ele>744</ele>
        <time>2019-04-07T10:13:54.579Z</time>
      </trkpt>
      <trkpt lat="44.37528" lon="2.725">
        <ele>745.1389952</ele>
        <time>2019-04-07T10:14:00.579Z</time>
      </trkpt>
      <trkpt lat="44.37518" lon="2.72494">
        <ele>746</ele>
        <time>2019-04-07T10:14:05.579Z</time>
      </trkpt>
      <trkpt lat="44.37508" lon="2.72489">
        <ele>746</ele>
        <time>2019-04-07T10:14:09.579Z</time>
      </trkpt>
      <trkpt lat="44.37498" lon="2.72484">
        <ele>748</ele>
        <time>2019-04-07T10:14:14.579Z</time>
      </trkpt>
      <trkpt lat="44.37489" lon="2.72476">
        <ele>748</ele>
        <time>2019-04-07T10:14:19.579Z</time>
      </trkpt>
      <trkpt lat="44.3748" lon="2.72468">
        <ele>750</ele>
        <time>2019-04-07T10:14:24.579Z</time>
      </trkpt>
      <trkpt lat="44.37469" lon="2.72461">
        <ele>752</ele>
        <time>2019-04-07T10:14:32.579Z</time>
      </trkpt>
      <trkpt lat="44.37458" lon="2.72462">
        <ele>752</ele>
        <time>2019-04-07T10:14:39.579Z</time>
      </trkpt>
      <trkpt lat="44.37446" lon="2.7246">
        <ele>755.2779904</ele>
        <time>2019-04-07T10:14:45.579Z</time>
      </trkpt>
      <trkpt lat="44.37435" lon="2.72461">
        <ele>757</ele>
        <time>2019-04-07T10:14:52.579Z</time>
      </trkpt>
      <trkpt lat="44.37424" lon="2.7246">
        <ele>757</ele>
        <time>2019-04-07T10:14:57.579Z</time>
      </trkpt>
      <trkpt lat="44.37413" lon="2.72459">
        <ele>761</ele>
        <time>2019-04-07T10:15:04.579Z</time>
      </trkpt>
      <trkpt lat="44.37403" lon="2.72454">
        <ele>762</ele>
        <time>2019-04-07T10:15:11.579Z</time>
      </trkpt>
      <trkpt lat="44.37401" lon="2.72468">
        <ele>764</ele>
        <time>2019-04-07T10:15:22.579Z</time>
      </trkpt>
      <trkpt lat="44.37412" lon="2.72472">
        <ele>764</ele>
        <time>2019-04-07T10:15:28.579Z</time>
      </trkpt>
      <trkpt lat="44.37421" lon="2.72481">
        <ele>767</ele>
        <time>2019-04-07T10:15:33.579Z</time>
      </trkpt>
      <trkpt lat="44.37431" lon="2.7249">
        <ele>768</ele>
        <time>2019-04-07T10:15:38.579Z</time>
      </trkpt>
      <trkpt lat="44.37437" lon="2.72501">
        <ele>770</ele>
        <time>2019-04-07T10:15:43.579Z</time>
      </trkpt>
      <trkpt lat="44.37439" lon="2.72515">
        <ele>770.1389952</ele>
        <time>2019-04-07T10:15:50.579Z</time>
      </trkpt>
      <trkpt lat="44.37442" lon="2.7253">
        <ele>771</ele>
        <time>2019-04-07T10:15:55.579Z</time>
      </trkpt>
      <trkpt lat="44.3744" lon="2.72545">
        <ele>774</ele>
        <time>2019-04-07T10:16:01.579Z</time>
      </trkpt>
      <trkpt lat="44.3743" lon="2.72543">
        <ele>775</ele>
        <time>2019-04-07T10:16:08.579Z</time>
      </trkpt>
      <trkpt lat="44.3742" lon="2.72535">
        <ele>776</ele>
        <time>2019-04-07T10:16:15.579Z</time>
      </trkpt>
      <trkpt lat="44.37409" lon="2.72531">
        <ele>778</ele>
        <time>2019-04-07T10:16:21.579Z</time>
      </trkpt>
      <trkpt lat="44.37399" lon="2.7253">
        <ele>778</ele>
        <time>2019-04-07T10:16:26.579Z</time>
      </trkpt>
      <trkpt lat="44.37387" lon="2.72529">
        <ele>780</ele>
        <time>2019-04-07T10:16:32.579Z</time>
      </trkpt>
      <trkpt lat="44.37376" lon="2.72529">
        <ele>781</ele>
        <time>2019-04-07T10:16:37.579Z</time>
      </trkpt>
      <trkpt lat="44.37364" lon="2.72529">
        <ele>783</ele>
        <time>2019-04-07T10:16:42.579Z</time>
      </trkpt>
      <trkpt lat="44.37354" lon="2.72528">
        <ele>785</ele>
        <time>2019-04-07T10:16:48.579Z</time>
      </trkpt>
      <trkpt lat="44.37344" lon="2.72527">
        <ele>785</ele>
        <time>2019-04-07T10:16:53.579Z</time>
      </trkpt>
      <trkpt lat="44.37333" lon="2.72525">
        <ele>785</ele>
        <time>2019-04-07T10:16:59.579Z</time>
      </trkpt>
      <trkpt lat="44.37321" lon="2.72523">
        <ele>788</ele>
        <time>2019-04-07T10:17:04.579Z</time>
      </trkpt>
      <trkpt lat="44.37311" lon="2.72518">
        <ele>788.1389952</ele>
        <time>2019-04-07T10:17:10.579Z</time>
      </trkpt>
      <trkpt lat="44.37301" lon="2.72512">
        <ele>789</ele>
        <time>2019-04-07T10:17:17.579Z</time>
      </trkpt>
      <trkpt lat="44.37291" lon="2.72505">
        <ele>791</ele>
        <time>2019-04-07T10:17:22.579Z</time>
      </trkpt>
      <trkpt lat="44.37281" lon="2.72499">
        <ele>791</ele>
        <time>2019-04-07T10:17:24.579Z</time>
      </trkpt>
      <trkpt lat="44.37273" lon="2.72489">
        <ele>791</ele>
        <time>2019-04-07T10:17:28.579Z</time>
      </trkpt>
      <trkpt lat="44.37264" lon="2.72478">
        <ele>793</ele>
        <time>2019-04-07T10:17:34.579Z</time>
      </trkpt>
      <trkpt lat="44.37258" lon="2.72466">
        <ele>793</ele>
        <time>2019-04-07T10:17:39.579Z</time>
      </trkpt>
      <trkpt lat="44.37254" lon="2.72452">
        <ele>795</ele>
        <time>2019-04-07T10:17:44.579Z</time>
      </trkpt>
      <trkpt lat="44.37253" lon="2.72436">
        <ele>795</ele>
        <time>2019-04-07T10:17:49.579Z</time>
      </trkpt>
      <trkpt lat="44.3726" lon="2.72423">
        <ele>797</ele>
        <time>2019-04-07T10:17:53.579Z</time>
      </trkpt>
      <trkpt lat="44.37267" lon="2.72413">
        <ele>797</ele>
        <time>2019-04-07T10:17:56.579Z</time>
      </trkpt>
      <trkpt lat="44.3727" lon="2.72397">
        <ele>799</ele>
        <time>2019-04-07T10:18:01.579Z</time>
      </trkpt>
      <trkpt lat="44.3727" lon="2.72382">
        <ele>799.1389952</ele>
        <time>2019-04-07T10:18:05.579Z</time>
      </trkpt>
      <trkpt lat="44.37276" lon="2.7237">
        <ele>801</ele>
        <time>2019-04-07T10:18:11.579Z</time>
      </trkpt>
      <trkpt lat="44.37287" lon="2.72364">
        <ele>801</ele>
        <time>2019-04-07T10:18:16.579Z</time>
      </trkpt>
      <trkpt lat="44.37298" lon="2.72356">
        <ele>803</ele>
        <time>2019-04-07T10:18:21.579Z</time>
      </trkpt>
      <trkpt lat="44.37308" lon="2.72347">
        <ele>803</ele>
        <time>2019-04-07T10:18:26.579Z</time>
      </trkpt>
      <trkpt lat="44.37317" lon="2.72337">
        <ele>803.2779904</ele>
        <time>2019-04-07T10:18:30.579Z</time>
      </trkpt>
      <trkpt lat="44.37327" lon="2.72327">
        <ele>805</ele>
        <time>2019-04-07T10:18:35.579Z</time>
      </trkpt>
      <trkpt lat="44.37336" lon="2.7232">
        <ele>805</ele>
        <time>2019-04-07T10:18:39.579Z</time>
      </trkpt>
      <trkpt lat="44.37347" lon="2.72314">
        <ele>806</ele>
        <time>2019-04-07T10:18:44.579Z</time>
      </trkpt>
      <trkpt lat="44.37356" lon="2.72306">
        <ele>806</ele>
        <time>2019-04-07T10:18:48.579Z</time>
      </trkpt>
      <trkpt lat="44.37365" lon="2.72296">
        <ele>808</ele>
        <time>2019-04-07T10:18:53.579Z</time>
      </trkpt>
      <trkpt lat="44.37373" lon="2.72285">
        <ele>808</ele>
        <time>2019-04-07T10:18:58.579Z</time>
      </trkpt>
      <trkpt lat="44.37379" lon="2.72274">
        <ele>812</ele>
        <time>2019-04-07T10:19:03.579Z</time>
      </trkpt>
      <trkpt lat="44.37383" lon="2.72261">
        <ele>813</ele>
        <time>2019-04-07T10:19:07.579Z</time>
      </trkpt>
      <trkpt lat="44.37378" lon="2.72246">
        <ele>813.1389952</ele>
        <time>2019-04-07T10:19:10.579Z</time>
      </trkpt>
      <trkpt lat="44.37378" lon="2.7223">
        <ele>814</ele>
        <time>2019-04-07T10:19:14.579Z</time>
      </trkpt>
      <trkpt lat="44.37383" lon="2.72217">
        <ele>814</ele>
        <time>2019-04-07T10:19:18.579Z</time>
      </trkpt>
      <trkpt lat="44.37391" lon="2.72206">
        <ele>815</ele>
        <time>2019-04-07T10:19:23.579Z</time>
      </trkpt>
      <trkpt lat="44.37397" lon="2.72195">
        <ele>815</ele>
        <time>2019-04-07T10:19:27.579Z</time>
      </trkpt>
      <trkpt lat="44.37403" lon="2.72183">
        <ele>817</ele>
        <time>2019-04-07T10:19:31.579Z</time>
      </trkpt>
      <trkpt lat="44.37406" lon="2.72169">
        <ele>817</ele>
        <time>2019-04-07T10:19:35.579Z</time>
      </trkpt>
      <trkpt lat="44.37411" lon="2.72156">
        <ele>817</ele>
        <time>2019-04-07T10:19:39.579Z</time>
      </trkpt>
      <trkpt lat="44.37414" lon="2.72139">
        <ele>819</ele>
        <time>2019-04-07T10:19:44.579Z</time>
      </trkpt>
      <trkpt lat="44.37423" lon="2.72129">
        <ele>819</ele>
        <time>2019-04-07T10:19:48.579Z</time>
      </trkpt>
      <trkpt lat="44.37434" lon="2.72124">
        <ele>819</ele>
        <time>2019-04-07T10:19:52.579Z</time>
      </trkpt>
      <trkpt lat="44.37446" lon="2.72121">
        <ele>819</ele>
        <time>2019-04-07T10:19:56.579Z</time>
      </trkpt>
      <trkpt lat="44.37457" lon="2.72116">
        <ele>819.2779904</ele>
        <time>2019-04-07T10:20:00.579Z</time>
      </trkpt>
      <trkpt lat="44.37468" lon="2.72114">
        <ele>821</ele>
        <time>2019-04-07T10:20:04.579Z</time>
      </trkpt>
      <trkpt lat="44.37478" lon="2.72108">
        <ele>821</ele>
        <time>2019-04-07T10:20:08.579Z</time>
      </trkpt>
      <trkpt lat="44.37487" lon="2.72101">
        <ele>822</ele>
        <time>2019-04-07T10:20:58.579Z</time>
      </trkpt>
      <trkpt lat="44.37492" lon="2.72088">
        <ele>823</ele>
        <time>2019-04-07T10:21:04.579Z</time>
      </trkpt>
      <trkpt lat="44.37498" lon="2.72078">
        <ele>823</ele>
        <time>2019-04-07T10:21:08.579Z</time>
      </trkpt>
      <trkpt lat="44.37503" lon="2.72062">
        <ele>824</ele>
        <time>2019-04-07T10:21:13.579Z</time>
      </trkpt>
      <trkpt lat="44.37508" lon="2.72049">
        <ele>824</ele>
        <time>2019-04-07T10:21:17.579Z</time>
      </trkpt>
      <trkpt lat="44.37514" lon="2.72032">
        <ele>825</ele>
        <time>2019-04-07T10:21:21.579Z</time>
      </trkpt>
      <trkpt lat="44.3752" lon="2.72019">
        <ele>825</ele>
        <time>2019-04-07T10:21:25.579Z</time>
      </trkpt>
      <trkpt lat="44.37523" lon="2.72003">
        <ele>827</ele>
        <time>2019-04-07T10:21:31.579Z</time>
      </trkpt>
      <trkpt lat="44.37532" lon="2.71997">
        <ele>827</ele>
        <time>2019-04-07T10:21:34.579Z</time>
      </trkpt>
      <trkpt lat="44.37543" lon="2.71998">
        <ele>827</ele>
        <time>2019-04-07T10:21:38.579Z</time>
      </trkpt>
      <trkpt lat="44.37552" lon="2.72011">
        <ele>825</ele>
        <time>2019-04-07T10:21:42.579Z</time>
      </trkpt>
      <trkpt lat="44.37561" lon="2.72019">
        <ele>825</ele>
        <time>2019-04-07T10:21:46.579Z</time>
      </trkpt>
      <trkpt lat="44.37571" lon="2.72028">
        <ele>824.305024</ele>
        <time>2019-04-07T10:21:50.579Z</time>
      </trkpt>
      <trkpt lat="44.3758" lon="2.72033">
        <ele>817.8610048</ele>
        <time>2019-04-07T10:21:53.579Z</time>
      </trkpt>
      <trkpt lat="44.37592" lon="2.72027">
        <ele>815.8610048</ele>
        <time>2019-04-07T10:21:57.579Z</time>
      </trkpt>
      <trkpt lat="44.37603" lon="2.72021">
        <ele>814.86969900703</ele>
        <time>2019-04-07T10:22:00.579Z</time>
      </trkpt>
      <trkpt lat="44.37611" lon="2.72011">
        <ele>812</ele>
        <time>2019-04-07T10:22:03.579Z</time>
      </trkpt>
      <trkpt lat="44.37622" lon="2.72008">
        <ele>809</ele>
        <time>2019-04-07T10:22:08.579Z</time>
      </trkpt>
      <trkpt lat="44.37633" lon="2.72005">
        <ele>806</ele>
        <time>2019-04-07T10:22:13.579Z</time>
      </trkpt>
      <trkpt lat="44.37644" lon="2.72003">
        <ele>801.8610048</ele>
        <time>2019-04-07T10:22:18.579Z</time>
      </trkpt>
      <trkpt lat="44.37655" lon="2.72004">
        <ele>798.8610048</ele>
        <time>2019-04-07T10:22:23.579Z</time>
      </trkpt>
      <trkpt lat="44.37666" lon="2.72">
        <ele>796.8610048</ele>
        <time>2019-04-07T10:22:26.579Z</time>
      </trkpt>
      <trkpt lat="44.37677" lon="2.71998">
        <ele>793.8610048</ele>
        <time>2019-04-07T10:22:29.579Z</time>
      </trkpt>
      <trkpt lat="44.3769" lon="2.71992">
        <ele>792</ele>
        <time>2019-04-07T10:22:32.579Z</time>
      </trkpt>
      <trkpt lat="44.377" lon="2.7198">
        <ele>790.7220096</ele>
        <time>2019-04-07T10:22:36.579Z</time>
      </trkpt>
      <trkpt lat="44.37711" lon="2.71971">
        <ele>788</ele>
        <time>2019-04-07T10:22:39.579Z</time>
      </trkpt>
      <trkpt lat="44.37719" lon="2.71962">
        <ele>786</ele>
        <time>2019-04-07T10:22:44.579Z</time>
      </trkpt>
      <trkpt lat="44.37731" lon="2.71954">
        <ele>783</ele>
        <time>2019-04-07T10:22:50.579Z</time>
      </trkpt>
      <trkpt lat="44.37741" lon="2.71948">
        <ele>783</ele>
        <time>2019-04-07T10:22:53.579Z</time>
      </trkpt>
      <trkpt lat="44.37747" lon="2.71937">
        <ele>780</ele>
        <time>2019-04-07T10:22:57.579Z</time>
      </trkpt>
      <trkpt lat="44.37753" lon="2.71925">
        <ele>779.5830144</ele>
        <time>2019-04-07T10:23:00.579Z</time>
      </trkpt>
      <trkpt lat="44.37765" lon="2.7192">
        <ele>776.8610048</ele>
        <time>2019-04-07T10:23:03.579Z</time>
      </trkpt>
      <trkpt lat="44.37775" lon="2.71919">
        <ele>773.8610048</ele>
        <time>2019-04-07T10:23:07.579Z</time>
      </trkpt>
      <trkpt lat="44.37785" lon="2.71909">
        <ele>772</ele>
        <time>2019-04-07T10:23:12.579Z</time>
      </trkpt>
      <trkpt lat="44.37795" lon="2.71901">
        <ele>770</ele>
        <time>2019-04-07T10:23:16.579Z</time>
      </trkpt>
      <trkpt lat="44.37805" lon="2.71892">
        <ele>770</ele>
        <time>2019-04-07T10:23:19.579Z</time>
      </trkpt>
      <trkpt lat="44.37815" lon="2.71891">
        <ele>768</ele>
        <time>2019-04-07T10:23:22.579Z</time>
      </trkpt>
      <trkpt lat="44.37824" lon="2.71882">
        <ele>765</ele>
        <time>2019-04-07T10:23:26.579Z</time>
      </trkpt>
      <trkpt lat="44.37832" lon="2.71873">
        <ele>765</ele>
        <time>2019-04-07T10:23:29.579Z</time>
      </trkpt>
      <trkpt lat="44.37841" lon="2.71867">
        <ele>763</ele>
        <time>2019-04-07T10:23:32.579Z</time>
      </trkpt>
      <trkpt lat="44.37847" lon="2.71856">
        <ele>762.7220096</ele>
        <time>2019-04-07T10:23:35.579Z</time>
      </trkpt>
      <trkpt lat="44.37857" lon="2.71844">
        <ele>761</ele>
        <time>2019-04-07T10:23:39.579Z</time>
      </trkpt>
      <trkpt lat="44.37867" lon="2.71838">
        <ele>760</ele>
        <time>2019-04-07T10:23:42.579Z</time>
      </trkpt>
      <trkpt lat="44.37877" lon="2.71835">
        <ele>759.5830144</ele>
        <time>2019-04-07T10:23:45.579Z</time>
      </trkpt>
      <trkpt lat="44.37886" lon="2.71827">
        <ele>757</ele>
        <time>2019-04-07T10:23:49.579Z</time>
      </trkpt>
      <trkpt lat="44.3789" lon="2.71814">
        <ele>752</ele>
        <time>2019-04-07T10:23:52.579Z</time>
      </trkpt>
      <trkpt lat="44.37899" lon="2.71802">
        <ele>751.8610048</ele>
        <time>2019-04-07T10:23:55.579Z</time>
      </trkpt>
      <trkpt lat="44.37903" lon="2.71788">
        <ele>750</ele>
        <time>2019-04-07T10:23:57.579Z</time>
      </trkpt>
      <trkpt lat="44.37911" lon="2.71772">
        <ele>748.7220096</ele>
        <time>2019-04-07T10:24:00.579Z</time>
      </trkpt>
      <trkpt lat="44.3792" lon="2.7176">
        <ele>747</ele>
        <time>2019-04-07T10:24:04.579Z</time>
      </trkpt>
      <trkpt lat="44.37926" lon="2.71749">
        <ele>745.8610048</ele>
        <time>2019-04-07T10:24:06.579Z</time>
      </trkpt>
      <trkpt lat="44.37931" lon="2.71737">
        <ele>745</ele>
        <time>2019-04-07T10:24:08.579Z</time>
      </trkpt>
      <trkpt lat="44.37938" lon="2.71721">
        <ele>745</ele>
        <time>2019-04-07T10:24:11.579Z</time>
      </trkpt>
      <trkpt lat="44.37943" lon="2.7171">
        <ele>745</ele>
        <time>2019-04-07T10:24:13.579Z</time>
      </trkpt>
      <trkpt lat="44.37943" lon="2.71696">
        <ele>745</ele>
        <time>2019-04-07T10:24:16.579Z</time>
      </trkpt>
      <trkpt lat="44.37946" lon="2.71681">
        <ele>745</ele>
        <time>2019-04-07T10:24:19.579Z</time>
      </trkpt>
      <trkpt lat="44.37951" lon="2.71665">
        <ele>743</ele>
        <time>2019-04-07T10:24:22.579Z</time>
      </trkpt>
      <trkpt lat="44.37955" lon="2.71652">
        <ele>743</ele>
        <time>2019-04-07T10:24:25.579Z</time>
      </trkpt>
      <trkpt lat="44.37961" lon="2.7164">
        <ele>743</ele>
        <time>2019-04-07T10:24:28.579Z</time>
      </trkpt>
      <trkpt lat="44.37969" lon="2.71629">
        <ele>741</ele>
        <time>2019-04-07T10:24:33.579Z</time>
      </trkpt>
      <trkpt lat="44.37979" lon="2.71619">
        <ele>739</ele>
        <time>2019-04-07T10:24:37.579Z</time>
      </trkpt>
      <trkpt lat="44.37989" lon="2.71603">
        <ele>738.5830144</ele>
        <time>2019-04-07T10:24:40.579Z</time>
      </trkpt>
      <trkpt lat="44.37995" lon="2.7159">
        <ele>736</ele>
        <time>2019-04-07T10:24:42.579Z</time>
      </trkpt>
      <trkpt lat="44.38002" lon="2.71577">
        <ele>736</ele>
        <time>2019-04-07T10:24:44.579Z</time>
      </trkpt>
      <trkpt lat="44.38012" lon="2.71571">
        <ele>734</ele>
        <time>2019-04-07T10:24:46.579Z</time>
      </trkpt>
      <trkpt lat="44.38021" lon="2.71563">
        <ele>733.4440192</ele>
        <time>2019-04-07T10:24:50.579Z</time>
      </trkpt>
      <trkpt lat="44.38033" lon="2.7155">
        <ele>727.7274621022</ele>
        <time>2019-04-07T10:24:53.579Z</time>
      </trkpt>
      <trkpt lat="44.3804" lon="2.71539">
        <ele>725.8610048</ele>
        <time>2019-04-07T10:24:55.579Z</time>
      </trkpt>
      <trkpt lat="44.3805" lon="2.71526">
        <ele>724.8610048</ele>
        <time>2019-04-07T10:24:58.579Z</time>
      </trkpt>
      <trkpt lat="44.38062" lon="2.71527">
        <ele>719.8610048</ele>
        <time>2019-04-07T10:25:02.579Z</time>
      </trkpt>
      <trkpt lat="44.3807" lon="2.71539">
        <ele>718</ele>
        <time>2019-04-07T10:25:06.579Z</time>
      </trkpt>
      <trkpt lat="44.38073" lon="2.71556">
        <ele>716.8610048</ele>
        <time>2019-04-07T10:25:10.579Z</time>
      </trkpt>
      <trkpt lat="44.38077" lon="2.7157">
        <ele>716</ele>
        <time>2019-04-07T10:25:13.579Z</time>
      </trkpt>
      <trkpt lat="44.38079" lon="2.71589">
        <ele>715</ele>
        <time>2019-04-07T10:25:16.579Z</time>
      </trkpt>
      <trkpt lat="44.38086" lon="2.71602">
        <ele>715</ele>
        <time>2019-04-07T10:25:19.579Z</time>
      </trkpt>
      <trkpt lat="44.38092" lon="2.71613">
        <ele>712</ele>
        <time>2019-04-07T10:25:22.579Z</time>
      </trkpt>
      <trkpt lat="44.381" lon="2.71626">
        <ele>708</ele>
        <time>2019-04-07T10:25:26.579Z</time>
      </trkpt>
      <trkpt lat="44.38104" lon="2.71639">
        <ele>708</ele>
        <time>2019-04-07T10:25:29.579Z</time>
      </trkpt>
      <trkpt lat="44.38113" lon="2.7165">
        <ele>703.8610048</ele>
        <time>2019-04-07T10:25:32.579Z</time>
      </trkpt>
      <trkpt lat="44.38123" lon="2.71656">
        <ele>700</ele>
        <time>2019-04-07T10:25:36.579Z</time>
      </trkpt>
      <trkpt lat="44.38129" lon="2.71668">
        <ele>698</ele>
        <time>2019-04-07T10:25:39.579Z</time>
      </trkpt>
      <trkpt lat="44.38135" lon="2.71683">
        <ele>698</ele>
        <time>2019-04-07T10:25:42.579Z</time>
      </trkpt>
      <trkpt lat="44.38139" lon="2.71697">
        <ele>697.1389952</ele>
        <time>2019-04-07T10:25:45.579Z</time>
      </trkpt>
      <trkpt lat="44.38143" lon="2.71716">
        <ele>696.8610048</ele>
        <time>2019-04-07T10:25:49.579Z</time>
      </trkpt>
      <trkpt lat="44.38147" lon="2.71733">
        <ele>696</ele>
        <time>2019-04-07T10:25:52.579Z</time>
      </trkpt>
      <trkpt lat="44.38154" lon="2.71747">
        <ele>695.73939801407</ele>
        <time>2019-04-07T10:25:55.579Z</time>
      </trkpt>
      <trkpt lat="44.38164" lon="2.71755">
        <ele>694</ele>
        <time>2019-04-07T10:25:59.579Z</time>
      </trkpt>
      <trkpt lat="44.38178" lon="2.71758">
        <ele>689</ele>
        <time>2019-04-07T10:26:03.579Z</time>
      </trkpt>
      <trkpt lat="44.38187" lon="2.71765">
        <ele>689</ele>
        <time>2019-04-07T10:26:06.579Z</time>
      </trkpt>
      <trkpt lat="44.38198" lon="2.71761">
        <ele>686.8610048</ele>
        <time>2019-04-07T10:26:09.579Z</time>
      </trkpt>
      <trkpt lat="44.38207" lon="2.7175">
        <ele>685</ele>
        <time>2019-04-07T10:26:13.579Z</time>
      </trkpt>
      <trkpt lat="44.38218" lon="2.71736">
        <ele>683</ele>
        <time>2019-04-07T10:26:16.579Z</time>
      </trkpt>
      <trkpt lat="44.38228" lon="2.71742">
        <ele>680</ele>
        <time>2019-04-07T10:26:21.579Z</time>
      </trkpt>
      <trkpt lat="44.38237" lon="2.71749">
        <ele>679.5830144</ele>
        <time>2019-04-07T10:26:25.579Z</time>
      </trkpt>
      <trkpt lat="44.38244" lon="2.71763">
        <ele>677</ele>
        <time>2019-04-07T10:26:29.579Z</time>
      </trkpt>
      <trkpt lat="44.3825" lon="2.71778">
        <ele>671</ele>
        <time>2019-04-07T10:26:32.579Z</time>
      </trkpt>
      <trkpt lat="44.38256" lon="2.71793">
        <ele>670.8610048</ele>
        <time>2019-04-07T10:26:36.579Z</time>
      </trkpt>
      <trkpt lat="44.38263" lon="2.71806">
        <ele>668</ele>
        <time>2019-04-07T10:26:41.579Z</time>
      </trkpt>
      <trkpt lat="44.38272" lon="2.71814">
        <ele>663.8610048</ele>
        <time>2019-04-07T10:26:46.579Z</time>
      </trkpt>
      <trkpt lat="44.38283" lon="2.71812">
        <ele>662</ele>
        <time>2019-04-07T10:26:49.579Z</time>
      </trkpt>
      <trkpt lat="44.38295" lon="2.71817">
        <ele>660.8610048</ele>
        <time>2019-04-07T10:26:53.579Z</time>
      </trkpt>
      <trkpt lat="44.38306" lon="2.7182">
        <ele>657.8610048</ele>
        <time>2019-04-07T10:26:58.579Z</time>
      </trkpt>
      <trkpt lat="44.38316" lon="2.71824">
        <ele>654</ele>
        <time>2019-04-07T10:27:01.579Z</time>
      </trkpt>
      <trkpt lat="44.38325" lon="2.71831">
        <ele>654.1389952</ele>
        <time>2019-04-07T10:27:03.579Z</time>
      </trkpt>
      <trkpt lat="44.38332" lon="2.7184">
        <ele>656</ele>
        <time>2019-04-07T10:27:06.579Z</time>
      </trkpt>
      <trkpt lat="44.38342" lon="2.71848">
        <ele>656</ele>
        <time>2019-04-07T10:27:10.579Z</time>
      </trkpt>
      <trkpt lat="44.38357" lon="2.7185">
        <ele>656</ele>
        <time>2019-04-07T10:27:13.579Z</time>
      </trkpt>
      <trkpt lat="44.38368" lon="2.71852">
        <ele>656</ele>
        <time>2019-04-07T10:27:15.579Z</time>
      </trkpt>
      <trkpt lat="44.3838" lon="2.71859">
        <ele>656</ele>
        <time>2019-04-07T10:27:18.579Z</time>
      </trkpt>
      <trkpt lat="44.38373" lon="2.71873">
        <ele>656</ele>
        <time>2019-04-07T10:27:22.579Z</time>
      </trkpt>
      <trkpt lat="44.38362" lon="2.71873">
        <ele>656</ele>
        <time>2019-04-07T10:27:25.579Z</time>
      </trkpt>
      <trkpt lat="44.38354" lon="2.71885">
        <ele>656</ele>
        <time>2019-04-07T10:27:29.579Z</time>
      </trkpt>
      <trkpt lat="44.38354" lon="2.71902">
        <ele>658</ele>
        <time>2019-04-07T10:27:34.579Z</time>
      </trkpt>
      <trkpt lat="44.3835" lon="2.71917">
        <ele>658</ele>
        <time>2019-04-07T10:27:38.579Z</time>
      </trkpt>
      <trkpt lat="44.38342" lon="2.71931">
        <ele>660</ele>
        <time>2019-04-07T10:27:42.579Z</time>
      </trkpt>
      <trkpt lat="44.38332" lon="2.71942">
        <ele>660</ele>
        <time>2019-04-07T10:27:46.579Z</time>
      </trkpt>
      <trkpt lat="44.38322" lon="2.71953">
        <ele>660.1389952</ele>
        <time>2019-04-07T10:27:50.579Z</time>
      </trkpt>
      <trkpt lat="44.38316" lon="2.71969">
        <ele>661</ele>
        <time>2019-04-07T10:27:54.579Z</time>
      </trkpt>
      <trkpt lat="44.38311" lon="2.71984">
        <ele>661</ele>
        <time>2019-04-07T10:27:58.579Z</time>
      </trkpt>
      <trkpt lat="44.38306" lon="2.72001">
        <ele>662</ele>
        <time>2019-04-07T10:28:02.579Z</time>
      </trkpt>
      <trkpt lat="44.38302" lon="2.72017">
        <ele>662</ele>
        <time>2019-04-07T10:28:05.579Z</time>
      </trkpt>
      <trkpt lat="44.38299" lon="2.72031">
        <ele>662</ele>
        <time>2019-04-07T10:28:08.579Z</time>
      </trkpt>
      <trkpt lat="44.38299" lon="2.72049">
        <ele>663</ele>
        <time>2019-04-07T10:28:12.579Z</time>
      </trkpt>
      <trkpt lat="44.38299" lon="2.72067">
        <ele>663</ele>
        <time>2019-04-07T10:28:16.579Z</time>
      </trkpt>
      <trkpt lat="44.38299" lon="2.72081">
        <ele>663</ele>
        <time>2019-04-07T10:28:19.579Z</time>
      </trkpt>
      <trkpt lat="44.38297" lon="2.72096">
        <ele>663</ele>
        <time>2019-04-07T10:28:22.579Z</time>
      </trkpt>
      <trkpt lat="44.38289" lon="2.7211">
        <ele>663</ele>
        <time>2019-04-07T10:28:25.579Z</time>
      </trkpt>
      <trkpt lat="44.38282" lon="2.72125">
        <ele>663</ele>
        <time>2019-04-07T10:28:28.579Z</time>
      </trkpt>
      <trkpt lat="44.38276" lon="2.72139">
        <ele>665</ele>
        <time>2019-04-07T10:28:31.579Z</time>
      </trkpt>
      <trkpt lat="44.38269" lon="2.72154">
        <ele>665</ele>
        <time>2019-04-07T10:28:34.579Z</time>
      </trkpt>
      <trkpt lat="44.38264" lon="2.72168">
        <ele>665</ele>
        <time>2019-04-07T10:28:37.579Z</time>
      </trkpt>
      <trkpt lat="44.38262" lon="2.72183">
        <ele>665.2779904</ele>
        <time>2019-04-07T10:28:40.579Z</time>
      </trkpt>
      <trkpt lat="44.38258" lon="2.72197">
        <ele>667</ele>
        <time>2019-04-07T10:28:43.579Z</time>
      </trkpt>
      <trkpt lat="44.38253" lon="2.72212">
        <ele>667</ele>
        <time>2019-04-07T10:28:46.579Z</time>
      </trkpt>
      <trkpt lat="44.38247" lon="2.72224">
        <ele>667</ele>
        <time>2019-04-07T10:28:49.579Z</time>
      </trkpt>
      <trkpt lat="44.3824" lon="2.72235">
        <ele>668</ele>
        <time>2019-04-07T10:28:52.579Z</time>
      </trkpt>
      <trkpt lat="44.38232" lon="2.72248">
        <ele>668</ele>
        <time>2019-04-07T10:28:55.579Z</time>
      </trkpt>
      <trkpt lat="44.38224" lon="2.72259">
        <ele>668</ele>
        <time>2019-04-07T10:28:58.579Z</time>
      </trkpt>
      <trkpt lat="44.38215" lon="2.72272">
        <ele>669</ele>
        <time>2019-04-07T10:29:02.579Z</time>
      </trkpt>
      <trkpt lat="44.38208" lon="2.72286">
        <ele>669</ele>
        <time>2019-04-07T10:29:06.579Z</time>
      </trkpt>
      <trkpt lat="44.38201" lon="2.72302">
        <ele>669.2779904</ele>
        <time>2019-04-07T10:29:10.579Z</time>
      </trkpt>
      <trkpt lat="44.38195" lon="2.72313">
        <ele>671</ele>
        <time>2019-04-07T10:29:13.579Z</time>
      </trkpt>
      <trkpt lat="44.3819" lon="2.72328">
        <ele>671</ele>
        <time>2019-04-07T10:29:17.579Z</time>
      </trkpt>
      <trkpt lat="44.38185" lon="2.72343">
        <ele>672</ele>
        <time>2019-04-07T10:29:21.579Z</time>
      </trkpt>
      <trkpt lat="44.3818" lon="2.72356">
        <ele>672</ele>
        <time>2019-04-07T10:29:25.579Z</time>
      </trkpt>
      <trkpt lat="44.38174" lon="2.72368">
        <ele>672</ele>
        <time>2019-04-07T10:29:29.579Z</time>
      </trkpt>
      <trkpt lat="44.38168" lon="2.7238">
        <ele>675</ele>
        <time>2019-04-07T10:29:33.579Z</time>
      </trkpt>
      <trkpt lat="44.38162" lon="2.72392">
        <ele>676</ele>
        <time>2019-04-07T10:29:37.579Z</time>
      </trkpt>
      <trkpt lat="44.38156" lon="2.72404">
        <ele>678</ele>
        <time>2019-04-07T10:29:41.579Z</time>
      </trkpt>
      <trkpt lat="44.3815" lon="2.72415">
        <ele>678.2779904</ele>
        <time>2019-04-07T10:29:45.579Z</time>
      </trkpt>
      <trkpt lat="44.38142" lon="2.72427">
        <ele>680.1389952</ele>
        <time>2019-04-07T10:29:50.579Z</time>
      </trkpt>
      <trkpt lat="44.38136" lon="2.72438">
        <ele>681</ele>
        <time>2019-04-07T10:29:54.579Z</time>
      </trkpt>
      <trkpt lat="44.3813" lon="2.72452">
        <ele>682</ele>
        <time>2019-04-07T10:29:59.579Z</time>
      </trkpt>
      <trkpt lat="44.38124" lon="2.72465">
        <ele>683</ele>
        <time>2019-04-07T10:30:04.579Z</time>
      </trkpt>
      <trkpt lat="44.38117" lon="2.72478">
        <ele>683</ele>
        <time>2019-04-07T10:30:09.579Z</time>
      </trkpt>
      <trkpt lat="44.38109" lon="2.72489">
        <ele>685</ele>
        <time>2019-04-07T10:30:14.579Z</time>
      </trkpt>
      <trkpt lat="44.38101" lon="2.72502">
        <ele>685</ele>
        <time>2019-04-07T10:30:19.579Z</time>
      </trkpt>
      <trkpt lat="44.38094" lon="2.72511">
        <ele>687</ele>
        <time>2019-04-07T10:30:24.579Z</time>
      </trkpt>
      <trkpt lat="44.38085" lon="2.72518">
        <ele>688</ele>
        <time>2019-04-07T10:30:29.579Z</time>
      </trkpt>
      <trkpt lat="44.38074" lon="2.72524">
        <ele>690</ele>
        <time>2019-04-07T10:30:34.579Z</time>
      </trkpt>
      <trkpt lat="44.38062" lon="2.72526">
        <ele>691</ele>
        <time>2019-04-07T10:30:41.579Z</time>
      </trkpt>
      <trkpt lat="44.38052" lon="2.72529">
        <ele>691</ele>
        <time>2019-04-07T10:30:46.579Z</time>
      </trkpt>
      <trkpt lat="44.38043" lon="2.72532">
        <ele>691.2779904</ele>
        <time>2019-04-07T10:30:50.579Z</time>
      </trkpt>
      <trkpt lat="44.38033" lon="2.72534">
        <ele>693</ele>
        <time>2019-04-07T10:30:54.579Z</time>
      </trkpt>
      <trkpt lat="44.38022" lon="2.72537">
        <ele>693</ele>
        <time>2019-04-07T10:30:59.579Z</time>
      </trkpt>
      <trkpt lat="44.38012" lon="2.72542">
        <ele>696</ele>
        <time>2019-04-07T10:31:06.579Z</time>
      </trkpt>
      <trkpt lat="44.38001" lon="2.72547">
        <ele>697</ele>
        <time>2019-04-07T10:31:11.579Z</time>
      </trkpt>
      <trkpt lat="44.37991" lon="2.72552">
        <ele>697</ele>
        <time>2019-04-07T10:31:16.579Z</time>
      </trkpt>
      <trkpt lat="44.37981" lon="2.72556">
        <ele>699</ele>
        <time>2019-04-07T10:31:21.579Z</time>
      </trkpt>
      <trkpt lat="44.37971" lon="2.72563">
        <ele>699</ele>
        <time>2019-04-07T10:31:26.579Z</time>
      </trkpt>
      <trkpt lat="44.37964" lon="2.72574">
        <ele>702</ele>
        <time>2019-04-07T10:31:31.579Z</time>
      </trkpt>
      <trkpt lat="44.37959" lon="2.72586">
        <ele>703</ele>
        <time>2019-04-07T10:31:36.579Z</time>
      </trkpt>
      <trkpt lat="44.37953" lon="2.72598">
        <ele>704</ele>
        <time>2019-04-07T10:31:41.579Z</time>
      </trkpt>
      <trkpt lat="44.37947" lon="2.72613">
        <ele>706</ele>
        <time>2019-04-07T10:31:47.579Z</time>
      </trkpt>
      <trkpt lat="44.37942" lon="2.72627">
        <ele>707</ele>
        <time>2019-04-07T10:31:53.579Z</time>
      </trkpt>
      <trkpt lat="44.37933" lon="2.72636">
        <ele>708</ele>
        <time>2019-04-07T10:31:59.579Z</time>
      </trkpt>
      <trkpt lat="44.37928" lon="2.72647">
        <ele>710</ele>
        <time>2019-04-07T10:32:05.579Z</time>
      </trkpt>
      <trkpt lat="44.37921" lon="2.72658">
        <ele>710.2779904</ele>
        <time>2019-04-07T10:32:10.579Z</time>
      </trkpt>
      <trkpt lat="44.37913" lon="2.7267">
        <ele>712</ele>
        <time>2019-04-07T10:32:15.579Z</time>
      </trkpt>
      <trkpt lat="44.37906" lon="2.72682">
        <ele>714</ele>
        <time>2019-04-07T10:32:21.579Z</time>
      </trkpt>
      <trkpt lat="44.37899" lon="2.72694">
        <ele>714</ele>
        <time>2019-04-07T10:32:27.579Z</time>
      </trkpt>
      <trkpt lat="44.37891" lon="2.72704">
        <ele>715</ele>
        <time>2019-04-07T10:32:33.579Z</time>
      </trkpt>
      <trkpt lat="44.37884" lon="2.72714">
        <ele>715</ele>
        <time>2019-04-07T10:32:39.579Z</time>
      </trkpt>
      <trkpt lat="44.37877" lon="2.72726">
        <ele>718</ele>
        <time>2019-04-07T10:32:44.579Z</time>
      </trkpt>
      <trkpt lat="44.37871" lon="2.72739">
        <ele>720.1389952</ele>
        <time>2019-04-07T10:32:50.579Z</time>
      </trkpt>
      <trkpt lat="44.37868" lon="2.72754">
        <ele>722</ele>
        <time>2019-04-07T10:32:57.579Z</time>
      </trkpt>
      <trkpt lat="44.37864" lon="2.72767">
        <ele>723</ele>
        <time>2019-04-07T10:33:03.579Z</time>
      </trkpt>
      <trkpt lat="44.37859" lon="2.72781">
        <ele>724</ele>
        <time>2019-04-07T10:33:09.579Z</time>
      </trkpt>
      <trkpt lat="44.37852" lon="2.72792">
        <ele>725</ele>
        <time>2019-04-07T10:33:15.579Z</time>
      </trkpt>
      <trkpt lat="44.37852" lon="2.72808">
        <ele>727</ele>
        <time>2019-04-07T10:33:21.579Z</time>
      </trkpt>
      <trkpt lat="44.37851" lon="2.72825">
        <ele>727</ele>
        <time>2019-04-07T10:33:27.579Z</time>
      </trkpt>
      <trkpt lat="44.37849" lon="2.72838">
        <ele>730</ele>
        <time>2019-04-07T10:33:33.579Z</time>
      </trkpt>
      <trkpt lat="44.37844" lon="2.72851">
        <ele>731.1389952</ele>
        <time>2019-04-07T10:33:40.579Z</time>
      </trkpt>
      <trkpt lat="44.37841" lon="2.72867">
        <ele>733</ele>
        <time>2019-04-07T10:33:46.579Z</time>
      </trkpt>
      <trkpt lat="44.37838" lon="2.72883">
        <ele>735</ele>
        <time>2019-04-07T10:33:52.579Z</time>
      </trkpt>
      <trkpt lat="44.37833" lon="2.72897">
        <ele>736</ele>
        <time>2019-04-07T10:33:58.579Z</time>
      </trkpt>
      <trkpt lat="44.3783" lon="2.72912">
        <ele>738</ele>
        <time>2019-04-07T10:34:04.579Z</time>
      </trkpt>
      <trkpt lat="44.37824" lon="2.72925">
        <ele>739.1389952</ele>
        <time>2019-04-07T10:34:10.579Z</time>
      </trkpt>
      <trkpt lat="44.3782" lon="2.72939">
        <ele>740</ele>
        <time>2019-04-07T10:34:16.579Z</time>
      </trkpt>
      <trkpt lat="44.37815" lon="2.72951">
        <ele>741</ele>
        <time>2019-04-07T10:34:22.579Z</time>
      </trkpt>
      <trkpt lat="44.37807" lon="2.72961">
        <ele>741</ele>
        <time>2019-04-07T10:34:27.579Z</time>
      </trkpt>
      <trkpt lat="44.37805" lon="2.72975">
        <ele>744</ele>
        <time>2019-04-07T10:34:33.579Z</time>
      </trkpt>
      <trkpt lat="44.37803" lon="2.72991">
        <ele>744.2779904</ele>
        <time>2019-04-07T10:34:40.579Z</time>
      </trkpt>
      <trkpt lat="44.37802" lon="2.73006">
        <ele>746</ele>
        <time>2019-04-07T10:34:46.579Z</time>
      </trkpt>
      <trkpt lat="44.37798" lon="2.7302">
        <ele>749</ele>
        <time>2019-04-07T10:34:51.579Z</time>
      </trkpt>
      <trkpt lat="44.37794" lon="2.73035">
        <ele>750</ele>
        <time>2019-04-07T10:34:57.579Z</time>
      </trkpt>
      <trkpt lat="44.37787" lon="2.73047">
        <ele>751</ele>
        <time>2019-04-07T10:35:03.579Z</time>
      </trkpt>
      <trkpt lat="44.37781" lon="2.73059">
        <ele>751</ele>
        <time>2019-04-07T10:35:08.579Z</time>
      </trkpt>
      <trkpt lat="44.37775" lon="2.73073">
        <ele>753</ele>
        <time>2019-04-07T10:35:14.579Z</time>
      </trkpt>
      <trkpt lat="44.37768" lon="2.73085">
        <ele>753.2779904</ele>
        <time>2019-04-07T10:35:20.579Z</time>
      </trkpt>
      <trkpt lat="44.37763" lon="2.731">
        <ele>758</ele>
        <time>2019-04-07T10:35:26.579Z</time>
      </trkpt>
      <trkpt lat="44.37758" lon="2.73114">
        <ele>758</ele>
        <time>2019-04-07T10:35:33.579Z</time>
      </trkpt>
      <trkpt lat="44.37752" lon="2.73127">
        <ele>759</ele>
        <time>2019-04-07T10:35:39.579Z</time>
      </trkpt>
      <trkpt lat="44.37747" lon="2.73138">
        <ele>760</ele>
        <time>2019-04-07T10:35:45.579Z</time>
      </trkpt>
      <trkpt lat="44.37742" lon="2.73153">
        <ele>762</ele>
        <time>2019-04-07T10:35:51.579Z</time>
      </trkpt>
      <trkpt lat="44.37737" lon="2.73167">
        <ele>762</ele>
        <time>2019-04-07T10:35:57.579Z</time>
      </trkpt>
      <trkpt lat="44.37734" lon="2.7318">
        <ele>765</ele>
        <time>2019-04-07T10:36:03.579Z</time>
      </trkpt>
      <trkpt lat="44.37733" lon="2.73196">
        <ele>766.2779904</ele>
        <time>2019-04-07T10:36:10.579Z</time>
      </trkpt>
      <trkpt lat="44.37732" lon="2.73211">
        <ele>769</ele>
        <time>2019-04-07T10:36:16.579Z</time>
      </trkpt>
      <trkpt lat="44.37729" lon="2.73225">
        <ele>770</ele>
        <time>2019-04-07T10:36:22.579Z</time>
      </trkpt>
      <trkpt lat="44.37727" lon="2.73241">
        <ele>772</ele>
        <time>2019-04-07T10:36:28.579Z</time>
      </trkpt>
      <trkpt lat="44.37724" lon="2.73254">
        <ele>772</ele>
        <time>2019-04-07T10:36:33.579Z</time>
      </trkpt>
      <trkpt lat="44.3772" lon="2.73268">
        <ele>773</ele>
        <time>2019-04-07T10:36:38.579Z</time>
      </trkpt>
      <trkpt lat="44.37716" lon="2.73282">
        <ele>774</ele>
        <time>2019-04-07T10:36:44.579Z</time>
      </trkpt>
      <trkpt lat="44.37712" lon="2.73295">
        <ele>775</ele>
        <time>2019-04-07T10:36:49.579Z</time>
      </trkpt>
      <trkpt lat="44.37708" lon="2.73309">
        <ele>776</ele>
        <time>2019-04-07T10:36:55.579Z</time>
      </trkpt>
      <trkpt lat="44.37708" lon="2.73324">
        <ele>778.1389952</ele>
        <time>2019-04-07T10:37:01.579Z</time>
      </trkpt>
      <trkpt lat="44.37706" lon="2.73338">
        <ele>779</ele>
        <time>2019-04-07T10:37:07.579Z</time>
      </trkpt>
      <trkpt lat="44.37701" lon="2.73353">
        <ele>781</ele>
        <time>2019-04-07T10:37:13.579Z</time>
      </trkpt>
      <trkpt lat="44.37703" lon="2.73368">
        <ele>781.2779904</ele>
        <time>2019-04-07T10:37:20.579Z</time>
      </trkpt>
      <trkpt lat="44.37713" lon="2.73371">
        <ele>783.1389952</ele>
        <time>2019-04-07T10:37:25.579Z</time>
      </trkpt>
      <trkpt lat="44.37724" lon="2.73369">
        <ele>784.1389952</ele>
        <time>2019-04-07T10:37:30.579Z</time>
      </trkpt>
      <trkpt lat="44.37735" lon="2.73368">
        <ele>785</ele>
        <time>2019-04-07T10:37:35.579Z</time>
      </trkpt>
      <trkpt lat="44.37747" lon="2.7337">
        <ele>785.2779904</ele>
        <time>2019-04-07T10:37:40.579Z</time>
      </trkpt>
      <trkpt lat="44.37756" lon="2.73374">
        <ele>787</ele>
        <time>2019-04-07T10:37:44.579Z</time>
      </trkpt>
      <trkpt lat="44.37765" lon="2.73383">
        <ele>787</ele>
        <time>2019-04-07T10:37:49.579Z</time>
      </trkpt>
      <trkpt lat="44.37771" lon="2.73395">
        <ele>789</ele>
        <time>2019-04-07T10:37:54.579Z</time>
      </trkpt>
      <trkpt lat="44.37777" lon="2.73407">
        <ele>789</ele>
        <time>2019-04-07T10:37:59.579Z</time>
      </trkpt>
      <trkpt lat="44.37789" lon="2.73414">
        <ele>791</ele>
        <time>2019-04-07T10:38:04.579Z</time>
      </trkpt>
      <trkpt lat="44.37799" lon="2.73418">
        <ele>791</ele>
        <time>2019-04-07T10:38:08.579Z</time>
      </trkpt>
      <trkpt lat="44.3781" lon="2.73416">
        <ele>792</ele>
        <time>2019-04-07T10:38:12.579Z</time>
      </trkpt>
      <trkpt lat="44.37821" lon="2.73414">
        <ele>792</ele>
        <time>2019-04-07T10:38:15.579Z</time>
      </trkpt>
      <trkpt lat="44.37831" lon="2.73409">
        <ele>792</ele>
        <time>2019-04-07T10:38:19.579Z</time>
      </trkpt>
      <trkpt lat="44.37841" lon="2.734">
        <ele>793</ele>
        <time>2019-04-07T10:38:23.579Z</time>
      </trkpt>
      <trkpt lat="44.37852" lon="2.73394">
        <ele>793</ele>
        <time>2019-04-07T10:38:27.579Z</time>
      </trkpt>
      <trkpt lat="44.37863" lon="2.73388">
        <ele>795</ele>
        <time>2019-04-07T10:38:31.579Z</time>
      </trkpt>
      <trkpt lat="44.37865" lon="2.73371">
        <ele>795</ele>
        <time>2019-04-07T10:38:35.579Z</time>
      </trkpt>
      <trkpt lat="44.3786" lon="2.73353">
        <ele>795</ele>
        <time>2019-04-07T10:38:38.579Z</time>
      </trkpt>
      <trkpt lat="44.37859" lon="2.73336">
        <ele>797</ele>
        <time>2019-04-07T10:38:42.579Z</time>
      </trkpt>
      <trkpt lat="44.37864" lon="2.73322">
        <ele>797</ele>
        <time>2019-04-07T10:38:46.579Z</time>
      </trkpt>
      <trkpt lat="44.37869" lon="2.73308">
        <ele>797.1389952</ele>
        <time>2019-04-07T10:38:50.579Z</time>
      </trkpt>
      <trkpt lat="44.37874" lon="2.73293">
        <ele>798</ele>
        <time>2019-04-07T10:38:54.579Z</time>
      </trkpt>
      <trkpt lat="44.3788" lon="2.73284">
        <ele>798</ele>
        <time>2019-04-07T10:38:57.579Z</time>
      </trkpt>
      <trkpt lat="44.37887" lon="2.73276">
        <ele>798.27523889185</ele>
        <time>2019-04-07T10:39:00.579Z</time>
      </trkpt>
      <trkpt lat="44.37893" lon="2.73268">
        <ele>800</ele>
        <time>2019-04-07T10:39:03.579Z</time>
      </trkpt>
      <trkpt lat="44.379" lon="2.73261">
        <ele>800</ele>
        <time>2019-04-07T10:39:06.579Z</time>
      </trkpt>
      <trkpt lat="44.37906" lon="2.73253">
        <ele>800</ele>
        <time>2019-04-07T10:39:09.579Z</time>
      </trkpt>
      <trkpt lat="44.37916" lon="2.73245">
        <ele>801</ele>
        <time>2019-04-07T10:39:13.579Z</time>
      </trkpt>
      <trkpt lat="44.37922" lon="2.73238">
        <ele>801</ele>
        <time>2019-04-07T10:39:16.579Z</time>
      </trkpt>
      <trkpt lat="44.3793" lon="2.73232">
        <ele>801</ele>
        <time>2019-04-07T10:39:19.579Z</time>
      </trkpt>
      <trkpt lat="44.37938" lon="2.73225">
        <ele>803</ele>
        <time>2019-04-07T10:39:22.579Z</time>
      </trkpt>
      <trkpt lat="44.37944" lon="2.73216">
        <ele>803</ele>
        <time>2019-04-07T10:39:25.579Z</time>
      </trkpt>
      <trkpt lat="44.3795" lon="2.73206">
        <ele>803</ele>
        <time>2019-04-07T10:39:28.579Z</time>
      </trkpt>
      <trkpt lat="44.37956" lon="2.73197">
        <ele>805</ele>
        <time>2019-04-07T10:39:31.579Z</time>
      </trkpt>
      <trkpt lat="44.37962" lon="2.73188">
        <ele>805</ele>
        <time>2019-04-07T10:39:34.579Z</time>
      </trkpt>
      <trkpt lat="44.37969" lon="2.73181">
        <ele>805</ele>
        <time>2019-04-07T10:39:37.579Z</time>
      </trkpt>
      <trkpt lat="44.37975" lon="2.73172">
        <ele>805.2779904</ele>
        <time>2019-04-07T10:39:40.579Z</time>
      </trkpt>
      <trkpt lat="44.37981" lon="2.73164">
        <ele>807</ele>
        <time>2019-04-07T10:39:43.579Z</time>
      </trkpt>
      <trkpt lat="44.37987" lon="2.73156">
        <ele>807</ele>
        <time>2019-04-07T10:39:46.579Z</time>
      </trkpt>
      <trkpt lat="44.37992" lon="2.73152">
        <ele>807</ele>
        <time>2019-04-07T10:39:48.579Z</time>
      </trkpt>
      <trkpt lat="44.38" lon="2.73146">
        <ele>808</ele>
        <time>2019-04-07T10:39:51.579Z</time>
      </trkpt>
      <trkpt lat="44.38007" lon="2.73139">
        <ele>808.1389952</ele>
        <time>2019-04-07T10:39:54.579Z</time>
      </trkpt>
      <trkpt lat="44.38014" lon="2.73134">
        <ele>809</ele>
        <time>2019-04-07T10:39:57.579Z</time>
      </trkpt>
      <trkpt lat="44.38023" lon="2.73129">
        <ele>809.1389952</ele>
        <time>2019-04-07T10:40:00.579Z</time>
      </trkpt>
      <trkpt lat="44.38031" lon="2.73125">
        <ele>810</ele>
        <time>2019-04-07T10:40:03.579Z</time>
      </trkpt>
      <trkpt lat="44.38039" lon="2.73123">
        <ele>810</ele>
        <time>2019-04-07T10:40:06.579Z</time>
      </trkpt>
      <trkpt lat="44.38048" lon="2.73121">
        <ele>810</ele>
        <time>2019-04-07T10:40:09.579Z</time>
      </trkpt>
      <trkpt lat="44.38057" lon="2.73121">
        <ele>811</ele>
        <time>2019-04-07T10:40:12.579Z</time>
      </trkpt>
      <trkpt lat="44.38067" lon="2.73122">
        <ele>811</ele>
        <time>2019-04-07T10:40:15.579Z</time>
      </trkpt>
      <trkpt lat="44.38077" lon="2.73126">
        <ele>811</ele>
        <time>2019-04-07T10:40:18.579Z</time>
      </trkpt>
      <trkpt lat="44.38087" lon="2.73131">
        <ele>813</ele>
        <time>2019-04-07T10:40:21.579Z</time>
      </trkpt>
      <trkpt lat="44.38099" lon="2.73137">
        <ele>813</ele>
        <time>2019-04-07T10:40:25.579Z</time>
      </trkpt>
      <trkpt lat="44.38108" lon="2.73144">
        <ele>813</ele>
        <time>2019-04-07T10:40:28.579Z</time>
      </trkpt>
      <trkpt lat="44.38118" lon="2.73151">
        <ele>813</ele>
        <time>2019-04-07T10:40:31.579Z</time>
      </trkpt>
      <trkpt lat="44.38128" lon="2.73158">
        <ele>813</ele>
        <time>2019-04-07T10:40:35.579Z</time>
      </trkpt>
      <trkpt lat="44.38138" lon="2.73164">
        <ele>813</ele>
        <time>2019-04-07T10:40:39.579Z</time>
      </trkpt>
      <trkpt lat="44.38151" lon="2.73167">
        <ele>815</ele>
        <time>2019-04-07T10:40:43.579Z</time>
      </trkpt>
      <trkpt lat="44.38161" lon="2.73172">
        <ele>815</ele>
        <time>2019-04-07T10:40:46.579Z</time>
      </trkpt>
      <trkpt lat="44.38171" lon="2.73175">
        <ele>815</ele>
        <time>2019-04-07T10:40:49.579Z</time>
      </trkpt>
      <trkpt lat="44.38184" lon="2.73179">
        <ele>816</ele>
        <time>2019-04-07T10:40:53.579Z</time>
      </trkpt>
      <trkpt lat="44.38194" lon="2.7318">
        <ele>816</ele>
        <time>2019-04-07T10:40:57.579Z</time>
      </trkpt>
      <trkpt lat="44.38196" lon="2.73161">
        <ele>816</ele>
        <time>2019-04-07T10:41:05.579Z</time>
      </trkpt>
      <trkpt lat="44.382" lon="2.73146">
        <ele>816</ele>
        <time>2019-04-07T10:41:07.579Z</time>
      </trkpt>
      <trkpt lat="44.38204" lon="2.73132">
        <ele>816</ele>
        <time>2019-04-07T10:41:09.579Z</time>
      </trkpt>
      <trkpt lat="44.3821" lon="2.73115">
        <ele>801</ele>
        <time>2019-04-07T10:41:12.579Z</time>
      </trkpt>
      <trkpt lat="44.38215" lon="2.73096">
        <ele>798.7220096</ele>
        <time>2019-04-07T10:41:15.579Z</time>
      </trkpt>
      <trkpt lat="44.3822" lon="2.73083">
        <ele>795.8610048</ele>
        <time>2019-04-07T10:41:17.579Z</time>
      </trkpt>
      <trkpt lat="44.38228" lon="2.73068">
        <ele>792</ele>
        <time>2019-04-07T10:41:20.579Z</time>
      </trkpt>
      <trkpt lat="44.38233" lon="2.73047">
        <ele>789</ele>
        <time>2019-04-07T10:41:23.579Z</time>
      </trkpt>
      <trkpt lat="44.38239" lon="2.73035">
        <ele>788</ele>
        <time>2019-04-07T10:41:25.579Z</time>
      </trkpt>
      <trkpt lat="44.38247" lon="2.73027">
        <ele>787.8610048</ele>
        <time>2019-04-07T10:41:27.579Z</time>
      </trkpt>
      <trkpt lat="44.38261" lon="2.7302">
        <ele>788</ele>
        <time>2019-04-07T10:41:30.579Z</time>
      </trkpt>
      <trkpt lat="44.3827" lon="2.73015">
        <ele>788</ele>
        <time>2019-04-07T10:41:32.579Z</time>
      </trkpt>
      <trkpt lat="44.38284" lon="2.73011">
        <ele>788.1389952</ele>
        <time>2019-04-07T10:41:35.579Z</time>
      </trkpt>
      <trkpt lat="44.38295" lon="2.73004">
        <ele>789</ele>
        <time>2019-04-07T10:41:38.579Z</time>
      </trkpt>
      <trkpt lat="44.38305" lon="2.72996">
        <ele>789</ele>
        <time>2019-04-07T10:41:41.579Z</time>
      </trkpt>
      <trkpt lat="44.38312" lon="2.72984">
        <ele>789</ele>
        <time>2019-04-07T10:41:44.579Z</time>
      </trkpt>
      <trkpt lat="44.38318" lon="2.72964">
        <ele>789</ele>
        <time>2019-04-07T10:41:47.579Z</time>
      </trkpt>
      <trkpt lat="44.38323" lon="2.72951">
        <ele>789</ele>
        <time>2019-04-07T10:41:49.579Z</time>
      </trkpt>
      <trkpt lat="44.38329" lon="2.72939">
        <ele>788</ele>
        <time>2019-04-07T10:41:51.579Z</time>
      </trkpt>
      <trkpt lat="44.38335" lon="2.72925">
        <ele>788</ele>
        <time>2019-04-07T10:41:53.579Z</time>
      </trkpt>
      <trkpt lat="44.38343" lon="2.72909">
        <ele>788</ele>
        <time>2019-04-07T10:41:55.579Z</time>
      </trkpt>
      <trkpt lat="44.38351" lon="2.72892">
        <ele>788</ele>
        <time>2019-04-07T10:41:57.579Z</time>
      </trkpt>
      <trkpt lat="44.3836" lon="2.72875">
        <ele>788</ele>
        <time>2019-04-07T10:41:59.579Z</time>
      </trkpt>
      <trkpt lat="44.38369" lon="2.72856">
        <ele>782</ele>
        <time>2019-04-07T10:42:01.579Z</time>
      </trkpt>
      <trkpt lat="44.38378" lon="2.72839">
        <ele>780.8610048</ele>
        <time>2019-04-07T10:42:03.579Z</time>
      </trkpt>
      <trkpt lat="44.38387" lon="2.72822">
        <ele>779.8610048</ele>
        <time>2019-04-07T10:42:05.579Z</time>
      </trkpt>
      <trkpt lat="44.38394" lon="2.72805">
        <ele>779</ele>
        <time>2019-04-07T10:42:07.579Z</time>
      </trkpt>
      <trkpt lat="44.38401" lon="2.72788">
        <ele>777.8610048</ele>
        <time>2019-04-07T10:42:09.579Z</time>
      </trkpt>
      <trkpt lat="44.3841" lon="2.72778">
        <ele>776</ele>
        <time>2019-04-07T10:42:11.579Z</time>
      </trkpt>
      <trkpt lat="44.38422" lon="2.72773">
        <ele>774.8610048</ele>
        <time>2019-04-07T10:42:13.579Z</time>
      </trkpt>
      <trkpt lat="44.38437" lon="2.72773">
        <ele>772</ele>
        <time>2019-04-07T10:42:16.579Z</time>
      </trkpt>
      <trkpt lat="44.38448" lon="2.72776">
        <ele>772</ele>
        <time>2019-04-07T10:42:19.579Z</time>
      </trkpt>
      <trkpt lat="44.38461" lon="2.72785">
        <ele>772</ele>
        <time>2019-04-07T10:42:23.579Z</time>
      </trkpt>
      <trkpt lat="44.38468" lon="2.72796">
        <ele>769</ele>
        <time>2019-04-07T10:42:26.579Z</time>
      </trkpt>
      <trkpt lat="44.38479" lon="2.72804">
        <ele>768.5830144</ele>
        <time>2019-04-07T10:42:30.579Z</time>
      </trkpt>
      <trkpt lat="44.38491" lon="2.72805">
        <ele>765</ele>
        <time>2019-04-07T10:42:34.579Z</time>
      </trkpt>
      <trkpt lat="44.38487" lon="2.72819">
        <ele>766</ele>
        <time>2019-04-07T10:42:40.579Z</time>
      </trkpt>
      <trkpt lat="44.3848" lon="2.72831">
        <ele>766</ele>
        <time>2019-04-07T10:42:44.579Z</time>
      </trkpt>
      <trkpt lat="44.38473" lon="2.72844">
        <ele>766</ele>
        <time>2019-04-07T10:42:48.579Z</time>
      </trkpt>
      <trkpt lat="44.38463" lon="2.72855">
        <ele>768</ele>
        <time>2019-04-07T10:42:52.579Z</time>
      </trkpt>
      <trkpt lat="44.38457" lon="2.72868">
        <ele>768</ele>
        <time>2019-04-07T10:42:56.579Z</time>
      </trkpt>
      <trkpt lat="44.3845" lon="2.72882">
        <ele>768.4169856</ele>
        <time>2019-04-07T10:43:00.579Z</time>
      </trkpt>
      <trkpt lat="44.38444" lon="2.72896">
        <ele>771</ele>
        <time>2019-04-07T10:43:04.579Z</time>
      </trkpt>
      <trkpt lat="44.38438" lon="2.72909">
        <ele>772</ele>
        <time>2019-04-07T10:43:08.579Z</time>
      </trkpt>
      <trkpt lat="44.38432" lon="2.72919">
        <ele>773</ele>
        <time>2019-04-07T10:43:12.579Z</time>
      </trkpt>
      <trkpt lat="44.38423" lon="2.72929">
        <ele>773</ele>
        <time>2019-04-07T10:43:17.579Z</time>
      </trkpt>
      <trkpt lat="44.38416" lon="2.7294">
        <ele>775</ele>
        <time>2019-04-07T10:43:23.579Z</time>
      </trkpt>
      <trkpt lat="44.38411" lon="2.72953">
        <ele>775</ele>
        <time>2019-04-07T10:43:29.579Z</time>
      </trkpt>
      <trkpt lat="44.38406" lon="2.72965">
        <ele>778.2779904</ele>
        <time>2019-04-07T10:43:35.579Z</time>
      </trkpt>
      <trkpt lat="44.38403" lon="2.72978">
        <ele>781</ele>
        <time>2019-04-07T10:43:41.579Z</time>
      </trkpt>
      <trkpt lat="44.38398" lon="2.72992">
        <ele>783</ele>
        <time>2019-04-07T10:43:47.579Z</time>
      </trkpt>
      <trkpt lat="44.38393" lon="2.73004">
        <ele>784</ele>
        <time>2019-04-07T10:43:52.579Z</time>
      </trkpt>
      <trkpt lat="44.38389" lon="2.73017">
        <ele>785</ele>
        <time>2019-04-07T10:43:57.579Z</time>
      </trkpt>
      <trkpt lat="44.38386" lon="2.73031">
        <ele>786</ele>
        <time>2019-04-07T10:44:02.579Z</time>
      </trkpt>
      <trkpt lat="44.38385" lon="2.73044">
        <ele>786</ele>
        <time>2019-04-07T10:44:06.579Z</time>
      </trkpt>
      <trkpt lat="44.38383" lon="2.73059">
        <ele>788</ele>
        <time>2019-04-07T10:44:12.579Z</time>
      </trkpt>
      <trkpt lat="44.3838" lon="2.73075">
        <ele>788</ele>
        <time>2019-04-07T10:44:18.579Z</time>
      </trkpt>
      <trkpt lat="44.38377" lon="2.73089">
        <ele>791</ele>
        <time>2019-04-07T10:44:23.579Z</time>
      </trkpt>
      <trkpt lat="44.38375" lon="2.73104">
        <ele>792</ele>
        <time>2019-04-07T10:44:29.579Z</time>
      </trkpt>
      <trkpt lat="44.38372" lon="2.73117">
        <ele>793</ele>
        <time>2019-04-07T10:44:34.579Z</time>
      </trkpt>
      <trkpt lat="44.38367" lon="2.73133">
        <ele>793</ele>
        <time>2019-04-07T10:44:39.579Z</time>
      </trkpt>
      <trkpt lat="44.38363" lon="2.73147">
        <ele>795</ele>
        <time>2019-04-07T10:44:44.579Z</time>
      </trkpt>
      <trkpt lat="44.3836" lon="2.73161">
        <ele>795</ele>
        <time>2019-04-07T10:44:49.579Z</time>
      </trkpt>
      <trkpt lat="44.38356" lon="2.73175">
        <ele>797</ele>
        <time>2019-04-07T10:44:55.579Z</time>
      </trkpt>
      <trkpt lat="44.38353" lon="2.73189">
        <ele>797.1389952</ele>
        <time>2019-04-07T10:45:00.579Z</time>
      </trkpt>
      <trkpt lat="44.38362" lon="2.73197">
        <ele>798</ele>
        <time>2019-04-07T10:45:05.579Z</time>
      </trkpt>
      <trkpt lat="44.38373" lon="2.73203">
        <ele>798</ele>
        <time>2019-04-07T10:45:08.579Z</time>
      </trkpt>
      <trkpt lat="44.38386" lon="2.73206">
        <ele>794</ele>
        <time>2019-04-07T10:45:12.579Z</time>
      </trkpt>
      <trkpt lat="44.38397" lon="2.73208">
        <ele>790</ele>
        <time>2019-04-07T10:45:16.579Z</time>
      </trkpt>
      <trkpt lat="44.38409" lon="2.73214">
        <ele>789.5830144</ele>
        <time>2019-04-07T10:45:20.579Z</time>
      </trkpt>
      <trkpt lat="44.38419" lon="2.73219">
        <ele>784.8610048</ele>
        <time>2019-04-07T10:45:28.579Z</time>
      </trkpt>
      <trkpt lat="44.3843" lon="2.73222">
        <ele>783</ele>
        <time>2019-04-07T10:45:33.579Z</time>
      </trkpt>
      <trkpt lat="44.38442" lon="2.73221">
        <ele>780</ele>
        <time>2019-04-07T10:45:39.579Z</time>
      </trkpt>
      <trkpt lat="44.38451" lon="2.7323">
        <ele>777</ele>
        <time>2019-04-07T10:45:49.579Z</time>
      </trkpt>
      <trkpt lat="44.38462" lon="2.7323">
        <ele>774</ele>
        <time>2019-04-07T10:45:53.579Z</time>
      </trkpt>
      <trkpt lat="44.38474" lon="2.73224">
        <ele>771</ele>
        <time>2019-04-07T10:45:58.579Z</time>
      </trkpt>
      <trkpt lat="44.38476" lon="2.7321">
        <ele>768.8610048</ele>
        <time>2019-04-07T10:46:04.579Z</time>
      </trkpt>
      <trkpt lat="44.38486" lon="2.73217">
        <ele>765</ele>
        <time>2019-04-07T10:46:08.579Z</time>
      </trkpt>
      <trkpt lat="44.38497" lon="2.73219">
        <ele>763</ele>
        <time>2019-04-07T10:46:12.579Z</time>
      </trkpt>
      <trkpt lat="44.38504" lon="2.73233">
        <ele>760</ele>
        <time>2019-04-07T10:46:16.579Z</time>
      </trkpt>
      <trkpt lat="44.38518" lon="2.73238">
        <ele>760</ele>
        <time>2019-04-07T10:46:19.579Z</time>
      </trkpt>
      <trkpt lat="44.38529" lon="2.73246">
        <ele>755.4440192</ele>
        <time>2019-04-07T10:46:21.579Z</time>
      </trkpt>
      <trkpt lat="44.3854" lon="2.73255">
        <ele>751.8610048</ele>
        <time>2019-04-07T10:46:23.579Z</time>
      </trkpt>
      <trkpt lat="44.38552" lon="2.73266">
        <ele>750.7220096</ele>
        <time>2019-04-07T10:46:25.579Z</time>
      </trkpt>
      <trkpt lat="44.38561" lon="2.73278">
        <ele>747.8610048</ele>
        <time>2019-04-07T10:46:27.579Z</time>
      </trkpt>
      <trkpt lat="44.38569" lon="2.73291">
        <ele>745.7220096</ele>
        <time>2019-04-07T10:46:29.579Z</time>
      </trkpt>
      <trkpt lat="44.38579" lon="2.73301">
        <ele>742.8610048</ele>
        <time>2019-04-07T10:46:31.579Z</time>
      </trkpt>
      <trkpt lat="44.38589" lon="2.73309">
        <ele>741.8610048</ele>
        <time>2019-04-07T10:46:33.579Z</time>
      </trkpt>
      <trkpt lat="44.38599" lon="2.73319">
        <ele>739.8610048</ele>
        <time>2019-04-07T10:46:35.579Z</time>
      </trkpt>
      <trkpt lat="44.38609" lon="2.73336">
        <ele>737.73939801407</ele>
        <time>2019-04-07T10:46:37.579Z</time>
      </trkpt>
      <trkpt lat="44.38622" lon="2.73351">
        <ele>734.8610048</ele>
        <time>2019-04-07T10:46:39.579Z</time>
      </trkpt>
      <trkpt lat="44.38633" lon="2.73366">
        <ele>734</ele>
        <time>2019-04-07T10:46:41.579Z</time>
      </trkpt>
      <trkpt lat="44.38646" lon="2.73377">
        <ele>733</ele>
        <time>2019-04-07T10:46:43.579Z</time>
      </trkpt>
      <trkpt lat="44.38661" lon="2.73381">
        <ele>731.8610048</ele>
        <time>2019-04-07T10:46:45.579Z</time>
      </trkpt>
      <trkpt lat="44.38676" lon="2.73379">
        <ele>730</ele>
        <time>2019-04-07T10:46:47.579Z</time>
      </trkpt>
      <trkpt lat="44.38686" lon="2.73384">
        <ele>731</ele>
        <time>2019-04-07T10:46:51.579Z</time>
      </trkpt>
      <trkpt lat="44.3868" lon="2.73396">
        <ele>732</ele>
        <time>2019-04-07T10:46:56.579Z</time>
      </trkpt>
      <trkpt lat="44.38677" lon="2.73411">
        <ele>732</ele>
        <time>2019-04-07T10:47:00.579Z</time>
      </trkpt>
      <trkpt lat="44.38677" lon="2.73427">
        <ele>732</ele>
        <time>2019-04-07T10:47:04.579Z</time>
      </trkpt>
      <trkpt lat="44.38673" lon="2.73439">
        <ele>732</ele>
        <time>2019-04-07T10:47:07.579Z</time>
      </trkpt>
      <trkpt lat="44.38673" lon="2.73452">
        <ele>732.2779904</ele>
        <time>2019-04-07T10:47:10.579Z</time>
      </trkpt>
      <trkpt lat="44.38677" lon="2.73465">
        <ele>734</ele>
        <time>2019-04-07T10:47:15.579Z</time>
      </trkpt>
      <trkpt lat="44.38686" lon="2.73473">
        <ele>734</ele>
        <time>2019-04-07T10:47:19.579Z</time>
      </trkpt>
      <trkpt lat="44.38693" lon="2.73484">
        <ele>736</ele>
        <time>2019-04-07T10:47:22.579Z</time>
      </trkpt>
      <trkpt lat="44.38698" lon="2.73497">
        <ele>736</ele>
        <time>2019-04-07T10:47:25.579Z</time>
      </trkpt>
      <trkpt lat="44.3871" lon="2.73502">
        <ele>736</ele>
        <time>2019-04-07T10:47:28.579Z</time>
      </trkpt>
      <trkpt lat="44.38724" lon="2.73504">
        <ele>735.7220096</ele>
        <time>2019-04-07T10:47:30.579Z</time>
      </trkpt>
      <trkpt lat="44.38736" lon="2.73512">
        <ele>734</ele>
        <time>2019-04-07T10:47:32.579Z</time>
      </trkpt>
      <trkpt lat="44.38749" lon="2.73521">
        <ele>734</ele>
        <time>2019-04-07T10:47:34.579Z</time>
      </trkpt>
      <trkpt lat="44.3876" lon="2.73533">
        <ele>733</ele>
        <time>2019-04-07T10:47:36.579Z</time>
      </trkpt>
      <trkpt lat="44.38768" lon="2.73546">
        <ele>733</ele>
        <time>2019-04-07T10:47:38.579Z</time>
      </trkpt>
      <trkpt lat="44.38772" lon="2.73563">
        <ele>731</ele>
        <time>2019-04-07T10:47:41.579Z</time>
      </trkpt>
      <trkpt lat="44.38768" lon="2.73574">
        <ele>730</ele>
        <time>2019-04-07T10:47:48.579Z</time>
      </trkpt>
      <trkpt lat="44.38763" lon="2.73587">
        <ele>730</ele>
        <time>2019-04-07T10:47:52.579Z</time>
      </trkpt>
      <trkpt lat="44.38756" lon="2.73594">
        <ele>730</ele>
        <time>2019-04-07T10:47:54.579Z</time>
      </trkpt>
      <trkpt lat="44.38744" lon="2.736">
        <ele>730</ele>
        <time>2019-04-07T10:47:56.579Z</time>
      </trkpt>
      <trkpt lat="44.38732" lon="2.73599">
        <ele>730</ele>
        <time>2019-04-07T10:47:58.579Z</time>
      </trkpt>
      <trkpt lat="44.38718" lon="2.73595">
        <ele>729.44952221631</ele>
        <time>2019-04-07T10:48:00.579Z</time>
      </trkpt>
      <trkpt lat="44.38706" lon="2.73591">
        <ele>726</ele>
        <time>2019-04-07T10:48:02.579Z</time>
      </trkpt>
      <trkpt lat="44.38693" lon="2.73588">
        <ele>726</ele>
        <time>2019-04-07T10:48:04.579Z</time>
      </trkpt>
      <trkpt lat="44.38682" lon="2.73589">
        <ele>726</ele>
        <time>2019-04-07T10:48:06.579Z</time>
      </trkpt>
      <trkpt lat="44.38672" lon="2.7359">
        <ele>726</ele>
        <time>2019-04-07T10:48:08.579Z</time>
      </trkpt>
      <trkpt lat="44.38663" lon="2.73591">
        <ele>725.8610048</ele>
        <time>2019-04-07T10:48:10.579Z</time>
      </trkpt>
      <trkpt lat="44.38653" lon="2.73592">
        <ele>725</ele>
        <time>2019-04-07T10:48:12.579Z</time>
      </trkpt>
      <trkpt lat="44.38647" lon="2.73593">
        <ele>725</ele>
        <time>2019-04-07T10:48:13.579Z</time>
      </trkpt>
      <trkpt lat="44.38641" lon="2.73591">
        <ele>725</ele>
        <time>2019-04-07T10:48:14.579Z</time>
      </trkpt>
      <trkpt lat="44.38629" lon="2.73584">
        <ele>725</ele>
        <time>2019-04-07T10:48:16.579Z</time>
      </trkpt>
      <trkpt lat="44.38619" lon="2.73584">
        <ele>725</ele>
        <time>2019-04-07T10:48:18.579Z</time>
      </trkpt>
      <trkpt lat="44.3861" lon="2.73594">
        <ele>724.1660288</ele>
        <time>2019-04-07T10:48:20.579Z</time>
      </trkpt>
      <trkpt lat="44.38603" lon="2.73606">
        <ele>716</ele>
        <time>2019-04-07T10:48:22.579Z</time>
      </trkpt>
      <trkpt lat="44.38595" lon="2.73617">
        <ele>715</ele>
        <time>2019-04-07T10:48:24.579Z</time>
      </trkpt>
      <trkpt lat="44.38586" lon="2.73624">
        <ele>713.8610048</ele>
        <time>2019-04-07T10:48:26.579Z</time>
      </trkpt>
      <trkpt lat="44.38577" lon="2.73625">
        <ele>712.86238055408</ele>
        <time>2019-04-07T10:48:28.579Z</time>
      </trkpt>
      <trkpt lat="44.38567" lon="2.73628">
        <ele>711</ele>
        <time>2019-04-07T10:48:31.579Z</time>
      </trkpt>
      <trkpt lat="44.38572" lon="2.73644">
        <ele>710</ele>
        <time>2019-04-07T10:48:36.579Z</time>
      </trkpt>
      <trkpt lat="44.38581" lon="2.73654">
        <ele>709.8610048</ele>
        <time>2019-04-07T10:48:39.579Z</time>
      </trkpt>
      <trkpt lat="44.38595" lon="2.73663">
        <ele>708</ele>
        <time>2019-04-07T10:48:42.579Z</time>
      </trkpt>
      <trkpt lat="44.38609" lon="2.73662">
        <ele>708</ele>
        <time>2019-04-07T10:48:44.579Z</time>
      </trkpt>
      <trkpt lat="44.38624" lon="2.73664">
        <ele>707</ele>
        <time>2019-04-07T10:48:46.579Z</time>
      </trkpt>
      <trkpt lat="44.38639" lon="2.73667">
        <ele>707</ele>
        <time>2019-04-07T10:48:48.579Z</time>
      </trkpt>
      <trkpt lat="44.38653" lon="2.73666">
        <ele>706.1660288</ele>
        <time>2019-04-07T10:48:50.579Z</time>
      </trkpt>
      <trkpt lat="44.38668" lon="2.73672">
        <ele>698</ele>
        <time>2019-04-07T10:48:52.579Z</time>
      </trkpt>
      <trkpt lat="44.38683" lon="2.7368">
        <ele>696.8610048</ele>
        <time>2019-04-07T10:48:54.579Z</time>
      </trkpt>
      <trkpt lat="44.38697" lon="2.73686">
        <ele>695.72476110815</ele>
        <time>2019-04-07T10:48:56.579Z</time>
      </trkpt>
      <trkpt lat="44.38707" lon="2.73697">
        <ele>693</ele>
        <time>2019-04-07T10:48:58.579Z</time>
      </trkpt>
      <trkpt lat="44.38718" lon="2.73707">
        <ele>692.5830144</ele>
        <time>2019-04-07T10:49:00.579Z</time>
      </trkpt>
      <trkpt lat="44.38733" lon="2.73714">
        <ele>689.8610048</ele>
        <time>2019-04-07T10:49:02.579Z</time>
      </trkpt>
      <trkpt lat="44.38747" lon="2.73721">
        <ele>688.8610048</ele>
        <time>2019-04-07T10:49:04.579Z</time>
      </trkpt>
      <trkpt lat="44.3876" lon="2.73727">
        <ele>686.8610048</ele>
        <time>2019-04-07T10:49:06.579Z</time>
      </trkpt>
      <trkpt lat="44.38769" lon="2.73742">
        <ele>686</ele>
        <time>2019-04-07T10:49:08.579Z</time>
      </trkpt>
      <trkpt lat="44.38777" lon="2.73761">
        <ele>684.8610048</ele>
        <time>2019-04-07T10:49:10.579Z</time>
      </trkpt>
      <trkpt lat="44.38784" lon="2.7378">
        <ele>682.8610048</ele>
        <time>2019-04-07T10:49:12.579Z</time>
      </trkpt>
      <trkpt lat="44.38786" lon="2.73801">
        <ele>680.8610048</ele>
        <time>2019-04-07T10:49:14.579Z</time>
      </trkpt>
      <trkpt lat="44.38784" lon="2.73824">
        <ele>680</ele>
        <time>2019-04-07T10:49:16.579Z</time>
      </trkpt>
      <trkpt lat="44.3878" lon="2.73847">
        <ele>678.8610048</ele>
        <time>2019-04-07T10:49:18.579Z</time>
      </trkpt>
      <trkpt lat="44.38775" lon="2.73869">
        <ele>675.8610048</ele>
        <time>2019-04-07T10:49:20.579Z</time>
      </trkpt>
      <trkpt lat="44.38774" lon="2.7389">
        <ele>674.7220096</ele>
        <time>2019-04-07T10:49:22.579Z</time>
      </trkpt>
      <trkpt lat="44.38775" lon="2.73911">
        <ele>671</ele>
        <time>2019-04-07T10:49:24.579Z</time>
      </trkpt>
      <trkpt lat="44.38779" lon="2.73932">
        <ele>671</ele>
        <time>2019-04-07T10:49:26.579Z</time>
      </trkpt>
      <trkpt lat="44.38785" lon="2.73953">
        <ele>669</ele>
        <time>2019-04-07T10:49:28.579Z</time>
      </trkpt>
      <trkpt lat="44.3879" lon="2.73975">
        <ele>667.8610048</ele>
        <time>2019-04-07T10:49:30.579Z</time>
      </trkpt>
      <trkpt lat="44.38795" lon="2.73995">
        <ele>665.8610048</ele>
        <time>2019-04-07T10:49:32.579Z</time>
      </trkpt>
      <trkpt lat="44.38799" lon="2.74015">
        <ele>664.8610048</ele>
        <time>2019-04-07T10:49:34.579Z</time>
      </trkpt>
      <trkpt lat="44.38806" lon="2.74035">
        <ele>663</ele>
        <time>2019-04-07T10:49:36.579Z</time>
      </trkpt>
      <trkpt lat="44.38815" lon="2.74055">
        <ele>661.8610048</ele>
        <time>2019-04-07T10:49:38.579Z</time>
      </trkpt>
      <trkpt lat="44.38824" lon="2.74074">
        <ele>658.8610048</ele>
        <time>2019-04-07T10:49:40.579Z</time>
      </trkpt>
      <trkpt lat="44.38832" lon="2.74091">
        <ele>656.7220096</ele>
        <time>2019-04-07T10:49:42.579Z</time>
      </trkpt>
      <trkpt lat="44.38835" lon="2.74105">
        <ele>655</ele>
        <time>2019-04-07T10:49:44.579Z</time>
      </trkpt>
      <trkpt lat="44.38851" lon="2.74107">
        <ele>653</ele>
        <time>2019-04-07T10:49:47.579Z</time>
      </trkpt>
      <trkpt lat="44.38861" lon="2.741">
        <ele>653</ele>
        <time>2019-04-07T10:49:49.579Z</time>
      </trkpt>
      <trkpt lat="44.3887" lon="2.7409">
        <ele>652</ele>
        <time>2019-04-07T10:49:51.579Z</time>
      </trkpt>
      <trkpt lat="44.38879" lon="2.74073">
        <ele>650.8610048</ele>
        <time>2019-04-07T10:49:53.579Z</time>
      </trkpt>
      <trkpt lat="44.38889" lon="2.74058">
        <ele>649</ele>
        <time>2019-04-07T10:49:55.579Z</time>
      </trkpt>
      <trkpt lat="44.389" lon="2.74045">
        <ele>648</ele>
        <time>2019-04-07T10:49:57.579Z</time>
      </trkpt>
      <trkpt lat="44.38913" lon="2.74036">
        <ele>648</ele>
        <time>2019-04-07T10:49:59.579Z</time>
      </trkpt>
      <trkpt lat="44.3893" lon="2.74038">
        <ele>646.2779904</ele>
        <time>2019-04-07T10:50:01.579Z</time>
      </trkpt>
      <trkpt lat="44.38945" lon="2.74038">
        <ele>647.8610048</ele>
        <time>2019-04-07T10:50:03.579Z</time>
      </trkpt>
      <trkpt lat="44.3896" lon="2.74042">
        <ele>646.8610048</ele>
        <time>2019-04-07T10:50:05.579Z</time>
      </trkpt>
      <trkpt lat="44.38974" lon="2.74049">
        <ele>645</ele>
        <time>2019-04-07T10:50:07.579Z</time>
      </trkpt>
      <trkpt lat="44.38985" lon="2.74053">
        <ele>644</ele>
        <time>2019-04-07T10:50:09.579Z</time>
      </trkpt>
      <trkpt lat="44.38995" lon="2.74053">
        <ele>644</ele>
        <time>2019-04-07T10:50:11.579Z</time>
      </trkpt>
      <trkpt lat="44.39006" lon="2.74052">
        <ele>644</ele>
        <time>2019-04-07T10:50:13.579Z</time>
      </trkpt>
      <trkpt lat="44.39019" lon="2.74055">
        <ele>644</ele>
        <time>2019-04-07T10:50:15.579Z</time>
      </trkpt>
      <trkpt lat="44.39032" lon="2.74059">
        <ele>644</ele>
        <time>2019-04-07T10:50:17.579Z</time>
      </trkpt>
      <trkpt lat="44.39046" lon="2.74062">
        <ele>644</ele>
        <time>2019-04-07T10:50:19.579Z</time>
      </trkpt>
      <trkpt lat="44.39058" lon="2.74067">
        <ele>642</ele>
        <time>2019-04-07T10:50:21.579Z</time>
      </trkpt>
      <trkpt lat="44.39071" lon="2.74071">
        <ele>642</ele>
        <time>2019-04-07T10:50:23.579Z</time>
      </trkpt>
      <trkpt lat="44.39083" lon="2.74075">
        <ele>641.58714166223</ele>
        <time>2019-04-07T10:50:25.579Z</time>
      </trkpt>
      <trkpt lat="44.39095" lon="2.74079">
        <ele>639</ele>
        <time>2019-04-07T10:50:27.579Z</time>
      </trkpt>
      <trkpt lat="44.39106" lon="2.74082">
        <ele>639</ele>
        <time>2019-04-07T10:50:29.579Z</time>
      </trkpt>
      <trkpt lat="44.39118" lon="2.74085">
        <ele>635.8610048</ele>
        <time>2019-04-07T10:50:31.579Z</time>
      </trkpt>
      <trkpt lat="44.39134" lon="2.74086">
        <ele>635</ele>
        <time>2019-04-07T10:50:33.579Z</time>
      </trkpt>
      <trkpt lat="44.39148" lon="2.74086">
        <ele>634.8610048</ele>
        <time>2019-04-07T10:50:35.579Z</time>
      </trkpt>
      <trkpt lat="44.39159" lon="2.74085">
        <ele>633</ele>
        <time>2019-04-07T10:50:37.579Z</time>
      </trkpt>
      <trkpt lat="44.39173" lon="2.74084">
        <ele>632</ele>
        <time>2019-04-07T10:50:39.579Z</time>
      </trkpt>
      <trkpt lat="44.39187" lon="2.74082">
        <ele>631</ele>
        <time>2019-04-07T10:50:41.579Z</time>
      </trkpt>
      <trkpt lat="44.39199" lon="2.74082">
        <ele>629.8610048</ele>
        <time>2019-04-07T10:50:43.579Z</time>
      </trkpt>
      <trkpt lat="44.39213" lon="2.74081">
        <ele>628</ele>
        <time>2019-04-07T10:50:45.579Z</time>
      </trkpt>
      <trkpt lat="44.39227" lon="2.74081">
        <ele>627</ele>
        <time>2019-04-07T10:50:47.579Z</time>
      </trkpt>
      <trkpt lat="44.39241" lon="2.7408">
        <ele>626.8610048</ele>
        <time>2019-04-07T10:50:49.579Z</time>
      </trkpt>
      <trkpt lat="44.39255" lon="2.74076">
        <ele>625.8610048</ele>
        <time>2019-04-07T10:50:51.579Z</time>
      </trkpt>
      <trkpt lat="44.39268" lon="2.74071">
        <ele>624.72476110815</ele>
        <time>2019-04-07T10:50:53.579Z</time>
      </trkpt>
      <trkpt lat="44.39279" lon="2.74063">
        <ele>622</ele>
        <time>2019-04-07T10:50:55.579Z</time>
      </trkpt>
      <trkpt lat="44.39288" lon="2.74054">
        <ele>623</ele>
        <time>2019-04-07T10:50:57.579Z</time>
      </trkpt>
      <trkpt lat="44.39297" lon="2.74045">
        <ele>621.8610048</ele>
        <time>2019-04-07T10:50:59.579Z</time>
      </trkpt>
      <trkpt lat="44.39306" lon="2.74035">
        <ele>620</ele>
        <time>2019-04-07T10:51:01.579Z</time>
      </trkpt>
      <trkpt lat="44.39315" lon="2.74023">
        <ele>618.8610048</ele>
        <time>2019-04-07T10:51:03.579Z</time>
      </trkpt>
      <trkpt lat="44.39322" lon="2.74013">
        <ele>618</ele>
        <time>2019-04-07T10:51:05.579Z</time>
      </trkpt>
      <trkpt lat="44.39328" lon="2.74002">
        <ele>618</ele>
        <time>2019-04-07T10:51:07.579Z</time>
      </trkpt>
      <trkpt lat="44.3934" lon="2.7399">
        <ele>618</ele>
        <time>2019-04-07T10:51:09.579Z</time>
      </trkpt>
      <trkpt lat="44.39348" lon="2.73978">
        <ele>617</ele>
        <time>2019-04-07T10:51:11.579Z</time>
      </trkpt>
      <trkpt lat="44.39352" lon="2.73964">
        <ele>617</ele>
        <time>2019-04-07T10:51:13.579Z</time>
      </trkpt>
      <trkpt lat="44.39359" lon="2.73952">
        <ele>617</ele>
        <time>2019-04-07T10:51:15.579Z</time>
      </trkpt>
      <trkpt lat="44.39365" lon="2.7394">
        <ele>617</ele>
        <time>2019-04-07T10:51:17.579Z</time>
      </trkpt>
      <trkpt lat="44.39372" lon="2.73923">
        <ele>617</ele>
        <time>2019-04-07T10:51:20.579Z</time>
      </trkpt>
      <trkpt lat="44.3938" lon="2.7391">
        <ele>617</ele>
        <time>2019-04-07T10:51:23.579Z</time>
      </trkpt>
      <trkpt lat="44.39386" lon="2.73895">
        <ele>617</ele>
        <time>2019-04-07T10:51:26.579Z</time>
      </trkpt>
      <trkpt lat="44.39391" lon="2.7388">
        <ele>617</ele>
        <time>2019-04-07T10:51:29.579Z</time>
      </trkpt>
      <trkpt lat="44.39396" lon="2.73862">
        <ele>617</ele>
        <time>2019-04-07T10:51:32.579Z</time>
      </trkpt>
      <trkpt lat="44.39402" lon="2.73846">
        <ele>617</ele>
        <time>2019-04-07T10:51:35.579Z</time>
      </trkpt>
      <trkpt lat="44.39409" lon="2.73829">
        <ele>617</ele>
        <time>2019-04-07T10:51:38.579Z</time>
      </trkpt>
      <trkpt lat="44.39414" lon="2.73809">
        <ele>616</ele>
        <time>2019-04-07T10:51:41.579Z</time>
      </trkpt>
      <trkpt lat="44.39418" lon="2.73794">
        <ele>616</ele>
        <time>2019-04-07T10:51:43.579Z</time>
      </trkpt>
      <trkpt lat="44.39424" lon="2.73781">
        <ele>616</ele>
        <time>2019-04-07T10:51:45.579Z</time>
      </trkpt>
      <trkpt lat="44.39432" lon="2.73768">
        <ele>616</ele>
        <time>2019-04-07T10:51:47.579Z</time>
      </trkpt>
      <trkpt lat="44.3944" lon="2.73756">
        <ele>616</ele>
        <time>2019-04-07T10:51:49.579Z</time>
      </trkpt>
      <trkpt lat="44.3945" lon="2.73744">
        <ele>615</ele>
        <time>2019-04-07T10:51:51.579Z</time>
      </trkpt>
      <trkpt lat="44.3946" lon="2.73731">
        <ele>615</ele>
        <time>2019-04-07T10:51:53.579Z</time>
      </trkpt>
      <trkpt lat="44.39468" lon="2.73717">
        <ele>615</ele>
        <time>2019-04-07T10:51:55.579Z</time>
      </trkpt>
      <trkpt lat="44.39476" lon="2.73704">
        <ele>615</ele>
        <time>2019-04-07T10:51:57.579Z</time>
      </trkpt>
      <trkpt lat="44.39484" lon="2.73692">
        <ele>615</ele>
        <time>2019-04-07T10:51:59.579Z</time>
      </trkpt>
      <trkpt lat="44.39494" lon="2.73681">
        <ele>611</ele>
        <time>2019-04-07T10:52:01.579Z</time>
      </trkpt>
      <trkpt lat="44.39499" lon="2.73675">
        <ele>611</ele>
        <time>2019-04-07T10:52:02.579Z</time>
      </trkpt>
      <trkpt lat="44.3951" lon="2.73665">
        <ele>611</ele>
        <time>2019-04-07T10:52:04.579Z</time>
      </trkpt>
      <trkpt lat="44.39516" lon="2.7366">
        <ele>610.8610048</ele>
        <time>2019-04-07T10:52:05.579Z</time>
      </trkpt>
      <trkpt lat="44.39522" lon="2.73654">
        <ele>610</ele>
        <time>2019-04-07T10:52:06.579Z</time>
      </trkpt>
      <trkpt lat="44.39534" lon="2.73644">
        <ele>610</ele>
        <time>2019-04-07T10:52:08.579Z</time>
      </trkpt>
      <trkpt lat="44.39546" lon="2.73634">
        <ele>609.7220096</ele>
        <time>2019-04-07T10:52:10.579Z</time>
      </trkpt>
      <trkpt lat="44.39552" lon="2.73629">
        <ele>608</ele>
        <time>2019-04-07T10:52:11.579Z</time>
      </trkpt>
      <trkpt lat="44.39558" lon="2.73623">
        <ele>608</ele>
        <time>2019-04-07T10:52:12.579Z</time>
      </trkpt>
      <trkpt lat="44.39564" lon="2.73618">
        <ele>608</ele>
        <time>2019-04-07T10:52:13.579Z</time>
      </trkpt>
      <trkpt lat="44.39575" lon="2.73607">
        <ele>607.8610048</ele>
        <time>2019-04-07T10:52:15.579Z</time>
      </trkpt>
      <trkpt lat="44.39581" lon="2.73601">
        <ele>607</ele>
        <time>2019-04-07T10:52:16.579Z</time>
      </trkpt>
      <trkpt lat="44.39586" lon="2.73596">
        <ele>607</ele>
        <time>2019-04-07T10:52:17.579Z</time>
      </trkpt>
      <trkpt lat="44.39593" lon="2.7359">
        <ele>607</ele>
        <time>2019-04-07T10:52:19.579Z</time>
      </trkpt>
      <trkpt lat="44.396" lon="2.73602">
        <ele>605</ele>
        <time>2019-04-07T10:52:22.579Z</time>
      </trkpt>
      <trkpt lat="44.39605" lon="2.73615">
        <ele>605</ele>
        <time>2019-04-07T10:52:24.579Z</time>
      </trkpt>
      <trkpt lat="44.3961" lon="2.73628">
        <ele>604</ele>
        <time>2019-04-07T10:52:26.579Z</time>
      </trkpt>
      <trkpt lat="44.39614" lon="2.73642">
        <ele>604</ele>
        <time>2019-04-07T10:52:28.579Z</time>
      </trkpt>
      <trkpt lat="44.39614" lon="2.73657">
        <ele>604</ele>
        <time>2019-04-07T10:52:30.579Z</time>
      </trkpt>
      <trkpt lat="44.3961" lon="2.73671">
        <ele>604</ele>
        <time>2019-04-07T10:52:32.579Z</time>
      </trkpt>
      <trkpt lat="44.39607" lon="2.73677">
        <ele>604</ele>
        <time>2019-04-07T10:52:33.579Z</time>
      </trkpt>
      <trkpt lat="44.39604" lon="2.73683">
        <ele>604</ele>
        <time>2019-04-07T10:52:34.579Z</time>
      </trkpt>
      <trkpt lat="44.396" lon="2.73688">
        <ele>604</ele>
        <time>2019-04-07T10:52:35.579Z</time>
      </trkpt>
      <trkpt lat="44.39594" lon="2.73698">
        <ele>604</ele>
        <time>2019-04-07T10:52:37.579Z</time>
      </trkpt>
      <trkpt lat="44.39591" lon="2.73704">
        <ele>604</ele>
        <time>2019-04-07T10:52:38.579Z</time>
      </trkpt>
      <trkpt lat="44.39588" lon="2.73709">
        <ele>604</ele>
        <time>2019-04-07T10:52:39.579Z</time>
      </trkpt>
      <trkpt lat="44.39583" lon="2.7372">
        <ele>604</ele>
        <time>2019-04-07T10:52:41.579Z</time>
      </trkpt>
      <trkpt lat="44.3958" lon="2.73731">
        <ele>604</ele>
        <time>2019-04-07T10:52:43.579Z</time>
      </trkpt>
      <trkpt lat="44.39576" lon="2.73744">
        <ele>604</ele>
        <time>2019-04-07T10:52:46.579Z</time>
      </trkpt>
      <trkpt lat="44.3957" lon="2.73752">
        <ele>604</ele>
        <time>2019-04-07T10:52:49.579Z</time>
      </trkpt>
      <trkpt lat="44.39564" lon="2.73758">
        <ele>606</ele>
        <time>2019-04-07T10:52:52.579Z</time>
      </trkpt>
      <trkpt lat="44.39557" lon="2.73764">
        <ele>606</ele>
        <time>2019-04-07T10:52:56.579Z</time>
      </trkpt>
      <trkpt lat="44.39551" lon="2.73771">
        <ele>606.4169856</ele>
        <time>2019-04-07T10:53:00.579Z</time>
      </trkpt>
      <trkpt lat="44.39544" lon="2.73779">
        <ele>609.26060198593</ele>
        <time>2019-04-07T10:53:05.579Z</time>
      </trkpt>
      <trkpt lat="44.39539" lon="2.7379">
        <ele>613</ele>
        <time>2019-04-07T10:53:11.579Z</time>
      </trkpt>
      <trkpt lat="44.39548" lon="2.73791">
        <ele>614</ele>
        <time>2019-04-07T10:53:19.579Z</time>
      </trkpt>
      <trkpt lat="44.39555" lon="2.7379">
        <ele>616</ele>
        <time>2019-04-07T10:53:24.579Z</time>
      </trkpt>
      <trkpt lat="44.39566" lon="2.73791">
        <ele>617</ele>
        <time>2019-04-07T10:53:29.579Z</time>
      </trkpt>
      <trkpt lat="44.39574" lon="2.73793">
        <ele>618</ele>
        <time>2019-04-07T10:53:33.579Z</time>
      </trkpt>
      <trkpt lat="44.39584" lon="2.73797">
        <ele>619</ele>
        <time>2019-04-07T10:53:38.579Z</time>
      </trkpt>
      <trkpt lat="44.39594" lon="2.73802">
        <ele>619</ele>
        <time>2019-04-07T10:53:43.579Z</time>
      </trkpt>
      <trkpt lat="44.39599" lon="2.73805">
        <ele>619</ele>
        <time>2019-04-07T10:53:46.579Z</time>
      </trkpt>
      <trkpt lat="44.39605" lon="2.73808">
        <ele>619</ele>
        <time>2019-04-07T10:53:49.579Z</time>
      </trkpt>
      <trkpt lat="44.39611" lon="2.73812">
        <ele>621</ele>
        <time>2019-04-07T10:53:53.579Z</time>
      </trkpt>
      <trkpt lat="44.39617" lon="2.73819">
        <ele>621</ele>
        <time>2019-04-07T10:53:57.579Z</time>
      </trkpt>
      <trkpt lat="44.39622" lon="2.73826">
        <ele>625</ele>
        <time>2019-04-07T10:54:01.579Z</time>
      </trkpt>
      <trkpt lat="44.39625" lon="2.73833">
        <ele>625</ele>
        <time>2019-04-07T10:54:04.579Z</time>
      </trkpt>
      <trkpt lat="44.3963" lon="2.73844">
        <ele>626</ele>
        <time>2019-04-07T10:54:08.579Z</time>
      </trkpt>
      <trkpt lat="44.39633" lon="2.73855">
        <ele>627</ele>
        <time>2019-04-07T10:54:12.579Z</time>
      </trkpt>
      <trkpt lat="44.39638" lon="2.73865">
        <ele>628</ele>
        <time>2019-04-07T10:54:16.579Z</time>
      </trkpt>
      <trkpt lat="44.39645" lon="2.73875">
        <ele>628</ele>
        <time>2019-04-07T10:54:19.579Z</time>
      </trkpt>
      <trkpt lat="44.39647" lon="2.73889">
        <ele>626</ele>
        <time>2019-04-07T10:54:21.579Z</time>
      </trkpt>
      <trkpt lat="44.39643" lon="2.73903">
        <ele>626</ele>
        <time>2019-04-07T10:54:23.579Z</time>
      </trkpt>
      <trkpt lat="44.39638" lon="2.73917">
        <ele>626</ele>
        <time>2019-04-07T10:54:25.579Z</time>
      </trkpt>
      <trkpt lat="44.39636" lon="2.73924">
        <ele>626</ele>
        <time>2019-04-07T10:54:26.579Z</time>
      </trkpt>
      <trkpt lat="44.39633" lon="2.73932">
        <ele>626</ele>
        <time>2019-04-07T10:54:27.579Z</time>
      </trkpt>
      <trkpt lat="44.3963" lon="2.7394">
        <ele>626</ele>
        <time>2019-04-07T10:54:28.579Z</time>
      </trkpt>
      <trkpt lat="44.39626" lon="2.73948">
        <ele>626</ele>
        <time>2019-04-07T10:54:29.579Z</time>
      </trkpt>
      <trkpt lat="44.39622" lon="2.73956">
        <ele>625.7220096</ele>
        <time>2019-04-07T10:54:30.579Z</time>
      </trkpt>
      <trkpt lat="44.39618" lon="2.73964">
        <ele>624</ele>
        <time>2019-04-07T10:54:31.579Z</time>
      </trkpt>
      <trkpt lat="44.39613" lon="2.73971">
        <ele>624</ele>
        <time>2019-04-07T10:54:32.579Z</time>
      </trkpt>
      <trkpt lat="44.39609" lon="2.73978">
        <ele>624</ele>
        <time>2019-04-07T10:54:33.579Z</time>
      </trkpt>
      <trkpt lat="44.39599" lon="2.73991">
        <ele>623.8610048</ele>
        <time>2019-04-07T10:54:35.579Z</time>
      </trkpt>
      <trkpt lat="44.39595" lon="2.73996">
        <ele>623</ele>
        <time>2019-04-07T10:54:36.579Z</time>
      </trkpt>
      <trkpt lat="44.39589" lon="2.74005">
        <ele>623</ele>
        <time>2019-04-07T10:54:38.579Z</time>
      </trkpt>
      <trkpt lat="44.39586" lon="2.7401">
        <ele>623</ele>
        <time>2019-04-07T10:54:40.579Z</time>
      </trkpt>
      <trkpt lat="44.39583" lon="2.74019">
        <ele>622</ele>
        <time>2019-04-07T10:55:57.579Z</time>
      </trkpt>
      <trkpt lat="44.39576" lon="2.74031">
        <ele>624</ele>
        <time>2019-04-07T10:56:01.579Z</time>
      </trkpt>
      <trkpt lat="44.39571" lon="2.7404">
        <ele>624</ele>
        <time>2019-04-07T10:56:04.579Z</time>
      </trkpt>
      <trkpt lat="44.39566" lon="2.7405">
        <ele>626</ele>
        <time>2019-04-07T10:56:07.579Z</time>
      </trkpt>
      <trkpt lat="44.3956" lon="2.74065">
        <ele>626</ele>
        <time>2019-04-07T10:56:11.579Z</time>
      </trkpt>
      <trkpt lat="44.39555" lon="2.74078">
        <ele>626</ele>
        <time>2019-04-07T10:56:14.579Z</time>
      </trkpt>
      <trkpt lat="44.39552" lon="2.74093">
        <ele>626</ele>
        <time>2019-04-07T10:56:17.579Z</time>
      </trkpt>
      <trkpt lat="44.3955" lon="2.74109">
        <ele>626.1389952</ele>
        <time>2019-04-07T10:56:20.579Z</time>
      </trkpt>
      <trkpt lat="44.39549" lon="2.74123">
        <ele>627</ele>
        <time>2019-04-07T10:56:23.579Z</time>
      </trkpt>
      <trkpt lat="44.39546" lon="2.74138">
        <ele>627</ele>
        <time>2019-04-07T10:56:26.579Z</time>
      </trkpt>
      <trkpt lat="44.39546" lon="2.74153">
        <ele>627</ele>
        <time>2019-04-07T10:56:29.579Z</time>
      </trkpt>
      <trkpt lat="44.39546" lon="2.74168">
        <ele>628</ele>
        <time>2019-04-07T10:56:32.579Z</time>
      </trkpt>
      <trkpt lat="44.39545" lon="2.74182">
        <ele>628</ele>
        <time>2019-04-07T10:56:35.579Z</time>
      </trkpt>
      <trkpt lat="44.39546" lon="2.74195">
        <ele>628</ele>
        <time>2019-04-07T10:56:38.579Z</time>
      </trkpt>
      <trkpt lat="44.39547" lon="2.74207">
        <ele>631</ele>
        <time>2019-04-07T10:56:41.579Z</time>
      </trkpt>
      <trkpt lat="44.39548" lon="2.74218">
        <ele>631</ele>
        <time>2019-04-07T10:56:44.579Z</time>
      </trkpt>
      <trkpt lat="44.39548" lon="2.74231">
        <ele>634</ele>
        <time>2019-04-07T10:56:48.579Z</time>
      </trkpt>
      <trkpt lat="44.39547" lon="2.74242">
        <ele>636</ele>
        <time>2019-04-07T10:56:52.579Z</time>
      </trkpt>
      <trkpt lat="44.39547" lon="2.74254">
        <ele>638</ele>
        <time>2019-04-07T10:56:56.579Z</time>
      </trkpt>
      <trkpt lat="44.39548" lon="2.74265">
        <ele>640</ele>
        <time>2019-04-07T10:57:00.579Z</time>
      </trkpt>
      <trkpt lat="44.39549" lon="2.74277">
        <ele>640</ele>
        <time>2019-04-07T10:57:04.579Z</time>
      </trkpt>
      <trkpt lat="44.39551" lon="2.74286">
        <ele>640</ele>
        <time>2019-04-07T10:57:07.579Z</time>
      </trkpt>
      <trkpt lat="44.39553" lon="2.74299">
        <ele>642</ele>
        <time>2019-04-07T10:57:11.579Z</time>
      </trkpt>
      <trkpt lat="44.39554" lon="2.7431">
        <ele>642</ele>
        <time>2019-04-07T10:57:14.579Z</time>
      </trkpt>
      <trkpt lat="44.39555" lon="2.74319">
        <ele>642</ele>
        <time>2019-04-07T10:57:16.579Z</time>
      </trkpt>
      <trkpt lat="44.39556" lon="2.74328">
        <ele>642</ele>
        <time>2019-04-07T10:57:18.579Z</time>
      </trkpt>
      <trkpt lat="44.39556" lon="2.74338">
        <ele>642.1389952</ele>
        <time>2019-04-07T10:57:20.579Z</time>
      </trkpt>
      <trkpt lat="44.39555" lon="2.74348">
        <ele>643</ele>
        <time>2019-04-07T10:57:22.579Z</time>
      </trkpt>
      <trkpt lat="44.39554" lon="2.74358">
        <ele>643</ele>
        <time>2019-04-07T10:57:24.579Z</time>
      </trkpt>
      <trkpt lat="44.39553" lon="2.74369">
        <ele>643</ele>
        <time>2019-04-07T10:57:26.579Z</time>
      </trkpt>
      <trkpt lat="44.39552" lon="2.7438">
        <ele>643</ele>
        <time>2019-04-07T10:57:28.579Z</time>
      </trkpt>
      <trkpt lat="44.39552" lon="2.74391">
        <ele>643.1389952</ele>
        <time>2019-04-07T10:57:30.579Z</time>
      </trkpt>
      <trkpt lat="44.3955" lon="2.74403">
        <ele>644</ele>
        <time>2019-04-07T10:57:32.579Z</time>
      </trkpt>
      <trkpt lat="44.39548" lon="2.74415">
        <ele>644</ele>
        <time>2019-04-07T10:57:34.579Z</time>
      </trkpt>
      <trkpt lat="44.39548" lon="2.74428">
        <ele>644</ele>
        <time>2019-04-07T10:57:36.579Z</time>
      </trkpt>
      <trkpt lat="44.39547" lon="2.74441">
        <ele>644</ele>
        <time>2019-04-07T10:57:38.579Z</time>
      </trkpt>
      <trkpt lat="44.39545" lon="2.74453">
        <ele>644</ele>
        <time>2019-04-07T10:57:40.579Z</time>
      </trkpt>
      <trkpt lat="44.39544" lon="2.74466">
        <ele>644</ele>
        <time>2019-04-07T10:57:42.579Z</time>
      </trkpt>
      <trkpt lat="44.39542" lon="2.74477">
        <ele>644</ele>
        <time>2019-04-07T10:57:44.579Z</time>
      </trkpt>
      <trkpt lat="44.3954" lon="2.74489">
        <ele>644</ele>
        <time>2019-04-07T10:57:46.579Z</time>
      </trkpt>
      <trkpt lat="44.39535" lon="2.74499">
        <ele>644</ele>
        <time>2019-04-07T10:57:48.579Z</time>
      </trkpt>
      <trkpt lat="44.39533" lon="2.74503">
        <ele>644</ele>
        <time>2019-04-07T10:57:49.579Z</time>
      </trkpt>
      <trkpt lat="44.39531" lon="2.74508">
        <ele>644.1389952</ele>
        <time>2019-04-07T10:57:50.579Z</time>
      </trkpt>
      <trkpt lat="44.39527" lon="2.74517">
        <ele>645</ele>
        <time>2019-04-07T10:57:52.579Z</time>
      </trkpt>
      <trkpt lat="44.39522" lon="2.74526">
        <ele>645</ele>
        <time>2019-04-07T10:57:54.579Z</time>
      </trkpt>
      <trkpt lat="44.39518" lon="2.74534">
        <ele>645</ele>
        <time>2019-04-07T10:57:56.579Z</time>
      </trkpt>
      <trkpt lat="44.39513" lon="2.74542">
        <ele>645</ele>
        <time>2019-04-07T10:57:58.579Z</time>
      </trkpt>
      <trkpt lat="44.39509" lon="2.7455">
        <ele>645.2779904</ele>
        <time>2019-04-07T10:58:00.579Z</time>
      </trkpt>
      <trkpt lat="44.39504" lon="2.74558">
        <ele>647</ele>
        <time>2019-04-07T10:58:02.579Z</time>
      </trkpt>
      <trkpt lat="44.39499" lon="2.74567">
        <ele>647</ele>
        <time>2019-04-07T10:58:04.579Z</time>
      </trkpt>
      <trkpt lat="44.39494" lon="2.74575">
        <ele>647</ele>
        <time>2019-04-07T10:58:06.579Z</time>
      </trkpt>
      <trkpt lat="44.39492" lon="2.7458">
        <ele>647</ele>
        <time>2019-04-07T10:58:07.579Z</time>
      </trkpt>
      <trkpt lat="44.39489" lon="2.74585">
        <ele>647</ele>
        <time>2019-04-07T10:58:08.579Z</time>
      </trkpt>
      <trkpt lat="44.39487" lon="2.7459">
        <ele>647</ele>
        <time>2019-04-07T10:58:09.579Z</time>
      </trkpt>
      <trkpt lat="44.39484" lon="2.74595">
        <ele>647</ele>
        <time>2019-04-07T10:58:10.579Z</time>
      </trkpt>
      <trkpt lat="44.39481" lon="2.74601">
        <ele>647</ele>
        <time>2019-04-07T10:58:11.579Z</time>
      </trkpt>
      <trkpt lat="44.39479" lon="2.74607">
        <ele>647</ele>
        <time>2019-04-07T10:58:12.579Z</time>
      </trkpt>
      <trkpt lat="44.39476" lon="2.74614">
        <ele>647</ele>
        <time>2019-04-07T10:58:13.579Z</time>
      </trkpt>
      <trkpt lat="44.39473" lon="2.7462">
        <ele>647</ele>
        <time>2019-04-07T10:58:14.579Z</time>
      </trkpt>
      <trkpt lat="44.3947" lon="2.74627">
        <ele>647</ele>
        <time>2019-04-07T10:58:15.579Z</time>
      </trkpt>
      <trkpt lat="44.39466" lon="2.74634">
        <ele>647</ele>
        <time>2019-04-07T10:58:16.579Z</time>
      </trkpt>
      <trkpt lat="44.39463" lon="2.74641">
        <ele>647</ele>
        <time>2019-04-07T10:58:17.579Z</time>
      </trkpt>
      <trkpt lat="44.39459" lon="2.74648">
        <ele>647</ele>
        <time>2019-04-07T10:58:18.579Z</time>
      </trkpt>
      <trkpt lat="44.39455" lon="2.74656">
        <ele>647</ele>
        <time>2019-04-07T10:58:19.579Z</time>
      </trkpt>
      <trkpt lat="44.39451" lon="2.74665">
        <ele>646.5830144</ele>
        <time>2019-04-07T10:58:20.579Z</time>
      </trkpt>
      <trkpt lat="44.39445" lon="2.74672">
        <ele>644</ele>
        <time>2019-04-07T10:58:21.579Z</time>
      </trkpt>
      <trkpt lat="44.39431" lon="2.74685">
        <ele>644</ele>
        <time>2019-04-07T10:58:23.579Z</time>
      </trkpt>
      <trkpt lat="44.39423" lon="2.74688">
        <ele>644</ele>
        <time>2019-04-07T10:58:24.579Z</time>
      </trkpt>
      <trkpt lat="44.39415" lon="2.74692">
        <ele>643.5830144</ele>
        <time>2019-04-07T10:58:25.579Z</time>
      </trkpt>
      <trkpt lat="44.39407" lon="2.74696">
        <ele>641</ele>
        <time>2019-04-07T10:58:26.579Z</time>
      </trkpt>
      <trkpt lat="44.394" lon="2.74701">
        <ele>641</ele>
        <time>2019-04-07T10:58:27.579Z</time>
      </trkpt>
      <trkpt lat="44.39393" lon="2.74706">
        <ele>641</ele>
        <time>2019-04-07T10:58:28.579Z</time>
      </trkpt>
      <trkpt lat="44.39386" lon="2.74712">
        <ele>641</ele>
        <time>2019-04-07T10:58:29.579Z</time>
      </trkpt>
      <trkpt lat="44.3938" lon="2.74715">
        <ele>641</ele>
        <time>2019-04-07T10:58:30.579Z</time>
      </trkpt>
      <trkpt lat="44.39368" lon="2.74716">
        <ele>641</ele>
        <time>2019-04-07T10:58:32.579Z</time>
      </trkpt>
      <trkpt lat="44.39359" lon="2.74715">
        <ele>643</ele>
        <time>2019-04-07T10:58:36.579Z</time>
      </trkpt>
      <trkpt lat="44.39349" lon="2.74713">
        <ele>645</ele>
        <time>2019-04-07T10:58:42.579Z</time>
      </trkpt>
      <trkpt lat="44.39341" lon="2.74711">
        <ele>647</ele>
        <time>2019-04-07T10:58:47.579Z</time>
      </trkpt>
      <trkpt lat="44.39331" lon="2.74712">
        <ele>648</ele>
        <time>2019-04-07T10:58:53.579Z</time>
      </trkpt>
      <trkpt lat="44.39323" lon="2.7471">
        <ele>650</ele>
        <time>2019-04-07T10:58:59.579Z</time>
      </trkpt>
      <trkpt lat="44.39315" lon="2.74707">
        <ele>652.2779904</ele>
        <time>2019-04-07T10:59:05.579Z</time>
      </trkpt>
      <trkpt lat="44.39308" lon="2.74708">
        <ele>654.1389952</ele>
        <time>2019-04-07T10:59:10.579Z</time>
      </trkpt>
      <trkpt lat="44.39303" lon="2.74714">
        <ele>655</ele>
        <time>2019-04-07T10:59:14.579Z</time>
      </trkpt>
      <trkpt lat="44.39301" lon="2.74724">
        <ele>657</ele>
        <time>2019-04-07T10:59:21.579Z</time>
      </trkpt>
      <trkpt lat="44.39298" lon="2.74735">
        <ele>659</ele>
        <time>2019-04-07T10:59:26.579Z</time>
      </trkpt>
      <trkpt lat="44.39292" lon="2.74741">
        <ele>659</ele>
        <time>2019-04-07T10:59:30.579Z</time>
      </trkpt>
      <trkpt lat="44.39289" lon="2.74754">
        <ele>659</ele>
        <time>2019-04-07T10:59:36.579Z</time>
      </trkpt>
      <trkpt lat="44.39284" lon="2.74763">
        <ele>661</ele>
        <time>2019-04-07T10:59:41.579Z</time>
      </trkpt>
      <trkpt lat="44.39277" lon="2.74773">
        <ele>661</ele>
        <time>2019-04-07T10:59:47.579Z</time>
      </trkpt>
      <trkpt lat="44.3927" lon="2.74782">
        <ele>664</ele>
        <time>2019-04-07T10:59:53.579Z</time>
      </trkpt>
      <trkpt lat="44.39264" lon="2.74792">
        <ele>666</ele>
        <time>2019-04-07T10:59:59.579Z</time>
      </trkpt>
      <trkpt lat="44.39259" lon="2.74802">
        <ele>667.1389952</ele>
        <time>2019-04-07T11:00:05.579Z</time>
      </trkpt>
      <trkpt lat="44.39254" lon="2.74817">
        <ele>668</ele>
        <time>2019-04-07T11:00:10.579Z</time>
      </trkpt>
      <trkpt lat="44.3925" lon="2.74828">
        <ele>668</ele>
        <time>2019-04-07T11:00:14.579Z</time>
      </trkpt>
      <trkpt lat="44.39246" lon="2.7484">
        <ele>668</ele>
        <time>2019-04-07T11:00:18.579Z</time>
      </trkpt>
      <trkpt lat="44.39242" lon="2.7485">
        <ele>670</ele>
        <time>2019-04-07T11:00:22.579Z</time>
      </trkpt>
      <trkpt lat="44.39234" lon="2.74861">
        <ele>670</ele>
        <time>2019-04-07T11:00:27.579Z</time>
      </trkpt>
      <trkpt lat="44.39228" lon="2.7487">
        <ele>671</ele>
        <time>2019-04-07T11:00:32.579Z</time>
      </trkpt>
      <trkpt lat="44.39222" lon="2.74882">
        <ele>671</ele>
        <time>2019-04-07T11:00:38.579Z</time>
      </trkpt>
      <trkpt lat="44.39215" lon="2.74892">
        <ele>673</ele>
        <time>2019-04-07T11:00:44.579Z</time>
      </trkpt>
      <trkpt lat="44.39209" lon="2.74905">
        <ele>673.4169856</ele>
        <time>2019-04-07T11:00:50.579Z</time>
      </trkpt>
      <trkpt lat="44.39203" lon="2.74917">
        <ele>678</ele>
        <time>2019-04-07T11:00:56.579Z</time>
      </trkpt>
      <trkpt lat="44.39196" lon="2.74929">
        <ele>680</ele>
        <time>2019-04-07T11:01:03.579Z</time>
      </trkpt>
      <trkpt lat="44.39189" lon="2.7494">
        <ele>683</ele>
        <time>2019-04-07T11:01:11.579Z</time>
      </trkpt>
      <trkpt lat="44.3918" lon="2.7495">
        <ele>685</ele>
        <time>2019-04-07T11:01:18.579Z</time>
      </trkpt>
      <trkpt lat="44.39171" lon="2.74958">
        <ele>686</ele>
        <time>2019-04-07T11:01:24.579Z</time>
      </trkpt>
      <trkpt lat="44.39166" lon="2.74965">
        <ele>686.2779904</ele>
        <time>2019-04-07T11:01:30.579Z</time>
      </trkpt>
      <trkpt lat="44.39159" lon="2.74973">
        <ele>688.1389952</ele>
        <time>2019-04-07T11:01:35.579Z</time>
      </trkpt>
      <trkpt lat="44.39152" lon="2.74982">
        <ele>689.1389952</ele>
        <time>2019-04-07T11:01:40.579Z</time>
      </trkpt>
      <trkpt lat="44.39146" lon="2.74993">
        <ele>690</ele>
        <time>2019-04-07T11:01:45.579Z</time>
      </trkpt>
      <trkpt lat="44.39139" lon="2.75005">
        <ele>690</ele>
        <time>2019-04-07T11:01:49.579Z</time>
      </trkpt>
      <trkpt lat="44.39131" lon="2.75016">
        <ele>692</ele>
        <time>2019-04-07T11:01:54.579Z</time>
      </trkpt>
      <trkpt lat="44.39125" lon="2.75023">
        <ele>692</ele>
        <time>2019-04-07T11:01:57.579Z</time>
      </trkpt>
      <trkpt lat="44.39118" lon="2.75031">
        <ele>695</ele>
        <time>2019-04-07T11:02:02.579Z</time>
      </trkpt>
      <trkpt lat="44.39111" lon="2.75037">
        <ele>696</ele>
        <time>2019-04-07T11:02:06.579Z</time>
      </trkpt>
      <trkpt lat="44.39104" lon="2.75045">
        <ele>697</ele>
        <time>2019-04-07T11:02:11.579Z</time>
      </trkpt>
      <trkpt lat="44.39099" lon="2.75052">
        <ele>697</ele>
        <time>2019-04-07T11:02:15.579Z</time>
      </trkpt>
      <trkpt lat="44.39093" lon="2.75061">
        <ele>697</ele>
        <time>2019-04-07T11:02:19.579Z</time>
      </trkpt>
      <trkpt lat="44.39087" lon="2.75068">
        <ele>698</ele>
        <time>2019-04-07T11:02:22.579Z</time>
      </trkpt>
      <trkpt lat="44.39081" lon="2.75076">
        <ele>698</ele>
        <time>2019-04-07T11:02:26.579Z</time>
      </trkpt>
      <trkpt lat="44.39075" lon="2.75082">
        <ele>698.2779904</ele>
        <time>2019-04-07T11:02:30.579Z</time>
      </trkpt>
      <trkpt lat="44.39069" lon="2.75089">
        <ele>700</ele>
        <time>2019-04-07T11:02:34.579Z</time>
      </trkpt>
      <trkpt lat="44.39063" lon="2.75096">
        <ele>700</ele>
        <time>2019-04-07T11:02:38.579Z</time>
      </trkpt>
      <trkpt lat="44.39056" lon="2.75102">
        <ele>702</ele>
        <time>2019-04-07T11:02:43.579Z</time>
      </trkpt>
      <trkpt lat="44.39048" lon="2.75112">
        <ele>702</ele>
        <time>2019-04-07T11:02:49.579Z</time>
      </trkpt>
      <trkpt lat="44.39041" lon="2.75123">
        <ele>704</ele>
        <time>2019-04-07T11:02:55.579Z</time>
      </trkpt>
      <trkpt lat="44.39035" lon="2.75134">
        <ele>704.4169856</ele>
        <time>2019-04-07T11:03:00.579Z</time>
      </trkpt>
      <trkpt lat="44.39028" lon="2.75146">
        <ele>707.1389952</ele>
        <time>2019-04-07T11:03:05.579Z</time>
      </trkpt>
      <trkpt lat="44.39022" lon="2.75159">
        <ele>708.1389952</ele>
        <time>2019-04-07T11:03:10.579Z</time>
      </trkpt>
      <trkpt lat="44.39017" lon="2.75167">
        <ele>709</ele>
        <time>2019-04-07T11:03:14.579Z</time>
      </trkpt>
      <trkpt lat="44.3901" lon="2.75176">
        <ele>709</ele>
        <time>2019-04-07T11:03:19.579Z</time>
      </trkpt>
      <trkpt lat="44.39004" lon="2.75183">
        <ele>710</ele>
        <time>2019-04-07T11:03:23.579Z</time>
      </trkpt>
      <trkpt lat="44.38998" lon="2.75191">
        <ele>710</ele>
        <time>2019-04-07T11:03:27.579Z</time>
      </trkpt>
      <trkpt lat="44.38992" lon="2.75198">
        <ele>712</ele>
        <time>2019-04-07T11:03:31.579Z</time>
      </trkpt>
      <trkpt lat="44.38987" lon="2.75203">
        <ele>712</ele>
        <time>2019-04-07T11:03:34.579Z</time>
      </trkpt>
      <trkpt lat="44.38983" lon="2.75207">
        <ele>712</ele>
        <time>2019-04-07T11:03:37.579Z</time>
      </trkpt>
      <trkpt lat="44.38978" lon="2.75212">
        <ele>712.2779904</ele>
        <time>2019-04-07T11:03:40.579Z</time>
      </trkpt>
      <trkpt lat="44.38974" lon="2.75216">
        <ele>714</ele>
        <time>2019-04-07T11:03:43.579Z</time>
      </trkpt>
      <trkpt lat="44.38969" lon="2.75219">
        <ele>714</ele>
        <time>2019-04-07T11:03:46.579Z</time>
      </trkpt>
      <trkpt lat="44.38962" lon="2.75224">
        <ele>714.4169856</ele>
        <time>2019-04-07T11:03:50.579Z</time>
      </trkpt>
      <trkpt lat="44.38957" lon="2.75226">
        <ele>717</ele>
        <time>2019-04-07T11:03:53.579Z</time>
      </trkpt>
      <trkpt lat="44.3895" lon="2.75227">
        <ele>717</ele>
        <time>2019-04-07T11:03:56.579Z</time>
      </trkpt>
      <trkpt lat="44.38943" lon="2.75227">
        <ele>717</ele>
        <time>2019-04-07T11:03:58.579Z</time>
      </trkpt>
      <trkpt lat="44.38939" lon="2.75228">
        <ele>717</ele>
        <time>2019-04-07T11:03:59.579Z</time>
      </trkpt>
      <trkpt lat="44.38936" lon="2.75229">
        <ele>717</ele>
        <time>2019-04-07T11:04:00.579Z</time>
      </trkpt>
      <trkpt lat="44.38932" lon="2.75229">
        <ele>717</ele>
        <time>2019-04-07T11:04:01.579Z</time>
      </trkpt>
      <trkpt lat="44.38929" lon="2.75228">
        <ele>717</ele>
        <time>2019-04-07T11:04:02.579Z</time>
      </trkpt>
      <trkpt lat="44.38925" lon="2.75228">
        <ele>717</ele>
        <time>2019-04-07T11:04:03.579Z</time>
      </trkpt>
      <trkpt lat="44.38921" lon="2.75229">
        <ele>717</ele>
        <time>2019-04-07T11:04:04.579Z</time>
      </trkpt>
      <trkpt lat="44.38918" lon="2.75229">
        <ele>717</ele>
        <time>2019-04-07T11:04:05.579Z</time>
      </trkpt>
      <trkpt lat="44.38914" lon="2.75229">
        <ele>717</ele>
        <time>2019-04-07T11:04:06.579Z</time>
      </trkpt>
      <trkpt lat="44.3891" lon="2.75229">
        <ele>717</ele>
        <time>2019-04-07T11:04:07.579Z</time>
      </trkpt>
      <trkpt lat="44.38906" lon="2.75229">
        <ele>717</ele>
        <time>2019-04-07T11:04:08.579Z</time>
      </trkpt>
      <trkpt lat="44.38902" lon="2.75228">
        <ele>717</ele>
        <time>2019-04-07T11:04:09.579Z</time>
      </trkpt>
      <trkpt lat="44.38899" lon="2.75227">
        <ele>717</ele>
        <time>2019-04-07T11:04:10.579Z</time>
      </trkpt>
      <trkpt lat="44.38891" lon="2.75226">
        <ele>717</ele>
        <time>2019-04-07T11:04:12.579Z</time>
      </trkpt>
      <trkpt lat="44.38887" lon="2.75225">
        <ele>717</ele>
        <time>2019-04-07T11:04:13.579Z</time>
      </trkpt>
      <trkpt lat="44.38883" lon="2.75224">
        <ele>717</ele>
        <time>2019-04-07T11:04:14.579Z</time>
      </trkpt>
      <trkpt lat="44.38879" lon="2.75223">
        <ele>717</ele>
        <time>2019-04-07T11:04:15.579Z</time>
      </trkpt>
      <trkpt lat="44.38876" lon="2.75222">
        <ele>717</ele>
        <time>2019-04-07T11:04:16.579Z</time>
      </trkpt>
      <trkpt lat="44.38872" lon="2.7522">
        <ele>717</ele>
        <time>2019-04-07T11:04:17.579Z</time>
      </trkpt>
      <trkpt lat="44.38868" lon="2.75219">
        <ele>717</ele>
        <time>2019-04-07T11:04:18.579Z</time>
      </trkpt>
      <trkpt lat="44.38864" lon="2.75218">
        <ele>717</ele>
        <time>2019-04-07T11:04:19.579Z</time>
      </trkpt>
      <trkpt lat="44.38861" lon="2.75217">
        <ele>717</ele>
        <time>2019-04-07T11:04:20.579Z</time>
      </trkpt>
      <trkpt lat="44.38857" lon="2.75216">
        <ele>717</ele>
        <time>2019-04-07T11:04:21.579Z</time>
      </trkpt>
      <trkpt lat="44.38854" lon="2.75215">
        <ele>717</ele>
        <time>2019-04-07T11:04:22.579Z</time>
      </trkpt>
      <trkpt lat="44.38851" lon="2.75214">
        <ele>717</ele>
        <time>2019-04-07T11:04:23.579Z</time>
      </trkpt>
      <trkpt lat="44.38847" lon="2.75214">
        <ele>717</ele>
        <time>2019-04-07T11:04:24.579Z</time>
      </trkpt>
      <trkpt lat="44.38843" lon="2.75212">
        <ele>717</ele>
        <time>2019-04-07T11:04:25.579Z</time>
      </trkpt>
      <trkpt lat="44.38839" lon="2.75211">
        <ele>717</ele>
        <time>2019-04-07T11:04:26.579Z</time>
      </trkpt>
      <trkpt lat="44.38835" lon="2.7521">
        <ele>717</ele>
        <time>2019-04-07T11:04:27.579Z</time>
      </trkpt>
      <trkpt lat="44.38831" lon="2.75209">
        <ele>717</ele>
        <time>2019-04-07T11:04:28.579Z</time>
      </trkpt>
      <trkpt lat="44.38827" lon="2.75208">
        <ele>717</ele>
        <time>2019-04-07T11:04:29.579Z</time>
      </trkpt>
      <trkpt lat="44.38823" lon="2.75207">
        <ele>717</ele>
        <time>2019-04-07T11:04:30.579Z</time>
      </trkpt>
      <trkpt lat="44.38819" lon="2.75207">
        <ele>717</ele>
        <time>2019-04-07T11:04:31.579Z</time>
      </trkpt>
      <trkpt lat="44.38815" lon="2.75206">
        <ele>717</ele>
        <time>2019-04-07T11:04:32.579Z</time>
      </trkpt>
      <trkpt lat="44.3881" lon="2.75205">
        <ele>717</ele>
        <time>2019-04-07T11:04:33.579Z</time>
      </trkpt>
      <trkpt lat="44.388" lon="2.75206">
        <ele>717</ele>
        <time>2019-04-07T11:04:35.579Z</time>
      </trkpt>
      <trkpt lat="44.38796" lon="2.75208">
        <ele>717</ele>
        <time>2019-04-07T11:04:36.579Z</time>
      </trkpt>
      <trkpt lat="44.38791" lon="2.7521">
        <ele>717</ele>
        <time>2019-04-07T11:04:37.579Z</time>
      </trkpt>
      <trkpt lat="44.38786" lon="2.75213">
        <ele>717</ele>
        <time>2019-04-07T11:04:38.579Z</time>
      </trkpt>
      <trkpt lat="44.38775" lon="2.75216">
        <ele>716.7220096</ele>
        <time>2019-04-07T11:04:40.579Z</time>
      </trkpt>
      <trkpt lat="44.38765" lon="2.75216">
        <ele>715</ele>
        <time>2019-04-07T11:04:42.579Z</time>
      </trkpt>
      <trkpt lat="44.3876" lon="2.75217">
        <ele>715</ele>
        <time>2019-04-07T11:04:43.579Z</time>
      </trkpt>
      <trkpt lat="44.3875" lon="2.75217">
        <ele>715</ele>
        <time>2019-04-07T11:04:45.579Z</time>
      </trkpt>
      <trkpt lat="44.38742" lon="2.75219">
        <ele>715</ele>
        <time>2019-04-07T11:04:47.579Z</time>
      </trkpt>
      <trkpt lat="44.38737" lon="2.7522">
        <ele>715</ele>
        <time>2019-04-07T11:04:48.579Z</time>
      </trkpt>
      <trkpt lat="44.38733" lon="2.75221">
        <ele>715</ele>
        <time>2019-04-07T11:04:49.579Z</time>
      </trkpt>
      <trkpt lat="44.38726" lon="2.75223">
        <ele>716</ele>
        <time>2019-04-07T11:04:51.579Z</time>
      </trkpt>
      <trkpt lat="44.38719" lon="2.75226">
        <ele>716</ele>
        <time>2019-04-07T11:04:53.579Z</time>
      </trkpt>
      <trkpt lat="44.38712" lon="2.75228">
        <ele>716</ele>
        <time>2019-04-07T11:04:55.579Z</time>
      </trkpt>
      <trkpt lat="44.38707" lon="2.75231">
        <ele>716</ele>
        <time>2019-04-07T11:04:57.579Z</time>
      </trkpt>
      <trkpt lat="44.38701" lon="2.75234">
        <ele>716</ele>
        <time>2019-04-07T11:04:59.579Z</time>
      </trkpt>
      <trkpt lat="44.38695" lon="2.75237">
        <ele>717</ele>
        <time>2019-04-07T11:05:01.579Z</time>
      </trkpt>
      <trkpt lat="44.3869" lon="2.7524">
        <ele>717</ele>
        <time>2019-04-07T11:05:03.579Z</time>
      </trkpt>
      <trkpt lat="44.38685" lon="2.75246">
        <ele>717</ele>
        <time>2019-04-07T11:05:05.579Z</time>
      </trkpt>
      <trkpt lat="44.38679" lon="2.75254">
        <ele>717</ele>
        <time>2019-04-07T11:05:07.579Z</time>
      </trkpt>
      <trkpt lat="44.38676" lon="2.75258">
        <ele>717</ele>
        <time>2019-04-07T11:05:08.579Z</time>
      </trkpt>
      <trkpt lat="44.38673" lon="2.75263">
        <ele>717</ele>
        <time>2019-04-07T11:05:09.579Z</time>
      </trkpt>
      <trkpt lat="44.3867" lon="2.75266">
        <ele>717</ele>
        <time>2019-04-07T11:05:10.579Z</time>
      </trkpt>
      <trkpt lat="44.38666" lon="2.7527">
        <ele>717</ele>
        <time>2019-04-07T11:05:11.579Z</time>
      </trkpt>
      <trkpt lat="44.38661" lon="2.75277">
        <ele>717</ele>
        <time>2019-04-07T11:05:13.579Z</time>
      </trkpt>
      <trkpt lat="44.38655" lon="2.75284">
        <ele>717</ele>
        <time>2019-04-07T11:05:15.579Z</time>
      </trkpt>
      <trkpt lat="44.38649" lon="2.7529">
        <ele>717</ele>
        <time>2019-04-07T11:05:17.579Z</time>
      </trkpt>
      <trkpt lat="44.38644" lon="2.75295">
        <ele>717</ele>
        <time>2019-04-07T11:05:19.579Z</time>
      </trkpt>
      <trkpt lat="44.38639" lon="2.753">
        <ele>718</ele>
        <time>2019-04-07T11:05:21.579Z</time>
      </trkpt>
      <trkpt lat="44.38634" lon="2.75305">
        <ele>718</ele>
        <time>2019-04-07T11:05:23.579Z</time>
      </trkpt>
      <trkpt lat="44.38629" lon="2.7531">
        <ele>718</ele>
        <time>2019-04-07T11:05:25.579Z</time>
      </trkpt>
      <trkpt lat="44.38623" lon="2.7532">
        <ele>718</ele>
        <time>2019-04-07T11:05:29.579Z</time>
      </trkpt>
      <trkpt lat="44.3862" lon="2.75328">
        <ele>720.1389952</ele>
        <time>2019-04-07T11:05:32.579Z</time>
      </trkpt>
      <trkpt lat="44.38616" lon="2.75336">
        <ele>721.1389952</ele>
        <time>2019-04-07T11:05:35.579Z</time>
      </trkpt>
      <trkpt lat="44.38613" lon="2.75348">
        <ele>722</ele>
        <time>2019-04-07T11:05:39.579Z</time>
      </trkpt>
      <trkpt lat="44.38614" lon="2.7536">
        <ele>724</ele>
        <time>2019-04-07T11:05:42.579Z</time>
      </trkpt>
      <trkpt lat="44.38617" lon="2.75375">
        <ele>725</ele>
        <time>2019-04-07T11:05:46.579Z</time>
      </trkpt>
      <trkpt lat="44.38617" lon="2.7539">
        <ele>725.1389952</ele>
        <time>2019-04-07T11:05:50.579Z</time>
      </trkpt>
      <trkpt lat="44.38615" lon="2.75405">
        <ele>726</ele>
        <time>2019-04-07T11:05:54.579Z</time>
      </trkpt>
      <trkpt lat="44.38611" lon="2.75416">
        <ele>726</ele>
        <time>2019-04-07T11:05:58.579Z</time>
      </trkpt>
      <trkpt lat="44.38611" lon="2.75428">
        <ele>728</ele>
        <time>2019-04-07T11:06:02.579Z</time>
      </trkpt>
      <trkpt lat="44.38613" lon="2.7544">
        <ele>728</ele>
        <time>2019-04-07T11:06:06.579Z</time>
      </trkpt>
      <trkpt lat="44.38617" lon="2.75451">
        <ele>731</ele>
        <time>2019-04-07T11:06:11.579Z</time>
      </trkpt>
      <trkpt lat="44.38621" lon="2.75461">
        <ele>731.4169856</ele>
        <time>2019-04-07T11:06:15.579Z</time>
      </trkpt>
      <trkpt lat="44.38626" lon="2.75471">
        <ele>734.1389952</ele>
        <time>2019-04-07T11:06:20.579Z</time>
      </trkpt>
      <trkpt lat="44.3863" lon="2.75482">
        <ele>736</ele>
        <time>2019-04-07T11:06:26.579Z</time>
      </trkpt>
      <trkpt lat="44.38625" lon="2.7549">
        <ele>736.1389952</ele>
        <time>2019-04-07T11:06:30.579Z</time>
      </trkpt>
      <trkpt lat="44.38618" lon="2.75491">
        <ele>737</ele>
        <time>2019-04-07T11:06:34.579Z</time>
      </trkpt>
      <trkpt lat="44.38611" lon="2.75488">
        <ele>737</ele>
        <time>2019-04-07T11:06:38.579Z</time>
      </trkpt>
      <trkpt lat="44.38605" lon="2.75485">
        <ele>739</ele>
        <time>2019-04-07T11:06:42.579Z</time>
      </trkpt>
      <trkpt lat="44.38597" lon="2.75481">
        <ele>739</ele>
        <time>2019-04-07T11:06:46.579Z</time>
      </trkpt>
      <trkpt lat="44.38589" lon="2.75482">
        <ele>739.1389952</ele>
        <time>2019-04-07T11:06:50.579Z</time>
      </trkpt>
      <trkpt lat="44.38582" lon="2.7548">
        <ele>740</ele>
        <time>2019-04-07T11:06:55.579Z</time>
      </trkpt>
      <trkpt lat="44.38574" lon="2.75475">
        <ele>741.1389952</ele>
        <time>2019-04-07T11:07:00.579Z</time>
      </trkpt>
      <trkpt lat="44.38565" lon="2.7547">
        <ele>742</ele>
        <time>2019-04-07T11:07:04.579Z</time>
      </trkpt>
      <trkpt lat="44.38558" lon="2.75473">
        <ele>742</ele>
        <time>2019-04-07T11:07:08.579Z</time>
      </trkpt>
      <trkpt lat="44.38551" lon="2.7548">
        <ele>745</ele>
        <time>2019-04-07T11:07:14.579Z</time>
      </trkpt>
      <trkpt lat="44.38546" lon="2.7549">
        <ele>748</ele>
        <time>2019-04-07T11:07:19.579Z</time>
      </trkpt>
      <trkpt lat="44.38546" lon="2.75504">
        <ele>750</ele>
        <time>2019-04-07T11:07:26.579Z</time>
      </trkpt>
      <trkpt lat="44.38548" lon="2.75518">
        <ele>752</ele>
        <time>2019-04-07T11:07:31.579Z</time>
      </trkpt>
      <trkpt lat="44.38547" lon="2.75529">
        <ele>752</ele>
        <time>2019-04-07T11:07:35.579Z</time>
      </trkpt>
      <trkpt lat="44.38546" lon="2.75542">
        <ele>753.1389952</ele>
        <time>2019-04-07T11:07:41.579Z</time>
      </trkpt>
      <trkpt lat="44.38544" lon="2.75557">
        <ele>754</ele>
        <time>2019-04-07T11:07:47.579Z</time>
      </trkpt>
      <trkpt lat="44.38548" lon="2.7557">
        <ele>756</ele>
        <time>2019-04-07T11:07:52.579Z</time>
      </trkpt>
      <trkpt lat="44.3855" lon="2.75582">
        <ele>756</ele>
        <time>2019-04-07T11:07:56.579Z</time>
      </trkpt>
      <trkpt lat="44.3855" lon="2.75594">
        <ele>756.1389952</ele>
        <time>2019-04-07T11:08:00.579Z</time>
      </trkpt>
      <trkpt lat="44.38548" lon="2.75607">
        <ele>757</ele>
        <time>2019-04-07T11:08:04.579Z</time>
      </trkpt>
      <trkpt lat="44.38545" lon="2.75615">
        <ele>757</ele>
        <time>2019-04-07T11:08:07.579Z</time>
      </trkpt>
      <trkpt lat="44.38542" lon="2.75622">
        <ele>757.2779904</ele>
        <time>2019-04-07T11:08:10.579Z</time>
      </trkpt>
      <trkpt lat="44.38537" lon="2.75631">
        <ele>759</ele>
        <time>2019-04-07T11:08:15.579Z</time>
      </trkpt>
      <trkpt lat="44.38533" lon="2.75641">
        <ele>759.5559808</ele>
        <time>2019-04-07T11:08:20.579Z</time>
      </trkpt>
      <trkpt lat="44.38531" lon="2.7565">
        <ele>763</ele>
        <time>2019-04-07T11:08:24.579Z</time>
      </trkpt>
      <trkpt lat="44.38529" lon="2.75656">
        <ele>765</ele>
        <time>2019-04-07T11:08:27.579Z</time>
      </trkpt>
      <trkpt lat="44.38527" lon="2.75663">
        <ele>766</ele>
        <time>2019-04-07T11:08:31.579Z</time>
      </trkpt>
      <trkpt lat="44.38525" lon="2.75669">
        <ele>766.1389952</ele>
        <time>2019-04-07T11:08:35.579Z</time>
      </trkpt>
      <trkpt lat="44.38523" lon="2.75675">
        <ele>767</ele>
        <time>2019-04-07T11:08:39.579Z</time>
      </trkpt>
      <trkpt lat="44.38522" lon="2.75683">
        <ele>768</ele>
        <time>2019-04-07T11:08:44.579Z</time>
      </trkpt>
      <trkpt lat="44.38521" lon="2.75689">
        <ele>768</ele>
        <time>2019-04-07T11:08:47.579Z</time>
      </trkpt>
      <trkpt lat="44.38519" lon="2.75696">
        <ele>772</ele>
        <time>2019-04-07T11:08:51.579Z</time>
      </trkpt>
      <trkpt lat="44.38517" lon="2.75701">
        <ele>772</ele>
        <time>2019-04-07T11:08:54.579Z</time>
      </trkpt>
      <trkpt lat="44.38514" lon="2.75704">
        <ele>773</ele>
        <time>2019-04-07T11:08:57.579Z</time>
      </trkpt>
      <trkpt lat="44.38511" lon="2.75707">
        <ele>773.2779904</ele>
        <time>2019-04-07T11:09:00.579Z</time>
      </trkpt>
      <trkpt lat="44.38509" lon="2.75709">
        <ele>775</ele>
        <time>2019-04-07T11:09:02.579Z</time>
      </trkpt>
      <trkpt lat="44.38505" lon="2.7571">
        <ele>775.1389952</ele>
        <time>2019-04-07T11:09:05.579Z</time>
      </trkpt>
      <trkpt lat="44.385" lon="2.75709">
        <ele>776</ele>
        <time>2019-04-07T11:09:09.579Z</time>
      </trkpt>
      <trkpt lat="44.38495" lon="2.75707">
        <ele>777</ele>
        <time>2019-04-07T11:09:13.579Z</time>
      </trkpt>
      <trkpt lat="44.38489" lon="2.75704">
        <ele>779</ele>
        <time>2019-04-07T11:09:18.579Z</time>
      </trkpt>
      <trkpt lat="44.38485" lon="2.75697">
        <ele>781</ele>
        <time>2019-04-07T11:09:25.579Z</time>
      </trkpt>
      <trkpt lat="44.38481" lon="2.75687">
        <ele>783</ele>
        <time>2019-04-07T11:09:33.579Z</time>
      </trkpt>
      <trkpt lat="44.38477" lon="2.75675">
        <ele>783</ele>
        <time>2019-04-07T11:09:39.579Z</time>
      </trkpt>
      <trkpt lat="44.38474" lon="2.75662">
        <ele>784</ele>
        <time>2019-04-07T11:09:47.579Z</time>
      </trkpt>
      <trkpt lat="44.38471" lon="2.75648">
        <ele>787</ele>
        <time>2019-04-07T11:09:54.579Z</time>
      </trkpt>
      <trkpt lat="44.38467" lon="2.75636">
        <ele>788</ele>
        <time>2019-04-07T11:09:57.579Z</time>
      </trkpt>
      <trkpt lat="44.38464" lon="2.75625">
        <ele>788</ele>
        <time>2019-04-07T11:10:00.579Z</time>
      </trkpt>
      <trkpt lat="44.38461" lon="2.75613">
        <ele>788</ele>
        <time>2019-04-07T11:10:04.579Z</time>
      </trkpt>
      <trkpt lat="44.38456" lon="2.75602">
        <ele>788</ele>
        <time>2019-04-07T11:10:09.579Z</time>
      </trkpt>
      <trkpt lat="44.3845" lon="2.75596">
        <ele>789</ele>
        <time>2019-04-07T11:10:13.579Z</time>
      </trkpt>
      <trkpt lat="44.38443" lon="2.75592">
        <ele>789</ele>
        <time>2019-04-07T11:10:17.579Z</time>
      </trkpt>
      <trkpt lat="44.38437" lon="2.75587">
        <ele>791</ele>
        <time>2019-04-07T11:10:21.579Z</time>
      </trkpt>
      <trkpt lat="44.38432" lon="2.75584">
        <ele>791</ele>
        <time>2019-04-07T11:10:24.579Z</time>
      </trkpt>
      <trkpt lat="44.38425" lon="2.7558">
        <ele>794</ele>
        <time>2019-04-07T11:10:28.579Z</time>
      </trkpt>
      <trkpt lat="44.38419" lon="2.75578">
        <ele>795</ele>
        <time>2019-04-07T11:10:32.579Z</time>
      </trkpt>
      <trkpt lat="44.38414" lon="2.75577">
        <ele>797</ele>
        <time>2019-04-07T11:10:36.579Z</time>
      </trkpt>
      <trkpt lat="44.38409" lon="2.75575">
        <ele>797</ele>
        <time>2019-04-07T11:10:39.579Z</time>
      </trkpt>
      <trkpt lat="44.38404" lon="2.75573">
        <ele>798</ele>
        <time>2019-04-07T11:10:42.579Z</time>
      </trkpt>
      <trkpt lat="44.38398" lon="2.75571">
        <ele>799</ele>
        <time>2019-04-07T11:10:46.579Z</time>
      </trkpt>
      <trkpt lat="44.38392" lon="2.75569">
        <ele>799</ele>
        <time>2019-04-07T11:10:50.579Z</time>
      </trkpt>
      <trkpt lat="44.38385" lon="2.75566">
        <ele>799</ele>
        <time>2019-04-07T11:10:54.579Z</time>
      </trkpt>
      <trkpt lat="44.3838" lon="2.75565">
        <ele>799</ele>
        <time>2019-04-07T11:10:57.579Z</time>
      </trkpt>
      <trkpt lat="44.38376" lon="2.75565">
        <ele>799.4169856</ele>
        <time>2019-04-07T11:11:00.579Z</time>
      </trkpt>
      <trkpt lat="44.38371" lon="2.75566">
        <ele>802</ele>
        <time>2019-04-07T11:11:03.579Z</time>
      </trkpt>
      <trkpt lat="44.38365" lon="2.75568">
        <ele>803</ele>
        <time>2019-04-07T11:11:06.579Z</time>
      </trkpt>
      <trkpt lat="44.3836" lon="2.75571">
        <ele>803</ele>
        <time>2019-04-07T11:11:09.579Z</time>
      </trkpt>
      <trkpt lat="44.38355" lon="2.75574">
        <ele>804</ele>
        <time>2019-04-07T11:11:12.579Z</time>
      </trkpt>
      <trkpt lat="44.38348" lon="2.75579">
        <ele>804</ele>
        <time>2019-04-07T11:11:16.579Z</time>
      </trkpt>
      <trkpt lat="44.38342" lon="2.75582">
        <ele>804.1389952</ele>
        <time>2019-04-07T11:11:20.579Z</time>
      </trkpt>
      <trkpt lat="44.38335" lon="2.75585">
        <ele>805</ele>
        <time>2019-04-07T11:11:24.579Z</time>
      </trkpt>
      <trkpt lat="44.3833" lon="2.75588">
        <ele>805</ele>
        <time>2019-04-07T11:11:27.579Z</time>
      </trkpt>
      <trkpt lat="44.38322" lon="2.75591">
        <ele>807</ele>
        <time>2019-04-07T11:11:32.579Z</time>
      </trkpt>
      <trkpt lat="44.38315" lon="2.75593">
        <ele>807</ele>
        <time>2019-04-07T11:11:36.579Z</time>
      </trkpt>
      <trkpt lat="44.38306" lon="2.75595">
        <ele>807.2779904</ele>
        <time>2019-04-07T11:11:40.579Z</time>
      </trkpt>
      <trkpt lat="44.38298" lon="2.75594">
        <ele>809</ele>
        <time>2019-04-07T11:11:44.579Z</time>
      </trkpt>
      <trkpt lat="44.38292" lon="2.75593">
        <ele>809</ele>
        <time>2019-04-07T11:11:47.579Z</time>
      </trkpt>
      <trkpt lat="44.38286" lon="2.75592">
        <ele>809.2779904</ele>
        <time>2019-04-07T11:11:50.579Z</time>
      </trkpt>
      <trkpt lat="44.38279" lon="2.7559">
        <ele>811</ele>
        <time>2019-04-07T11:11:53.579Z</time>
      </trkpt>
      <trkpt lat="44.38273" lon="2.75589">
        <ele>811</ele>
        <time>2019-04-07T11:11:56.579Z</time>
      </trkpt>
      <trkpt lat="44.38267" lon="2.75587">
        <ele>811</ele>
        <time>2019-04-07T11:11:59.579Z</time>
      </trkpt>
      <trkpt lat="44.3826" lon="2.75586">
        <ele>812</ele>
        <time>2019-04-07T11:12:02.579Z</time>
      </trkpt>
      <trkpt lat="44.38252" lon="2.75586">
        <ele>812</ele>
        <time>2019-04-07T11:12:06.579Z</time>
      </trkpt>
      <trkpt lat="44.38246" lon="2.75583">
        <ele>812</ele>
        <time>2019-04-07T11:12:09.579Z</time>
      </trkpt>
      <trkpt lat="44.38239" lon="2.75582">
        <ele>813</ele>
        <time>2019-04-07T11:12:12.579Z</time>
      </trkpt>
      <trkpt lat="44.38231" lon="2.75581">
        <ele>813</ele>
        <time>2019-04-07T11:12:16.579Z</time>
      </trkpt>
      <trkpt lat="44.38223" lon="2.75579">
        <ele>813.2779904</ele>
        <time>2019-04-07T11:12:20.579Z</time>
      </trkpt>
      <trkpt lat="44.38216" lon="2.75577">
        <ele>815</ele>
        <time>2019-04-07T11:12:23.579Z</time>
      </trkpt>
      <trkpt lat="44.3821" lon="2.75574">
        <ele>815</ele>
        <time>2019-04-07T11:12:26.579Z</time>
      </trkpt>
      <trkpt lat="44.38204" lon="2.75573">
        <ele>815</ele>
        <time>2019-04-07T11:12:29.579Z</time>
      </trkpt>
      <trkpt lat="44.38198" lon="2.75572">
        <ele>817</ele>
        <time>2019-04-07T11:12:32.579Z</time>
      </trkpt>
      <trkpt lat="44.38192" lon="2.75573">
        <ele>817</ele>
        <time>2019-04-07T11:12:35.579Z</time>
      </trkpt>
      <trkpt lat="44.38187" lon="2.75574">
        <ele>817</ele>
        <time>2019-04-07T11:12:38.579Z</time>
      </trkpt>
      <trkpt lat="44.38181" lon="2.75577">
        <ele>820</ele>
        <time>2019-04-07T11:12:42.579Z</time>
      </trkpt>
      <trkpt lat="44.38176" lon="2.75582">
        <ele>822</ele>
        <time>2019-04-07T11:12:46.579Z</time>
      </trkpt>
      <trkpt lat="44.38171" lon="2.75588">
        <ele>822.2779904</ele>
        <time>2019-04-07T11:12:50.579Z</time>
      </trkpt>
      <trkpt lat="44.38166" lon="2.75594">
        <ele>824</ele>
        <time>2019-04-07T11:12:54.579Z</time>
      </trkpt>
      <trkpt lat="44.38163" lon="2.75599">
        <ele>826</ele>
        <time>2019-04-07T11:12:57.579Z</time>
      </trkpt>
      <trkpt lat="44.38159" lon="2.75602">
        <ele>826</ele>
        <time>2019-04-07T11:13:00.579Z</time>
      </trkpt>
      <trkpt lat="44.38154" lon="2.75605">
        <ele>826</ele>
        <time>2019-04-07T11:13:03.579Z</time>
      </trkpt>
      <trkpt lat="44.38148" lon="2.75606">
        <ele>826</ele>
        <time>2019-04-07T11:13:07.579Z</time>
      </trkpt>
      <trkpt lat="44.38143" lon="2.75603">
        <ele>826.2779904</ele>
        <time>2019-04-07T11:13:10.579Z</time>
      </trkpt>
      <trkpt lat="44.38138" lon="2.75599">
        <ele>827</ele>
        <time>2019-04-07T11:13:13.579Z</time>
      </trkpt>
      <trkpt lat="44.38134" lon="2.75593">
        <ele>827</ele>
        <time>2019-04-07T11:13:16.579Z</time>
      </trkpt>
      <trkpt lat="44.38131" lon="2.75587">
        <ele>827</ele>
        <time>2019-04-07T11:13:19.579Z</time>
      </trkpt>
      <trkpt lat="44.38128" lon="2.7558">
        <ele>830</ele>
        <time>2019-04-07T11:13:22.579Z</time>
      </trkpt>
      <trkpt lat="44.38127" lon="2.75574">
        <ele>830.1389952</ele>
        <time>2019-04-07T11:13:25.579Z</time>
      </trkpt>
      <trkpt lat="44.38125" lon="2.75562">
        <ele>831</ele>
        <time>2019-04-07T11:13:30.579Z</time>
      </trkpt>
      <trkpt lat="44.38126" lon="2.75555">
        <ele>831</ele>
        <time>2019-04-07T11:13:33.579Z</time>
      </trkpt>
      <trkpt lat="44.38125" lon="2.75546">
        <ele>831</ele>
        <time>2019-04-07T11:13:37.579Z</time>
      </trkpt>
      <trkpt lat="44.38124" lon="2.75538">
        <ele>833</ele>
        <time>2019-04-07T11:13:41.579Z</time>
      </trkpt>
      <trkpt lat="44.38123" lon="2.75529">
        <ele>833</ele>
        <time>2019-04-07T11:13:45.579Z</time>
      </trkpt>
      <trkpt lat="44.38122" lon="2.75521">
        <ele>833</ele>
        <time>2019-04-07T11:13:49.579Z</time>
      </trkpt>
      <trkpt lat="44.38119" lon="2.75512">
        <ele>835</ele>
        <time>2019-04-07T11:13:54.579Z</time>
      </trkpt>
      <trkpt lat="44.38112" lon="2.75504">
        <ele>837</ele>
        <time>2019-04-07T11:13:59.579Z</time>
      </trkpt>
      <trkpt lat="44.38105" lon="2.75497">
        <ele>838</ele>
        <time>2019-04-07T11:14:04.579Z</time>
      </trkpt>
      <trkpt lat="44.38099" lon="2.75493">
        <ele>840</ele>
        <time>2019-04-07T11:14:08.579Z</time>
      </trkpt>
      <trkpt lat="44.38093" lon="2.75489">
        <ele>841</ele>
        <time>2019-04-07T11:14:12.579Z</time>
      </trkpt>
      <trkpt lat="44.38088" lon="2.75484">
        <ele>842</ele>
        <time>2019-04-07T11:14:16.579Z</time>
      </trkpt>
      <trkpt lat="44.38082" lon="2.75478">
        <ele>842.26060198593</ele>
        <time>2019-04-07T11:14:20.579Z</time>
      </trkpt>
      <trkpt lat="44.38076" lon="2.75472">
        <ele>844</ele>
        <time>2019-04-07T11:14:24.579Z</time>
      </trkpt>
      <trkpt lat="44.38071" lon="2.75468">
        <ele>843</ele>
        <time>2019-04-07T11:14:27.579Z</time>
      </trkpt>
      <trkpt lat="44.38066" lon="2.75463">
        <ele>843.1389952</ele>
        <time>2019-04-07T11:14:30.579Z</time>
      </trkpt>
      <trkpt lat="44.38061" lon="2.75458">
        <ele>844</ele>
        <time>2019-04-07T11:14:33.579Z</time>
      </trkpt>
      <trkpt lat="44.38055" lon="2.75454">
        <ele>844</ele>
        <time>2019-04-07T11:15:44.579Z</time>
      </trkpt>
      <trkpt lat="44.38049" lon="2.75448">
        <ele>844</ele>
        <time>2019-04-07T11:15:47.579Z</time>
      </trkpt>
      <trkpt lat="44.38045" lon="2.75442">
        <ele>844</ele>
        <time>2019-04-07T11:15:49.579Z</time>
      </trkpt>
      <trkpt lat="44.38041" lon="2.75436">
        <ele>844</ele>
        <time>2019-04-07T11:15:51.579Z</time>
      </trkpt>
      <trkpt lat="44.38035" lon="2.7543">
        <ele>844</ele>
        <time>2019-04-07T11:15:53.579Z</time>
      </trkpt>
      <trkpt lat="44.38029" lon="2.75425">
        <ele>844</ele>
        <time>2019-04-07T11:15:55.579Z</time>
      </trkpt>
      <trkpt lat="44.38022" lon="2.7542">
        <ele>844</ele>
        <time>2019-04-07T11:15:57.579Z</time>
      </trkpt>
      <trkpt lat="44.38014" lon="2.75414">
        <ele>844</ele>
        <time>2019-04-07T11:15:59.579Z</time>
      </trkpt>
      <trkpt lat="44.38007" lon="2.75409">
        <ele>844</ele>
        <time>2019-04-07T11:16:01.579Z</time>
      </trkpt>
      <trkpt lat="44.37999" lon="2.75404">
        <ele>844</ele>
        <time>2019-04-07T11:16:03.579Z</time>
      </trkpt>
      <trkpt lat="44.37993" lon="2.75398">
        <ele>844</ele>
        <time>2019-04-07T11:16:05.579Z</time>
      </trkpt>
      <trkpt lat="44.37986" lon="2.75391">
        <ele>844</ele>
        <time>2019-04-07T11:16:07.579Z</time>
      </trkpt>
      <trkpt lat="44.37977" lon="2.75382">
        <ele>844.2779904</ele>
        <time>2019-04-07T11:16:10.579Z</time>
      </trkpt>
      <trkpt lat="44.37969" lon="2.7537">
        <ele>846</ele>
        <time>2019-04-07T11:16:13.579Z</time>
      </trkpt>
      <trkpt lat="44.37961" lon="2.75357">
        <ele>846</ele>
        <time>2019-04-07T11:16:16.579Z</time>
      </trkpt>
      <trkpt lat="44.37953" lon="2.75344">
        <ele>846</ele>
        <time>2019-04-07T11:16:19.579Z</time>
      </trkpt>
      <trkpt lat="44.37946" lon="2.75332">
        <ele>846</ele>
        <time>2019-04-07T11:16:21.579Z</time>
      </trkpt>
      <trkpt lat="44.37939" lon="2.75325">
        <ele>846</ele>
        <time>2019-04-07T11:16:23.579Z</time>
      </trkpt>
      <trkpt lat="44.37932" lon="2.7532">
        <ele>846</ele>
        <time>2019-04-07T11:16:25.579Z</time>
      </trkpt>
      <trkpt lat="44.3792" lon="2.75317">
        <ele>846</ele>
        <time>2019-04-07T11:16:28.579Z</time>
      </trkpt>
      <trkpt lat="44.37908" lon="2.75318">
        <ele>848</ele>
        <time>2019-04-07T11:16:31.579Z</time>
      </trkpt>
      <trkpt lat="44.37901" lon="2.75319">
        <ele>848</ele>
        <time>2019-04-07T11:16:33.579Z</time>
      </trkpt>
      <trkpt lat="44.37893" lon="2.75322">
        <ele>848</ele>
        <time>2019-04-07T11:16:35.579Z</time>
      </trkpt>
      <trkpt lat="44.37885" lon="2.75323">
        <ele>848</ele>
        <time>2019-04-07T11:16:37.579Z</time>
      </trkpt>
      <trkpt lat="44.37877" lon="2.75323">
        <ele>848</ele>
        <time>2019-04-07T11:16:39.579Z</time>
      </trkpt>
      <trkpt lat="44.3787" lon="2.75325">
        <ele>849</ele>
        <time>2019-04-07T11:16:41.579Z</time>
      </trkpt>
      <trkpt lat="44.37862" lon="2.75323">
        <ele>849</ele>
        <time>2019-04-07T11:16:44.579Z</time>
      </trkpt>
      <trkpt lat="44.37853" lon="2.75318">
        <ele>849</ele>
        <time>2019-04-07T11:16:47.579Z</time>
      </trkpt>
      <trkpt lat="44.37846" lon="2.75311">
        <ele>849.2779904</ele>
        <time>2019-04-07T11:16:50.579Z</time>
      </trkpt>
      <trkpt lat="44.37839" lon="2.75307">
        <ele>851</ele>
        <time>2019-04-07T11:16:53.579Z</time>
      </trkpt>
      <trkpt lat="44.37832" lon="2.75301">
        <ele>853</ele>
        <time>2019-04-07T11:16:56.579Z</time>
      </trkpt>
      <trkpt lat="44.37825" lon="2.75295">
        <ele>853</ele>
        <time>2019-04-07T11:16:59.579Z</time>
      </trkpt>
      <trkpt lat="44.37818" lon="2.75289">
        <ele>855</ele>
        <time>2019-04-07T11:17:02.579Z</time>
      </trkpt>
      <trkpt lat="44.37811" lon="2.75281">
        <ele>855.1389952</ele>
        <time>2019-04-07T11:17:05.579Z</time>
      </trkpt>
      <trkpt lat="44.37805" lon="2.75273">
        <ele>856</ele>
        <time>2019-04-07T11:17:08.579Z</time>
      </trkpt>
      <trkpt lat="44.378" lon="2.75264">
        <ele>857</ele>
        <time>2019-04-07T11:17:11.579Z</time>
      </trkpt>
      <trkpt lat="44.37795" lon="2.75255">
        <ele>857</ele>
        <time>2019-04-07T11:17:14.579Z</time>
      </trkpt>
      <trkpt lat="44.3779" lon="2.75246">
        <ele>857</ele>
        <time>2019-04-07T11:17:17.579Z</time>
      </trkpt>
      <trkpt lat="44.37785" lon="2.75237">
        <ele>857.2779904</ele>
        <time>2019-04-07T11:17:20.579Z</time>
      </trkpt>
      <trkpt lat="44.37779" lon="2.7523">
        <ele>859</ele>
        <time>2019-04-07T11:17:23.579Z</time>
      </trkpt>
      <trkpt lat="44.37773" lon="2.75221">
        <ele>859</ele>
        <time>2019-04-07T11:17:26.579Z</time>
      </trkpt>
      <trkpt lat="44.37767" lon="2.75213">
        <ele>859</ele>
        <time>2019-04-07T11:17:29.579Z</time>
      </trkpt>
      <trkpt lat="44.37761" lon="2.75206">
        <ele>860</ele>
        <time>2019-04-07T11:17:32.579Z</time>
      </trkpt>
      <trkpt lat="44.37754" lon="2.752">
        <ele>860</ele>
        <time>2019-04-07T11:17:35.579Z</time>
      </trkpt>
      <trkpt lat="44.37747" lon="2.75193">
        <ele>860</ele>
        <time>2019-04-07T11:17:38.579Z</time>
      </trkpt>
      <trkpt lat="44.3774" lon="2.75186">
        <ele>862</ele>
        <time>2019-04-07T11:17:41.579Z</time>
      </trkpt>
      <trkpt lat="44.37736" lon="2.75181">
        <ele>862</ele>
        <time>2019-04-07T11:17:43.579Z</time>
      </trkpt>
      <trkpt lat="44.37731" lon="2.75176">
        <ele>862</ele>
        <time>2019-04-07T11:17:45.579Z</time>
      </trkpt>
      <trkpt lat="44.37727" lon="2.7517">
        <ele>862</ele>
        <time>2019-04-07T11:17:47.579Z</time>
      </trkpt>
      <trkpt lat="44.37723" lon="2.75164">
        <ele>862</ele>
        <time>2019-04-07T11:17:49.579Z</time>
      </trkpt>
      <trkpt lat="44.3772" lon="2.75157">
        <ele>864</ele>
        <time>2019-04-07T11:17:51.579Z</time>
      </trkpt>
      <trkpt lat="44.37717" lon="2.7515">
        <ele>864</ele>
        <time>2019-04-07T11:17:53.579Z</time>
      </trkpt>
      <trkpt lat="44.37712" lon="2.75144">
        <ele>864</ele>
        <time>2019-04-07T11:17:55.579Z</time>
      </trkpt>
      <trkpt lat="44.37707" lon="2.75138">
        <ele>864</ele>
        <time>2019-04-07T11:17:57.579Z</time>
      </trkpt>
      <trkpt lat="44.37701" lon="2.75134">
        <ele>864</ele>
        <time>2019-04-07T11:17:59.579Z</time>
      </trkpt>
      <trkpt lat="44.37697" lon="2.75133">
        <ele>864</ele>
        <time>2019-04-07T11:18:00.579Z</time>
      </trkpt>
      <trkpt lat="44.37693" lon="2.75131">
        <ele>864</ele>
        <time>2019-04-07T11:18:01.579Z</time>
      </trkpt>
      <trkpt lat="44.37685" lon="2.75128">
        <ele>864</ele>
        <time>2019-04-07T11:18:03.579Z</time>
      </trkpt>
      <trkpt lat="44.37675" lon="2.75123">
        <ele>864</ele>
        <time>2019-04-07T11:18:05.579Z</time>
      </trkpt>
      <trkpt lat="44.37664" lon="2.75119">
        <ele>864</ele>
        <time>2019-04-07T11:18:07.579Z</time>
      </trkpt>
      <trkpt lat="44.37653" lon="2.75113">
        <ele>864</ele>
        <time>2019-04-07T11:18:09.579Z</time>
      </trkpt>
      <trkpt lat="44.37642" lon="2.75107">
        <ele>864</ele>
        <time>2019-04-07T11:18:11.579Z</time>
      </trkpt>
      <trkpt lat="44.37631" lon="2.751">
        <ele>864</ele>
        <time>2019-04-07T11:18:13.579Z</time>
      </trkpt>
      <trkpt lat="44.37625" lon="2.75096">
        <ele>864</ele>
        <time>2019-04-07T11:18:14.579Z</time>
      </trkpt>
      <trkpt lat="44.37615" lon="2.7509">
        <ele>864</ele>
        <time>2019-04-07T11:18:16.579Z</time>
      </trkpt>
      <trkpt lat="44.37605" lon="2.75091">
        <ele>864</ele>
        <time>2019-04-07T11:18:18.579Z</time>
      </trkpt>
      <trkpt lat="44.37601" lon="2.75095">
        <ele>864</ele>
        <time>2019-04-07T11:18:19.579Z</time>
      </trkpt>
      <trkpt lat="44.3759" lon="2.75102">
        <ele>861</ele>
        <time>2019-04-07T11:18:21.579Z</time>
      </trkpt>
      <trkpt lat="44.37584" lon="2.75105">
        <ele>861</ele>
        <time>2019-04-07T11:18:22.579Z</time>
      </trkpt>
      <trkpt lat="44.37579" lon="2.75107">
        <ele>861</ele>
        <time>2019-04-07T11:18:23.579Z</time>
      </trkpt>
      <trkpt lat="44.37574" lon="2.7511">
        <ele>861</ele>
        <time>2019-04-07T11:18:24.579Z</time>
      </trkpt>
      <trkpt lat="44.3757" lon="2.75113">
        <ele>860.7220096</ele>
        <time>2019-04-07T11:18:25.579Z</time>
      </trkpt>
      <trkpt lat="44.37566" lon="2.75117">
        <ele>859</ele>
        <time>2019-04-07T11:18:26.579Z</time>
      </trkpt>
      <trkpt lat="44.37561" lon="2.7512">
        <ele>858.8610048</ele>
        <time>2019-04-07T11:18:27.579Z</time>
      </trkpt>
      <trkpt lat="44.37557" lon="2.75122">
        <ele>858</ele>
        <time>2019-04-07T11:18:28.579Z</time>
      </trkpt>
      <trkpt lat="44.3755" lon="2.75127">
        <ele>858</ele>
        <time>2019-04-07T11:18:30.579Z</time>
      </trkpt>
      <trkpt lat="44.37544" lon="2.75131">
        <ele>858</ele>
        <time>2019-04-07T11:18:32.579Z</time>
      </trkpt>
      <trkpt lat="44.37537" lon="2.75135">
        <ele>858</ele>
        <time>2019-04-07T11:18:34.579Z</time>
      </trkpt>
      <trkpt lat="44.3753" lon="2.7514">
        <ele>859</ele>
        <time>2019-04-07T11:18:36.579Z</time>
      </trkpt>
      <trkpt lat="44.37524" lon="2.75144">
        <ele>859</ele>
        <time>2019-04-07T11:18:38.579Z</time>
      </trkpt>
      <trkpt lat="44.37517" lon="2.75149">
        <ele>858.8610048</ele>
        <time>2019-04-07T11:18:40.579Z</time>
      </trkpt>
      <trkpt lat="44.37509" lon="2.75154">
        <ele>858</ele>
        <time>2019-04-07T11:18:42.579Z</time>
      </trkpt>
      <trkpt lat="44.37504" lon="2.75158">
        <ele>858</ele>
        <time>2019-04-07T11:18:43.579Z</time>
      </trkpt>
      <trkpt lat="44.375" lon="2.7516">
        <ele>858</ele>
        <time>2019-04-07T11:18:44.579Z</time>
      </trkpt>
      <trkpt lat="44.37495" lon="2.75163">
        <ele>858</ele>
        <time>2019-04-07T11:18:45.579Z</time>
      </trkpt>
      <trkpt lat="44.37492" lon="2.75165">
        <ele>858</ele>
        <time>2019-04-07T11:18:46.579Z</time>
      </trkpt>
      <trkpt lat="44.37489" lon="2.75167">
        <ele>858</ele>
        <time>2019-04-07T11:18:47.579Z</time>
      </trkpt>
      <trkpt lat="44.37484" lon="2.7517">
        <ele>858</ele>
        <time>2019-04-07T11:18:49.579Z</time>
      </trkpt>
      <trkpt lat="44.3748" lon="2.75173">
        <ele>859</ele>
        <time>2019-04-07T11:18:51.579Z</time>
      </trkpt>
      <trkpt lat="44.37474" lon="2.75178">
        <ele>859</ele>
        <time>2019-04-07T11:18:55.579Z</time>
      </trkpt>
      <trkpt lat="44.37473" lon="2.75189">
        <ele>859</ele>
        <time>2019-04-07T11:18:58.579Z</time>
      </trkpt>
      <trkpt lat="44.37476" lon="2.75197">
        <ele>859.1389952</ele>
        <time>2019-04-07T11:19:00.579Z</time>
      </trkpt>
      <trkpt lat="44.37478" lon="2.75202">
        <ele>860</ele>
        <time>2019-04-07T11:19:01.579Z</time>
      </trkpt>
      <trkpt lat="44.37479" lon="2.75207">
        <ele>860</ele>
        <time>2019-04-07T11:19:02.579Z</time>
      </trkpt>
      <trkpt lat="44.37481" lon="2.75212">
        <ele>860</ele>
        <time>2019-04-07T11:19:03.579Z</time>
      </trkpt>
      <trkpt lat="44.37484" lon="2.75224">
        <ele>860</ele>
        <time>2019-04-07T11:19:05.579Z</time>
      </trkpt>
      <trkpt lat="44.37486" lon="2.7523">
        <ele>860</ele>
        <time>2019-04-07T11:19:06.579Z</time>
      </trkpt>
      <trkpt lat="44.37487" lon="2.75236">
        <ele>860</ele>
        <time>2019-04-07T11:19:07.579Z</time>
      </trkpt>
      <trkpt lat="44.37488" lon="2.75242">
        <ele>860</ele>
        <time>2019-04-07T11:19:08.579Z</time>
      </trkpt>
      <trkpt lat="44.3749" lon="2.75253">
        <ele>860</ele>
        <time>2019-04-07T11:19:10.579Z</time>
      </trkpt>
      <trkpt lat="44.37492" lon="2.75264">
        <ele>860</ele>
        <time>2019-04-07T11:19:12.579Z</time>
      </trkpt>
      <trkpt lat="44.37494" lon="2.75279">
        <ele>860</ele>
        <time>2019-04-07T11:19:14.579Z</time>
      </trkpt>
      <trkpt lat="44.37497" lon="2.75297">
        <ele>860</ele>
        <time>2019-04-07T11:19:16.579Z</time>
      </trkpt>
      <trkpt lat="44.37502" lon="2.75316">
        <ele>860</ele>
        <time>2019-04-07T11:19:18.579Z</time>
      </trkpt>
      <trkpt lat="44.37505" lon="2.75326">
        <ele>860</ele>
        <time>2019-04-07T11:19:19.579Z</time>
      </trkpt>
      <trkpt lat="44.37507" lon="2.75337">
        <ele>859.305024</ele>
        <time>2019-04-07T11:19:20.579Z</time>
      </trkpt>
      <trkpt lat="44.37509" lon="2.75347">
        <ele>855</ele>
        <time>2019-04-07T11:19:21.579Z</time>
      </trkpt>
      <trkpt lat="44.37512" lon="2.75359">
        <ele>855</ele>
        <time>2019-04-07T11:19:22.579Z</time>
      </trkpt>
      <trkpt lat="44.37514" lon="2.7537">
        <ele>855</ele>
        <time>2019-04-07T11:19:23.579Z</time>
      </trkpt>
      <trkpt lat="44.37517" lon="2.75382">
        <ele>855</ele>
        <time>2019-04-07T11:19:24.579Z</time>
      </trkpt>
      <trkpt lat="44.37519" lon="2.75393">
        <ele>854.4440192</ele>
        <time>2019-04-07T11:19:25.579Z</time>
      </trkpt>
      <trkpt lat="44.37524" lon="2.75412">
        <ele>851</ele>
        <time>2019-04-07T11:19:27.579Z</time>
      </trkpt>
      <trkpt lat="44.37525" lon="2.75427">
        <ele>851</ele>
        <time>2019-04-07T11:19:29.579Z</time>
      </trkpt>
      <trkpt lat="44.37517" lon="2.75433">
        <ele>846</ele>
        <time>2019-04-07T11:19:32.579Z</time>
      </trkpt>
      <trkpt lat="44.37511" lon="2.75425">
        <ele>846.1389952</ele>
        <time>2019-04-07T11:19:34.579Z</time>
      </trkpt>
      <trkpt lat="44.37502" lon="2.75412">
        <ele>846</ele>
        <time>2019-04-07T11:19:37.579Z</time>
      </trkpt>
      <trkpt lat="44.37494" lon="2.75399">
        <ele>846</ele>
        <time>2019-04-07T11:19:40.579Z</time>
      </trkpt>
      <trkpt lat="44.37486" lon="2.75388">
        <ele>846</ele>
        <time>2019-04-07T11:19:42.579Z</time>
      </trkpt>
      <trkpt lat="44.37478" lon="2.75379">
        <ele>846</ele>
        <time>2019-04-07T11:19:44.579Z</time>
      </trkpt>
      <trkpt lat="44.37467" lon="2.75379">
        <ele>846</ele>
        <time>2019-04-07T11:19:46.579Z</time>
      </trkpt>
      <trkpt lat="44.37457" lon="2.75384">
        <ele>846</ele>
        <time>2019-04-07T11:19:48.579Z</time>
      </trkpt>
      <trkpt lat="44.37446" lon="2.75384">
        <ele>846</ele>
        <time>2019-04-07T11:19:50.579Z</time>
      </trkpt>
      <trkpt lat="44.37435" lon="2.75379">
        <ele>846</ele>
        <time>2019-04-07T11:19:52.579Z</time>
      </trkpt>
      <trkpt lat="44.37424" lon="2.75376">
        <ele>846</ele>
        <time>2019-04-07T11:19:54.579Z</time>
      </trkpt>
      <trkpt lat="44.37413" lon="2.75374">
        <ele>846</ele>
        <time>2019-04-07T11:19:56.579Z</time>
      </trkpt>
      <trkpt lat="44.37401" lon="2.75365">
        <ele>846</ele>
        <time>2019-04-07T11:19:58.579Z</time>
      </trkpt>
      <trkpt lat="44.37392" lon="2.75359">
        <ele>845.7220096</ele>
        <time>2019-04-07T11:20:00.579Z</time>
      </trkpt>
      <trkpt lat="44.37381" lon="2.75364">
        <ele>844</ele>
        <time>2019-04-07T11:20:02.579Z</time>
      </trkpt>
      <trkpt lat="44.37368" lon="2.75377">
        <ele>844</ele>
        <time>2019-04-07T11:20:04.579Z</time>
      </trkpt>
      <trkpt lat="44.3736" lon="2.75387">
        <ele>844</ele>
        <time>2019-04-07T11:20:05.579Z</time>
      </trkpt>
      <trkpt lat="44.37346" lon="2.75402">
        <ele>844</ele>
        <time>2019-04-07T11:20:07.579Z</time>
      </trkpt>
      <trkpt lat="44.37338" lon="2.75417">
        <ele>844</ele>
        <time>2019-04-07T11:20:09.579Z</time>
      </trkpt>
      <trkpt lat="44.37333" lon="2.7544">
        <ele>837.5830144</ele>
        <time>2019-04-07T11:20:11.579Z</time>
      </trkpt>
      <trkpt lat="44.37329" lon="2.75463">
        <ele>833.8610048</ele>
        <time>2019-04-07T11:20:13.579Z</time>
      </trkpt>
      <trkpt lat="44.37323" lon="2.75484">
        <ele>831.8610048</ele>
        <time>2019-04-07T11:20:15.579Z</time>
      </trkpt>
      <trkpt lat="44.37316" lon="2.75501">
        <ele>830</ele>
        <time>2019-04-07T11:20:17.579Z</time>
      </trkpt>
      <trkpt lat="44.37316" lon="2.75519">
        <ele>829</ele>
        <time>2019-04-07T11:20:19.579Z</time>
      </trkpt>
      <trkpt lat="44.3732" lon="2.7554">
        <ele>828.8610048</ele>
        <time>2019-04-07T11:20:21.579Z</time>
      </trkpt>
      <trkpt lat="44.37324" lon="2.75558">
        <ele>827</ele>
        <time>2019-04-07T11:20:23.579Z</time>
      </trkpt>
      <trkpt lat="44.37326" lon="2.75575">
        <ele>826</ele>
        <time>2019-04-07T11:20:25.579Z</time>
      </trkpt>
      <trkpt lat="44.37325" lon="2.75596">
        <ele>825.8610048</ele>
        <time>2019-04-07T11:20:27.579Z</time>
      </trkpt>
      <trkpt lat="44.37323" lon="2.75616">
        <ele>824</ele>
        <time>2019-04-07T11:20:29.579Z</time>
      </trkpt>
      <trkpt lat="44.3732" lon="2.75637">
        <ele>822.72476110815</ele>
        <time>2019-04-07T11:20:31.579Z</time>
      </trkpt>
      <trkpt lat="44.37314" lon="2.75658">
        <ele>820</ele>
        <time>2019-04-07T11:20:33.579Z</time>
      </trkpt>
      <trkpt lat="44.37303" lon="2.75668">
        <ele>820</ele>
        <time>2019-04-07T11:20:35.579Z</time>
      </trkpt>
      <trkpt lat="44.3729" lon="2.75669">
        <ele>820</ele>
        <time>2019-04-07T11:20:37.579Z</time>
      </trkpt>
      <trkpt lat="44.37279" lon="2.75678">
        <ele>820</ele>
        <time>2019-04-07T11:20:40.579Z</time>
      </trkpt>
      <trkpt lat="44.37272" lon="2.75694">
        <ele>820</ele>
        <time>2019-04-07T11:20:43.579Z</time>
      </trkpt>
      <trkpt lat="44.37265" lon="2.75703">
        <ele>820</ele>
        <time>2019-04-07T11:20:45.579Z</time>
      </trkpt>
      <trkpt lat="44.37257" lon="2.75711">
        <ele>820</ele>
        <time>2019-04-07T11:20:47.579Z</time>
      </trkpt>
      <trkpt lat="44.37249" lon="2.75718">
        <ele>820</ele>
        <time>2019-04-07T11:20:49.579Z</time>
      </trkpt>
      <trkpt lat="44.37241" lon="2.75723">
        <ele>820</ele>
        <time>2019-04-07T11:20:51.579Z</time>
      </trkpt>
      <trkpt lat="44.37233" lon="2.75726">
        <ele>820</ele>
        <time>2019-04-07T11:20:53.579Z</time>
      </trkpt>
      <trkpt lat="44.37225" lon="2.7573">
        <ele>820</ele>
        <time>2019-04-07T11:20:55.579Z</time>
      </trkpt>
      <trkpt lat="44.37217" lon="2.7573">
        <ele>820</ele>
        <time>2019-04-07T11:20:57.579Z</time>
      </trkpt>
      <trkpt lat="44.37207" lon="2.7573">
        <ele>820.26060198593</ele>
        <time>2019-04-07T11:21:00.579Z</time>
      </trkpt>
      <trkpt lat="44.37197" lon="2.75733">
        <ele>822</ele>
        <time>2019-04-07T11:21:03.579Z</time>
      </trkpt>
      <trkpt lat="44.37189" lon="2.75735">
        <ele>822</ele>
        <time>2019-04-07T11:21:05.579Z</time>
      </trkpt>
      <trkpt lat="44.3718" lon="2.75737">
        <ele>822</ele>
        <time>2019-04-07T11:21:08.579Z</time>
      </trkpt>
      <trkpt lat="44.3717" lon="2.7574">
        <ele>824</ele>
        <time>2019-04-07T11:21:11.579Z</time>
      </trkpt>
      <trkpt lat="44.37163" lon="2.75743">
        <ele>824</ele>
        <time>2019-04-07T11:21:13.579Z</time>
      </trkpt>
      <trkpt lat="44.37156" lon="2.75745">
        <ele>824</ele>
        <time>2019-04-07T11:21:15.579Z</time>
      </trkpt>
      <trkpt lat="44.37147" lon="2.75748">
        <ele>824</ele>
        <time>2019-04-07T11:21:18.579Z</time>
      </trkpt>
      <trkpt lat="44.37138" lon="2.75748">
        <ele>827</ele>
        <time>2019-04-07T11:21:21.579Z</time>
      </trkpt>
      <trkpt lat="44.3713" lon="2.75749">
        <ele>827</ele>
        <time>2019-04-07T11:21:24.579Z</time>
      </trkpt>
      <trkpt lat="44.37122" lon="2.7575">
        <ele>828</ele>
        <time>2019-04-07T11:21:27.579Z</time>
      </trkpt>
      <trkpt lat="44.37115" lon="2.75751">
        <ele>828.1389952</ele>
        <time>2019-04-07T11:21:30.579Z</time>
      </trkpt>
      <trkpt lat="44.37107" lon="2.75751">
        <ele>829</ele>
        <time>2019-04-07T11:21:33.579Z</time>
      </trkpt>
      <trkpt lat="44.37096" lon="2.75748">
        <ele>829</ele>
        <time>2019-04-07T11:21:37.579Z</time>
      </trkpt>
      <trkpt lat="44.37091" lon="2.75746">
        <ele>829</ele>
        <time>2019-04-07T11:21:39.579Z</time>
      </trkpt>
      <trkpt lat="44.37083" lon="2.75735">
        <ele>830</ele>
        <time>2019-04-07T11:21:43.579Z</time>
      </trkpt>
      <trkpt lat="44.37079" lon="2.75731">
        <ele>830</ele>
        <time>2019-04-07T11:21:45.579Z</time>
      </trkpt>
      <trkpt lat="44.37075" lon="2.75726">
        <ele>830</ele>
        <time>2019-04-07T11:21:47.579Z</time>
      </trkpt>
      <trkpt lat="44.3707" lon="2.75721">
        <ele>830.41285833777</ele>
        <time>2019-04-07T11:21:50.579Z</time>
      </trkpt>
      <trkpt lat="44.37062" lon="2.75718">
        <ele>833</ele>
        <time>2019-04-07T11:21:54.579Z</time>
      </trkpt>
      <trkpt lat="44.37054" lon="2.75721">
        <ele>833</ele>
        <time>2019-04-07T11:21:57.579Z</time>
      </trkpt>
      <trkpt lat="44.3705" lon="2.75729">
        <ele>833</ele>
        <time>2019-04-07T11:22:00.579Z</time>
      </trkpt>
      <trkpt lat="44.37042" lon="2.75742">
        <ele>833</ele>
        <time>2019-04-07T11:22:04.579Z</time>
      </trkpt>
      <trkpt lat="44.37037" lon="2.75745">
        <ele>833</ele>
        <time>2019-04-07T11:22:06.579Z</time>
      </trkpt>
      <trkpt lat="44.37029" lon="2.75746">
        <ele>833</ele>
        <time>2019-04-07T11:22:09.579Z</time>
      </trkpt>
      <trkpt lat="44.37021" lon="2.75746">
        <ele>835</ele>
        <time>2019-04-07T11:22:12.579Z</time>
      </trkpt>
      <trkpt lat="44.37015" lon="2.75746">
        <ele>835</ele>
        <time>2019-04-07T11:22:14.579Z</time>
      </trkpt>
      <trkpt lat="44.3701" lon="2.75746">
        <ele>835</ele>
        <time>2019-04-07T11:22:16.579Z</time>
      </trkpt>
      <trkpt lat="44.37004" lon="2.75747">
        <ele>835</ele>
        <time>2019-04-07T11:22:18.579Z</time>
      </trkpt>
      <trkpt lat="44.36999" lon="2.75749">
        <ele>835.2779904</ele>
        <time>2019-04-07T11:22:20.579Z</time>
      </trkpt>
      <trkpt lat="44.36993" lon="2.75751">
        <ele>837</ele>
        <time>2019-04-07T11:22:22.579Z</time>
      </trkpt>
      <trkpt lat="44.36987" lon="2.75752">
        <ele>837</ele>
        <time>2019-04-07T11:22:24.579Z</time>
      </trkpt>
      <trkpt lat="44.36981" lon="2.75753">
        <ele>837</ele>
        <time>2019-04-07T11:22:26.579Z</time>
      </trkpt>
      <trkpt lat="44.36976" lon="2.75754">
        <ele>837</ele>
        <time>2019-04-07T11:22:28.579Z</time>
      </trkpt>
      <trkpt lat="44.36971" lon="2.75755">
        <ele>837.1389952</ele>
        <time>2019-04-07T11:22:30.579Z</time>
      </trkpt>
      <trkpt lat="44.36966" lon="2.75755">
        <ele>838</ele>
        <time>2019-04-07T11:22:32.579Z</time>
      </trkpt>
      <trkpt lat="44.36961" lon="2.75753">
        <ele>838</ele>
        <time>2019-04-07T11:22:34.579Z</time>
      </trkpt>
      <trkpt lat="44.36956" lon="2.75752">
        <ele>838</ele>
        <time>2019-04-07T11:22:36.579Z</time>
      </trkpt>
      <trkpt lat="44.36949" lon="2.75753">
        <ele>838</ele>
        <time>2019-04-07T11:22:39.579Z</time>
      </trkpt>
      <trkpt lat="44.36942" lon="2.75752">
        <ele>840</ele>
        <time>2019-04-07T11:22:42.579Z</time>
      </trkpt>
      <trkpt lat="44.36936" lon="2.75748">
        <ele>840</ele>
        <time>2019-04-07T11:22:44.579Z</time>
      </trkpt>
      <trkpt lat="44.36932" lon="2.75744">
        <ele>840</ele>
        <time>2019-04-07T11:22:46.579Z</time>
      </trkpt>
      <trkpt lat="44.36928" lon="2.75737">
        <ele>840</ele>
        <time>2019-04-07T11:22:48.579Z</time>
      </trkpt>
      <trkpt lat="44.36926" lon="2.75729">
        <ele>840.13761944592</ele>
        <time>2019-04-07T11:22:50.579Z</time>
      </trkpt>
      <trkpt lat="44.36924" lon="2.75721">
        <ele>841</ele>
        <time>2019-04-07T11:22:52.579Z</time>
      </trkpt>
      <trkpt lat="44.36921" lon="2.75711">
        <ele>841</ele>
        <time>2019-04-07T11:22:54.579Z</time>
      </trkpt>
      <trkpt lat="44.36919" lon="2.75702">
        <ele>841</ele>
        <time>2019-04-07T11:22:56.579Z</time>
      </trkpt>
      <trkpt lat="44.36917" lon="2.75692">
        <ele>841</ele>
        <time>2019-04-07T11:22:58.579Z</time>
      </trkpt>
      <trkpt lat="44.36916" lon="2.75682">
        <ele>841.1389952</ele>
        <time>2019-04-07T11:23:00.579Z</time>
      </trkpt>
      <trkpt lat="44.36915" lon="2.75673">
        <ele>842</ele>
        <time>2019-04-07T11:23:02.579Z</time>
      </trkpt>
      <trkpt lat="44.36914" lon="2.75662">
        <ele>842</ele>
        <time>2019-04-07T11:23:04.579Z</time>
      </trkpt>
      <trkpt lat="44.36911" lon="2.75652">
        <ele>842</ele>
        <time>2019-04-07T11:23:06.579Z</time>
      </trkpt>
      <trkpt lat="44.36906" lon="2.75645">
        <ele>842</ele>
        <time>2019-04-07T11:23:08.579Z</time>
      </trkpt>
      <trkpt lat="44.36896" lon="2.75648">
        <ele>843</ele>
        <time>2019-04-07T11:23:11.579Z</time>
      </trkpt>
      <trkpt lat="44.3689" lon="2.75656">
        <ele>843</ele>
        <time>2019-04-07T11:23:13.579Z</time>
      </trkpt>
      <trkpt lat="44.36882" lon="2.7566">
        <ele>843</ele>
        <time>2019-04-07T11:23:15.579Z</time>
      </trkpt>
      <trkpt lat="44.36874" lon="2.75657">
        <ele>843</ele>
        <time>2019-04-07T11:23:17.579Z</time>
      </trkpt>
      <trkpt lat="44.36869" lon="2.75648">
        <ele>843</ele>
        <time>2019-04-07T11:23:19.579Z</time>
      </trkpt>
      <trkpt lat="44.36864" lon="2.7564">
        <ele>844</ele>
        <time>2019-04-07T11:23:21.579Z</time>
      </trkpt>
      <trkpt lat="44.36859" lon="2.75632">
        <ele>844</ele>
        <time>2019-04-07T11:23:23.579Z</time>
      </trkpt>
      <trkpt lat="44.36854" lon="2.75625">
        <ele>844</ele>
        <time>2019-04-07T11:23:25.579Z</time>
      </trkpt>
      <trkpt lat="44.3685" lon="2.75618">
        <ele>844</ele>
        <time>2019-04-07T11:23:27.579Z</time>
      </trkpt>
      <trkpt lat="44.36849" lon="2.7561">
        <ele>844</ele>
        <time>2019-04-07T11:23:29.579Z</time>
      </trkpt>
      <trkpt lat="44.3685" lon="2.75602">
        <ele>845</ele>
        <time>2019-04-07T11:23:31.579Z</time>
      </trkpt>
      <trkpt lat="44.36851" lon="2.75593">
        <ele>845</ele>
        <time>2019-04-07T11:23:33.579Z</time>
      </trkpt>
      <trkpt lat="44.36851" lon="2.75585">
        <ele>845</ele>
        <time>2019-04-07T11:23:35.579Z</time>
      </trkpt>
      <trkpt lat="44.36849" lon="2.75581">
        <ele>845</ele>
        <time>2019-04-07T11:23:36.579Z</time>
      </trkpt>
      <trkpt lat="44.36847" lon="2.75579">
        <ele>845</ele>
        <time>2019-04-07T11:23:37.579Z</time>
      </trkpt>
      <trkpt lat="44.36844" lon="2.75578">
        <ele>845</ele>
        <time>2019-04-07T11:23:38.579Z</time>
      </trkpt>
      <trkpt lat="44.36841" lon="2.7558">
        <ele>845</ele>
        <time>2019-04-07T11:23:39.579Z</time>
      </trkpt>
      <trkpt lat="44.36838" lon="2.75584">
        <ele>845</ele>
        <time>2019-04-07T11:23:40.579Z</time>
      </trkpt>
      <trkpt lat="44.36836" lon="2.75587">
        <ele>845</ele>
        <time>2019-04-07T11:23:41.579Z</time>
      </trkpt>
      <trkpt lat="44.36831" lon="2.75595">
        <ele>845</ele>
        <time>2019-04-07T11:23:43.579Z</time>
      </trkpt>
      <trkpt lat="44.36827" lon="2.75603">
        <ele>845</ele>
        <time>2019-04-07T11:23:45.579Z</time>
      </trkpt>
      <trkpt lat="44.36824" lon="2.75612">
        <ele>845</ele>
        <time>2019-04-07T11:23:47.579Z</time>
      </trkpt>
      <trkpt lat="44.36822" lon="2.75623">
        <ele>845</ele>
        <time>2019-04-07T11:23:49.579Z</time>
      </trkpt>
      <trkpt lat="44.3682" lon="2.75634">
        <ele>846</ele>
        <time>2019-04-07T11:23:51.579Z</time>
      </trkpt>
      <trkpt lat="44.36817" lon="2.75645">
        <ele>846</ele>
        <time>2019-04-07T11:23:53.579Z</time>
      </trkpt>
      <trkpt lat="44.36816" lon="2.7565">
        <ele>846</ele>
        <time>2019-04-07T11:23:54.579Z</time>
      </trkpt>
      <trkpt lat="44.36814" lon="2.75656">
        <ele>846</ele>
        <time>2019-04-07T11:23:55.579Z</time>
      </trkpt>
      <trkpt lat="44.36811" lon="2.75667">
        <ele>846</ele>
        <time>2019-04-07T11:23:57.579Z</time>
      </trkpt>
      <trkpt lat="44.36807" lon="2.75678">
        <ele>846</ele>
        <time>2019-04-07T11:23:59.579Z</time>
      </trkpt>
      <trkpt lat="44.368" lon="2.75685">
        <ele>847</ele>
        <time>2019-04-07T11:24:01.579Z</time>
      </trkpt>
      <trkpt lat="44.36792" lon="2.75687">
        <ele>847</ele>
        <time>2019-04-07T11:24:03.579Z</time>
      </trkpt>
      <trkpt lat="44.36786" lon="2.75682">
        <ele>847</ele>
        <time>2019-04-07T11:24:05.579Z</time>
      </trkpt>
      <trkpt lat="44.3678" lon="2.75674">
        <ele>847</ele>
        <time>2019-04-07T11:24:07.579Z</time>
      </trkpt>
      <trkpt lat="44.36773" lon="2.75668">
        <ele>847</ele>
        <time>2019-04-07T11:24:09.579Z</time>
      </trkpt>
      <trkpt lat="44.36766" lon="2.75664">
        <ele>848</ele>
        <time>2019-04-07T11:24:11.579Z</time>
      </trkpt>
      <trkpt lat="44.36763" lon="2.75661">
        <ele>848</ele>
        <time>2019-04-07T11:24:12.579Z</time>
      </trkpt>
      <trkpt lat="44.3676" lon="2.75657">
        <ele>848</ele>
        <time>2019-04-07T11:24:13.579Z</time>
      </trkpt>
      <trkpt lat="44.36757" lon="2.75653">
        <ele>848</ele>
        <time>2019-04-07T11:24:14.579Z</time>
      </trkpt>
      <trkpt lat="44.36755" lon="2.75648">
        <ele>848</ele>
        <time>2019-04-07T11:24:15.579Z</time>
      </trkpt>
      <trkpt lat="44.36753" lon="2.75644">
        <ele>848</ele>
        <time>2019-04-07T11:24:16.579Z</time>
      </trkpt>
      <trkpt lat="44.3675" lon="2.7564">
        <ele>848</ele>
        <time>2019-04-07T11:24:17.579Z</time>
      </trkpt>
      <trkpt lat="44.36747" lon="2.75637">
        <ele>848</ele>
        <time>2019-04-07T11:24:18.579Z</time>
      </trkpt>
      <trkpt lat="44.36743" lon="2.75635">
        <ele>848</ele>
        <time>2019-04-07T11:24:19.579Z</time>
      </trkpt>
      <trkpt lat="44.3674" lon="2.75633">
        <ele>848.12141793579</ele>
        <time>2019-04-07T11:24:20.579Z</time>
      </trkpt>
      <trkpt lat="44.36737" lon="2.75632">
        <ele>849</ele>
        <time>2019-04-07T11:24:21.579Z</time>
      </trkpt>
      <trkpt lat="44.36733" lon="2.7563">
        <ele>849</ele>
        <time>2019-04-07T11:24:22.579Z</time>
      </trkpt>
      <trkpt lat="44.3673" lon="2.75628">
        <ele>849</ele>
        <time>2019-04-07T11:24:23.579Z</time>
      </trkpt>
      <trkpt lat="44.36726" lon="2.75628">
        <ele>849</ele>
        <time>2019-04-07T11:24:24.579Z</time>
      </trkpt>
      <trkpt lat="44.36722" lon="2.75629">
        <ele>849</ele>
        <time>2019-04-07T11:24:25.579Z</time>
      </trkpt>
      <trkpt lat="44.36719" lon="2.75632">
        <ele>849</ele>
        <time>2019-04-07T11:24:26.579Z</time>
      </trkpt>
      <trkpt lat="44.36715" lon="2.75636">
        <ele>849</ele>
        <time>2019-04-07T11:24:27.579Z</time>
      </trkpt>
      <trkpt lat="44.36712" lon="2.7564">
        <ele>849</ele>
        <time>2019-04-07T11:24:28.579Z</time>
      </trkpt>
      <trkpt lat="44.36708" lon="2.75644">
        <ele>849</ele>
        <time>2019-04-07T11:24:29.579Z</time>
      </trkpt>
      <trkpt lat="44.36704" lon="2.75648">
        <ele>849</ele>
        <time>2019-04-07T11:24:30.579Z</time>
      </trkpt>
      <trkpt lat="44.367" lon="2.75651">
        <ele>849</ele>
        <time>2019-04-07T11:24:31.579Z</time>
      </trkpt>
      <trkpt lat="44.36695" lon="2.75653">
        <ele>849</ele>
        <time>2019-04-07T11:24:32.579Z</time>
      </trkpt>
      <trkpt lat="44.36689" lon="2.75663">
        <ele>849</ele>
        <time>2019-04-07T11:24:34.579Z</time>
      </trkpt>
      <trkpt lat="44.36688" lon="2.75676">
        <ele>849</ele>
        <time>2019-04-07T11:24:36.579Z</time>
      </trkpt>
      <trkpt lat="44.36691" lon="2.75687">
        <ele>849</ele>
        <time>2019-04-07T11:24:38.579Z</time>
      </trkpt>
      <trkpt lat="44.36694" lon="2.75697">
        <ele>848.8610048</ele>
        <time>2019-04-07T11:24:40.579Z</time>
      </trkpt>
      <trkpt lat="44.36698" lon="2.75708">
        <ele>848</ele>
        <time>2019-04-07T11:24:42.579Z</time>
      </trkpt>
      <trkpt lat="44.36701" lon="2.75719">
        <ele>848</ele>
        <time>2019-04-07T11:24:44.579Z</time>
      </trkpt>
      <trkpt lat="44.36704" lon="2.7573">
        <ele>848</ele>
        <time>2019-04-07T11:24:46.579Z</time>
      </trkpt>
      <trkpt lat="44.36709" lon="2.75744">
        <ele>848</ele>
        <time>2019-04-07T11:24:48.579Z</time>
      </trkpt>
      <trkpt lat="44.36713" lon="2.75761">
        <ele>847.8610048</ele>
        <time>2019-04-07T11:24:50.579Z</time>
      </trkpt>
      <trkpt lat="44.36715" lon="2.75778">
        <ele>847</ele>
        <time>2019-04-07T11:24:52.579Z</time>
      </trkpt>
      <trkpt lat="44.36712" lon="2.7579">
        <ele>847</ele>
        <time>2019-04-07T11:24:54.579Z</time>
      </trkpt>
      <trkpt lat="44.36701" lon="2.75797">
        <ele>847</ele>
        <time>2019-04-07T11:24:57.579Z</time>
      </trkpt>
      <trkpt lat="44.3669" lon="2.758">
        <ele>846.8610048</ele>
        <time>2019-04-07T11:25:00.579Z</time>
      </trkpt>
      <trkpt lat="44.36679" lon="2.75804">
        <ele>846</ele>
        <time>2019-04-07T11:25:03.579Z</time>
      </trkpt>
      <trkpt lat="44.36671" lon="2.7581">
        <ele>846</ele>
        <time>2019-04-07T11:25:05.579Z</time>
      </trkpt>
      <trkpt lat="44.36664" lon="2.75819">
        <ele>846</ele>
        <time>2019-04-07T11:25:07.579Z</time>
      </trkpt>
      <trkpt lat="44.36658" lon="2.75829">
        <ele>846</ele>
        <time>2019-04-07T11:25:09.579Z</time>
      </trkpt>
      <trkpt lat="44.36656" lon="2.75841">
        <ele>847</ele>
        <time>2019-04-07T11:25:11.579Z</time>
      </trkpt>
      <trkpt lat="44.3666" lon="2.75854">
        <ele>847</ele>
        <time>2019-04-07T11:25:14.579Z</time>
      </trkpt>
      <trkpt lat="44.36664" lon="2.75866">
        <ele>847</ele>
        <time>2019-04-07T11:25:16.579Z</time>
      </trkpt>
      <trkpt lat="44.36662" lon="2.75881">
        <ele>847</ele>
        <time>2019-04-07T11:25:19.579Z</time>
      </trkpt>
      <trkpt lat="44.36657" lon="2.75893">
        <ele>848</ele>
        <time>2019-04-07T11:25:22.579Z</time>
      </trkpt>
      <trkpt lat="44.36651" lon="2.75903">
        <ele>848</ele>
        <time>2019-04-07T11:25:25.579Z</time>
      </trkpt>
      <trkpt lat="44.36641" lon="2.75914">
        <ele>848</ele>
        <time>2019-04-07T11:25:29.579Z</time>
      </trkpt>
      <trkpt lat="44.36632" lon="2.75923">
        <ele>850</ele>
        <time>2019-04-07T11:25:33.579Z</time>
      </trkpt>
      <trkpt lat="44.36622" lon="2.7593">
        <ele>850</ele>
        <time>2019-04-07T11:25:37.579Z</time>
      </trkpt>
      <trkpt lat="44.36613" lon="2.75938">
        <ele>853</ele>
        <time>2019-04-07T11:25:41.579Z</time>
      </trkpt>
      <trkpt lat="44.36604" lon="2.75942">
        <ele>853.1389952</ele>
        <time>2019-04-07T11:25:45.579Z</time>
      </trkpt>
      <trkpt lat="44.36595" lon="2.75946">
        <ele>854</ele>
        <time>2019-04-07T11:25:49.579Z</time>
      </trkpt>
      <trkpt lat="44.36587" lon="2.75947">
        <ele>856</ele>
        <time>2019-04-07T11:25:53.579Z</time>
      </trkpt>
      <trkpt lat="44.3658" lon="2.75951">
        <ele>857</ele>
        <time>2019-04-07T11:25:57.579Z</time>
      </trkpt>
      <trkpt lat="44.36573" lon="2.75956">
        <ele>859</ele>
        <time>2019-04-07T11:26:01.579Z</time>
      </trkpt>
      <trkpt lat="44.36564" lon="2.75963">
        <ele>860</ele>
        <time>2019-04-07T11:26:07.579Z</time>
      </trkpt>
      <trkpt lat="44.36557" lon="2.75969">
        <ele>861</ele>
        <time>2019-04-07T11:26:14.579Z</time>
      </trkpt>
      <trkpt lat="44.3655" lon="2.75976">
        <ele>861</ele>
        <time>2019-04-07T11:26:19.579Z</time>
      </trkpt>
      <trkpt lat="44.36544" lon="2.75984">
        <ele>862</ele>
        <time>2019-04-07T11:26:24.579Z</time>
      </trkpt>
      <trkpt lat="44.36539" lon="2.75992">
        <ele>862</ele>
        <time>2019-04-07T11:26:28.579Z</time>
      </trkpt>
      <trkpt lat="44.36536" lon="2.76001">
        <ele>865</ele>
        <time>2019-04-07T11:26:32.579Z</time>
      </trkpt>
      <trkpt lat="44.36534" lon="2.76013">
        <ele>867</ele>
        <time>2019-04-07T11:26:38.579Z</time>
      </trkpt>
      <trkpt lat="44.36526" lon="2.76024">
        <ele>868.1389952</ele>
        <time>2019-04-07T11:26:45.579Z</time>
      </trkpt>
      <trkpt lat="44.36521" lon="2.76031">
        <ele>869</ele>
        <time>2019-04-07T11:26:49.579Z</time>
      </trkpt>
      <trkpt lat="44.36517" lon="2.76038">
        <ele>870</ele>
        <time>2019-04-07T11:26:53.579Z</time>
      </trkpt>
      <trkpt lat="44.36512" lon="2.76046">
        <ele>870</ele>
        <time>2019-04-07T11:26:57.579Z</time>
      </trkpt>
      <trkpt lat="44.36506" lon="2.76059">
        <ele>871</ele>
        <time>2019-04-07T11:27:04.579Z</time>
      </trkpt>
      <trkpt lat="44.36499" lon="2.7607">
        <ele>873</ele>
        <time>2019-04-07T11:27:12.579Z</time>
      </trkpt>
      <trkpt lat="44.36493" lon="2.76081">
        <ele>873</ele>
        <time>2019-04-07T11:27:17.579Z</time>
      </trkpt>
      <trkpt lat="44.36488" lon="2.76094">
        <ele>875</ele>
        <time>2019-04-07T11:27:24.579Z</time>
      </trkpt>
      <trkpt lat="44.36482" lon="2.76106">
        <ele>878</ele>
        <time>2019-04-07T11:27:32.579Z</time>
      </trkpt>
      <trkpt lat="44.36477" lon="2.76118">
        <ele>879</ele>
        <time>2019-04-07T11:27:38.579Z</time>
      </trkpt>
      <trkpt lat="44.36473" lon="2.76133">
        <ele>880</ele>
        <time>2019-04-07T11:27:43.579Z</time>
      </trkpt>
      <trkpt lat="44.36475" lon="2.76148">
        <ele>881</ele>
        <time>2019-04-07T11:27:51.579Z</time>
      </trkpt>
      <trkpt lat="44.36482" lon="2.76161">
        <ele>881</ele>
        <time>2019-04-07T11:27:57.579Z</time>
      </trkpt>
      <trkpt lat="44.36495" lon="2.76154">
        <ele>881</ele>
        <time>2019-04-07T11:28:04.579Z</time>
      </trkpt>
      <trkpt lat="44.36504" lon="2.76148">
        <ele>881</ele>
        <time>2019-04-07T11:28:07.579Z</time>
      </trkpt>
      <trkpt lat="44.36514" lon="2.76147">
        <ele>879</ele>
        <time>2019-04-07T11:28:11.579Z</time>
      </trkpt>
      <trkpt lat="44.3652" lon="2.76159">
        <ele>879</ele>
        <time>2019-04-07T11:28:14.579Z</time>
      </trkpt>
      <trkpt lat="44.3653" lon="2.76165">
        <ele>876</ele>
        <time>2019-04-07T11:28:17.579Z</time>
      </trkpt>
      <trkpt lat="44.36539" lon="2.76174">
        <ele>875.8610048</ele>
        <time>2019-04-07T11:28:20.579Z</time>
      </trkpt>
      <trkpt lat="44.36549" lon="2.76185">
        <ele>875</ele>
        <time>2019-04-07T11:28:23.579Z</time>
      </trkpt>
      <trkpt lat="44.3656" lon="2.76187">
        <ele>874</ele>
        <time>2019-04-07T11:28:28.579Z</time>
      </trkpt>
      <trkpt lat="44.36575" lon="2.76184">
        <ele>871</ele>
        <time>2019-04-07T11:28:32.579Z</time>
      </trkpt>
      <trkpt lat="44.36585" lon="2.76178">
        <ele>870.8610048</ele>
        <time>2019-04-07T11:28:35.579Z</time>
      </trkpt>
      <trkpt lat="44.36595" lon="2.76173">
        <ele>870</ele>
        <time>2019-04-07T11:28:39.579Z</time>
      </trkpt>
      <trkpt lat="44.36607" lon="2.76173">
        <ele>871</ele>
        <time>2019-04-07T11:28:45.579Z</time>
      </trkpt>
      <trkpt lat="44.36617" lon="2.7617">
        <ele>871</ele>
        <time>2019-04-07T11:28:51.579Z</time>
      </trkpt>
      <trkpt lat="44.36624" lon="2.76155">
        <ele>871</ele>
        <time>2019-04-07T11:28:55.579Z</time>
      </trkpt>
      <trkpt lat="44.3663" lon="2.76137">
        <ele>871</ele>
        <time>2019-04-07T11:28:57.579Z</time>
      </trkpt>
      <trkpt lat="44.36637" lon="2.76116">
        <ele>871</ele>
        <time>2019-04-07T11:28:59.579Z</time>
      </trkpt>
      <trkpt lat="44.36644" lon="2.76098">
        <ele>865</ele>
        <time>2019-04-07T11:29:01.579Z</time>
      </trkpt>
      <trkpt lat="44.36651" lon="2.7608">
        <ele>864</ele>
        <time>2019-04-07T11:29:03.579Z</time>
      </trkpt>
      <trkpt lat="44.36657" lon="2.76061">
        <ele>863.7220096</ele>
        <time>2019-04-07T11:29:05.579Z</time>
      </trkpt>
      <trkpt lat="44.36664" lon="2.76041">
        <ele>861</ele>
        <time>2019-04-07T11:29:07.579Z</time>
      </trkpt>
      <trkpt lat="44.36671" lon="2.76025">
        <ele>860.8610048</ele>
        <time>2019-04-07T11:29:09.579Z</time>
      </trkpt>
      <trkpt lat="44.36679" lon="2.76009">
        <ele>859</ele>
        <time>2019-04-07T11:29:11.579Z</time>
      </trkpt>
      <trkpt lat="44.3669" lon="2.75995">
        <ele>856.8610048</ele>
        <time>2019-04-07T11:29:13.579Z</time>
      </trkpt>
      <trkpt lat="44.36701" lon="2.75983">
        <ele>855.8610048</ele>
        <time>2019-04-07T11:29:15.579Z</time>
      </trkpt>
      <trkpt lat="44.36713" lon="2.75974">
        <ele>855</ele>
        <time>2019-04-07T11:29:17.579Z</time>
      </trkpt>
      <trkpt lat="44.36726" lon="2.75967">
        <ele>853.8610048</ele>
        <time>2019-04-07T11:29:19.579Z</time>
      </trkpt>
      <trkpt lat="44.3674" lon="2.75962">
        <ele>853</ele>
        <time>2019-04-07T11:29:21.579Z</time>
      </trkpt>
      <trkpt lat="44.36755" lon="2.75959">
        <ele>852.8610048</ele>
        <time>2019-04-07T11:29:23.579Z</time>
      </trkpt>
      <trkpt lat="44.36771" lon="2.75956">
        <ele>850.58714166223</ele>
        <time>2019-04-07T11:29:25.579Z</time>
      </trkpt>
      <trkpt lat="44.36789" lon="2.75952">
        <ele>847.8610048</ele>
        <time>2019-04-07T11:29:27.579Z</time>
      </trkpt>
      <trkpt lat="44.36806" lon="2.75948">
        <ele>846</ele>
        <time>2019-04-07T11:29:29.579Z</time>
      </trkpt>
      <trkpt lat="44.36821" lon="2.75956">
        <ele>845</ele>
        <time>2019-04-07T11:29:31.579Z</time>
      </trkpt>
      <trkpt lat="44.36828" lon="2.75976">
        <ele>844.8610048</ele>
        <time>2019-04-07T11:29:33.579Z</time>
      </trkpt>
      <trkpt lat="44.36828" lon="2.75996">
        <ele>844</ele>
        <time>2019-04-07T11:29:35.579Z</time>
      </trkpt>
      <trkpt lat="44.36826" lon="2.76016">
        <ele>844</ele>
        <time>2019-04-07T11:29:37.579Z</time>
      </trkpt>
      <trkpt lat="44.36823" lon="2.76036">
        <ele>843.7220096</ele>
        <time>2019-04-07T11:29:39.579Z</time>
      </trkpt>
      <trkpt lat="44.36824" lon="2.76054">
        <ele>841</ele>
        <time>2019-04-07T11:29:41.579Z</time>
      </trkpt>
      <trkpt lat="44.36833" lon="2.76064">
        <ele>841</ele>
        <time>2019-04-07T11:29:44.579Z</time>
      </trkpt>
      <trkpt lat="44.36845" lon="2.76068">
        <ele>841</ele>
        <time>2019-04-07T11:29:47.579Z</time>
      </trkpt>
      <trkpt lat="44.36855" lon="2.76059">
        <ele>841</ele>
        <time>2019-04-07T11:29:49.579Z</time>
      </trkpt>
      <trkpt lat="44.36861" lon="2.76042">
        <ele>840</ele>
        <time>2019-04-07T11:29:51.579Z</time>
      </trkpt>
      <trkpt lat="44.36867" lon="2.76025">
        <ele>840</ele>
        <time>2019-04-07T11:29:53.579Z</time>
      </trkpt>
      <trkpt lat="44.36873" lon="2.76008">
        <ele>840</ele>
        <time>2019-04-07T11:29:55.579Z</time>
      </trkpt>
      <trkpt lat="44.36878" lon="2.75991">
        <ele>840</ele>
        <time>2019-04-07T11:29:57.579Z</time>
      </trkpt>
      <trkpt lat="44.36884" lon="2.75973">
        <ele>840</ele>
        <time>2019-04-07T11:29:59.579Z</time>
      </trkpt>
      <trkpt lat="44.3689" lon="2.75955">
        <ele>837</ele>
        <time>2019-04-07T11:30:01.579Z</time>
      </trkpt>
      <trkpt lat="44.36901" lon="2.75943">
        <ele>837</ele>
        <time>2019-04-07T11:30:03.579Z</time>
      </trkpt>
      <trkpt lat="44.36913" lon="2.75936">
        <ele>836.7220096</ele>
        <time>2019-04-07T11:30:05.579Z</time>
      </trkpt>
      <trkpt lat="44.36926" lon="2.75936">
        <ele>835</ele>
        <time>2019-04-07T11:30:07.579Z</time>
      </trkpt>
      <trkpt lat="44.3694" lon="2.75937">
        <ele>835</ele>
        <time>2019-04-07T11:30:09.579Z</time>
      </trkpt>
      <trkpt lat="44.36953" lon="2.75936">
        <ele>834</ele>
        <time>2019-04-07T11:30:11.579Z</time>
      </trkpt>
      <trkpt lat="44.36966" lon="2.75936">
        <ele>834</ele>
        <time>2019-04-07T11:30:13.579Z</time>
      </trkpt>
      <trkpt lat="44.36979" lon="2.75936">
        <ele>833.8610048</ele>
        <time>2019-04-07T11:30:15.579Z</time>
      </trkpt>
      <trkpt lat="44.36992" lon="2.75937">
        <ele>833</ele>
        <time>2019-04-07T11:30:17.579Z</time>
      </trkpt>
      <trkpt lat="44.37006" lon="2.75937">
        <ele>833</ele>
        <time>2019-04-07T11:30:19.579Z</time>
      </trkpt>
      <trkpt lat="44.37019" lon="2.75935">
        <ele>832</ele>
        <time>2019-04-07T11:30:21.579Z</time>
      </trkpt>
      <trkpt lat="44.37031" lon="2.75929">
        <ele>832</ele>
        <time>2019-04-07T11:30:23.579Z</time>
      </trkpt>
      <trkpt lat="44.37045" lon="2.75923">
        <ele>832</ele>
        <time>2019-04-07T11:30:25.579Z</time>
      </trkpt>
      <trkpt lat="44.37061" lon="2.75918">
        <ele>832</ele>
        <time>2019-04-07T11:30:27.579Z</time>
      </trkpt>
      <trkpt lat="44.37076" lon="2.75913">
        <ele>832</ele>
        <time>2019-04-07T11:30:29.579Z</time>
      </trkpt>
      <trkpt lat="44.3709" lon="2.75911">
        <ele>823.4440192</ele>
        <time>2019-04-07T11:30:31.579Z</time>
      </trkpt>
      <trkpt lat="44.37102" lon="2.7591">
        <ele>820</ele>
        <time>2019-04-07T11:30:33.579Z</time>
      </trkpt>
      <trkpt lat="44.37116" lon="2.75909">
        <ele>818.8610048</ele>
        <time>2019-04-07T11:30:35.579Z</time>
      </trkpt>
      <trkpt lat="44.37132" lon="2.75906">
        <ele>817</ele>
        <time>2019-04-07T11:30:37.579Z</time>
      </trkpt>
      <trkpt lat="44.37148" lon="2.75904">
        <ele>815.7220096</ele>
        <time>2019-04-07T11:30:39.579Z</time>
      </trkpt>
      <trkpt lat="44.37163" lon="2.75898">
        <ele>813</ele>
        <time>2019-04-07T11:30:41.579Z</time>
      </trkpt>
      <trkpt lat="44.3718" lon="2.75893">
        <ele>812.8610048</ele>
        <time>2019-04-07T11:30:43.579Z</time>
      </trkpt>
      <trkpt lat="44.37196" lon="2.75889">
        <ele>811</ele>
        <time>2019-04-07T11:30:45.579Z</time>
      </trkpt>
      <trkpt lat="44.37212" lon="2.75886">
        <ele>810.7220096</ele>
        <time>2019-04-07T11:30:47.579Z</time>
      </trkpt>
      <trkpt lat="44.37228" lon="2.75886">
        <ele>808.1389952</ele>
        <time>2019-04-07T11:30:49.579Z</time>
      </trkpt>
      <trkpt lat="44.37243" lon="2.75892">
        <ele>810</ele>
        <time>2019-04-07T11:30:51.579Z</time>
      </trkpt>
      <trkpt lat="44.37251" lon="2.75904">
        <ele>810</ele>
        <time>2019-04-07T11:30:53.579Z</time>
      </trkpt>
      <trkpt lat="44.37253" lon="2.75917">
        <ele>810</ele>
        <time>2019-04-07T11:30:55.579Z</time>
      </trkpt>
      <trkpt lat="44.37247" lon="2.7593">
        <ele>810</ele>
        <time>2019-04-07T11:30:58.579Z</time>
      </trkpt>
      <trkpt lat="44.37243" lon="2.7594">
        <ele>813</ele>
        <time>2019-04-07T11:31:01.579Z</time>
      </trkpt>
      <trkpt lat="44.3724" lon="2.75952">
        <ele>813.1389952</ele>
        <time>2019-04-07T11:31:05.579Z</time>
      </trkpt>
      <trkpt lat="44.37237" lon="2.75963">
        <ele>814</ele>
        <time>2019-04-07T11:31:09.579Z</time>
      </trkpt>
      <trkpt lat="44.37232" lon="2.75973">
        <ele>816</ele>
        <time>2019-04-07T11:31:14.579Z</time>
      </trkpt>
      <trkpt lat="44.37226" lon="2.75982">
        <ele>817</ele>
        <time>2019-04-07T11:31:18.579Z</time>
      </trkpt>
      <trkpt lat="44.3722" lon="2.75988">
        <ele>818</ele>
        <time>2019-04-07T11:31:21.579Z</time>
      </trkpt>
      <trkpt lat="44.37214" lon="2.75995">
        <ele>818</ele>
        <time>2019-04-07T11:31:24.579Z</time>
      </trkpt>
      <trkpt lat="44.37208" lon="2.76003">
        <ele>820</ele>
        <time>2019-04-07T11:31:28.579Z</time>
      </trkpt>
      <trkpt lat="44.37202" lon="2.76008">
        <ele>821</ele>
        <time>2019-04-07T11:31:31.579Z</time>
      </trkpt>
      <trkpt lat="44.37195" lon="2.76014">
        <ele>821.1389952</ele>
        <time>2019-04-07T11:31:35.579Z</time>
      </trkpt>
      <trkpt lat="44.37188" lon="2.7602">
        <ele>822</ele>
        <time>2019-04-07T11:31:39.579Z</time>
      </trkpt>
      <trkpt lat="44.37181" lon="2.76027">
        <ele>823</ele>
        <time>2019-04-07T11:31:43.579Z</time>
      </trkpt>
      <trkpt lat="44.37176" lon="2.76036">
        <ele>823</ele>
        <time>2019-04-07T11:31:47.579Z</time>
      </trkpt>
      <trkpt lat="44.37177" lon="2.76048">
        <ele>825</ele>
        <time>2019-04-07T11:31:52.579Z</time>
      </trkpt>
      <trkpt lat="44.37183" lon="2.76058">
        <ele>825</ele>
        <time>2019-04-07T11:31:58.579Z</time>
      </trkpt>
      <trkpt lat="44.3719" lon="2.76066">
        <ele>827</ele>
        <time>2019-04-07T11:32:02.579Z</time>
      </trkpt>
      <trkpt lat="44.37195" lon="2.76074">
        <ele>828</ele>
        <time>2019-04-07T11:32:06.579Z</time>
      </trkpt>
      <trkpt lat="44.37201" lon="2.76081">
        <ele>828.1389952</ele>
        <time>2019-04-07T11:32:10.579Z</time>
      </trkpt>
      <trkpt lat="44.37204" lon="2.76091">
        <ele>829</ele>
        <time>2019-04-07T11:32:14.579Z</time>
      </trkpt>
      <trkpt lat="44.37208" lon="2.76103">
        <ele>829</ele>
        <time>2019-04-07T11:32:19.579Z</time>
      </trkpt>
      <trkpt lat="44.37209" lon="2.76113">
        <ele>831</ele>
        <time>2019-04-07T11:32:23.579Z</time>
      </trkpt>
      <trkpt lat="44.3721" lon="2.76125">
        <ele>831</ele>
        <time>2019-04-07T11:32:28.579Z</time>
      </trkpt>
      <trkpt lat="44.37212" lon="2.76138">
        <ele>834</ele>
        <time>2019-04-07T11:32:33.579Z</time>
      </trkpt>
      <trkpt lat="44.37213" lon="2.76153">
        <ele>835</ele>
        <time>2019-04-07T11:32:38.579Z</time>
      </trkpt>
      <trkpt lat="44.37217" lon="2.76163">
        <ele>835</ele>
        <time>2019-04-07T11:32:41.579Z</time>
      </trkpt>
      <trkpt lat="44.37222" lon="2.76176">
        <ele>835</ele>
        <time>2019-04-07T11:32:47.579Z</time>
      </trkpt>
      <trkpt lat="44.37228" lon="2.76185">
        <ele>837</ele>
        <time>2019-04-07T11:32:51.579Z</time>
      </trkpt>
      <trkpt lat="44.37238" lon="2.76191">
        <ele>839</ele>
        <time>2019-04-07T11:32:56.579Z</time>
      </trkpt>
      <trkpt lat="44.37242" lon="2.762">
        <ele>839</ele>
        <time>2019-04-07T11:33:00.579Z</time>
      </trkpt>
      <trkpt lat="44.37241" lon="2.76212">
        <ele>839</ele>
        <time>2019-04-07T11:33:04.579Z</time>
      </trkpt>
      <trkpt lat="44.37239" lon="2.76225">
        <ele>839</ele>
        <time>2019-04-07T11:33:09.579Z</time>
      </trkpt>
      <trkpt lat="44.37236" lon="2.76236">
        <ele>842</ele>
        <time>2019-04-07T11:33:14.579Z</time>
      </trkpt>
      <trkpt lat="44.37234" lon="2.76249">
        <ele>844.1389952</ele>
        <time>2019-04-07T11:33:20.579Z</time>
      </trkpt>
      <trkpt lat="44.37233" lon="2.76259">
        <ele>845</ele>
        <time>2019-04-07T11:33:24.579Z</time>
      </trkpt>
      <trkpt lat="44.37233" lon="2.76269">
        <ele>846</ele>
        <time>2019-04-07T11:33:28.579Z</time>
      </trkpt>
      <trkpt lat="44.37233" lon="2.76281">
        <ele>847</ele>
        <time>2019-04-07T11:33:33.579Z</time>
      </trkpt>
      <trkpt lat="44.37233" lon="2.76294">
        <ele>847</ele>
        <time>2019-04-07T11:33:39.579Z</time>
      </trkpt>
      <trkpt lat="44.37232" lon="2.76308">
        <ele>849</ele>
        <time>2019-04-07T11:33:46.579Z</time>
      </trkpt>
      <trkpt lat="44.3723" lon="2.7632">
        <ele>849.2779904</ele>
        <time>2019-04-07T11:33:50.579Z</time>
      </trkpt>
      <trkpt lat="44.37227" lon="2.76332">
        <ele>851</ele>
        <time>2019-04-07T11:33:56.579Z</time>
      </trkpt>
      <trkpt lat="44.37222" lon="2.76343">
        <ele>853</ele>
        <time>2019-04-07T11:34:02.579Z</time>
      </trkpt>
      <trkpt lat="44.37217" lon="2.76353">
        <ele>854</ele>
        <time>2019-04-07T11:34:07.579Z</time>
      </trkpt>
      <trkpt lat="44.37211" lon="2.76362">
        <ele>856</ele>
        <time>2019-04-07T11:34:11.579Z</time>
      </trkpt>
      <trkpt lat="44.37205" lon="2.76372">
        <ele>856</ele>
        <time>2019-04-07T11:34:16.579Z</time>
      </trkpt>
      <trkpt lat="44.372" lon="2.76381">
        <ele>856.1389952</ele>
        <time>2019-04-07T11:34:20.579Z</time>
      </trkpt>
      <trkpt lat="44.37196" lon="2.7639">
        <ele>857</ele>
        <time>2019-04-07T11:34:24.579Z</time>
      </trkpt>
      <trkpt lat="44.37192" lon="2.764">
        <ele>857</ele>
        <time>2019-04-07T11:34:27.579Z</time>
      </trkpt>
      <trkpt lat="44.3719" lon="2.76414">
        <ele>857</ele>
        <time>2019-04-07T11:34:30.579Z</time>
      </trkpt>
      <trkpt lat="44.37186" lon="2.76428">
        <ele>857</ele>
        <time>2019-04-07T11:34:33.579Z</time>
      </trkpt>
      <trkpt lat="44.37183" lon="2.76439">
        <ele>857</ele>
        <time>2019-04-07T11:34:36.579Z</time>
      </trkpt>
      <trkpt lat="44.37179" lon="2.76457">
        <ele>857</ele>
        <time>2019-04-07T11:34:39.579Z</time>
      </trkpt>
      <trkpt lat="44.37174" lon="2.76473">
        <ele>856</ele>
        <time>2019-04-07T11:34:42.579Z</time>
      </trkpt>
      <trkpt lat="44.3717" lon="2.76485">
        <ele>856</ele>
        <time>2019-04-07T11:34:44.579Z</time>
      </trkpt>
      <trkpt lat="44.37165" lon="2.76503">
        <ele>856</ele>
        <time>2019-04-07T11:34:47.579Z</time>
      </trkpt>
      <trkpt lat="44.37162" lon="2.7652">
        <ele>855.8610048</ele>
        <time>2019-04-07T11:34:50.579Z</time>
      </trkpt>
      <trkpt lat="44.37159" lon="2.76538">
        <ele>855</ele>
        <time>2019-04-07T11:34:53.579Z</time>
      </trkpt>
      <trkpt lat="44.37153" lon="2.76551">
        <ele>855</ele>
        <time>2019-04-07T11:34:56.579Z</time>
      </trkpt>
      <trkpt lat="44.37143" lon="2.76552">
        <ele>855</ele>
        <time>2019-04-07T11:34:59.579Z</time>
      </trkpt>
      <trkpt lat="44.37133" lon="2.76551">
        <ele>855</ele>
        <time>2019-04-07T11:35:05.579Z</time>
      </trkpt>
      <trkpt lat="44.37136" lon="2.76558">
        <ele>856</ele>
        <time>2019-04-07T11:36:25.579Z</time>
      </trkpt>
      <trkpt lat="44.37131" lon="2.76553">
        <ele>856</ele>
        <time>2019-04-07T11:36:51.579Z</time>
      </trkpt>
      <trkpt lat="44.37124" lon="2.76546">
        <ele>856</ele>
        <time>2019-04-07T11:36:55.579Z</time>
      </trkpt>
      <trkpt lat="44.37116" lon="2.76539">
        <ele>856</ele>
        <time>2019-04-07T11:36:58.579Z</time>
      </trkpt>
      <trkpt lat="44.37106" lon="2.76533">
        <ele>858</ele>
        <time>2019-04-07T11:37:02.579Z</time>
      </trkpt>
      <trkpt lat="44.37096" lon="2.76528">
        <ele>858</ele>
        <time>2019-04-07T11:37:05.579Z</time>
      </trkpt>
      <trkpt lat="44.37086" lon="2.76525">
        <ele>858</ele>
        <time>2019-04-07T11:37:08.579Z</time>
      </trkpt>
      <trkpt lat="44.37076" lon="2.76522">
        <ele>860</ele>
        <time>2019-04-07T11:37:11.579Z</time>
      </trkpt>
      <trkpt lat="44.37067" lon="2.76519">
        <ele>860</ele>
        <time>2019-04-07T11:37:14.579Z</time>
      </trkpt>
      <trkpt lat="44.37058" lon="2.76514">
        <ele>860</ele>
        <time>2019-04-07T11:37:17.579Z</time>
      </trkpt>
      <trkpt lat="44.37049" lon="2.76511">
        <ele>860.2779904</ele>
        <time>2019-04-07T11:37:20.579Z</time>
      </trkpt>
      <trkpt lat="44.37039" lon="2.76511">
        <ele>862</ele>
        <time>2019-04-07T11:37:23.579Z</time>
      </trkpt>
      <trkpt lat="44.37031" lon="2.76508">
        <ele>862</ele>
        <time>2019-04-07T11:37:26.579Z</time>
      </trkpt>
      <trkpt lat="44.37023" lon="2.76504">
        <ele>862</ele>
        <time>2019-04-07T11:37:29.579Z</time>
      </trkpt>
      <trkpt lat="44.37014" lon="2.765">
        <ele>865</ele>
        <time>2019-04-07T11:37:32.579Z</time>
      </trkpt>
      <trkpt lat="44.37005" lon="2.76498">
        <ele>865.2779904</ele>
        <time>2019-04-07T11:37:35.579Z</time>
      </trkpt>
      <trkpt lat="44.36995" lon="2.76496">
        <ele>867</ele>
        <time>2019-04-07T11:37:39.579Z</time>
      </trkpt>
      <trkpt lat="44.36985" lon="2.76496">
        <ele>868</ele>
        <time>2019-04-07T11:37:42.579Z</time>
      </trkpt>
      <trkpt lat="44.36977" lon="2.76495">
        <ele>868.1389952</ele>
        <time>2019-04-07T11:37:45.579Z</time>
      </trkpt>
      <trkpt lat="44.36969" lon="2.76493">
        <ele>869</ele>
        <time>2019-04-07T11:37:48.579Z</time>
      </trkpt>
      <trkpt lat="44.36959" lon="2.76491">
        <ele>870</ele>
        <time>2019-04-07T11:37:51.579Z</time>
      </trkpt>
      <trkpt lat="44.36951" lon="2.76489">
        <ele>870</ele>
        <time>2019-04-07T11:37:54.579Z</time>
      </trkpt>
      <trkpt lat="44.36942" lon="2.76488">
        <ele>870</ele>
        <time>2019-04-07T11:37:57.579Z</time>
      </trkpt>
      <trkpt lat="44.36933" lon="2.76486">
        <ele>870.26060198593</ele>
        <time>2019-04-07T11:38:00.579Z</time>
      </trkpt>
      <trkpt lat="44.36925" lon="2.76484">
        <ele>872</ele>
        <time>2019-04-07T11:38:03.579Z</time>
      </trkpt>
      <trkpt lat="44.36918" lon="2.76481">
        <ele>872</ele>
        <time>2019-04-07T11:38:06.579Z</time>
      </trkpt>
      <trkpt lat="44.3691" lon="2.76478">
        <ele>872</ele>
        <time>2019-04-07T11:38:09.579Z</time>
      </trkpt>
      <trkpt lat="44.36901" lon="2.76476">
        <ele>873</ele>
        <time>2019-04-07T11:38:12.579Z</time>
      </trkpt>
      <trkpt lat="44.36893" lon="2.76472">
        <ele>873</ele>
        <time>2019-04-07T11:38:15.579Z</time>
      </trkpt>
      <trkpt lat="44.36887" lon="2.76466">
        <ele>873</ele>
        <time>2019-04-07T11:38:18.579Z</time>
      </trkpt>
      <trkpt lat="44.36882" lon="2.76459">
        <ele>875</ele>
        <time>2019-04-07T11:38:21.579Z</time>
      </trkpt>
      <trkpt lat="44.36876" lon="2.7645">
        <ele>875</ele>
        <time>2019-04-07T11:38:26.579Z</time>
      </trkpt>
      <trkpt lat="44.36869" lon="2.76444">
        <ele>878</ele>
        <time>2019-04-07T11:38:32.579Z</time>
      </trkpt>
      <trkpt lat="44.36861" lon="2.76434">
        <ele>880</ele>
        <time>2019-04-07T11:38:39.579Z</time>
      </trkpt>
      <trkpt lat="44.36851" lon="2.76426">
        <ele>881.1389952</ele>
        <time>2019-04-07T11:38:45.579Z</time>
      </trkpt>
      <trkpt lat="44.36845" lon="2.76416">
        <ele>882</ele>
        <time>2019-04-07T11:38:49.579Z</time>
      </trkpt>
      <trkpt lat="44.36839" lon="2.76409">
        <ele>883</ele>
        <time>2019-04-07T11:38:54.579Z</time>
      </trkpt>
      <trkpt lat="44.36829" lon="2.76401">
        <ele>885</ele>
        <time>2019-04-07T11:39:01.579Z</time>
      </trkpt>
      <trkpt lat="44.36821" lon="2.76392">
        <ele>885</ele>
        <time>2019-04-07T11:39:07.579Z</time>
      </trkpt>
      <trkpt lat="44.36812" lon="2.76383">
        <ele>887</ele>
        <time>2019-04-07T11:39:13.579Z</time>
      </trkpt>
      <trkpt lat="44.36802" lon="2.76377">
        <ele>887</ele>
        <time>2019-04-07T11:39:18.579Z</time>
      </trkpt>
      <trkpt lat="44.36793" lon="2.7637">
        <ele>889</ele>
        <time>2019-04-07T11:39:23.579Z</time>
      </trkpt>
      <trkpt lat="44.36785" lon="2.7637">
        <ele>889</ele>
        <time>2019-04-07T11:39:27.579Z</time>
      </trkpt>
      <trkpt lat="44.36777" lon="2.76375">
        <ele>891</ele>
        <time>2019-04-07T11:39:31.579Z</time>
      </trkpt>
      <trkpt lat="44.36768" lon="2.7638">
        <ele>891</ele>
        <time>2019-04-07T11:39:35.579Z</time>
      </trkpt>
      <trkpt lat="44.36761" lon="2.76388">
        <ele>891</ele>
        <time>2019-04-07T11:39:39.579Z</time>
      </trkpt>
      <trkpt lat="44.36752" lon="2.76397">
        <ele>892</ele>
        <time>2019-04-07T11:39:43.579Z</time>
      </trkpt>
      <trkpt lat="44.36742" lon="2.76405">
        <ele>892</ele>
        <time>2019-04-07T11:39:47.579Z</time>
      </trkpt>
      <trkpt lat="44.36732" lon="2.7641">
        <ele>892.1389952</ele>
        <time>2019-04-07T11:39:50.579Z</time>
      </trkpt>
      <trkpt lat="44.36723" lon="2.76415">
        <ele>893</ele>
        <time>2019-04-07T11:39:53.579Z</time>
      </trkpt>
      <trkpt lat="44.36713" lon="2.76419">
        <ele>893</ele>
        <time>2019-04-07T11:39:56.579Z</time>
      </trkpt>
      <trkpt lat="44.36701" lon="2.76426">
        <ele>893</ele>
        <time>2019-04-07T11:40:00.579Z</time>
      </trkpt>
      <trkpt lat="44.36692" lon="2.76432">
        <ele>893</ele>
        <time>2019-04-07T11:40:03.579Z</time>
      </trkpt>
      <trkpt lat="44.36681" lon="2.7644">
        <ele>893</ele>
        <time>2019-04-07T11:40:07.579Z</time>
      </trkpt>
      <trkpt lat="44.36672" lon="2.76446">
        <ele>893.2779904</ele>
        <time>2019-04-07T11:40:10.579Z</time>
      </trkpt>
      <trkpt lat="44.36661" lon="2.76452">
        <ele>895</ele>
        <time>2019-04-07T11:40:14.579Z</time>
      </trkpt>
      <trkpt lat="44.36654" lon="2.76458">
        <ele>895</ele>
        <time>2019-04-07T11:40:17.579Z</time>
      </trkpt>
      <trkpt lat="44.36644" lon="2.76463">
        <ele>895.1389952</ele>
        <time>2019-04-07T11:40:20.579Z</time>
      </trkpt>
      <trkpt lat="44.36633" lon="2.76469">
        <ele>896</ele>
        <time>2019-04-07T11:40:24.579Z</time>
      </trkpt>
      <trkpt lat="44.36623" lon="2.76476">
        <ele>896</ele>
        <time>2019-04-07T11:40:27.579Z</time>
      </trkpt>
      <trkpt lat="44.36614" lon="2.76485">
        <ele>896.2779904</ele>
        <time>2019-04-07T11:40:30.579Z</time>
      </trkpt>
      <trkpt lat="44.36605" lon="2.76494">
        <ele>898</ele>
        <time>2019-04-07T11:40:33.579Z</time>
      </trkpt>
      <trkpt lat="44.36596" lon="2.76502">
        <ele>898</ele>
        <time>2019-04-07T11:40:36.579Z</time>
      </trkpt>
      <trkpt lat="44.36586" lon="2.76509">
        <ele>898</ele>
        <time>2019-04-07T11:40:39.579Z</time>
      </trkpt>
      <trkpt lat="44.36579" lon="2.76513">
        <ele>898</ele>
        <time>2019-04-07T11:40:41.579Z</time>
      </trkpt>
      <trkpt lat="44.36571" lon="2.76516">
        <ele>898</ele>
        <time>2019-04-07T11:40:43.579Z</time>
      </trkpt>
      <trkpt lat="44.36563" lon="2.76518">
        <ele>898</ele>
        <time>2019-04-07T11:40:45.579Z</time>
      </trkpt>
      <trkpt lat="44.36551" lon="2.76523">
        <ele>898</ele>
        <time>2019-04-07T11:40:48.579Z</time>
      </trkpt>
      <trkpt lat="44.36542" lon="2.76525">
        <ele>898</ele>
        <time>2019-04-07T11:40:50.579Z</time>
      </trkpt>
      <trkpt lat="44.36533" lon="2.7653">
        <ele>898</ele>
        <time>2019-04-07T11:40:52.579Z</time>
      </trkpt>
      <trkpt lat="44.36527" lon="2.7654">
        <ele>898</ele>
        <time>2019-04-07T11:40:54.579Z</time>
      </trkpt>
      <trkpt lat="44.36522" lon="2.76552">
        <ele>898</ele>
        <time>2019-04-07T11:40:56.579Z</time>
      </trkpt>
      <trkpt lat="44.36517" lon="2.76565">
        <ele>898</ele>
        <time>2019-04-07T11:40:58.579Z</time>
      </trkpt>
      <trkpt lat="44.36512" lon="2.76578">
        <ele>898</ele>
        <time>2019-04-07T11:41:00.579Z</time>
      </trkpt>
      <trkpt lat="44.36507" lon="2.76592">
        <ele>898</ele>
        <time>2019-04-07T11:41:02.579Z</time>
      </trkpt>
      <trkpt lat="44.36503" lon="2.76607">
        <ele>898</ele>
        <time>2019-04-07T11:41:04.579Z</time>
      </trkpt>
      <trkpt lat="44.36496" lon="2.76621">
        <ele>898</ele>
        <time>2019-04-07T11:41:06.579Z</time>
      </trkpt>
      <trkpt lat="44.3649" lon="2.76637">
        <ele>898</ele>
        <time>2019-04-07T11:41:08.579Z</time>
      </trkpt>
      <trkpt lat="44.36485" lon="2.76653">
        <ele>897.8610048</ele>
        <time>2019-04-07T11:41:10.579Z</time>
      </trkpt>
      <trkpt lat="44.3648" lon="2.76669">
        <ele>897</ele>
        <time>2019-04-07T11:41:12.579Z</time>
      </trkpt>
      <trkpt lat="44.36475" lon="2.76685">
        <ele>897</ele>
        <time>2019-04-07T11:41:14.579Z</time>
      </trkpt>
      <trkpt lat="44.36469" lon="2.767">
        <ele>897</ele>
        <time>2019-04-07T11:41:16.579Z</time>
      </trkpt>
      <trkpt lat="44.36463" lon="2.76716">
        <ele>897</ele>
        <time>2019-04-07T11:41:18.579Z</time>
      </trkpt>
      <trkpt lat="44.36457" lon="2.76729">
        <ele>896.8610048</ele>
        <time>2019-04-07T11:41:20.579Z</time>
      </trkpt>
      <trkpt lat="44.36452" lon="2.76742">
        <ele>896</ele>
        <time>2019-04-07T11:41:22.579Z</time>
      </trkpt>
      <trkpt lat="44.36445" lon="2.76758">
        <ele>896</ele>
        <time>2019-04-07T11:41:25.579Z</time>
      </trkpt>
      <trkpt lat="44.3644" lon="2.76771">
        <ele>896</ele>
        <time>2019-04-07T11:41:27.579Z</time>
      </trkpt>
      <trkpt lat="44.36437" lon="2.76785">
        <ele>896</ele>
        <time>2019-04-07T11:41:29.579Z</time>
      </trkpt>
      <trkpt lat="44.36437" lon="2.76801">
        <ele>897</ele>
        <time>2019-04-07T11:41:31.579Z</time>
      </trkpt>
      <trkpt lat="44.36441" lon="2.76815">
        <ele>897</ele>
        <time>2019-04-07T11:41:33.579Z</time>
      </trkpt>
      <trkpt lat="44.36448" lon="2.7683">
        <ele>897</ele>
        <time>2019-04-07T11:41:36.579Z</time>
      </trkpt>
      <trkpt lat="44.36454" lon="2.7684">
        <ele>897</ele>
        <time>2019-04-07T11:41:39.579Z</time>
      </trkpt>
      <trkpt lat="44.36459" lon="2.76854">
        <ele>899</ele>
        <time>2019-04-07T11:41:42.579Z</time>
      </trkpt>
      <trkpt lat="44.36466" lon="2.7687">
        <ele>899</ele>
        <time>2019-04-07T11:41:45.579Z</time>
      </trkpt>
      <trkpt lat="44.36472" lon="2.76888">
        <ele>899</ele>
        <time>2019-04-07T11:41:48.579Z</time>
      </trkpt>
      <trkpt lat="44.36478" lon="2.76904">
        <ele>898.5830144</ele>
        <time>2019-04-07T11:41:50.579Z</time>
      </trkpt>
      <trkpt lat="44.36486" lon="2.76922">
        <ele>896</ele>
        <time>2019-04-07T11:41:52.579Z</time>
      </trkpt>
      <trkpt lat="44.36494" lon="2.76939">
        <ele>896</ele>
        <time>2019-04-07T11:41:54.579Z</time>
      </trkpt>
      <trkpt lat="44.36501" lon="2.76956">
        <ele>890</ele>
        <time>2019-04-07T11:41:56.579Z</time>
      </trkpt>
      <trkpt lat="44.36509" lon="2.76976">
        <ele>890</ele>
        <time>2019-04-07T11:41:58.579Z</time>
      </trkpt>
      <trkpt lat="44.36513" lon="2.76987">
        <ele>890</ele>
        <time>2019-04-07T11:41:59.579Z</time>
      </trkpt>
      <trkpt lat="44.36517" lon="2.76997">
        <ele>888.610048</ele>
        <time>2019-04-07T11:42:00.579Z</time>
      </trkpt>
      <trkpt lat="44.36521" lon="2.77008">
        <ele>880</ele>
        <time>2019-04-07T11:42:01.579Z</time>
      </trkpt>
      <trkpt lat="44.36529" lon="2.7703">
        <ele>878.8610048</ele>
        <time>2019-04-07T11:42:03.579Z</time>
      </trkpt>
      <trkpt lat="44.36534" lon="2.77043">
        <ele>878</ele>
        <time>2019-04-07T11:42:04.579Z</time>
      </trkpt>
      <trkpt lat="44.36543" lon="2.77066">
        <ele>879</ele>
        <time>2019-04-07T11:42:06.579Z</time>
      </trkpt>
      <trkpt lat="44.36552" lon="2.77082">
        <ele>880</ele>
        <time>2019-04-07T11:42:08.579Z</time>
      </trkpt>
      <trkpt lat="44.36558" lon="2.77097">
        <ele>880</ele>
        <time>2019-04-07T11:42:10.579Z</time>
      </trkpt>
      <trkpt lat="44.36562" lon="2.7711">
        <ele>880</ele>
        <time>2019-04-07T11:42:12.579Z</time>
      </trkpt>
      <trkpt lat="44.36569" lon="2.77125">
        <ele>880</ele>
        <time>2019-04-07T11:42:14.579Z</time>
      </trkpt>
      <trkpt lat="44.36576" lon="2.7714">
        <ele>880</ele>
        <time>2019-04-07T11:42:16.579Z</time>
      </trkpt>
      <trkpt lat="44.36582" lon="2.77156">
        <ele>880</ele>
        <time>2019-04-07T11:42:18.579Z</time>
      </trkpt>
      <trkpt lat="44.36589" lon="2.77171">
        <ele>879.5830144</ele>
        <time>2019-04-07T11:42:20.579Z</time>
      </trkpt>
      <trkpt lat="44.36594" lon="2.77187">
        <ele>877</ele>
        <time>2019-04-07T11:42:22.579Z</time>
      </trkpt>
      <trkpt lat="44.36601" lon="2.77206">
        <ele>877</ele>
        <time>2019-04-07T11:42:24.579Z</time>
      </trkpt>
      <trkpt lat="44.3661" lon="2.7723">
        <ele>869</ele>
        <time>2019-04-07T11:42:26.579Z</time>
      </trkpt>
      <trkpt lat="44.36615" lon="2.77243">
        <ele>869</ele>
        <time>2019-04-07T11:42:27.579Z</time>
      </trkpt>
      <trkpt lat="44.3662" lon="2.77257">
        <ele>869</ele>
        <time>2019-04-07T11:42:28.579Z</time>
      </trkpt>
      <trkpt lat="44.36624" lon="2.7727">
        <ele>869</ele>
        <time>2019-04-07T11:42:29.579Z</time>
      </trkpt>
      <trkpt lat="44.36632" lon="2.77291">
        <ele>859.305024</ele>
        <time>2019-04-07T11:42:31.579Z</time>
      </trkpt>
      <trkpt lat="44.3664" lon="2.77312">
        <ele>852.8610048</ele>
        <time>2019-04-07T11:42:33.579Z</time>
      </trkpt>
      <trkpt lat="44.36647" lon="2.77332">
        <ele>850.7220096</ele>
        <time>2019-04-07T11:42:35.579Z</time>
      </trkpt>
      <trkpt lat="44.36655" lon="2.7735">
        <ele>847.8610048</ele>
        <time>2019-04-07T11:42:37.579Z</time>
      </trkpt>
      <trkpt lat="44.36661" lon="2.77368">
        <ele>846.7220096</ele>
        <time>2019-04-07T11:42:39.579Z</time>
      </trkpt>
      <trkpt lat="44.36668" lon="2.77384">
        <ele>844</ele>
        <time>2019-04-07T11:42:41.579Z</time>
      </trkpt>
      <trkpt lat="44.36672" lon="2.774">
        <ele>844</ele>
        <time>2019-04-07T11:42:43.579Z</time>
      </trkpt>
      <trkpt lat="44.36671" lon="2.77419">
        <ele>844</ele>
        <time>2019-04-07T11:42:46.579Z</time>
      </trkpt>
      <trkpt lat="44.36679" lon="2.77431">
        <ele>840</ele>
        <time>2019-04-07T11:42:51.579Z</time>
      </trkpt>
      <trkpt lat="44.36689" lon="2.77427">
        <ele>840</ele>
        <time>2019-04-07T11:42:54.579Z</time>
      </trkpt>
      <trkpt lat="44.367" lon="2.77425">
        <ele>838</ele>
        <time>2019-04-07T11:42:57.579Z</time>
      </trkpt>
      <trkpt lat="44.36711" lon="2.7742">
        <ele>837.5830144</ele>
        <time>2019-04-07T11:43:00.579Z</time>
      </trkpt>
      <trkpt lat="44.36724" lon="2.77409">
        <ele>835.8610048</ele>
        <time>2019-04-07T11:43:03.579Z</time>
      </trkpt>
      <trkpt lat="44.36736" lon="2.77402">
        <ele>832.8610048</ele>
        <time>2019-04-07T11:43:06.579Z</time>
      </trkpt>
      <trkpt lat="44.36747" lon="2.77397">
        <ele>831</ele>
        <time>2019-04-07T11:43:09.579Z</time>
      </trkpt>
      <trkpt lat="44.36756" lon="2.77391">
        <ele>831</ele>
        <time>2019-04-07T11:43:12.579Z</time>
      </trkpt>
      <trkpt lat="44.36764" lon="2.77379">
        <ele>830.8610048</ele>
        <time>2019-04-07T11:43:15.579Z</time>
      </trkpt>
      <trkpt lat="44.36773" lon="2.7737">
        <ele>830</ele>
        <time>2019-04-07T11:43:17.579Z</time>
      </trkpt>
      <trkpt lat="44.3678" lon="2.77361">
        <ele>830</ele>
        <time>2019-04-07T11:43:19.579Z</time>
      </trkpt>
      <trkpt lat="44.3679" lon="2.77356">
        <ele>829</ele>
        <time>2019-04-07T11:43:22.579Z</time>
      </trkpt>
      <trkpt lat="44.36798" lon="2.77347">
        <ele>829</ele>
        <time>2019-04-07T11:43:24.579Z</time>
      </trkpt>
      <trkpt lat="44.36805" lon="2.77335">
        <ele>829</ele>
        <time>2019-04-07T11:43:26.579Z</time>
      </trkpt>
      <trkpt lat="44.36817" lon="2.77326">
        <ele>829</ele>
        <time>2019-04-07T11:43:28.579Z</time>
      </trkpt>
      <trkpt lat="44.36826" lon="2.77321">
        <ele>828.8610048</ele>
        <time>2019-04-07T11:43:30.579Z</time>
      </trkpt>
      <trkpt lat="44.36836" lon="2.77328">
        <ele>828</ele>
        <time>2019-04-07T11:43:35.579Z</time>
      </trkpt>
      <trkpt lat="44.36837" lon="2.77342">
        <ele>828</ele>
        <time>2019-04-07T11:43:38.579Z</time>
      </trkpt>
      <trkpt lat="44.36837" lon="2.7736">
        <ele>826</ele>
        <time>2019-04-07T11:43:41.579Z</time>
      </trkpt>
      <trkpt lat="44.36832" lon="2.77374">
        <ele>826</ele>
        <time>2019-04-07T11:43:44.579Z</time>
      </trkpt>
      <trkpt lat="44.36825" lon="2.77384">
        <ele>826</ele>
        <time>2019-04-07T11:43:47.579Z</time>
      </trkpt>
      <trkpt lat="44.36816" lon="2.77393">
        <ele>826.2779904</ele>
        <time>2019-04-07T11:43:50.579Z</time>
      </trkpt>
      <trkpt lat="44.36808" lon="2.77402">
        <ele>828</ele>
        <time>2019-04-07T11:43:53.579Z</time>
      </trkpt>
      <trkpt lat="44.36798" lon="2.77412">
        <ele>828</ele>
        <time>2019-04-07T11:43:57.579Z</time>
      </trkpt>
      <trkpt lat="44.36788" lon="2.77418">
        <ele>832</ele>
        <time>2019-04-07T11:44:01.579Z</time>
      </trkpt>
      <trkpt lat="44.36781" lon="2.7743">
        <ele>833</ele>
        <time>2019-04-07T11:44:06.579Z</time>
      </trkpt>
      <trkpt lat="44.36792" lon="2.77437">
        <ele>833</ele>
        <time>2019-04-07T11:44:12.579Z</time>
      </trkpt>
      <trkpt lat="44.36803" lon="2.77442">
        <ele>833</ele>
        <time>2019-04-07T11:44:15.579Z</time>
      </trkpt>
      <trkpt lat="44.36812" lon="2.77449">
        <ele>833</ele>
        <time>2019-04-07T11:44:17.579Z</time>
      </trkpt>
      <trkpt lat="44.3682" lon="2.77461">
        <ele>833</ele>
        <time>2019-04-07T11:44:19.579Z</time>
      </trkpt>
      <trkpt lat="44.36827" lon="2.77478">
        <ele>830</ele>
        <time>2019-04-07T11:44:22.579Z</time>
      </trkpt>
      <trkpt lat="44.36826" lon="2.77492">
        <ele>830</ele>
        <time>2019-04-07T11:44:24.579Z</time>
      </trkpt>
      <trkpt lat="44.3682" lon="2.77505">
        <ele>829</ele>
        <time>2019-04-07T11:44:26.579Z</time>
      </trkpt>
      <trkpt lat="44.36812" lon="2.77522">
        <ele>829</ele>
        <time>2019-04-07T11:44:29.579Z</time>
      </trkpt>
      <trkpt lat="44.36802" lon="2.77535">
        <ele>829</ele>
        <time>2019-04-07T11:44:32.579Z</time>
      </trkpt>
      <trkpt lat="44.36791" lon="2.77544">
        <ele>829</ele>
        <time>2019-04-07T11:44:35.579Z</time>
      </trkpt>
      <trkpt lat="44.36784" lon="2.77549">
        <ele>829</ele>
        <time>2019-04-07T11:44:37.579Z</time>
      </trkpt>
      <trkpt lat="44.36776" lon="2.77554">
        <ele>829</ele>
        <time>2019-04-07T11:44:39.579Z</time>
      </trkpt>
      <trkpt lat="44.36765" lon="2.77559">
        <ele>830</ele>
        <time>2019-04-07T11:44:42.579Z</time>
      </trkpt>
      <trkpt lat="44.36755" lon="2.77563">
        <ele>830</ele>
        <time>2019-04-07T11:44:45.579Z</time>
      </trkpt>
      <trkpt lat="44.36742" lon="2.77565">
        <ele>830</ele>
        <time>2019-04-07T11:44:48.579Z</time>
      </trkpt>
      <trkpt lat="44.36734" lon="2.77567">
        <ele>830.2779904</ele>
        <time>2019-04-07T11:44:50.579Z</time>
      </trkpt>
      <trkpt lat="44.36726" lon="2.77567">
        <ele>832</ele>
        <time>2019-04-07T11:44:52.579Z</time>
      </trkpt>
      <trkpt lat="44.36718" lon="2.77568">
        <ele>832</ele>
        <time>2019-04-07T11:44:54.579Z</time>
      </trkpt>
      <trkpt lat="44.3671" lon="2.77569">
        <ele>832</ele>
        <time>2019-04-07T11:44:56.579Z</time>
      </trkpt>
      <trkpt lat="44.36703" lon="2.77569">
        <ele>832</ele>
        <time>2019-04-07T11:44:58.579Z</time>
      </trkpt>
      <trkpt lat="44.36693" lon="2.77573">
        <ele>833</ele>
        <time>2019-04-07T11:45:01.579Z</time>
      </trkpt>
      <trkpt lat="44.36682" lon="2.77581">
        <ele>833</ele>
        <time>2019-04-07T11:45:04.579Z</time>
      </trkpt>
      <trkpt lat="44.36671" lon="2.77586">
        <ele>833</ele>
        <time>2019-04-07T11:45:06.579Z</time>
      </trkpt>
      <trkpt lat="44.3666" lon="2.77583">
        <ele>833</ele>
        <time>2019-04-07T11:45:08.579Z</time>
      </trkpt>
      <trkpt lat="44.36649" lon="2.77586">
        <ele>832.4440192</ele>
        <time>2019-04-07T11:45:10.579Z</time>
      </trkpt>
      <trkpt lat="44.36639" lon="2.7759">
        <ele>829</ele>
        <time>2019-04-07T11:45:12.579Z</time>
      </trkpt>
      <trkpt lat="44.36628" lon="2.77591">
        <ele>828.8610048</ele>
        <time>2019-04-07T11:45:15.579Z</time>
      </trkpt>
      <trkpt lat="44.36618" lon="2.77588">
        <ele>828</ele>
        <time>2019-04-07T11:45:18.579Z</time>
      </trkpt>
      <trkpt lat="44.36605" lon="2.77582">
        <ele>827</ele>
        <time>2019-04-07T11:45:21.579Z</time>
      </trkpt>
      <trkpt lat="44.36595" lon="2.77578">
        <ele>827</ele>
        <time>2019-04-07T11:45:23.579Z</time>
      </trkpt>
      <trkpt lat="44.36587" lon="2.77574">
        <ele>827</ele>
        <time>2019-04-07T11:45:25.579Z</time>
      </trkpt>
      <trkpt lat="44.36577" lon="2.77571">
        <ele>827</ele>
        <time>2019-04-07T11:45:28.579Z</time>
      </trkpt>
      <trkpt lat="44.36568" lon="2.77564">
        <ele>827</ele>
        <time>2019-04-07T11:45:32.579Z</time>
      </trkpt>
      <trkpt lat="44.36559" lon="2.77557">
        <ele>827</ele>
        <time>2019-04-07T11:45:36.579Z</time>
      </trkpt>
      <trkpt lat="44.3655" lon="2.77551">
        <ele>827</ele>
        <time>2019-04-07T11:45:39.579Z</time>
      </trkpt>
      <trkpt lat="44.36541" lon="2.7754">
        <ele>829</ele>
        <time>2019-04-07T11:45:42.579Z</time>
      </trkpt>
      <trkpt lat="44.36531" lon="2.77537">
        <ele>829</ele>
        <time>2019-04-07T11:45:45.579Z</time>
      </trkpt>
      <trkpt lat="44.36521" lon="2.77534">
        <ele>829</ele>
        <time>2019-04-07T11:45:49.579Z</time>
      </trkpt>
      <trkpt lat="44.3651" lon="2.77532">
        <ele>831</ele>
        <time>2019-04-07T11:45:53.579Z</time>
      </trkpt>
      <trkpt lat="44.36501" lon="2.77529">
        <ele>834</ele>
        <time>2019-04-07T11:45:57.579Z</time>
      </trkpt>
      <trkpt lat="44.36491" lon="2.77526">
        <ele>834</ele>
        <time>2019-04-07T11:46:02.579Z</time>
      </trkpt>
      <trkpt lat="44.36483" lon="2.77523">
        <ele>836</ele>
        <time>2019-04-07T11:46:06.579Z</time>
      </trkpt>
      <trkpt lat="44.36476" lon="2.77517">
        <ele>836.4169856</ele>
        <time>2019-04-07T11:46:10.579Z</time>
      </trkpt>
      <trkpt lat="44.36469" lon="2.77508">
        <ele>839</ele>
        <time>2019-04-07T11:46:14.579Z</time>
      </trkpt>
      <trkpt lat="44.3646" lon="2.77514">
        <ele>839</ele>
        <time>2019-04-07T11:46:19.579Z</time>
      </trkpt>
      <trkpt lat="44.36458" lon="2.77528">
        <ele>840</ele>
        <time>2019-04-07T11:46:22.579Z</time>
      </trkpt>
      <trkpt lat="44.36458" lon="2.77539">
        <ele>840</ele>
        <time>2019-04-07T11:46:24.579Z</time>
      </trkpt>
      <trkpt lat="44.36458" lon="2.77548">
        <ele>840</ele>
        <time>2019-04-07T11:46:26.579Z</time>
      </trkpt>
      <trkpt lat="44.36455" lon="2.77555">
        <ele>840</ele>
        <time>2019-04-07T11:46:28.579Z</time>
      </trkpt>
      <trkpt lat="44.3645" lon="2.7756">
        <ele>841</ele>
        <time>2019-04-07T11:46:31.579Z</time>
      </trkpt>
      <trkpt lat="44.36442" lon="2.77556">
        <ele>841</ele>
        <time>2019-04-07T11:46:35.579Z</time>
      </trkpt>
      <trkpt lat="44.36438" lon="2.77551">
        <ele>842</ele>
        <time>2019-04-07T11:46:38.579Z</time>
      </trkpt>
      <trkpt lat="44.36432" lon="2.77547">
        <ele>843</ele>
        <time>2019-04-07T11:46:41.579Z</time>
      </trkpt>
      <trkpt lat="44.36426" lon="2.77544">
        <ele>843</ele>
        <time>2019-04-07T11:46:45.579Z</time>
      </trkpt>
      <trkpt lat="44.3642" lon="2.77546">
        <ele>843</ele>
        <time>2019-04-07T11:46:48.579Z</time>
      </trkpt>
      <trkpt lat="44.36414" lon="2.77549">
        <ele>846</ele>
        <time>2019-04-07T11:46:52.579Z</time>
      </trkpt>
      <trkpt lat="44.36406" lon="2.77548">
        <ele>848</ele>
        <time>2019-04-07T11:46:57.579Z</time>
      </trkpt>
      <trkpt lat="44.36399" lon="2.77547">
        <ele>849</ele>
        <time>2019-04-07T11:47:02.579Z</time>
      </trkpt>
      <trkpt lat="44.36393" lon="2.77555">
        <ele>849</ele>
        <time>2019-04-07T11:47:05.579Z</time>
      </trkpt>
      <trkpt lat="44.36389" lon="2.77563">
        <ele>849</ele>
        <time>2019-04-07T11:47:07.579Z</time>
      </trkpt>
      <trkpt lat="44.36385" lon="2.7757">
        <ele>849</ele>
        <time>2019-04-07T11:47:09.579Z</time>
      </trkpt>
      <trkpt lat="44.3638" lon="2.77579">
        <ele>849</ele>
        <time>2019-04-07T11:47:11.579Z</time>
      </trkpt>
      <trkpt lat="44.36375" lon="2.77588">
        <ele>849</ele>
        <time>2019-04-07T11:47:13.579Z</time>
      </trkpt>
      <trkpt lat="44.36369" lon="2.77597">
        <ele>849</ele>
        <time>2019-04-07T11:47:15.579Z</time>
      </trkpt>
      <trkpt lat="44.36363" lon="2.77607">
        <ele>849</ele>
        <time>2019-04-07T11:47:17.579Z</time>
      </trkpt>
      <trkpt lat="44.36357" lon="2.77616">
        <ele>849</ele>
        <time>2019-04-07T11:47:19.579Z</time>
      </trkpt>
      <trkpt lat="44.36351" lon="2.77627">
        <ele>849</ele>
        <time>2019-04-07T11:47:21.579Z</time>
      </trkpt>
      <trkpt lat="44.36345" lon="2.77637">
        <ele>849</ele>
        <time>2019-04-07T11:47:23.579Z</time>
      </trkpt>
      <trkpt lat="44.36338" lon="2.77649">
        <ele>849</ele>
        <time>2019-04-07T11:47:25.579Z</time>
      </trkpt>
      <trkpt lat="44.3633" lon="2.77662">
        <ele>849</ele>
        <time>2019-04-07T11:47:27.579Z</time>
      </trkpt>
      <trkpt lat="44.36323" lon="2.77676">
        <ele>849</ele>
        <time>2019-04-07T11:47:29.579Z</time>
      </trkpt>
      <trkpt lat="44.36317" lon="2.77691">
        <ele>846</ele>
        <time>2019-04-07T11:47:31.579Z</time>
      </trkpt>
      <trkpt lat="44.36311" lon="2.77708">
        <ele>846</ele>
        <time>2019-04-07T11:47:33.579Z</time>
      </trkpt>
      <trkpt lat="44.36308" lon="2.77718">
        <ele>846</ele>
        <time>2019-04-07T11:47:34.579Z</time>
      </trkpt>
      <trkpt lat="44.36305" lon="2.77728">
        <ele>845.4440192</ele>
        <time>2019-04-07T11:47:35.579Z</time>
      </trkpt>
      <trkpt lat="44.36295" lon="2.77747">
        <ele>842</ele>
        <time>2019-04-07T11:47:37.579Z</time>
      </trkpt>
      <trkpt lat="44.36279" lon="2.77758">
        <ele>842</ele>
        <time>2019-04-07T11:47:39.579Z</time>
      </trkpt>
      <trkpt lat="44.36271" lon="2.77764">
        <ele>841.8610048</ele>
        <time>2019-04-07T11:47:40.579Z</time>
      </trkpt>
      <trkpt lat="44.36263" lon="2.77772">
        <ele>840.7220096</ele>
        <time>2019-04-07T11:47:41.579Z</time>
      </trkpt>
      <trkpt lat="44.36255" lon="2.77781">
        <ele>838.8610048</ele>
        <time>2019-04-07T11:47:42.579Z</time>
      </trkpt>
      <trkpt lat="44.36241" lon="2.77801">
        <ele>837</ele>
        <time>2019-04-07T11:47:44.579Z</time>
      </trkpt>
      <trkpt lat="44.36234" lon="2.77812">
        <ele>836.8610048</ele>
        <time>2019-04-07T11:47:45.579Z</time>
      </trkpt>
      <trkpt lat="44.36227" lon="2.77823">
        <ele>835.5830144</ele>
        <time>2019-04-07T11:47:46.579Z</time>
      </trkpt>
      <trkpt lat="44.36215" lon="2.7784">
        <ele>831.8610048</ele>
        <time>2019-04-07T11:47:48.579Z</time>
      </trkpt>
      <trkpt lat="44.36203" lon="2.77849">
        <ele>830.8610048</ele>
        <time>2019-04-07T11:47:50.579Z</time>
      </trkpt>
      <trkpt lat="44.36189" lon="2.77845">
        <ele>828</ele>
        <time>2019-04-07T11:47:52.579Z</time>
      </trkpt>
      <trkpt lat="44.36178" lon="2.77833">
        <ele>825.8610048</ele>
        <time>2019-04-07T11:47:54.579Z</time>
      </trkpt>
      <trkpt lat="44.3617" lon="2.77816">
        <ele>824</ele>
        <time>2019-04-07T11:47:56.579Z</time>
      </trkpt>
      <trkpt lat="44.36161" lon="2.77797">
        <ele>821.8610048</ele>
        <time>2019-04-07T11:47:58.579Z</time>
      </trkpt>
      <trkpt lat="44.36152" lon="2.7778">
        <ele>820</ele>
        <time>2019-04-07T11:48:00.579Z</time>
      </trkpt>
      <trkpt lat="44.3614" lon="2.77775">
        <ele>819.8610048</ele>
        <time>2019-04-07T11:48:02.579Z</time>
      </trkpt>
      <trkpt lat="44.36125" lon="2.77775">
        <ele>817.1389952</ele>
        <time>2019-04-07T11:48:04.579Z</time>
      </trkpt>
      <trkpt lat="44.36111" lon="2.77773">
        <ele>818</ele>
        <time>2019-04-07T11:48:06.579Z</time>
      </trkpt>
      <trkpt lat="44.36096" lon="2.77771">
        <ele>817</ele>
        <time>2019-04-07T11:48:08.579Z</time>
      </trkpt>
      <trkpt lat="44.36081" lon="2.77773">
        <ele>816</ele>
        <time>2019-04-07T11:48:10.579Z</time>
      </trkpt>
      <trkpt lat="44.36067" lon="2.77775">
        <ele>816</ele>
        <time>2019-04-07T11:48:12.579Z</time>
      </trkpt>
      <trkpt lat="44.36052" lon="2.77781">
        <ele>816</ele>
        <time>2019-04-07T11:48:14.579Z</time>
      </trkpt>
      <trkpt lat="44.36037" lon="2.77788">
        <ele>815</ele>
        <time>2019-04-07T11:48:16.579Z</time>
      </trkpt>
      <trkpt lat="44.36021" lon="2.77792">
        <ele>815</ele>
        <time>2019-04-07T11:48:18.579Z</time>
      </trkpt>
      <trkpt lat="44.36003" lon="2.77793">
        <ele>814.7220096</ele>
        <time>2019-04-07T11:48:20.579Z</time>
      </trkpt>
      <trkpt lat="44.35994" lon="2.77794">
        <ele>813</ele>
        <time>2019-04-07T11:48:21.579Z</time>
      </trkpt>
      <trkpt lat="44.35985" lon="2.77794">
        <ele>813</ele>
        <time>2019-04-07T11:48:22.579Z</time>
      </trkpt>
      <trkpt lat="44.35968" lon="2.77798">
        <ele>813</ele>
        <time>2019-04-07T11:48:24.579Z</time>
      </trkpt>
      <trkpt lat="44.35952" lon="2.77806">
        <ele>811</ele>
        <time>2019-04-07T11:48:26.579Z</time>
      </trkpt>
      <trkpt lat="44.35937" lon="2.77814">
        <ele>811</ele>
        <time>2019-04-07T11:48:28.579Z</time>
      </trkpt>
      <trkpt lat="44.35924" lon="2.7781">
        <ele>810.5830144</ele>
        <time>2019-04-07T11:48:30.579Z</time>
      </trkpt>
      <trkpt lat="44.35912" lon="2.77799">
        <ele>808</ele>
        <time>2019-04-07T11:48:32.579Z</time>
      </trkpt>
      <trkpt lat="44.359" lon="2.77787">
        <ele>808</ele>
        <time>2019-04-07T11:48:34.579Z</time>
      </trkpt>
      <trkpt lat="44.35888" lon="2.77773">
        <ele>805</ele>
        <time>2019-04-07T11:48:36.579Z</time>
      </trkpt>
      <trkpt lat="44.35877" lon="2.77767">
        <ele>805</ele>
        <time>2019-04-07T11:48:38.579Z</time>
      </trkpt>
      <trkpt lat="44.35866" lon="2.77777">
        <ele>804</ele>
        <time>2019-04-07T11:48:41.579Z</time>
      </trkpt>
      <trkpt lat="44.35862" lon="2.77788">
        <ele>806</ele>
        <time>2019-04-07T11:48:46.579Z</time>
      </trkpt>
      <trkpt lat="44.35854" lon="2.77796">
        <ele>807</ele>
        <time>2019-04-07T11:48:51.579Z</time>
      </trkpt>
      <trkpt lat="44.35846" lon="2.77803">
        <ele>807.4169856</ele>
        <time>2019-04-07T11:48:55.579Z</time>
      </trkpt>
      <trkpt lat="44.35838" lon="2.77808">
        <ele>810</ele>
        <time>2019-04-07T11:48:58.579Z</time>
      </trkpt>
      <trkpt lat="44.35831" lon="2.77811">
        <ele>811</ele>
        <time>2019-04-07T11:49:01.579Z</time>
      </trkpt>
      <trkpt lat="44.35822" lon="2.77814">
        <ele>811</ele>
        <time>2019-04-07T11:49:04.579Z</time>
      </trkpt>
      <trkpt lat="44.35813" lon="2.77817">
        <ele>812</ele>
        <time>2019-04-07T11:49:07.579Z</time>
      </trkpt>
      <trkpt lat="44.35802" lon="2.77822">
        <ele>812</ele>
        <time>2019-04-07T11:49:10.579Z</time>
      </trkpt>
      <trkpt lat="44.3579" lon="2.77823">
        <ele>812</ele>
        <time>2019-04-07T11:49:13.579Z</time>
      </trkpt>
      <trkpt lat="44.35777" lon="2.77817">
        <ele>812</ele>
        <time>2019-04-07T11:49:16.579Z</time>
      </trkpt>
      <trkpt lat="44.35763" lon="2.77812">
        <ele>812</ele>
        <time>2019-04-07T11:49:19.579Z</time>
      </trkpt>
      <trkpt lat="44.35753" lon="2.77814">
        <ele>811</ele>
        <time>2019-04-07T11:49:21.579Z</time>
      </trkpt>
      <trkpt lat="44.35742" lon="2.77818">
        <ele>811</ele>
        <time>2019-04-07T11:49:23.579Z</time>
      </trkpt>
      <trkpt lat="44.35732" lon="2.77821">
        <ele>811</ele>
        <time>2019-04-07T11:49:25.579Z</time>
      </trkpt>
      <trkpt lat="44.35722" lon="2.77822">
        <ele>811</ele>
        <time>2019-04-07T11:49:27.579Z</time>
      </trkpt>
      <trkpt lat="44.35712" lon="2.77822">
        <ele>811</ele>
        <time>2019-04-07T11:49:29.579Z</time>
      </trkpt>
      <trkpt lat="44.35701" lon="2.77821">
        <ele>811</ele>
        <time>2019-04-07T11:49:31.579Z</time>
      </trkpt>
      <trkpt lat="44.35689" lon="2.77823">
        <ele>811</ele>
        <time>2019-04-07T11:49:34.579Z</time>
      </trkpt>
      <trkpt lat="44.35678" lon="2.77834">
        <ele>811</ele>
        <time>2019-04-07T11:49:37.579Z</time>
      </trkpt>
      <trkpt lat="44.35672" lon="2.77846">
        <ele>811</ele>
        <time>2019-04-07T11:49:39.579Z</time>
      </trkpt>
      <trkpt lat="44.35666" lon="2.77859">
        <ele>810</ele>
        <time>2019-04-07T11:49:42.579Z</time>
      </trkpt>
      <trkpt lat="44.35659" lon="2.7787">
        <ele>810</ele>
        <time>2019-04-07T11:49:47.579Z</time>
      </trkpt>
      <trkpt lat="44.35648" lon="2.77878">
        <ele>809</ele>
        <time>2019-04-07T11:49:52.579Z</time>
      </trkpt>
      <trkpt lat="44.35637" lon="2.77879">
        <ele>809</ele>
        <time>2019-04-07T11:49:55.579Z</time>
      </trkpt>
      <trkpt lat="44.35627" lon="2.77878">
        <ele>809</ele>
        <time>2019-04-07T11:49:58.579Z</time>
      </trkpt>
      <trkpt lat="44.35616" lon="2.77885">
        <ele>807</ele>
        <time>2019-04-07T11:50:02.579Z</time>
      </trkpt>
      <trkpt lat="44.35606" lon="2.77891">
        <ele>806.8610048</ele>
        <time>2019-04-07T11:50:05.579Z</time>
      </trkpt>
      <trkpt lat="44.35594" lon="2.77882">
        <ele>806</ele>
        <time>2019-04-07T11:50:08.579Z</time>
      </trkpt>
      <trkpt lat="44.35581" lon="2.77884">
        <ele>803</ele>
        <time>2019-04-07T11:50:11.579Z</time>
      </trkpt>
      <trkpt lat="44.3557" lon="2.77892">
        <ele>803</ele>
        <time>2019-04-07T11:50:14.579Z</time>
      </trkpt>
      <trkpt lat="44.35562" lon="2.77883">
        <ele>801</ele>
        <time>2019-04-07T11:50:17.579Z</time>
      </trkpt>
      <trkpt lat="44.3555" lon="2.77878">
        <ele>795.8610048</ele>
        <time>2019-04-07T11:50:23.579Z</time>
      </trkpt>
      <trkpt lat="44.35543" lon="2.77885">
        <ele>793.8610048</ele>
        <time>2019-04-07T11:50:26.579Z</time>
      </trkpt>
      <trkpt lat="44.35545" lon="2.77896">
        <ele>793</ele>
        <time>2019-04-07T11:50:28.579Z</time>
      </trkpt>
      <trkpt lat="44.35547" lon="2.77909">
        <ele>792</ele>
        <time>2019-04-07T11:50:30.579Z</time>
      </trkpt>
      <trkpt lat="44.35545" lon="2.77926">
        <ele>791</ele>
        <time>2019-04-07T11:50:33.579Z</time>
      </trkpt>
      <trkpt lat="44.35548" lon="2.77945">
        <ele>788.8610048</ele>
        <time>2019-04-07T11:50:36.579Z</time>
      </trkpt>
      <trkpt lat="44.35548" lon="2.77962">
        <ele>787.8610048</ele>
        <time>2019-04-07T11:50:40.579Z</time>
      </trkpt>
      <trkpt lat="44.35552" lon="2.77975">
        <ele>787</ele>
        <time>2019-04-07T11:50:44.579Z</time>
      </trkpt>
      <trkpt lat="44.35555" lon="2.77988">
        <ele>787</ele>
        <time>2019-04-07T11:50:47.579Z</time>
      </trkpt>
      <trkpt lat="44.35563" lon="2.78005">
        <ele>787</ele>
        <time>2019-04-07T11:50:50.579Z</time>
      </trkpt>
      <trkpt lat="44.35568" lon="2.78023">
        <ele>787</ele>
        <time>2019-04-07T11:50:53.579Z</time>
      </trkpt>
      <trkpt lat="44.35571" lon="2.78037">
        <ele>787</ele>
        <time>2019-04-07T11:50:55.579Z</time>
      </trkpt>
      <trkpt lat="44.35575" lon="2.78052">
        <ele>787</ele>
        <time>2019-04-07T11:50:58.579Z</time>
      </trkpt>
      <trkpt lat="44.35579" lon="2.78063">
        <ele>785</ele>
        <time>2019-04-07T11:51:01.579Z</time>
      </trkpt>
      <trkpt lat="44.35586" lon="2.78073">
        <ele>785</ele>
        <time>2019-04-07T11:51:04.579Z</time>
      </trkpt>
      <trkpt lat="44.35593" lon="2.78082">
        <ele>785</ele>
        <time>2019-04-07T11:51:06.579Z</time>
      </trkpt>
      <trkpt lat="44.35602" lon="2.78095">
        <ele>785</ele>
        <time>2019-04-07T11:51:09.579Z</time>
      </trkpt>
      <trkpt lat="44.35607" lon="2.78107">
        <ele>786</ele>
        <time>2019-04-07T11:51:12.579Z</time>
      </trkpt>
      <trkpt lat="44.35608" lon="2.78122">
        <ele>786</ele>
        <time>2019-04-07T11:51:16.579Z</time>
      </trkpt>
      <trkpt lat="44.35609" lon="2.78136">
        <ele>786</ele>
        <time>2019-04-07T11:51:19.579Z</time>
      </trkpt>
      <trkpt lat="44.35608" lon="2.78154">
        <ele>787</ele>
        <time>2019-04-07T11:51:22.579Z</time>
      </trkpt>
      <trkpt lat="44.35607" lon="2.7817">
        <ele>787</ele>
        <time>2019-04-07T11:51:24.579Z</time>
      </trkpt>
      <trkpt lat="44.35608" lon="2.78185">
        <ele>787</ele>
        <time>2019-04-07T11:51:26.579Z</time>
      </trkpt>
      <trkpt lat="44.35608" lon="2.78203">
        <ele>787</ele>
        <time>2019-04-07T11:51:28.579Z</time>
      </trkpt>
      <trkpt lat="44.35609" lon="2.7822">
        <ele>786.5830144</ele>
        <time>2019-04-07T11:51:30.579Z</time>
      </trkpt>
      <trkpt lat="44.3561" lon="2.78236">
        <ele>784</ele>
        <time>2019-04-07T11:51:32.579Z</time>
      </trkpt>
      <trkpt lat="44.35613" lon="2.78255">
        <ele>783.8610048</ele>
        <time>2019-04-07T11:51:35.579Z</time>
      </trkpt>
      <trkpt lat="44.35622" lon="2.78265">
        <ele>783</ele>
        <time>2019-04-07T11:51:38.579Z</time>
      </trkpt>
      <trkpt lat="44.35637" lon="2.78267">
        <ele>782.5830144</ele>
        <time>2019-04-07T11:51:40.579Z</time>
      </trkpt>
      <trkpt lat="44.35654" lon="2.78271">
        <ele>780</ele>
        <time>2019-04-07T11:51:42.579Z</time>
      </trkpt>
      <trkpt lat="44.35667" lon="2.78277">
        <ele>780</ele>
        <time>2019-04-07T11:51:44.579Z</time>
      </trkpt>
      <trkpt lat="44.3568" lon="2.78282">
        <ele>775</ele>
        <time>2019-04-07T11:51:46.579Z</time>
      </trkpt>
      <trkpt lat="44.35689" lon="2.78294">
        <ele>775</ele>
        <time>2019-04-07T11:51:49.579Z</time>
      </trkpt>
      <trkpt lat="44.35697" lon="2.78303">
        <ele>766.8610048</ele>
        <time>2019-04-07T11:51:52.579Z</time>
      </trkpt>
      <trkpt lat="44.35708" lon="2.78309">
        <ele>763.8610048</ele>
        <time>2019-04-07T11:51:55.579Z</time>
      </trkpt>
      <trkpt lat="44.35719" lon="2.78314">
        <ele>762.8610048</ele>
        <time>2019-04-07T11:51:57.579Z</time>
      </trkpt>
      <trkpt lat="44.35731" lon="2.78319">
        <ele>761.7220096</ele>
        <time>2019-04-07T11:51:59.579Z</time>
      </trkpt>
      <trkpt lat="44.35745" lon="2.7833">
        <ele>761</ele>
        <time>2019-04-07T11:52:01.579Z</time>
      </trkpt>
      <trkpt lat="44.3576" lon="2.78345">
        <ele>761</ele>
        <time>2019-04-07T11:52:03.579Z</time>
      </trkpt>
      <trkpt lat="44.35775" lon="2.78353">
        <ele>761</ele>
        <time>2019-04-07T11:52:05.579Z</time>
      </trkpt>
      <trkpt lat="44.35788" lon="2.78354">
        <ele>761.1389952</ele>
        <time>2019-04-07T11:52:07.579Z</time>
      </trkpt>
      <trkpt lat="44.35794" lon="2.7837">
        <ele>762</ele>
        <time>2019-04-07T11:52:10.579Z</time>
      </trkpt>
      <trkpt lat="44.35795" lon="2.78389">
        <ele>762</ele>
        <time>2019-04-07T11:52:13.579Z</time>
      </trkpt>
      <trkpt lat="44.35793" lon="2.78409">
        <ele>762</ele>
        <time>2019-04-07T11:52:16.579Z</time>
      </trkpt>
      <trkpt lat="44.35794" lon="2.78427">
        <ele>762</ele>
        <time>2019-04-07T11:52:19.579Z</time>
      </trkpt>
      <trkpt lat="44.35797" lon="2.78445">
        <ele>763</ele>
        <time>2019-04-07T11:52:22.579Z</time>
      </trkpt>
      <trkpt lat="44.35797" lon="2.78462">
        <ele>763</ele>
        <time>2019-04-07T11:52:25.579Z</time>
      </trkpt>
      <trkpt lat="44.35799" lon="2.78477">
        <ele>763</ele>
        <time>2019-04-07T11:52:28.579Z</time>
      </trkpt>
      <trkpt lat="44.35801" lon="2.78492">
        <ele>765</ele>
        <time>2019-04-07T11:52:31.579Z</time>
      </trkpt>
      <trkpt lat="44.35812" lon="2.78501">
        <ele>765</ele>
        <time>2019-04-07T11:52:35.579Z</time>
      </trkpt>
      <trkpt lat="44.35821" lon="2.78495">
        <ele>765</ele>
        <time>2019-04-07T11:52:38.579Z</time>
      </trkpt>
      <trkpt lat="44.35834" lon="2.78496">
        <ele>765</ele>
        <time>2019-04-07T11:52:43.579Z</time>
      </trkpt>
      <trkpt lat="44.35844" lon="2.78501">
        <ele>765</ele>
        <time>2019-04-07T11:52:46.579Z</time>
      </trkpt>
      <trkpt lat="44.35855" lon="2.78506">
        <ele>765</ele>
        <time>2019-04-07T11:52:49.579Z</time>
      </trkpt>
      <trkpt lat="44.35865" lon="2.78513">
        <ele>767</ele>
        <time>2019-04-07T11:52:53.579Z</time>
      </trkpt>
      <trkpt lat="44.35875" lon="2.7852">
        <ele>767</ele>
        <time>2019-04-07T11:52:57.579Z</time>
      </trkpt>
      <trkpt lat="44.35884" lon="2.78526">
        <ele>770</ele>
        <time>2019-04-07T11:53:01.579Z</time>
      </trkpt>
      <trkpt lat="44.3589" lon="2.78541">
        <ele>770.1389952</ele>
        <time>2019-04-07T11:53:05.579Z</time>
      </trkpt>
      <trkpt lat="44.35895" lon="2.78553">
        <ele>771</ele>
        <time>2019-04-07T11:53:09.579Z</time>
      </trkpt>
      <trkpt lat="44.35902" lon="2.78566">
        <ele>771</ele>
        <time>2019-04-07T11:53:14.579Z</time>
      </trkpt>
      <trkpt lat="44.35906" lon="2.7858">
        <ele>771</ele>
        <time>2019-04-07T11:53:19.579Z</time>
      </trkpt>
      <trkpt lat="44.35908" lon="2.78595">
        <ele>773</ele>
        <time>2019-04-07T11:53:23.579Z</time>
      </trkpt>
      <trkpt lat="44.35912" lon="2.78608">
        <ele>773</ele>
        <time>2019-04-07T11:53:28.579Z</time>
      </trkpt>
      <trkpt lat="44.35917" lon="2.78621">
        <ele>775</ele>
        <time>2019-04-07T11:53:33.579Z</time>
      </trkpt>
      <trkpt lat="44.35923" lon="2.78632">
        <ele>776</ele>
        <time>2019-04-07T11:53:37.579Z</time>
      </trkpt>
      <trkpt lat="44.35928" lon="2.78646">
        <ele>778</ele>
        <time>2019-04-07T11:53:42.579Z</time>
      </trkpt>
      <trkpt lat="44.35933" lon="2.7866">
        <ele>780</ele>
        <time>2019-04-07T11:53:46.579Z</time>
      </trkpt>
      <trkpt lat="44.3594" lon="2.78671">
        <ele>780</ele>
        <time>2019-04-07T11:53:51.579Z</time>
      </trkpt>
      <trkpt lat="44.35948" lon="2.78682">
        <ele>780</ele>
        <time>2019-04-07T11:53:57.579Z</time>
      </trkpt>
      <trkpt lat="44.35956" lon="2.78691">
        <ele>782</ele>
        <time>2019-04-07T11:54:01.579Z</time>
      </trkpt>
      <trkpt lat="44.35964" lon="2.78699">
        <ele>782</ele>
        <time>2019-04-07T11:54:06.579Z</time>
      </trkpt>
      <trkpt lat="44.35968" lon="2.78715">
        <ele>784</ele>
        <time>2019-04-07T11:54:11.579Z</time>
      </trkpt>
      <trkpt lat="44.35969" lon="2.78731">
        <ele>784</ele>
        <time>2019-04-07T11:54:16.579Z</time>
      </trkpt>
      <trkpt lat="44.3597" lon="2.78745">
        <ele>784.4169856</ele>
        <time>2019-04-07T11:54:20.579Z</time>
      </trkpt>
      <trkpt lat="44.35972" lon="2.78759">
        <ele>787</ele>
        <time>2019-04-07T11:54:24.579Z</time>
      </trkpt>
      <trkpt lat="44.35976" lon="2.78774">
        <ele>788</ele>
        <time>2019-04-07T11:54:29.579Z</time>
      </trkpt>
      <trkpt lat="44.35973" lon="2.78787">
        <ele>789.1389952</ele>
        <time>2019-04-07T11:54:35.579Z</time>
      </trkpt>
      <trkpt lat="44.35964" lon="2.78777">
        <ele>792</ele>
        <time>2019-04-07T11:54:42.579Z</time>
      </trkpt>
      <trkpt lat="44.35959" lon="2.78764">
        <ele>793</ele>
        <time>2019-04-07T11:54:48.579Z</time>
      </trkpt>
      <trkpt lat="44.35953" lon="2.78752">
        <ele>794</ele>
        <time>2019-04-07T11:54:54.579Z</time>
      </trkpt>
      <trkpt lat="44.35946" lon="2.78739">
        <ele>794.1389952</ele>
        <time>2019-04-07T11:55:00.579Z</time>
      </trkpt>
      <trkpt lat="44.35938" lon="2.78727">
        <ele>795</ele>
        <time>2019-04-07T11:55:05.579Z</time>
      </trkpt>
      <trkpt lat="44.35931" lon="2.78717">
        <ele>795.2779904</ele>
        <time>2019-04-07T11:55:10.579Z</time>
      </trkpt>
      <trkpt lat="44.35923" lon="2.78708">
        <ele>797</ele>
        <time>2019-04-07T11:55:15.579Z</time>
      </trkpt>
      <trkpt lat="44.35914" lon="2.787">
        <ele>797</ele>
        <time>2019-04-07T11:55:21.579Z</time>
      </trkpt>
      <trkpt lat="44.35905" lon="2.78691">
        <ele>797</ele>
        <time>2019-04-07T11:55:27.579Z</time>
      </trkpt>
      <trkpt lat="44.35896" lon="2.78681">
        <ele>799</ele>
        <time>2019-04-07T11:55:32.579Z</time>
      </trkpt>
      <trkpt lat="44.35888" lon="2.78672">
        <ele>799</ele>
        <time>2019-04-07T11:55:36.579Z</time>
      </trkpt>
      <trkpt lat="44.35879" lon="2.78664">
        <ele>802</ele>
        <time>2019-04-07T11:55:41.579Z</time>
      </trkpt>
      <trkpt lat="44.35869" lon="2.78658">
        <ele>804</ele>
        <time>2019-04-07T11:55:46.579Z</time>
      </trkpt>
      <trkpt lat="44.3586" lon="2.78651">
        <ele>804</ele>
        <time>2019-04-07T11:55:51.579Z</time>
      </trkpt>
      <trkpt lat="44.3585" lon="2.78646">
        <ele>804</ele>
        <time>2019-04-07T11:55:56.579Z</time>
      </trkpt>
      <trkpt lat="44.35841" lon="2.78641">
        <ele>806</ele>
        <time>2019-04-07T11:56:01.579Z</time>
      </trkpt>
      <trkpt lat="44.3583" lon="2.78636">
        <ele>806</ele>
        <time>2019-04-07T11:56:06.579Z</time>
      </trkpt>
      <trkpt lat="44.35819" lon="2.78632">
        <ele>807</ele>
        <time>2019-04-07T11:56:11.579Z</time>
      </trkpt>
      <trkpt lat="44.35809" lon="2.78627">
        <ele>807</ele>
        <time>2019-04-07T11:56:16.579Z</time>
      </trkpt>
      <trkpt lat="44.35798" lon="2.78618">
        <ele>809</ele>
        <time>2019-04-07T11:56:21.579Z</time>
      </trkpt>
      <trkpt lat="44.3579" lon="2.78611">
        <ele>809</ele>
        <time>2019-04-07T11:56:25.579Z</time>
      </trkpt>
      <trkpt lat="44.35781" lon="2.78604">
        <ele>809.2779904</ele>
        <time>2019-04-07T11:56:30.579Z</time>
      </trkpt>
      <trkpt lat="44.35772" lon="2.786">
        <ele>811</ele>
        <time>2019-04-07T11:56:34.579Z</time>
      </trkpt>
      <trkpt lat="44.3576" lon="2.78595">
        <ele>811</ele>
        <time>2019-04-07T11:56:38.579Z</time>
      </trkpt>
      <trkpt lat="44.3575" lon="2.78593">
        <ele>813</ele>
        <time>2019-04-07T11:56:41.579Z</time>
      </trkpt>
      <trkpt lat="44.35738" lon="2.78589">
        <ele>813</ele>
        <time>2019-04-07T11:56:45.579Z</time>
      </trkpt>
      <trkpt lat="44.3573" lon="2.78579">
        <ele>813</ele>
        <time>2019-04-07T11:56:49.579Z</time>
      </trkpt>
      <trkpt lat="44.35726" lon="2.78568">
        <ele>815</ele>
        <time>2019-04-07T11:56:52.579Z</time>
      </trkpt>
      <trkpt lat="44.35719" lon="2.78557">
        <ele>815</ele>
        <time>2019-04-07T11:56:55.579Z</time>
      </trkpt>
      <trkpt lat="44.35715" lon="2.78551">
        <ele>815</ele>
        <time>2019-04-07T11:56:57.579Z</time>
      </trkpt>
      <trkpt lat="44.35711" lon="2.78545">
        <ele>815</ele>
        <time>2019-04-07T11:56:59.579Z</time>
      </trkpt>
      <trkpt lat="44.35705" lon="2.78537">
        <ele>817</ele>
        <time>2019-04-07T11:57:02.579Z</time>
      </trkpt>
      <trkpt lat="44.357" lon="2.78529">
        <ele>817</ele>
        <time>2019-04-07T11:57:05.579Z</time>
      </trkpt>
      <trkpt lat="44.35696" lon="2.78519">
        <ele>817</ele>
        <time>2019-04-07T11:57:09.579Z</time>
      </trkpt>
      <trkpt lat="44.35693" lon="2.78504">
        <ele>819</ele>
        <time>2019-04-07T11:57:14.579Z</time>
      </trkpt>
      <trkpt lat="44.35687" lon="2.78493">
        <ele>819</ele>
        <time>2019-04-07T11:57:18.579Z</time>
      </trkpt>
      <trkpt lat="44.35685" lon="2.78506">
        <ele>823</ele>
        <time>2019-04-07T11:57:26.579Z</time>
      </trkpt>
      <trkpt lat="44.35687" lon="2.78521">
        <ele>823.1389952</ele>
        <time>2019-04-07T11:57:30.579Z</time>
      </trkpt>
      <trkpt lat="44.35691" lon="2.78532">
        <ele>824</ele>
        <time>2019-04-07T11:57:33.579Z</time>
      </trkpt>
      <trkpt lat="44.35698" lon="2.78544">
        <ele>824</ele>
        <time>2019-04-07T11:57:36.579Z</time>
      </trkpt>
      <trkpt lat="44.35705" lon="2.78553">
        <ele>824</ele>
        <time>2019-04-07T11:57:38.579Z</time>
      </trkpt>
      <trkpt lat="44.35712" lon="2.78562">
        <ele>824</ele>
        <time>2019-04-07T11:57:40.579Z</time>
      </trkpt>
      <trkpt lat="44.35718" lon="2.78573">
        <ele>824</ele>
        <time>2019-04-07T11:57:42.579Z</time>
      </trkpt>
      <trkpt lat="44.35722" lon="2.78587">
        <ele>824</ele>
        <time>2019-04-07T11:57:44.579Z</time>
      </trkpt>
      <trkpt lat="44.35724" lon="2.78601">
        <ele>824</ele>
        <time>2019-04-07T11:57:46.579Z</time>
      </trkpt>
      <trkpt lat="44.35728" lon="2.78614">
        <ele>824</ele>
        <time>2019-04-07T11:57:48.579Z</time>
      </trkpt>
      <trkpt lat="44.35739" lon="2.78627">
        <ele>823</ele>
        <time>2019-04-07T11:57:51.579Z</time>
      </trkpt>
      <trkpt lat="44.35752" lon="2.78632">
        <ele>823</ele>
        <time>2019-04-07T11:57:53.579Z</time>
      </trkpt>
      <trkpt lat="44.35762" lon="2.78639">
        <ele>823</ele>
        <time>2019-04-07T11:57:55.579Z</time>
      </trkpt>
      <trkpt lat="44.35775" lon="2.78647">
        <ele>823</ele>
        <time>2019-04-07T11:57:57.579Z</time>
      </trkpt>
      <trkpt lat="44.35788" lon="2.78655">
        <ele>823</ele>
        <time>2019-04-07T11:57:59.579Z</time>
      </trkpt>
      <trkpt lat="44.358" lon="2.78664">
        <ele>821</ele>
        <time>2019-04-07T11:58:01.579Z</time>
      </trkpt>
      <trkpt lat="44.35813" lon="2.78671">
        <ele>821</ele>
        <time>2019-04-07T11:58:03.579Z</time>
      </trkpt>
      <trkpt lat="44.35826" lon="2.78679">
        <ele>821</ele>
        <time>2019-04-07T11:58:05.579Z</time>
      </trkpt>
      <trkpt lat="44.3584" lon="2.78687">
        <ele>821</ele>
        <time>2019-04-07T11:58:07.579Z</time>
      </trkpt>
      <trkpt lat="44.35853" lon="2.78695">
        <ele>821</ele>
        <time>2019-04-07T11:58:09.579Z</time>
      </trkpt>
      <trkpt lat="44.35867" lon="2.78702">
        <ele>821</ele>
        <time>2019-04-07T11:58:11.579Z</time>
      </trkpt>
      <trkpt lat="44.35878" lon="2.78713">
        <ele>821</ele>
        <time>2019-04-07T11:58:13.579Z</time>
      </trkpt>
      <trkpt lat="44.35887" lon="2.78726">
        <ele>821</ele>
        <time>2019-04-07T11:58:15.579Z</time>
      </trkpt>
      <trkpt lat="44.35897" lon="2.7874">
        <ele>821</ele>
        <time>2019-04-07T11:58:17.579Z</time>
      </trkpt>
      <trkpt lat="44.35906" lon="2.78755">
        <ele>821</ele>
        <time>2019-04-07T11:58:19.579Z</time>
      </trkpt>
      <trkpt lat="44.35917" lon="2.78771">
        <ele>820</ele>
        <time>2019-04-07T11:58:21.579Z</time>
      </trkpt>
      <trkpt lat="44.35927" lon="2.78788">
        <ele>820</ele>
        <time>2019-04-07T11:58:23.579Z</time>
      </trkpt>
      <trkpt lat="44.35937" lon="2.78803">
        <ele>820</ele>
        <time>2019-04-07T11:58:25.579Z</time>
      </trkpt>
      <trkpt lat="44.35946" lon="2.7882">
        <ele>820</ele>
        <time>2019-04-07T11:58:27.579Z</time>
      </trkpt>
      <trkpt lat="44.35955" lon="2.78836">
        <ele>820</ele>
        <time>2019-04-07T11:58:29.579Z</time>
      </trkpt>
      <trkpt lat="44.35962" lon="2.78852">
        <ele>817</ele>
        <time>2019-04-07T11:58:31.579Z</time>
      </trkpt>
      <trkpt lat="44.35965" lon="2.78869">
        <ele>817</ele>
        <time>2019-04-07T11:58:33.579Z</time>
      </trkpt>
      <trkpt lat="44.35964" lon="2.78896">
        <ele>816.5830144</ele>
        <time>2019-04-07T11:58:35.579Z</time>
      </trkpt>
      <trkpt lat="44.3596" lon="2.78921">
        <ele>814</ele>
        <time>2019-04-07T11:58:37.579Z</time>
      </trkpt>
      <trkpt lat="44.35956" lon="2.78933">
        <ele>814</ele>
        <time>2019-04-07T11:58:38.579Z</time>
      </trkpt>
      <trkpt lat="44.35946" lon="2.78956">
        <ele>813.86238055408</ele>
        <time>2019-04-07T11:58:40.579Z</time>
      </trkpt>
      <trkpt lat="44.35935" lon="2.78976">
        <ele>813</ele>
        <time>2019-04-07T11:58:42.579Z</time>
      </trkpt>
      <trkpt lat="44.35923" lon="2.7899">
        <ele>813</ele>
        <time>2019-04-07T11:58:44.579Z</time>
      </trkpt>
      <trkpt lat="44.35911" lon="2.79002">
        <ele>811</ele>
        <time>2019-04-07T11:58:46.579Z</time>
      </trkpt>
      <trkpt lat="44.35899" lon="2.79014">
        <ele>811</ele>
        <time>2019-04-07T11:58:48.579Z</time>
      </trkpt>
      <trkpt lat="44.35887" lon="2.79028">
        <ele>810.8610048</ele>
        <time>2019-04-07T11:58:50.579Z</time>
      </trkpt>
      <trkpt lat="44.35876" lon="2.79041">
        <ele>810</ele>
        <time>2019-04-07T11:58:52.579Z</time>
      </trkpt>
      <trkpt lat="44.35866" lon="2.79055">
        <ele>810</ele>
        <time>2019-04-07T11:58:54.579Z</time>
      </trkpt>
      <trkpt lat="44.35855" lon="2.79068">
        <ele>810</ele>
        <time>2019-04-07T11:58:56.579Z</time>
      </trkpt>
      <trkpt lat="44.35845" lon="2.79081">
        <ele>810</ele>
        <time>2019-04-07T11:58:58.579Z</time>
      </trkpt>
      <trkpt lat="44.35835" lon="2.79095">
        <ele>810</ele>
        <time>2019-04-07T11:59:00.579Z</time>
      </trkpt>
      <trkpt lat="44.35824" lon="2.79109">
        <ele>810</ele>
        <time>2019-04-07T11:59:02.579Z</time>
      </trkpt>
      <trkpt lat="44.35816" lon="2.79122">
        <ele>810</ele>
        <time>2019-04-07T11:59:04.579Z</time>
      </trkpt>
      <trkpt lat="44.3581" lon="2.79135">
        <ele>810</ele>
        <time>2019-04-07T11:59:06.579Z</time>
      </trkpt>
      <trkpt lat="44.35802" lon="2.79148">
        <ele>810</ele>
        <time>2019-04-07T11:59:08.579Z</time>
      </trkpt>
      <trkpt lat="44.35793" lon="2.7916">
        <ele>810</ele>
        <time>2019-04-07T11:59:10.579Z</time>
      </trkpt>
      <trkpt lat="44.35783" lon="2.7917">
        <ele>810</ele>
        <time>2019-04-07T11:59:12.579Z</time>
      </trkpt>
      <trkpt lat="44.35773" lon="2.79178">
        <ele>810</ele>
        <time>2019-04-07T11:59:14.579Z</time>
      </trkpt>
      <trkpt lat="44.3576" lon="2.79182">
        <ele>810</ele>
        <time>2019-04-07T11:59:16.579Z</time>
      </trkpt>
      <trkpt lat="44.35748" lon="2.79184">
        <ele>810</ele>
        <time>2019-04-07T11:59:18.579Z</time>
      </trkpt>
      <trkpt lat="44.35741" lon="2.79184">
        <ele>810</ele>
        <time>2019-04-07T11:59:19.579Z</time>
      </trkpt>
      <trkpt lat="44.35735" lon="2.79185">
        <ele>809.7220096</ele>
        <time>2019-04-07T11:59:20.579Z</time>
      </trkpt>
      <trkpt lat="44.35729" lon="2.79186">
        <ele>808</ele>
        <time>2019-04-07T11:59:21.579Z</time>
      </trkpt>
      <trkpt lat="44.35723" lon="2.79188">
        <ele>808</ele>
        <time>2019-04-07T11:59:22.579Z</time>
      </trkpt>
      <trkpt lat="44.35717" lon="2.7919">
        <ele>808</ele>
        <time>2019-04-07T11:59:23.579Z</time>
      </trkpt>
      <trkpt lat="44.35711" lon="2.79192">
        <ele>808</ele>
        <time>2019-04-07T11:59:24.579Z</time>
      </trkpt>
      <trkpt lat="44.35705" lon="2.79194">
        <ele>808</ele>
        <time>2019-04-07T11:59:25.579Z</time>
      </trkpt>
      <trkpt lat="44.35694" lon="2.79199">
        <ele>808</ele>
        <time>2019-04-07T11:59:27.579Z</time>
      </trkpt>
      <trkpt lat="44.35682" lon="2.79205">
        <ele>808</ele>
        <time>2019-04-07T11:59:29.579Z</time>
      </trkpt>
      <trkpt lat="44.35671" lon="2.79214">
        <ele>807</ele>
        <time>2019-04-07T11:59:31.579Z</time>
      </trkpt>
      <trkpt lat="44.35659" lon="2.79223">
        <ele>807</ele>
        <time>2019-04-07T11:59:33.579Z</time>
      </trkpt>
      <trkpt lat="44.35653" lon="2.79228">
        <ele>807</ele>
        <time>2019-04-07T11:59:34.579Z</time>
      </trkpt>
      <trkpt lat="44.35648" lon="2.79233">
        <ele>807</ele>
        <time>2019-04-07T11:59:35.579Z</time>
      </trkpt>
      <trkpt lat="44.35642" lon="2.79237">
        <ele>807</ele>
        <time>2019-04-07T11:59:36.579Z</time>
      </trkpt>
      <trkpt lat="44.35636" lon="2.7924">
        <ele>807</ele>
        <time>2019-04-07T11:59:37.579Z</time>
      </trkpt>
      <trkpt lat="44.35624" lon="2.79244">
        <ele>807</ele>
        <time>2019-04-07T11:59:39.579Z</time>
      </trkpt>
      <trkpt lat="44.35619" lon="2.79244">
        <ele>806.8610048</ele>
        <time>2019-04-07T11:59:40.579Z</time>
      </trkpt>
      <trkpt lat="44.35608" lon="2.79241">
        <ele>806</ele>
        <time>2019-04-07T11:59:42.579Z</time>
      </trkpt>
      <trkpt lat="44.35599" lon="2.79235">
        <ele>806</ele>
        <time>2019-04-07T11:59:44.579Z</time>
      </trkpt>
      <trkpt lat="44.35591" lon="2.79227">
        <ele>806</ele>
        <time>2019-04-07T11:59:46.579Z</time>
      </trkpt>
      <trkpt lat="44.35584" lon="2.79216">
        <ele>806</ele>
        <time>2019-04-07T11:59:48.579Z</time>
      </trkpt>
      <trkpt lat="44.35577" lon="2.79204">
        <ele>806</ele>
        <time>2019-04-07T11:59:50.579Z</time>
      </trkpt>
      <trkpt lat="44.3557" lon="2.79192">
        <ele>806</ele>
        <time>2019-04-07T11:59:52.579Z</time>
      </trkpt>
      <trkpt lat="44.35561" lon="2.79175">
        <ele>806</ele>
        <time>2019-04-07T11:59:55.579Z</time>
      </trkpt>
      <trkpt lat="44.35552" lon="2.79165">
        <ele>806</ele>
        <time>2019-04-07T11:59:57.579Z</time>
      </trkpt>
      <trkpt lat="44.35544" lon="2.79157">
        <ele>806</ele>
        <time>2019-04-07T11:59:59.579Z</time>
      </trkpt>
      <trkpt lat="44.35532" lon="2.79143">
        <ele>807</ele>
        <time>2019-04-07T12:00:02.579Z</time>
      </trkpt>
      <trkpt lat="44.35524" lon="2.79132">
        <ele>807</ele>
        <time>2019-04-07T12:00:04.579Z</time>
      </trkpt>
      <trkpt lat="44.35516" lon="2.79123">
        <ele>807</ele>
        <time>2019-04-07T12:00:06.579Z</time>
      </trkpt>
      <trkpt lat="44.35509" lon="2.79113">
        <ele>807</ele>
        <time>2019-04-07T12:00:08.579Z</time>
      </trkpt>
      <trkpt lat="44.355" lon="2.79104">
        <ele>806</ele>
        <time>2019-04-07T12:00:12.579Z</time>
      </trkpt>
      <trkpt lat="44.35496" lon="2.79117">
        <ele>807</ele>
        <time>2019-04-07T12:00:23.579Z</time>
      </trkpt>
      <trkpt lat="44.35494" lon="2.79132">
        <ele>807</ele>
        <time>2019-04-07T12:00:29.579Z</time>
      </trkpt>
      <trkpt lat="44.35491" lon="2.79149">
        <ele>807</ele>
        <time>2019-04-07T12:00:32.579Z</time>
      </trkpt>
      <trkpt lat="44.3549" lon="2.79167">
        <ele>807</ele>
        <time>2019-04-07T12:00:35.579Z</time>
      </trkpt>
      <trkpt lat="44.35487" lon="2.79185">
        <ele>807</ele>
        <time>2019-04-07T12:00:38.579Z</time>
      </trkpt>
      <trkpt lat="44.35485" lon="2.79204">
        <ele>807</ele>
        <time>2019-04-07T12:00:42.579Z</time>
      </trkpt>
      <trkpt lat="44.35483" lon="2.79219">
        <ele>807</ele>
        <time>2019-04-07T12:00:44.579Z</time>
      </trkpt>
      <trkpt lat="44.35476" lon="2.79239">
        <ele>807</ele>
        <time>2019-04-07T12:00:46.579Z</time>
      </trkpt>
      <trkpt lat="44.35467" lon="2.79257">
        <ele>807</ele>
        <time>2019-04-07T12:00:48.579Z</time>
      </trkpt>
      <trkpt lat="44.3546" lon="2.79272">
        <ele>806.5830144</ele>
        <time>2019-04-07T12:00:50.579Z</time>
      </trkpt>
      <trkpt lat="44.35457" lon="2.79287">
        <ele>804</ele>
        <time>2019-04-07T12:00:52.579Z</time>
      </trkpt>
      <trkpt lat="44.35454" lon="2.79301">
        <ele>804</ele>
        <time>2019-04-07T12:00:54.579Z</time>
      </trkpt>
      <trkpt lat="44.35449" lon="2.79314">
        <ele>801</ele>
        <time>2019-04-07T12:00:56.579Z</time>
      </trkpt>
      <trkpt lat="44.35441" lon="2.79328">
        <ele>801</ele>
        <time>2019-04-07T12:00:58.579Z</time>
      </trkpt>
      <trkpt lat="44.35433" lon="2.79339">
        <ele>800.4440192</ele>
        <time>2019-04-07T12:01:00.579Z</time>
      </trkpt>
      <trkpt lat="44.35419" lon="2.79347">
        <ele>796</ele>
        <time>2019-04-07T12:01:02.579Z</time>
      </trkpt>
      <trkpt lat="44.35405" lon="2.79356">
        <ele>796</ele>
        <time>2019-04-07T12:01:04.579Z</time>
      </trkpt>
      <trkpt lat="44.35396" lon="2.79362">
        <ele>796</ele>
        <time>2019-04-07T12:01:06.579Z</time>
      </trkpt>
      <trkpt lat="44.35388" lon="2.79375">
        <ele>798</ele>
        <time>2019-04-07T12:01:10.579Z</time>
      </trkpt>
      <trkpt lat="44.35379" lon="2.79385">
        <ele>798</ele>
        <time>2019-04-07T12:01:14.579Z</time>
      </trkpt>
      <trkpt lat="44.35371" lon="2.79393">
        <ele>798</ele>
        <time>2019-04-07T12:01:17.579Z</time>
      </trkpt>
      <trkpt lat="44.35361" lon="2.794">
        <ele>798</ele>
        <time>2019-04-07T12:01:20.579Z</time>
      </trkpt>
      <trkpt lat="44.35353" lon="2.79403">
        <ele>798</ele>
        <time>2019-04-07T12:01:22.579Z</time>
      </trkpt>
      <trkpt lat="44.35345" lon="2.7941">
        <ele>798</ele>
        <time>2019-04-07T12:01:24.579Z</time>
      </trkpt>
      <trkpt lat="44.3534" lon="2.79424">
        <ele>798</ele>
        <time>2019-04-07T12:01:26.579Z</time>
      </trkpt>
      <trkpt lat="44.35338" lon="2.79437">
        <ele>798</ele>
        <time>2019-04-07T12:01:28.579Z</time>
      </trkpt>
      <trkpt lat="44.35336" lon="2.79453">
        <ele>799</ele>
        <time>2019-04-07T12:01:34.579Z</time>
      </trkpt>
      <trkpt lat="44.3534" lon="2.79465">
        <ele>799.2779904</ele>
        <time>2019-04-07T12:01:40.579Z</time>
      </trkpt>
      <trkpt lat="44.35344" lon="2.79481">
        <ele>801</ele>
        <time>2019-04-07T12:01:44.579Z</time>
      </trkpt>
      <trkpt lat="44.35338" lon="2.79496">
        <ele>801</ele>
        <time>2019-04-07T12:01:46.579Z</time>
      </trkpt>
      <trkpt lat="44.35328" lon="2.79509">
        <ele>801</ele>
        <time>2019-04-07T12:01:48.579Z</time>
      </trkpt>
      <trkpt lat="44.35319" lon="2.79518">
        <ele>800.7220096</ele>
        <time>2019-04-07T12:01:50.579Z</time>
      </trkpt>
      <trkpt lat="44.3531" lon="2.79529">
        <ele>799</ele>
        <time>2019-04-07T12:01:54.579Z</time>
      </trkpt>
      <trkpt lat="44.35305" lon="2.79543">
        <ele>799</ele>
        <time>2019-04-07T12:01:57.579Z</time>
      </trkpt>
      <trkpt lat="44.35307" lon="2.79564">
        <ele>797.610048</ele>
        <time>2019-04-07T12:02:00.579Z</time>
      </trkpt>
      <trkpt lat="44.35306" lon="2.79582">
        <ele>788.5830144</ele>
        <time>2019-04-07T12:02:02.579Z</time>
      </trkpt>
      <trkpt lat="44.35302" lon="2.79603">
        <ele>785</ele>
        <time>2019-04-07T12:02:04.579Z</time>
      </trkpt>
      <trkpt lat="44.35297" lon="2.7962">
        <ele>783.8610048</ele>
        <time>2019-04-07T12:02:06.579Z</time>
      </trkpt>
      <trkpt lat="44.3529" lon="2.79636">
        <ele>781.8610048</ele>
        <time>2019-04-07T12:02:08.579Z</time>
      </trkpt>
      <trkpt lat="44.3528" lon="2.79651">
        <ele>780</ele>
        <time>2019-04-07T12:02:10.579Z</time>
      </trkpt>
      <trkpt lat="44.35269" lon="2.79669">
        <ele>778.7220096</ele>
        <time>2019-04-07T12:02:12.579Z</time>
      </trkpt>
      <trkpt lat="44.3526" lon="2.79681">
        <ele>777</ele>
        <time>2019-04-07T12:02:14.579Z</time>
      </trkpt>
      <trkpt lat="44.3525" lon="2.79691">
        <ele>775.7220096</ele>
        <time>2019-04-07T12:02:16.579Z</time>
      </trkpt>
      <trkpt lat="44.35239" lon="2.79701">
        <ele>772.7220096</ele>
        <time>2019-04-07T12:02:18.579Z</time>
      </trkpt>
      <trkpt lat="44.35232" lon="2.79717">
        <ele>769.8610048</ele>
        <time>2019-04-07T12:02:21.579Z</time>
      </trkpt>
      <trkpt lat="44.35226" lon="2.79732">
        <ele>768</ele>
        <time>2019-04-07T12:02:24.579Z</time>
      </trkpt>
      <trkpt lat="44.35223" lon="2.79746">
        <ele>765.8610048</ele>
        <time>2019-04-07T12:02:26.579Z</time>
      </trkpt>
      <trkpt lat="44.35216" lon="2.79758">
        <ele>763.7220096</ele>
        <time>2019-04-07T12:02:28.579Z</time>
      </trkpt>
      <trkpt lat="44.35206" lon="2.79769">
        <ele>759.8610048</ele>
        <time>2019-04-07T12:02:30.579Z</time>
      </trkpt>
      <trkpt lat="44.35197" lon="2.79777">
        <ele>759</ele>
        <time>2019-04-07T12:02:32.579Z</time>
      </trkpt>
      <trkpt lat="44.35189" lon="2.79791">
        <ele>757.7220096</ele>
        <time>2019-04-07T12:02:35.579Z</time>
      </trkpt>
      <trkpt lat="44.35197" lon="2.798">
        <ele>754.8610048</ele>
        <time>2019-04-07T12:02:39.579Z</time>
      </trkpt>
      <trkpt lat="44.35205" lon="2.79809">
        <ele>750.8610048</ele>
        <time>2019-04-07T12:02:44.579Z</time>
      </trkpt>
      <trkpt lat="44.35205" lon="2.79828">
        <ele>748.1389952</ele>
        <time>2019-04-07T12:02:49.579Z</time>
      </trkpt>
      <trkpt lat="44.35209" lon="2.79842">
        <ele>750</ele>
        <time>2019-04-07T12:02:57.579Z</time>
      </trkpt>
      <trkpt lat="44.3522" lon="2.7984">
        <ele>750</ele>
        <time>2019-04-07T12:03:05.579Z</time>
      </trkpt>
      <trkpt lat="44.35229" lon="2.79833">
        <ele>750</ele>
        <time>2019-04-07T12:03:08.579Z</time>
      </trkpt>
      <trkpt lat="44.3524" lon="2.79826">
        <ele>751</ele>
        <time>2019-04-07T12:03:11.579Z</time>
      </trkpt>
      <trkpt lat="44.35249" lon="2.79817">
        <ele>751</ele>
        <time>2019-04-07T12:03:14.579Z</time>
      </trkpt>
      <trkpt lat="44.3526" lon="2.79808">
        <ele>751</ele>
        <time>2019-04-07T12:03:18.579Z</time>
      </trkpt>
      <trkpt lat="44.35272" lon="2.79801">
        <ele>753</ele>
        <time>2019-04-07T12:03:22.579Z</time>
      </trkpt>
      <trkpt lat="44.35282" lon="2.79795">
        <ele>753</ele>
        <time>2019-04-07T12:03:24.579Z</time>
      </trkpt>
      <trkpt lat="44.35291" lon="2.79784">
        <ele>753</ele>
        <time>2019-04-07T12:03:27.579Z</time>
      </trkpt>
      <trkpt lat="44.35298" lon="2.79772">
        <ele>752</ele>
        <time>2019-04-07T12:03:31.579Z</time>
      </trkpt>
      <trkpt lat="44.35308" lon="2.7976">
        <ele>752</ele>
        <time>2019-04-07T12:03:34.579Z</time>
      </trkpt>
      <trkpt lat="44.35319" lon="2.79747">
        <ele>752</ele>
        <time>2019-04-07T12:03:37.579Z</time>
      </trkpt>
      <trkpt lat="44.3533" lon="2.79736">
        <ele>751.7220096</ele>
        <time>2019-04-07T12:03:40.579Z</time>
      </trkpt>
      <trkpt lat="44.35339" lon="2.79724">
        <ele>750</ele>
        <time>2019-04-07T12:03:43.579Z</time>
      </trkpt>
      <trkpt lat="44.35346" lon="2.79713">
        <ele>750</ele>
        <time>2019-04-07T12:03:45.579Z</time>
      </trkpt>
      <trkpt lat="44.35352" lon="2.79698">
        <ele>750</ele>
        <time>2019-04-07T12:03:47.579Z</time>
      </trkpt>
      <trkpt lat="44.35356" lon="2.79683">
        <ele>750</ele>
        <time>2019-04-07T12:03:49.579Z</time>
      </trkpt>
      <trkpt lat="44.3536" lon="2.79667">
        <ele>748</ele>
        <time>2019-04-07T12:03:51.579Z</time>
      </trkpt>
      <trkpt lat="44.35365" lon="2.79651">
        <ele>748</ele>
        <time>2019-04-07T12:03:53.579Z</time>
      </trkpt>
      <trkpt lat="44.35373" lon="2.79633">
        <ele>747.5830144</ele>
        <time>2019-04-07T12:03:55.579Z</time>
      </trkpt>
      <trkpt lat="44.3538" lon="2.79622">
        <ele>745</ele>
        <time>2019-04-07T12:03:56.579Z</time>
      </trkpt>
      <trkpt lat="44.35392" lon="2.79606">
        <ele>745</ele>
        <time>2019-04-07T12:03:58.579Z</time>
      </trkpt>
      <trkpt lat="44.35403" lon="2.79592">
        <ele>744.1660288</ele>
        <time>2019-04-07T12:04:00.579Z</time>
      </trkpt>
      <trkpt lat="44.35416" lon="2.79577">
        <ele>739.1389952</ele>
        <time>2019-04-07T12:04:02.579Z</time>
      </trkpt>
      <trkpt lat="44.35432" lon="2.79566">
        <ele>738</ele>
        <time>2019-04-07T12:04:04.579Z</time>
      </trkpt>
      <trkpt lat="44.35449" lon="2.79556">
        <ele>737.86238055408</ele>
        <time>2019-04-07T12:04:06.579Z</time>
      </trkpt>
      <trkpt lat="44.35464" lon="2.79545">
        <ele>736</ele>
        <time>2019-04-07T12:04:08.579Z</time>
      </trkpt>
      <trkpt lat="44.3548" lon="2.79534">
        <ele>734.8610048</ele>
        <time>2019-04-07T12:04:10.579Z</time>
      </trkpt>
      <trkpt lat="44.3549" lon="2.79528">
        <ele>734</ele>
        <time>2019-04-07T12:04:11.579Z</time>
      </trkpt>
      <trkpt lat="44.355" lon="2.79523">
        <ele>734</ele>
        <time>2019-04-07T12:04:12.579Z</time>
      </trkpt>
      <trkpt lat="44.35517" lon="2.79513">
        <ele>734</ele>
        <time>2019-04-07T12:04:14.579Z</time>
      </trkpt>
      <trkpt lat="44.35531" lon="2.79503">
        <ele>729</ele>
        <time>2019-04-07T12:04:16.579Z</time>
      </trkpt>
      <trkpt lat="44.35543" lon="2.7949">
        <ele>729</ele>
        <time>2019-04-07T12:04:18.579Z</time>
      </trkpt>
      <trkpt lat="44.35553" lon="2.79479">
        <ele>728.5830144</ele>
        <time>2019-04-07T12:04:20.579Z</time>
      </trkpt>
      <trkpt lat="44.35562" lon="2.79475">
        <ele>725.1389952</ele>
        <time>2019-04-07T12:04:23.579Z</time>
      </trkpt>
      <trkpt lat="44.35575" lon="2.79473">
        <ele>726.1389952</ele>
        <time>2019-04-07T12:04:26.579Z</time>
      </trkpt>
      <trkpt lat="44.35587" lon="2.79471">
        <ele>728</ele>
        <time>2019-04-07T12:04:28.579Z</time>
      </trkpt>
      <trkpt lat="44.35597" lon="2.79473">
        <ele>728.1389952</ele>
        <time>2019-04-07T12:04:30.579Z</time>
      </trkpt>
      <trkpt lat="44.35607" lon="2.79476">
        <ele>729</ele>
        <time>2019-04-07T12:04:32.579Z</time>
      </trkpt>
      <trkpt lat="44.35617" lon="2.79475">
        <ele>729</ele>
        <time>2019-04-07T12:04:34.579Z</time>
      </trkpt>
      <trkpt lat="44.35633" lon="2.79477">
        <ele>729</ele>
        <time>2019-04-07T12:04:37.579Z</time>
      </trkpt>
      <trkpt lat="44.35643" lon="2.79477">
        <ele>729</ele>
        <time>2019-04-07T12:04:39.579Z</time>
      </trkpt>
      <trkpt lat="44.35653" lon="2.79476">
        <ele>731</ele>
        <time>2019-04-07T12:04:41.579Z</time>
      </trkpt>
      <trkpt lat="44.35662" lon="2.79483">
        <ele>731</ele>
        <time>2019-04-07T12:04:45.579Z</time>
      </trkpt>
      <trkpt lat="44.35672" lon="2.79485">
        <ele>731</ele>
        <time>2019-04-07T12:04:48.579Z</time>
      </trkpt>
      <trkpt lat="44.35682" lon="2.79496">
        <ele>733</ele>
        <time>2019-04-07T12:04:52.579Z</time>
      </trkpt>
      <trkpt lat="44.35693" lon="2.795">
        <ele>733.1389952</ele>
        <time>2019-04-07T12:04:55.579Z</time>
      </trkpt>
      <trkpt lat="44.35703" lon="2.79504">
        <ele>734</ele>
        <time>2019-04-07T12:04:59.579Z</time>
      </trkpt>
      <trkpt lat="44.35714" lon="2.79508">
        <ele>735</ele>
        <time>2019-04-07T12:05:04.579Z</time>
      </trkpt>
      <trkpt lat="44.35724" lon="2.79506">
        <ele>735.2779904</ele>
        <time>2019-04-07T12:05:10.579Z</time>
      </trkpt>
      <trkpt lat="44.35735" lon="2.79507">
        <ele>737</ele>
        <time>2019-04-07T12:05:15.579Z</time>
      </trkpt>
      <trkpt lat="44.35747" lon="2.79511">
        <ele>737.4169856</ele>
        <time>2019-04-07T12:05:20.579Z</time>
      </trkpt>
      <trkpt lat="44.35758" lon="2.79509">
        <ele>740</ele>
        <time>2019-04-07T12:05:23.579Z</time>
      </trkpt>
      <trkpt lat="44.35764" lon="2.79523">
        <ele>741</ele>
        <time>2019-04-07T12:05:28.579Z</time>
      </trkpt>
      <trkpt lat="44.35775" lon="2.7953">
        <ele>741</ele>
        <time>2019-04-07T12:05:33.579Z</time>
      </trkpt>
      <trkpt lat="44.35786" lon="2.79531">
        <ele>741</ele>
        <time>2019-04-07T12:05:38.579Z</time>
      </trkpt>
      <trkpt lat="44.35797" lon="2.79534">
        <ele>742</ele>
        <time>2019-04-07T12:05:44.579Z</time>
      </trkpt>
      <trkpt lat="44.35808" lon="2.79535">
        <ele>742</ele>
        <time>2019-04-07T12:05:48.579Z</time>
      </trkpt>
      <trkpt lat="44.3582" lon="2.79535">
        <ele>743</ele>
        <time>2019-04-07T12:05:53.579Z</time>
      </trkpt>
      <trkpt lat="44.3583" lon="2.79538">
        <ele>743</ele>
        <time>2019-04-07T12:05:58.579Z</time>
      </trkpt>
      <trkpt lat="44.35838" lon="2.7955">
        <ele>746</ele>
        <time>2019-04-07T12:06:03.579Z</time>
      </trkpt>
      <trkpt lat="44.35848" lon="2.79561">
        <ele>746</ele>
        <time>2019-04-07T12:06:08.579Z</time>
      </trkpt>
      <trkpt lat="44.35857" lon="2.79567">
        <ele>748</ele>
        <time>2019-04-07T12:06:12.579Z</time>
      </trkpt>
      <trkpt lat="44.35864" lon="2.79578">
        <ele>748</ele>
        <time>2019-04-07T12:06:16.579Z</time>
      </trkpt>
      <trkpt lat="44.35873" lon="2.79584">
        <ele>748</ele>
        <time>2019-04-07T12:06:20.579Z</time>
      </trkpt>
      <trkpt lat="44.35881" lon="2.79593">
        <ele>748</ele>
        <time>2019-04-07T12:06:24.579Z</time>
      </trkpt>
      <trkpt lat="44.35894" lon="2.79591">
        <ele>748</ele>
        <time>2019-04-07T12:06:27.579Z</time>
      </trkpt>
      <trkpt lat="44.35907" lon="2.79585">
        <ele>748</ele>
        <time>2019-04-07T12:06:31.579Z</time>
      </trkpt>
      <trkpt lat="44.35915" lon="2.79574">
        <ele>748</ele>
        <time>2019-04-07T12:06:36.579Z</time>
      </trkpt>
      <trkpt lat="44.35919" lon="2.79559">
        <ele>749</ele>
        <time>2019-04-07T12:06:41.579Z</time>
      </trkpt>
      <trkpt lat="44.35929" lon="2.79557">
        <ele>749</ele>
        <time>2019-04-07T12:06:46.579Z</time>
      </trkpt>
      <trkpt lat="44.35939" lon="2.7956">
        <ele>750</ele>
        <time>2019-04-07T12:06:52.579Z</time>
      </trkpt>
      <trkpt lat="44.35949" lon="2.79561">
        <ele>750</ele>
        <time>2019-04-07T12:06:58.579Z</time>
      </trkpt>
      <trkpt lat="44.35958" lon="2.79563">
        <ele>752</ele>
        <time>2019-04-07T12:07:03.579Z</time>
      </trkpt>
      <trkpt lat="44.35969" lon="2.79564">
        <ele>752.4169856</ele>
        <time>2019-04-07T12:07:10.579Z</time>
      </trkpt>
      <trkpt lat="44.35979" lon="2.79564">
        <ele>757</ele>
        <time>2019-04-07T12:07:17.579Z</time>
      </trkpt>
      <trkpt lat="44.35987" lon="2.79563">
        <ele>758</ele>
        <time>2019-04-07T12:07:22.579Z</time>
      </trkpt>
      <trkpt lat="44.35994" lon="2.79562">
        <ele>759</ele>
        <time>2019-04-07T12:07:27.579Z</time>
      </trkpt>
      <trkpt lat="44.35997" lon="2.79562">
        <ele>759</ele>
        <time>2019-04-07T12:07:29.579Z</time>
      </trkpt>
      <trkpt lat="44.36002" lon="2.79561">
        <ele>759</ele>
        <time>2019-04-07T12:07:32.579Z</time>
      </trkpt>
      <trkpt lat="44.36007" lon="2.79561">
        <ele>759</ele>
        <time>2019-04-07T12:07:36.579Z</time>
      </trkpt>
      <trkpt lat="44.36013" lon="2.79561">
        <ele>759</ele>
        <time>2019-04-07T12:07:39.579Z</time>
      </trkpt>
      <trkpt lat="44.36016" lon="2.79561">
        <ele>761</ele>
        <time>2019-04-07T12:07:41.579Z</time>
      </trkpt>
      <trkpt lat="44.36019" lon="2.79562">
        <ele>761</ele>
        <time>2019-04-07T12:07:43.579Z</time>
      </trkpt>
      <trkpt lat="44.36023" lon="2.79563">
        <ele>761</ele>
        <time>2019-04-07T12:07:46.579Z</time>
      </trkpt>
      <trkpt lat="44.36026" lon="2.79564">
        <ele>761</ele>
        <time>2019-04-07T12:07:48.579Z</time>
      </trkpt>
      <trkpt lat="44.36029" lon="2.79565">
        <ele>761.2779904</ele>
        <time>2019-04-07T12:07:50.579Z</time>
      </trkpt>
      <trkpt lat="44.36034" lon="2.79566">
        <ele>763</ele>
        <time>2019-04-07T12:07:53.579Z</time>
      </trkpt>
      <trkpt lat="44.36038" lon="2.79568">
        <ele>763</ele>
        <time>2019-04-07T12:07:56.579Z</time>
      </trkpt>
      <trkpt lat="44.36042" lon="2.7957">
        <ele>763</ele>
        <time>2019-04-07T12:07:59.579Z</time>
      </trkpt>
      <trkpt lat="44.36046" lon="2.79573">
        <ele>765</ele>
        <time>2019-04-07T12:08:02.579Z</time>
      </trkpt>
      <trkpt lat="44.36049" lon="2.79577">
        <ele>765</ele>
        <time>2019-04-07T12:08:04.579Z</time>
      </trkpt>
      <trkpt lat="44.36054" lon="2.7958">
        <ele>765</ele>
        <time>2019-04-07T12:08:06.579Z</time>
      </trkpt>
      <trkpt lat="44.36062" lon="2.79582">
        <ele>765</ele>
        <time>2019-04-07T12:08:09.579Z</time>
      </trkpt>
      <trkpt lat="44.36069" lon="2.79591">
        <ele>767</ele>
        <time>2019-04-07T12:08:14.579Z</time>
      </trkpt>
      <trkpt lat="44.36071" lon="2.79602">
        <ele>767</ele>
        <time>2019-04-07T12:08:18.579Z</time>
      </trkpt>
      <trkpt lat="44.36072" lon="2.79614">
        <ele>769</ele>
        <time>2019-04-07T12:08:23.579Z</time>
      </trkpt>
      <trkpt lat="44.36075" lon="2.79625">
        <ele>771</ele>
        <time>2019-04-07T12:08:28.579Z</time>
      </trkpt>
      <trkpt lat="44.36079" lon="2.79634">
        <ele>773.1389952</ele>
        <time>2019-04-07T12:08:35.579Z</time>
      </trkpt>
      <trkpt lat="44.36078" lon="2.79646">
        <ele>774.1389952</ele>
        <time>2019-04-07T12:08:40.579Z</time>
      </trkpt>
      <trkpt lat="44.3608" lon="2.79655">
        <ele>775</ele>
        <time>2019-04-07T12:08:44.579Z</time>
      </trkpt>
      <trkpt lat="44.36082" lon="2.79665">
        <ele>775</ele>
        <time>2019-04-07T12:08:48.579Z</time>
      </trkpt>
      <trkpt lat="44.36084" lon="2.79674">
        <ele>777</ele>
        <time>2019-04-07T12:08:54.579Z</time>
      </trkpt>
      <trkpt lat="44.36087" lon="2.79683">
        <ele>777</ele>
        <time>2019-04-07T12:08:59.579Z</time>
      </trkpt>
      <trkpt lat="44.36089" lon="2.79694">
        <ele>780</ele>
        <time>2019-04-07T12:09:06.579Z</time>
      </trkpt>
      <trkpt lat="44.36092" lon="2.79705">
        <ele>782</ele>
        <time>2019-04-07T12:09:11.579Z</time>
      </trkpt>
      <trkpt lat="44.36094" lon="2.79718">
        <ele>782</ele>
        <time>2019-04-07T12:09:16.579Z</time>
      </trkpt>
      <trkpt lat="44.36103" lon="2.79729">
        <ele>784</ele>
        <time>2019-04-07T12:09:22.579Z</time>
      </trkpt>
      <trkpt lat="44.36112" lon="2.79738">
        <ele>784</ele>
        <time>2019-04-07T12:09:27.579Z</time>
      </trkpt>
      <trkpt lat="44.36119" lon="2.79747">
        <ele>786</ele>
        <time>2019-04-07T12:09:32.579Z</time>
      </trkpt>
      <trkpt lat="44.36129" lon="2.79757">
        <ele>786</ele>
        <time>2019-04-07T12:09:36.579Z</time>
      </trkpt>
      <trkpt lat="44.36136" lon="2.79763">
        <ele>786</ele>
        <time>2019-04-07T12:09:39.579Z</time>
      </trkpt>
      <trkpt lat="44.36144" lon="2.79766">
        <ele>786</ele>
        <time>2019-04-07T12:09:43.579Z</time>
      </trkpt>
      <trkpt lat="44.36152" lon="2.7977">
        <ele>786</ele>
        <time>2019-04-07T12:09:47.579Z</time>
      </trkpt>
      <trkpt lat="44.36161" lon="2.79775">
        <ele>786</ele>
        <time>2019-04-07T12:09:53.579Z</time>
      </trkpt>
      <trkpt lat="44.3617" lon="2.79778">
        <ele>786</ele>
        <time>2019-04-07T12:10:00.579Z</time>
      </trkpt>
      <trkpt lat="44.36178" lon="2.79788">
        <ele>786</ele>
        <time>2019-04-07T12:10:07.579Z</time>
      </trkpt>
      <trkpt lat="44.36188" lon="2.79792">
        <ele>788</ele>
        <time>2019-04-07T12:10:12.579Z</time>
      </trkpt>
      <trkpt lat="44.36199" lon="2.79792">
        <ele>788</ele>
        <time>2019-04-07T12:10:16.579Z</time>
      </trkpt>
      <trkpt lat="44.36211" lon="2.79792">
        <ele>788.1389952</ele>
        <time>2019-04-07T12:10:20.579Z</time>
      </trkpt>
      <trkpt lat="44.36222" lon="2.79793">
        <ele>789</ele>
        <time>2019-04-07T12:10:24.579Z</time>
      </trkpt>
      <trkpt lat="44.36231" lon="2.79794">
        <ele>789</ele>
        <time>2019-04-07T12:10:28.579Z</time>
      </trkpt>
      <trkpt lat="44.36239" lon="2.79795">
        <ele>791</ele>
        <time>2019-04-07T12:10:31.579Z</time>
      </trkpt>
      <trkpt lat="44.36247" lon="2.79794">
        <ele>791</ele>
        <time>2019-04-07T12:10:35.579Z</time>
      </trkpt>
      <trkpt lat="44.36254" lon="2.79791">
        <ele>791</ele>
        <time>2019-04-07T12:10:38.579Z</time>
      </trkpt>
      <trkpt lat="44.36262" lon="2.79788">
        <ele>791</ele>
        <time>2019-04-07T12:10:41.579Z</time>
      </trkpt>
      <trkpt lat="44.36269" lon="2.79786">
        <ele>791</ele>
        <time>2019-04-07T12:10:44.579Z</time>
      </trkpt>
      <trkpt lat="44.36277" lon="2.79784">
        <ele>791</ele>
        <time>2019-04-07T12:10:47.579Z</time>
      </trkpt>
      <trkpt lat="44.36284" lon="2.79782">
        <ele>791.1389952</ele>
        <time>2019-04-07T12:10:50.579Z</time>
      </trkpt>
      <trkpt lat="44.36292" lon="2.79781">
        <ele>792</ele>
        <time>2019-04-07T12:10:53.579Z</time>
      </trkpt>
      <trkpt lat="44.36301" lon="2.79779">
        <ele>792</ele>
        <time>2019-04-07T12:10:56.579Z</time>
      </trkpt>
      <trkpt lat="44.3631" lon="2.79779">
        <ele>792</ele>
        <time>2019-04-07T12:10:59.579Z</time>
      </trkpt>
      <trkpt lat="44.36318" lon="2.79779">
        <ele>794</ele>
        <time>2019-04-07T12:11:02.579Z</time>
      </trkpt>
      <trkpt lat="44.36325" lon="2.79781">
        <ele>793.8610048</ele>
        <time>2019-04-07T12:11:06.579Z</time>
      </trkpt>
      <trkpt lat="44.36333" lon="2.79786">
        <ele>793</ele>
        <time>2019-04-07T12:11:09.579Z</time>
      </trkpt>
      <trkpt lat="44.36339" lon="2.79792">
        <ele>795</ele>
        <time>2019-04-07T12:11:12.579Z</time>
      </trkpt>
      <trkpt lat="44.36345" lon="2.79804">
        <ele>795</ele>
        <time>2019-04-07T12:11:17.579Z</time>
      </trkpt>
      <trkpt lat="44.36349" lon="2.79812">
        <ele>795.2779904</ele>
        <time>2019-04-07T12:11:20.579Z</time>
      </trkpt>
      <trkpt lat="44.36354" lon="2.79818">
        <ele>797</ele>
        <time>2019-04-07T12:11:23.579Z</time>
      </trkpt>
      <trkpt lat="44.36358" lon="2.79825">
        <ele>797</ele>
        <time>2019-04-07T12:11:26.579Z</time>
      </trkpt>
      <trkpt lat="44.36364" lon="2.79832">
        <ele>797</ele>
        <time>2019-04-07T12:11:29.579Z</time>
      </trkpt>
      <trkpt lat="44.36368" lon="2.79838">
        <ele>799</ele>
        <time>2019-04-07T12:11:31.579Z</time>
      </trkpt>
      <trkpt lat="44.36372" lon="2.79845">
        <ele>799</ele>
        <time>2019-04-07T12:11:33.579Z</time>
      </trkpt>
      <trkpt lat="44.36376" lon="2.79854">
        <ele>799</ele>
        <time>2019-04-07T12:11:35.579Z</time>
      </trkpt>
      <trkpt lat="44.36378" lon="2.79864">
        <ele>799</ele>
        <time>2019-04-07T12:11:37.579Z</time>
      </trkpt>
      <trkpt lat="44.36379" lon="2.79871">
        <ele>798.8610048</ele>
        <time>2019-04-07T12:11:39.579Z</time>
      </trkpt>
      <trkpt lat="44.36379" lon="2.7988">
        <ele>798</ele>
        <time>2019-04-07T12:11:41.579Z</time>
      </trkpt>
      <trkpt lat="44.36379" lon="2.79889">
        <ele>798</ele>
        <time>2019-04-07T12:11:43.579Z</time>
      </trkpt>
      <trkpt lat="44.36378" lon="2.799">
        <ele>798</ele>
        <time>2019-04-07T12:11:45.579Z</time>
      </trkpt>
      <trkpt lat="44.36378" lon="2.79911">
        <ele>798</ele>
        <time>2019-04-07T12:11:47.579Z</time>
      </trkpt>
      <trkpt lat="44.36376" lon="2.79924">
        <ele>798</ele>
        <time>2019-04-07T12:11:49.579Z</time>
      </trkpt>
      <trkpt lat="44.36375" lon="2.79939">
        <ele>795</ele>
        <time>2019-04-07T12:11:51.579Z</time>
      </trkpt>
      <trkpt lat="44.36374" lon="2.79947">
        <ele>795</ele>
        <time>2019-04-07T12:11:52.579Z</time>
      </trkpt>
      <trkpt lat="44.36373" lon="2.79955">
        <ele>795</ele>
        <time>2019-04-07T12:11:53.579Z</time>
      </trkpt>
      <trkpt lat="44.36372" lon="2.79965">
        <ele>795</ele>
        <time>2019-04-07T12:11:54.579Z</time>
      </trkpt>
      <trkpt lat="44.36372" lon="2.79975">
        <ele>794.4440192</ele>
        <time>2019-04-07T12:11:55.579Z</time>
      </trkpt>
      <trkpt lat="44.36372" lon="2.79985">
        <ele>791</ele>
        <time>2019-04-07T12:11:56.579Z</time>
      </trkpt>
      <trkpt lat="44.36374" lon="2.79995">
        <ele>791</ele>
        <time>2019-04-07T12:11:57.579Z</time>
      </trkpt>
      <trkpt lat="44.36375" lon="2.80005">
        <ele>791</ele>
        <time>2019-04-07T12:11:58.579Z</time>
      </trkpt>
      <trkpt lat="44.36378" lon="2.80015">
        <ele>791</ele>
        <time>2019-04-07T12:11:59.579Z</time>
      </trkpt>
      <trkpt lat="44.36381" lon="2.80024">
        <ele>790.305024</ele>
        <time>2019-04-07T12:12:00.579Z</time>
      </trkpt>
      <trkpt lat="44.36384" lon="2.80034">
        <ele>786</ele>
        <time>2019-04-07T12:12:01.579Z</time>
      </trkpt>
      <trkpt lat="44.36388" lon="2.80043">
        <ele>786</ele>
        <time>2019-04-07T12:12:02.579Z</time>
      </trkpt>
      <trkpt lat="44.36401" lon="2.80064">
        <ele>784.8610048</ele>
        <time>2019-04-07T12:12:05.579Z</time>
      </trkpt>
      <trkpt lat="44.36405" lon="2.80075">
        <ele>783.8610048</ele>
        <time>2019-04-07T12:12:07.579Z</time>
      </trkpt>
      <trkpt lat="44.36406" lon="2.80088">
        <ele>782.8610048</ele>
        <time>2019-04-07T12:12:09.579Z</time>
      </trkpt>
      <trkpt lat="44.36405" lon="2.80101">
        <ele>781</ele>
        <time>2019-04-07T12:12:11.579Z</time>
      </trkpt>
      <trkpt lat="44.36397" lon="2.80118">
        <ele>781</ele>
        <time>2019-04-07T12:12:14.579Z</time>
      </trkpt>
      <trkpt lat="44.36387" lon="2.80132">
        <ele>779</ele>
        <time>2019-04-07T12:12:17.579Z</time>
      </trkpt>
      <trkpt lat="44.36378" lon="2.8014">
        <ele>779</ele>
        <time>2019-04-07T12:12:19.579Z</time>
      </trkpt>
      <trkpt lat="44.3637" lon="2.80145">
        <ele>778</ele>
        <time>2019-04-07T12:12:21.579Z</time>
      </trkpt>
      <trkpt lat="44.36362" lon="2.8015">
        <ele>778</ele>
        <time>2019-04-07T12:12:23.579Z</time>
      </trkpt>
      <trkpt lat="44.36356" lon="2.80156">
        <ele>777.8610048</ele>
        <time>2019-04-07T12:12:25.579Z</time>
      </trkpt>
      <trkpt lat="44.36352" lon="2.80165">
        <ele>777</ele>
        <time>2019-04-07T12:12:27.579Z</time>
      </trkpt>
      <trkpt lat="44.36349" lon="2.80175">
        <ele>777</ele>
        <time>2019-04-07T12:12:29.579Z</time>
      </trkpt>
      <trkpt lat="44.36349" lon="2.80188">
        <ele>776</ele>
        <time>2019-04-07T12:12:31.579Z</time>
      </trkpt>
      <trkpt lat="44.36351" lon="2.80206">
        <ele>776</ele>
        <time>2019-04-07T12:12:33.579Z</time>
      </trkpt>
      <trkpt lat="44.36353" lon="2.80227">
        <ele>775.7220096</ele>
        <time>2019-04-07T12:12:35.579Z</time>
      </trkpt>
      <trkpt lat="44.36356" lon="2.80246">
        <ele>774</ele>
        <time>2019-04-07T12:12:37.579Z</time>
      </trkpt>
      <trkpt lat="44.36359" lon="2.80265">
        <ele>774</ele>
        <time>2019-04-07T12:12:39.579Z</time>
      </trkpt>
      <trkpt lat="44.36362" lon="2.80283">
        <ele>773</ele>
        <time>2019-04-07T12:12:41.579Z</time>
      </trkpt>
      <trkpt lat="44.36363" lon="2.80302">
        <ele>773</ele>
        <time>2019-04-07T12:12:43.579Z</time>
      </trkpt>
      <trkpt lat="44.36365" lon="2.8032">
        <ele>772.7220096</ele>
        <time>2019-04-07T12:12:45.579Z</time>
      </trkpt>
      <trkpt lat="44.36366" lon="2.80338">
        <ele>771</ele>
        <time>2019-04-07T12:12:47.579Z</time>
      </trkpt>
      <trkpt lat="44.36369" lon="2.80356">
        <ele>771</ele>
        <time>2019-04-07T12:12:49.579Z</time>
      </trkpt>
      <trkpt lat="44.36373" lon="2.80374">
        <ele>770</ele>
        <time>2019-04-07T12:12:51.579Z</time>
      </trkpt>
      <trkpt lat="44.36379" lon="2.80393">
        <ele>770</ele>
        <time>2019-04-07T12:12:53.579Z</time>
      </trkpt>
      <trkpt lat="44.36386" lon="2.80408">
        <ele>769.8610048</ele>
        <time>2019-04-07T12:12:55.579Z</time>
      </trkpt>
      <trkpt lat="44.36393" lon="2.80423">
        <ele>769</ele>
        <time>2019-04-07T12:12:57.579Z</time>
      </trkpt>
      <trkpt lat="44.36399" lon="2.80438">
        <ele>769</ele>
        <time>2019-04-07T12:12:59.579Z</time>
      </trkpt>
      <trkpt lat="44.36405" lon="2.80453">
        <ele>767</ele>
        <time>2019-04-07T12:13:01.579Z</time>
      </trkpt>
      <trkpt lat="44.3641" lon="2.80467">
        <ele>767</ele>
        <time>2019-04-07T12:13:03.579Z</time>
      </trkpt>
      <trkpt lat="44.36416" lon="2.80481">
        <ele>767</ele>
        <time>2019-04-07T12:13:05.579Z</time>
      </trkpt>
      <trkpt lat="44.36421" lon="2.80493">
        <ele>767</ele>
        <time>2019-04-07T12:13:07.579Z</time>
      </trkpt>
      <trkpt lat="44.36427" lon="2.80506">
        <ele>767</ele>
        <time>2019-04-07T12:13:09.579Z</time>
      </trkpt>
      <trkpt lat="44.36433" lon="2.80517">
        <ele>767</ele>
        <time>2019-04-07T12:13:11.579Z</time>
      </trkpt>
      <trkpt lat="44.36439" lon="2.80527">
        <ele>767</ele>
        <time>2019-04-07T12:13:13.579Z</time>
      </trkpt>
      <trkpt lat="44.36445" lon="2.80536">
        <ele>767</ele>
        <time>2019-04-07T12:13:15.579Z</time>
      </trkpt>
      <trkpt lat="44.36452" lon="2.80543">
        <ele>767</ele>
        <time>2019-04-07T12:13:17.579Z</time>
      </trkpt>
      <trkpt lat="44.36459" lon="2.80549">
        <ele>767</ele>
        <time>2019-04-07T12:13:19.579Z</time>
      </trkpt>
      <trkpt lat="44.36466" lon="2.80554">
        <ele>769</ele>
        <time>2019-04-07T12:13:21.579Z</time>
      </trkpt>
      <trkpt lat="44.36474" lon="2.80562">
        <ele>769</ele>
        <time>2019-04-07T12:13:24.579Z</time>
      </trkpt>
      <trkpt lat="44.36484" lon="2.80573">
        <ele>769</ele>
        <time>2019-04-07T12:13:28.579Z</time>
      </trkpt>
      <trkpt lat="44.36492" lon="2.80584">
        <ele>771</ele>
        <time>2019-04-07T12:13:32.579Z</time>
      </trkpt>
      <trkpt lat="44.365" lon="2.80594">
        <ele>771</ele>
        <time>2019-04-07T12:13:36.579Z</time>
      </trkpt>
      <trkpt lat="44.36504" lon="2.80607">
        <ele>771.2779904</ele>
        <time>2019-04-07T12:13:40.579Z</time>
      </trkpt>
      <trkpt lat="44.36505" lon="2.80619">
        <ele>773</ele>
        <time>2019-04-07T12:13:43.579Z</time>
      </trkpt>
      <trkpt lat="44.36506" lon="2.80631">
        <ele>774</ele>
        <time>2019-04-07T12:13:46.579Z</time>
      </trkpt>
      <trkpt lat="44.36509" lon="2.80642">
        <ele>774</ele>
        <time>2019-04-07T12:13:49.579Z</time>
      </trkpt>
      <trkpt lat="44.3651" lon="2.80653">
        <ele>774</ele>
        <time>2019-04-07T12:13:52.579Z</time>
      </trkpt>
      <trkpt lat="44.36511" lon="2.80664">
        <ele>774</ele>
        <time>2019-04-07T12:13:55.579Z</time>
      </trkpt>
      <trkpt lat="44.36513" lon="2.80673">
        <ele>774</ele>
        <time>2019-04-07T12:13:58.579Z</time>
      </trkpt>
      <trkpt lat="44.36511" lon="2.80681">
        <ele>775</ele>
        <time>2019-04-07T12:14:01.579Z</time>
      </trkpt>
      <trkpt lat="44.36506" lon="2.80687">
        <ele>775</ele>
        <time>2019-04-07T12:14:04.579Z</time>
      </trkpt>
      <trkpt lat="44.36501" lon="2.80691">
        <ele>775</ele>
        <time>2019-04-07T12:14:07.579Z</time>
      </trkpt>
      <trkpt lat="44.36502" lon="2.80699">
        <ele>775</ele>
        <time>2019-04-07T12:14:21.579Z</time>
      </trkpt>
      <trkpt lat="44.36508" lon="2.80704">
        <ele>775</ele>
        <time>2019-04-07T12:14:24.579Z</time>
      </trkpt>
      <trkpt lat="44.36513" lon="2.8071">
        <ele>775</ele>
        <time>2019-04-07T12:14:26.579Z</time>
      </trkpt>
      <trkpt lat="44.36519" lon="2.80715">
        <ele>775</ele>
        <time>2019-04-07T12:14:28.579Z</time>
      </trkpt>
      <trkpt lat="44.36526" lon="2.80721">
        <ele>775</ele>
        <time>2019-04-07T12:14:30.579Z</time>
      </trkpt>
      <trkpt lat="44.36534" lon="2.80728">
        <ele>775</ele>
        <time>2019-04-07T12:14:32.579Z</time>
      </trkpt>
      <trkpt lat="44.36543" lon="2.80736">
        <ele>775</ele>
        <time>2019-04-07T12:14:34.579Z</time>
      </trkpt>
      <trkpt lat="44.36552" lon="2.80745">
        <ele>775</ele>
        <time>2019-04-07T12:14:36.579Z</time>
      </trkpt>
      <trkpt lat="44.3656" lon="2.80756">
        <ele>775</ele>
        <time>2019-04-07T12:14:38.579Z</time>
      </trkpt>
      <trkpt lat="44.3657" lon="2.80768">
        <ele>774.5830144</ele>
        <time>2019-04-07T12:14:40.579Z</time>
      </trkpt>
      <trkpt lat="44.36581" lon="2.80776">
        <ele>772</ele>
        <time>2019-04-07T12:14:42.579Z</time>
      </trkpt>
      <trkpt lat="44.36591" lon="2.80785">
        <ele>772</ele>
        <time>2019-04-07T12:14:44.579Z</time>
      </trkpt>
      <trkpt lat="44.36598" lon="2.80797">
        <ele>767</ele>
        <time>2019-04-07T12:14:46.579Z</time>
      </trkpt>
      <trkpt lat="44.36609" lon="2.80809">
        <ele>767</ele>
        <time>2019-04-07T12:14:48.579Z</time>
      </trkpt>
      <trkpt lat="44.3662" lon="2.8082">
        <ele>766.8610048</ele>
        <time>2019-04-07T12:14:50.579Z</time>
      </trkpt>
      <trkpt lat="44.36632" lon="2.80829">
        <ele>764.86238055408</ele>
        <time>2019-04-07T12:14:52.579Z</time>
      </trkpt>
      <trkpt lat="44.36638" lon="2.80845">
        <ele>764</ele>
        <time>2019-04-07T12:14:54.579Z</time>
      </trkpt>
      <trkpt lat="44.36645" lon="2.80857">
        <ele>763.8610048</ele>
        <time>2019-04-07T12:14:56.579Z</time>
      </trkpt>
      <trkpt lat="44.36652" lon="2.80871">
        <ele>763</ele>
        <time>2019-04-07T12:14:58.579Z</time>
      </trkpt>
      <trkpt lat="44.36658" lon="2.80885">
        <ele>763</ele>
        <time>2019-04-07T12:15:00.579Z</time>
      </trkpt>
      <trkpt lat="44.36668" lon="2.80896">
        <ele>763</ele>
        <time>2019-04-07T12:15:02.579Z</time>
      </trkpt>
      <trkpt lat="44.36676" lon="2.80905">
        <ele>763</ele>
        <time>2019-04-07T12:15:04.579Z</time>
      </trkpt>
      <trkpt lat="44.36683" lon="2.80915">
        <ele>762</ele>
        <time>2019-04-07T12:15:06.579Z</time>
      </trkpt>
      <trkpt lat="44.3669" lon="2.80926">
        <ele>762</ele>
        <time>2019-04-07T12:15:08.579Z</time>
      </trkpt>
      <trkpt lat="44.36697" lon="2.80939">
        <ele>760</ele>
        <time>2019-04-07T12:15:11.579Z</time>
      </trkpt>
      <trkpt lat="44.36701" lon="2.80951">
        <ele>759.8610048</ele>
        <time>2019-04-07T12:15:15.579Z</time>
      </trkpt>
      <trkpt lat="44.36707" lon="2.8096">
        <ele>759</ele>
        <time>2019-04-07T12:15:20.579Z</time>
      </trkpt>
      <trkpt lat="44.36711" lon="2.80969">
        <ele>759</ele>
        <time>2019-04-07T12:15:23.579Z</time>
      </trkpt>
      <trkpt lat="44.36716" lon="2.8098">
        <ele>759</ele>
        <time>2019-04-07T12:15:27.579Z</time>
      </trkpt>
      <trkpt lat="44.36721" lon="2.80993">
        <ele>758</ele>
        <time>2019-04-07T12:15:32.579Z</time>
      </trkpt>
      <trkpt lat="44.36721" lon="2.81005">
        <ele>758</ele>
        <time>2019-04-07T12:15:35.579Z</time>
      </trkpt>
      <trkpt lat="44.36717" lon="2.81019">
        <ele>758</ele>
        <time>2019-04-07T12:15:38.579Z</time>
      </trkpt>
      <trkpt lat="44.36716" lon="2.81036">
        <ele>756</ele>
        <time>2019-04-07T12:15:41.579Z</time>
      </trkpt>
      <trkpt lat="44.36717" lon="2.8105">
        <ele>756</ele>
        <time>2019-04-07T12:15:43.579Z</time>
      </trkpt>
      <trkpt lat="44.36715" lon="2.81062">
        <ele>756</ele>
        <time>2019-04-07T12:15:45.579Z</time>
      </trkpt>
      <trkpt lat="44.36711" lon="2.81076">
        <ele>756</ele>
        <time>2019-04-07T12:15:47.579Z</time>
      </trkpt>
      <trkpt lat="44.36706" lon="2.8109">
        <ele>756</ele>
        <time>2019-04-07T12:15:49.579Z</time>
      </trkpt>
      <trkpt lat="44.36702" lon="2.81104">
        <ele>748.5830144</ele>
        <time>2019-04-07T12:15:51.579Z</time>
      </trkpt>
      <trkpt lat="44.36698" lon="2.81118">
        <ele>744.8610048</ele>
        <time>2019-04-07T12:15:53.579Z</time>
      </trkpt>
      <trkpt lat="44.36697" lon="2.81132">
        <ele>742.8610048</ele>
        <time>2019-04-07T12:15:55.579Z</time>
      </trkpt>
      <trkpt lat="44.36701" lon="2.81146">
        <ele>741</ele>
        <time>2019-04-07T12:15:58.579Z</time>
      </trkpt>
      <trkpt lat="44.36705" lon="2.8116">
        <ele>740</ele>
        <time>2019-04-07T12:16:01.579Z</time>
      </trkpt>
      <trkpt lat="44.36709" lon="2.81176">
        <ele>740</ele>
        <time>2019-04-07T12:16:04.579Z</time>
      </trkpt>
      <trkpt lat="44.36712" lon="2.81189">
        <ele>740</ele>
        <time>2019-04-07T12:16:06.579Z</time>
      </trkpt>
      <trkpt lat="44.36718" lon="2.81202">
        <ele>739.8610048</ele>
        <time>2019-04-07T12:16:08.579Z</time>
      </trkpt>
      <trkpt lat="44.36726" lon="2.81212">
        <ele>738.8610048</ele>
        <time>2019-04-07T12:16:10.579Z</time>
      </trkpt>
      <trkpt lat="44.36736" lon="2.81219">
        <ele>738</ele>
        <time>2019-04-07T12:16:12.579Z</time>
      </trkpt>
      <trkpt lat="44.36744" lon="2.81228">
        <ele>738</ele>
        <time>2019-04-07T12:16:14.579Z</time>
      </trkpt>
      <trkpt lat="44.36749" lon="2.81239">
        <ele>738</ele>
        <time>2019-04-07T12:16:16.579Z</time>
      </trkpt>
      <trkpt lat="44.36756" lon="2.81255">
        <ele>738</ele>
        <time>2019-04-07T12:16:18.579Z</time>
      </trkpt>
      <trkpt lat="44.36762" lon="2.81271">
        <ele>737.305024</ele>
        <time>2019-04-07T12:16:20.579Z</time>
      </trkpt>
      <trkpt lat="44.36769" lon="2.81285">
        <ele>728.86969900703</ele>
        <time>2019-04-07T12:16:22.579Z</time>
      </trkpt>
      <trkpt lat="44.36783" lon="2.81293">
        <ele>728</ele>
        <time>2019-04-07T12:16:24.579Z</time>
      </trkpt>
      <trkpt lat="44.36797" lon="2.81295">
        <ele>724.8610048</ele>
        <time>2019-04-07T12:16:26.579Z</time>
      </trkpt>
      <trkpt lat="44.36808" lon="2.81297">
        <ele>723.8610048</ele>
        <time>2019-04-07T12:16:28.579Z</time>
      </trkpt>
      <trkpt lat="44.36818" lon="2.81304">
        <ele>722.8610048</ele>
        <time>2019-04-07T12:16:30.579Z</time>
      </trkpt>
      <trkpt lat="44.36825" lon="2.81322">
        <ele>720</ele>
        <time>2019-04-07T12:16:33.579Z</time>
      </trkpt>
      <trkpt lat="44.3683" lon="2.81341">
        <ele>719</ele>
        <time>2019-04-07T12:16:36.579Z</time>
      </trkpt>
      <trkpt lat="44.36837" lon="2.81352">
        <ele>718.8610048</ele>
        <time>2019-04-07T12:16:38.579Z</time>
      </trkpt>
      <trkpt lat="44.36844" lon="2.81364">
        <ele>718</ele>
        <time>2019-04-07T12:16:41.579Z</time>
      </trkpt>
      <trkpt lat="44.36851" lon="2.81375">
        <ele>718</ele>
        <time>2019-04-07T12:16:44.579Z</time>
      </trkpt>
      <trkpt lat="44.36855" lon="2.81385">
        <ele>717</ele>
        <time>2019-04-07T12:16:47.579Z</time>
      </trkpt>
      <trkpt lat="44.36856" lon="2.81397">
        <ele>717</ele>
        <time>2019-04-07T12:16:50.579Z</time>
      </trkpt>
      <trkpt lat="44.36857" lon="2.81412">
        <ele>717</ele>
        <time>2019-04-07T12:16:53.579Z</time>
      </trkpt>
      <trkpt lat="44.36863" lon="2.81424">
        <ele>717</ele>
        <time>2019-04-07T12:16:56.579Z</time>
      </trkpt>
      <trkpt lat="44.36877" lon="2.8143">
        <ele>717</ele>
        <time>2019-04-07T12:16:58.579Z</time>
      </trkpt>
      <trkpt lat="44.36885" lon="2.81439">
        <ele>716.5830144</ele>
        <time>2019-04-07T12:17:00.579Z</time>
      </trkpt>
      <trkpt lat="44.36893" lon="2.81454">
        <ele>714</ele>
        <time>2019-04-07T12:17:03.579Z</time>
      </trkpt>
      <trkpt lat="44.36901" lon="2.81463">
        <ele>713.8610048</ele>
        <time>2019-04-07T12:17:05.579Z</time>
      </trkpt>
      <trkpt lat="44.36912" lon="2.81475">
        <ele>713</ele>
        <time>2019-04-07T12:17:08.579Z</time>
      </trkpt>
      <trkpt lat="44.36924" lon="2.81484">
        <ele>712</ele>
        <time>2019-04-07T12:17:11.579Z</time>
      </trkpt>
      <trkpt lat="44.36932" lon="2.81492">
        <ele>712</ele>
        <time>2019-04-07T12:17:14.579Z</time>
      </trkpt>
      <trkpt lat="44.36943" lon="2.81501">
        <ele>709</ele>
        <time>2019-04-07T12:17:17.579Z</time>
      </trkpt>
      <trkpt lat="44.36953" lon="2.81505">
        <ele>709</ele>
        <time>2019-04-07T12:17:19.579Z</time>
      </trkpt>
      <trkpt lat="44.36965" lon="2.81508">
        <ele>705.8610048</ele>
        <time>2019-04-07T12:17:21.579Z</time>
      </trkpt>
      <trkpt lat="44.36977" lon="2.81511">
        <ele>704.8610048</ele>
        <time>2019-04-07T12:17:23.579Z</time>
      </trkpt>
      <trkpt lat="44.36989" lon="2.81512">
        <ele>703</ele>
        <time>2019-04-07T12:17:25.579Z</time>
      </trkpt>
      <trkpt lat="44.37004" lon="2.81513">
        <ele>703</ele>
        <time>2019-04-07T12:17:27.579Z</time>
      </trkpt>
      <trkpt lat="44.37014" lon="2.81516">
        <ele>702.8610048</ele>
        <time>2019-04-07T12:17:29.579Z</time>
      </trkpt>
      <trkpt lat="44.37025" lon="2.81523">
        <ele>702</ele>
        <time>2019-04-07T12:17:32.579Z</time>
      </trkpt>
      <trkpt lat="44.37037" lon="2.81524">
        <ele>702</ele>
        <time>2019-04-07T12:17:34.579Z</time>
      </trkpt>
      <trkpt lat="44.3705" lon="2.81524">
        <ele>698</ele>
        <time>2019-04-07T12:17:36.579Z</time>
      </trkpt>
      <trkpt lat="44.37065" lon="2.81523">
        <ele>698</ele>
        <time>2019-04-07T12:17:38.579Z</time>
      </trkpt>
      <trkpt lat="44.37076" lon="2.81526">
        <ele>697.305024</ele>
        <time>2019-04-07T12:17:40.579Z</time>
      </trkpt>
      <trkpt lat="44.37089" lon="2.8153">
        <ele>688.7220096</ele>
        <time>2019-04-07T12:17:43.579Z</time>
      </trkpt>
      <trkpt lat="44.371" lon="2.81538">
        <ele>686.7220096</ele>
        <time>2019-04-07T12:17:46.579Z</time>
      </trkpt>
      <trkpt lat="44.37112" lon="2.81539">
        <ele>682.8610048</ele>
        <time>2019-04-07T12:17:48.579Z</time>
      </trkpt>
      <trkpt lat="44.37123" lon="2.81546">
        <ele>680.72745868209</ele>
        <time>2019-04-07T12:17:50.579Z</time>
      </trkpt>
      <trkpt lat="44.37133" lon="2.81554">
        <ele>677.8610048</ele>
        <time>2019-04-07T12:17:52.579Z</time>
      </trkpt>
      <trkpt lat="44.37137" lon="2.81567">
        <ele>675.8610048</ele>
        <time>2019-04-07T12:17:54.579Z</time>
      </trkpt>
      <trkpt lat="44.37144" lon="2.81583">
        <ele>673.5830144</ele>
        <time>2019-04-07T12:17:56.579Z</time>
      </trkpt>
      <trkpt lat="44.37156" lon="2.81594">
        <ele>669.8610048</ele>
        <time>2019-04-07T12:17:58.579Z</time>
      </trkpt>
      <trkpt lat="44.37167" lon="2.81603">
        <ele>667.7220096</ele>
        <time>2019-04-07T12:18:00.579Z</time>
      </trkpt>
      <trkpt lat="44.37178" lon="2.81614">
        <ele>666</ele>
        <time>2019-04-07T12:18:02.579Z</time>
      </trkpt>
      <trkpt lat="44.37187" lon="2.81622">
        <ele>662.7220096</ele>
        <time>2019-04-07T12:18:04.579Z</time>
      </trkpt>
      <trkpt lat="44.37197" lon="2.81627">
        <ele>660</ele>
        <time>2019-04-07T12:18:06.579Z</time>
      </trkpt>
      <trkpt lat="44.37211" lon="2.81628">
        <ele>658</ele>
        <time>2019-04-07T12:18:08.579Z</time>
      </trkpt>
      <trkpt lat="44.37223" lon="2.81632">
        <ele>657.8610048</ele>
        <time>2019-04-07T12:18:10.579Z</time>
      </trkpt>
      <trkpt lat="44.37233" lon="2.81639">
        <ele>654.8610048</ele>
        <time>2019-04-07T12:18:12.579Z</time>
      </trkpt>
      <trkpt lat="44.37244" lon="2.81647">
        <ele>652</ele>
        <time>2019-04-07T12:18:14.579Z</time>
      </trkpt>
      <trkpt lat="44.37254" lon="2.81654">
        <ele>650.8610048</ele>
        <time>2019-04-07T12:18:16.579Z</time>
      </trkpt>
      <trkpt lat="44.37264" lon="2.81659">
        <ele>648.8610048</ele>
        <time>2019-04-07T12:18:18.579Z</time>
      </trkpt>
      <trkpt lat="44.37275" lon="2.8167">
        <ele>645.7220096</ele>
        <time>2019-04-07T12:18:21.579Z</time>
      </trkpt>
      <trkpt lat="44.37284" lon="2.8168">
        <ele>644.73939801407</ele>
        <time>2019-04-07T12:18:23.579Z</time>
      </trkpt>
      <trkpt lat="44.37293" lon="2.8169">
        <ele>642</ele>
        <time>2019-04-07T12:18:25.579Z</time>
      </trkpt>
      <trkpt lat="44.37301" lon="2.81702">
        <ele>639.8610048</ele>
        <time>2019-04-07T12:18:27.579Z</time>
      </trkpt>
      <trkpt lat="44.3731" lon="2.81715">
        <ele>638</ele>
        <time>2019-04-07T12:18:29.579Z</time>
      </trkpt>
      <trkpt lat="44.3732" lon="2.81727">
        <ele>636.8610048</ele>
        <time>2019-04-07T12:18:31.579Z</time>
      </trkpt>
      <trkpt lat="44.3733" lon="2.81738">
        <ele>634.8610048</ele>
        <time>2019-04-07T12:18:33.579Z</time>
      </trkpt>
      <trkpt lat="44.37338" lon="2.8175">
        <ele>634</ele>
        <time>2019-04-07T12:18:35.579Z</time>
      </trkpt>
      <trkpt lat="44.37347" lon="2.81763">
        <ele>632.8610048</ele>
        <time>2019-04-07T12:18:37.579Z</time>
      </trkpt>
      <trkpt lat="44.37357" lon="2.81777">
        <ele>630.8610048</ele>
        <time>2019-04-07T12:18:39.579Z</time>
      </trkpt>
      <trkpt lat="44.3737" lon="2.8179">
        <ele>628.7220096</ele>
        <time>2019-04-07T12:18:41.579Z</time>
      </trkpt>
      <trkpt lat="44.37383" lon="2.81803">
        <ele>625</ele>
        <time>2019-04-07T12:18:43.579Z</time>
      </trkpt>
      <trkpt lat="44.37397" lon="2.81814">
        <ele>624</ele>
        <time>2019-04-07T12:18:45.579Z</time>
      </trkpt>
      <trkpt lat="44.37412" lon="2.81825">
        <ele>623.8610048</ele>
        <time>2019-04-07T12:18:47.579Z</time>
      </trkpt>
      <trkpt lat="44.37426" lon="2.81836">
        <ele>622</ele>
        <time>2019-04-07T12:18:49.579Z</time>
      </trkpt>
      <trkpt lat="44.3744" lon="2.81844">
        <ele>620</ele>
        <time>2019-04-07T12:18:51.579Z</time>
      </trkpt>
      <trkpt lat="44.37455" lon="2.8185">
        <ele>620</ele>
        <time>2019-04-07T12:18:53.579Z</time>
      </trkpt>
      <trkpt lat="44.37466" lon="2.81856">
        <ele>620</ele>
        <time>2019-04-07T12:18:55.579Z</time>
      </trkpt>
      <trkpt lat="44.37477" lon="2.81861">
        <ele>619.8610048</ele>
        <time>2019-04-07T12:18:58.579Z</time>
      </trkpt>
      <trkpt lat="44.37491" lon="2.81854">
        <ele>616</ele>
        <time>2019-04-07T12:19:01.579Z</time>
      </trkpt>
      <trkpt lat="44.37503" lon="2.81855">
        <ele>616</ele>
        <time>2019-04-07T12:19:03.579Z</time>
      </trkpt>
      <trkpt lat="44.37513" lon="2.81858">
        <ele>616</ele>
        <time>2019-04-07T12:19:05.579Z</time>
      </trkpt>
      <trkpt lat="44.37523" lon="2.81863">
        <ele>616</ele>
        <time>2019-04-07T12:19:07.579Z</time>
      </trkpt>
      <trkpt lat="44.37536" lon="2.81867">
        <ele>616</ele>
        <time>2019-04-07T12:19:10.579Z</time>
      </trkpt>
      <trkpt lat="44.37547" lon="2.81868">
        <ele>616</ele>
        <time>2019-04-07T12:19:13.579Z</time>
      </trkpt>
      <trkpt lat="44.37558" lon="2.81866">
        <ele>616</ele>
        <time>2019-04-07T12:19:17.579Z</time>
      </trkpt>
      <trkpt lat="44.37563" lon="2.81862">
        <ele>616</ele>
        <time>2019-04-07T12:19:19.579Z</time>
      </trkpt>
      <trkpt lat="44.37565" lon="2.81858">
        <ele>616.1389952</ele>
        <time>2019-04-07T12:19:20.579Z</time>
      </trkpt>
      <trkpt lat="44.37568" lon="2.81853">
        <ele>617</ele>
        <time>2019-04-07T12:19:21.579Z</time>
      </trkpt>
      <trkpt lat="44.37571" lon="2.81848">
        <ele>617</ele>
        <time>2019-04-07T12:19:22.579Z</time>
      </trkpt>
      <trkpt lat="44.37573" lon="2.81843">
        <ele>617</ele>
        <time>2019-04-07T12:19:23.579Z</time>
      </trkpt>
      <trkpt lat="44.37576" lon="2.81839">
        <ele>617</ele>
        <time>2019-04-07T12:19:24.579Z</time>
      </trkpt>
      <trkpt lat="44.37579" lon="2.81834">
        <ele>617</ele>
        <time>2019-04-07T12:19:25.579Z</time>
      </trkpt>
      <trkpt lat="44.37587" lon="2.8182">
        <ele>617</ele>
        <time>2019-04-07T12:19:28.579Z</time>
      </trkpt>
      <trkpt lat="44.37594" lon="2.81805">
        <ele>618</ele>
        <time>2019-04-07T12:19:31.579Z</time>
      </trkpt>
      <trkpt lat="44.376" lon="2.81795">
        <ele>618</ele>
        <time>2019-04-07T12:19:33.579Z</time>
      </trkpt>
      <trkpt lat="44.37605" lon="2.81786">
        <ele>618</ele>
        <time>2019-04-07T12:19:35.579Z</time>
      </trkpt>
      <trkpt lat="44.3761" lon="2.81776">
        <ele>618</ele>
        <time>2019-04-07T12:19:37.579Z</time>
      </trkpt>
      <trkpt lat="44.37616" lon="2.81766">
        <ele>618</ele>
        <time>2019-04-07T12:19:39.579Z</time>
      </trkpt>
      <trkpt lat="44.37622" lon="2.81757">
        <ele>620</ele>
        <time>2019-04-07T12:19:41.579Z</time>
      </trkpt>
      <trkpt lat="44.37629" lon="2.81748">
        <ele>620</ele>
        <time>2019-04-07T12:19:43.579Z</time>
      </trkpt>
      <trkpt lat="44.37636" lon="2.81739">
        <ele>620</ele>
        <time>2019-04-07T12:19:45.579Z</time>
      </trkpt>
      <trkpt lat="44.37644" lon="2.8173">
        <ele>620</ele>
        <time>2019-04-07T12:19:47.579Z</time>
      </trkpt>
      <trkpt lat="44.37651" lon="2.81719">
        <ele>620</ele>
        <time>2019-04-07T12:19:49.579Z</time>
      </trkpt>
      <trkpt lat="44.37661" lon="2.81709">
        <ele>618</ele>
        <time>2019-04-07T12:19:51.579Z</time>
      </trkpt>
      <trkpt lat="44.37671" lon="2.81697">
        <ele>618</ele>
        <time>2019-04-07T12:19:53.579Z</time>
      </trkpt>
      <trkpt lat="44.37681" lon="2.81685">
        <ele>618</ele>
        <time>2019-04-07T12:19:55.579Z</time>
      </trkpt>
      <trkpt lat="44.37691" lon="2.81672">
        <ele>618</ele>
        <time>2019-04-07T12:19:57.579Z</time>
      </trkpt>
      <trkpt lat="44.37701" lon="2.81659">
        <ele>618</ele>
        <time>2019-04-07T12:19:59.579Z</time>
      </trkpt>
      <trkpt lat="44.37712" lon="2.81646">
        <ele>616</ele>
        <time>2019-04-07T12:20:01.579Z</time>
      </trkpt>
      <trkpt lat="44.37722" lon="2.81633">
        <ele>616</ele>
        <time>2019-04-07T12:20:03.579Z</time>
      </trkpt>
      <trkpt lat="44.37732" lon="2.81621">
        <ele>616</ele>
        <time>2019-04-07T12:20:05.579Z</time>
      </trkpt>
      <trkpt lat="44.37742" lon="2.81609">
        <ele>616</ele>
        <time>2019-04-07T12:20:07.579Z</time>
      </trkpt>
      <trkpt lat="44.37747" lon="2.81603">
        <ele>616</ele>
        <time>2019-04-07T12:20:08.579Z</time>
      </trkpt>
      <trkpt lat="44.37752" lon="2.81597">
        <ele>616</ele>
        <time>2019-04-07T12:20:09.579Z</time>
      </trkpt>
      <trkpt lat="44.37757" lon="2.81591">
        <ele>616.1389952</ele>
        <time>2019-04-07T12:20:10.579Z</time>
      </trkpt>
      <trkpt lat="44.37761" lon="2.81586">
        <ele>617</ele>
        <time>2019-04-07T12:20:11.579Z</time>
      </trkpt>
      <trkpt lat="44.37766" lon="2.8158">
        <ele>617</ele>
        <time>2019-04-07T12:20:12.579Z</time>
      </trkpt>
      <trkpt lat="44.3777" lon="2.81575">
        <ele>617</ele>
        <time>2019-04-07T12:20:13.579Z</time>
      </trkpt>
      <trkpt lat="44.37774" lon="2.8157">
        <ele>617</ele>
        <time>2019-04-07T12:20:14.579Z</time>
      </trkpt>
      <trkpt lat="44.37781" lon="2.81561">
        <ele>617</ele>
        <time>2019-04-07T12:20:16.579Z</time>
      </trkpt>
      <trkpt lat="44.37784" lon="2.81557">
        <ele>617</ele>
        <time>2019-04-07T12:20:17.579Z</time>
      </trkpt>
      <trkpt lat="44.37791" lon="2.81548">
        <ele>617</ele>
        <time>2019-04-07T12:20:19.579Z</time>
      </trkpt>
      <trkpt lat="44.37795" lon="2.81544">
        <ele>617.2779904</ele>
        <time>2019-04-07T12:20:20.579Z</time>
      </trkpt>
      <trkpt lat="44.37798" lon="2.81541">
        <ele>619</ele>
        <time>2019-04-07T12:20:21.579Z</time>
      </trkpt>
      <trkpt lat="44.37802" lon="2.81539">
        <ele>619</ele>
        <time>2019-04-07T12:20:22.579Z</time>
      </trkpt>
      <trkpt lat="44.37806" lon="2.8154">
        <ele>619</ele>
        <time>2019-04-07T12:20:23.579Z</time>
      </trkpt>
      <trkpt lat="44.37812" lon="2.81546">
        <ele>619</ele>
        <time>2019-04-07T12:20:25.579Z</time>
      </trkpt>
      <trkpt lat="44.37817" lon="2.81553">
        <ele>619</ele>
        <time>2019-04-07T12:20:27.579Z</time>
      </trkpt>
      <trkpt lat="44.37823" lon="2.8156">
        <ele>619</ele>
        <time>2019-04-07T12:20:29.579Z</time>
      </trkpt>
      <trkpt lat="44.37828" lon="2.81568">
        <ele>622</ele>
        <time>2019-04-07T12:20:31.579Z</time>
      </trkpt>
      <trkpt lat="44.37833" lon="2.81575">
        <ele>622</ele>
        <time>2019-04-07T12:20:33.579Z</time>
      </trkpt>
      <trkpt lat="44.37839" lon="2.81581">
        <ele>622.1389952</ele>
        <time>2019-04-07T12:20:35.579Z</time>
      </trkpt>
      <trkpt lat="44.37844" lon="2.81588">
        <ele>623</ele>
        <time>2019-04-07T12:20:37.579Z</time>
      </trkpt>
      <trkpt lat="44.3785" lon="2.81596">
        <ele>623</ele>
        <time>2019-04-07T12:20:39.579Z</time>
      </trkpt>
      <trkpt lat="44.37853" lon="2.81598">
        <ele>623</ele>
        <time>2019-04-07T12:20:40.579Z</time>
      </trkpt>
      <trkpt lat="44.37858" lon="2.81598">
        <ele>623</ele>
        <time>2019-04-07T12:20:41.579Z</time>
      </trkpt>
      <trkpt lat="44.37866" lon="2.81595">
        <ele>623</ele>
        <time>2019-04-07T12:20:43.579Z</time>
      </trkpt>
      <trkpt lat="44.37873" lon="2.81592">
        <ele>623</ele>
        <time>2019-04-07T12:20:45.579Z</time>
      </trkpt>
      <trkpt lat="44.37879" lon="2.81586">
        <ele>623</ele>
        <time>2019-04-07T12:20:47.579Z</time>
      </trkpt>
      <trkpt lat="44.37881" lon="2.81581">
        <ele>623</ele>
        <time>2019-04-07T12:20:48.579Z</time>
      </trkpt>
      <trkpt lat="44.37883" lon="2.81576">
        <ele>623</ele>
        <time>2019-04-07T12:20:49.579Z</time>
      </trkpt>
      <trkpt lat="44.37885" lon="2.81571">
        <ele>623.1389952</ele>
        <time>2019-04-07T12:20:50.579Z</time>
      </trkpt>
      <trkpt lat="44.37888" lon="2.81567">
        <ele>624</ele>
        <time>2019-04-07T12:20:51.579Z</time>
      </trkpt>
      <trkpt lat="44.3789" lon="2.81562">
        <ele>624</ele>
        <time>2019-04-07T12:20:52.579Z</time>
      </trkpt>
      <trkpt lat="44.37893" lon="2.81557">
        <ele>624</ele>
        <time>2019-04-07T12:20:53.579Z</time>
      </trkpt>
      <trkpt lat="44.37896" lon="2.81551">
        <ele>624</ele>
        <time>2019-04-07T12:20:54.579Z</time>
      </trkpt>
      <trkpt lat="44.37899" lon="2.81546">
        <ele>624</ele>
        <time>2019-04-07T12:20:55.579Z</time>
      </trkpt>
      <trkpt lat="44.37902" lon="2.81541">
        <ele>624</ele>
        <time>2019-04-07T12:20:56.579Z</time>
      </trkpt>
      <trkpt lat="44.37905" lon="2.81535">
        <ele>624</ele>
        <time>2019-04-07T12:20:57.579Z</time>
      </trkpt>
      <trkpt lat="44.37907" lon="2.8153">
        <ele>624</ele>
        <time>2019-04-07T12:20:58.579Z</time>
      </trkpt>
      <trkpt lat="44.37909" lon="2.81524">
        <ele>624</ele>
        <time>2019-04-07T12:20:59.579Z</time>
      </trkpt>
      <trkpt lat="44.37915" lon="2.81515">
        <ele>624</ele>
        <time>2019-04-07T12:21:01.579Z</time>
      </trkpt>
      <trkpt lat="44.37918" lon="2.8151">
        <ele>624</ele>
        <time>2019-04-07T12:21:02.579Z</time>
      </trkpt>
      <trkpt lat="44.37924" lon="2.81501">
        <ele>624</ele>
        <time>2019-04-07T12:21:04.579Z</time>
      </trkpt>
      <trkpt lat="44.37927" lon="2.81496">
        <ele>624</ele>
        <time>2019-04-07T12:21:05.579Z</time>
      </trkpt>
      <trkpt lat="44.37934" lon="2.8149">
        <ele>624</ele>
        <time>2019-04-07T12:21:07.579Z</time>
      </trkpt>
      <trkpt lat="44.37938" lon="2.81488">
        <ele>624</ele>
        <time>2019-04-07T12:21:08.579Z</time>
      </trkpt>
      <trkpt lat="44.37943" lon="2.81489">
        <ele>624</ele>
        <time>2019-04-07T12:21:09.579Z</time>
      </trkpt>
      <trkpt lat="44.37951" lon="2.81496">
        <ele>623</ele>
        <time>2019-04-07T12:21:11.579Z</time>
      </trkpt>
      <trkpt lat="44.37957" lon="2.81506">
        <ele>623</ele>
        <time>2019-04-07T12:21:13.579Z</time>
      </trkpt>
      <trkpt lat="44.37964" lon="2.81516">
        <ele>623</ele>
        <time>2019-04-07T12:21:15.579Z</time>
      </trkpt>
      <trkpt lat="44.37967" lon="2.81522">
        <ele>623</ele>
        <time>2019-04-07T12:21:16.579Z</time>
      </trkpt>
      <trkpt lat="44.37971" lon="2.81527">
        <ele>623</ele>
        <time>2019-04-07T12:21:17.579Z</time>
      </trkpt>
      <trkpt lat="44.37975" lon="2.81531">
        <ele>623</ele>
        <time>2019-04-07T12:21:18.579Z</time>
      </trkpt>
      <trkpt lat="44.37982" lon="2.81541">
        <ele>622.8610048</ele>
        <time>2019-04-07T12:21:20.579Z</time>
      </trkpt>
      <trkpt lat="44.37991" lon="2.8155">
        <ele>622</ele>
        <time>2019-04-07T12:21:22.579Z</time>
      </trkpt>
      <trkpt lat="44.37996" lon="2.81555">
        <ele>622</ele>
        <time>2019-04-07T12:21:23.579Z</time>
      </trkpt>
      <trkpt lat="44.38004" lon="2.81564">
        <ele>622</ele>
        <time>2019-04-07T12:21:25.579Z</time>
      </trkpt>
      <trkpt lat="44.38007" lon="2.81569">
        <ele>622</ele>
        <time>2019-04-07T12:21:26.579Z</time>
      </trkpt>
      <trkpt lat="44.38011" lon="2.81575">
        <ele>622</ele>
        <time>2019-04-07T12:21:27.579Z</time>
      </trkpt>
      <trkpt lat="44.38016" lon="2.81579">
        <ele>622</ele>
        <time>2019-04-07T12:21:28.579Z</time>
      </trkpt>
      <trkpt lat="44.3802" lon="2.81584">
        <ele>622</ele>
        <time>2019-04-07T12:21:29.579Z</time>
      </trkpt>
      <trkpt lat="44.38025" lon="2.81589">
        <ele>622</ele>
        <time>2019-04-07T12:21:30.579Z</time>
      </trkpt>
      <trkpt lat="44.3803" lon="2.81594">
        <ele>622</ele>
        <time>2019-04-07T12:21:31.579Z</time>
      </trkpt>
      <trkpt lat="44.38035" lon="2.81599">
        <ele>622</ele>
        <time>2019-04-07T12:21:32.579Z</time>
      </trkpt>
      <trkpt lat="44.38041" lon="2.81605">
        <ele>622</ele>
        <time>2019-04-07T12:21:33.579Z</time>
      </trkpt>
      <trkpt lat="44.38047" lon="2.81612">
        <ele>622</ele>
        <time>2019-04-07T12:21:34.579Z</time>
      </trkpt>
      <trkpt lat="44.38053" lon="2.81619">
        <ele>622</ele>
        <time>2019-04-07T12:21:35.579Z</time>
      </trkpt>
      <trkpt lat="44.38059" lon="2.81626">
        <ele>622</ele>
        <time>2019-04-07T12:21:36.579Z</time>
      </trkpt>
      <trkpt lat="44.3807" lon="2.81642">
        <ele>622</ele>
        <time>2019-04-07T12:21:38.579Z</time>
      </trkpt>
      <trkpt lat="44.38079" lon="2.81659">
        <ele>621.4440192</ele>
        <time>2019-04-07T12:21:40.579Z</time>
      </trkpt>
      <trkpt lat="44.38089" lon="2.81672">
        <ele>618</ele>
        <time>2019-04-07T12:21:42.579Z</time>
      </trkpt>
      <trkpt lat="44.38098" lon="2.8168">
        <ele>618</ele>
        <time>2019-04-07T12:21:44.579Z</time>
      </trkpt>
      <trkpt lat="44.38108" lon="2.81683">
        <ele>614</ele>
        <time>2019-04-07T12:21:46.579Z</time>
      </trkpt>
      <trkpt lat="44.38118" lon="2.81688">
        <ele>614</ele>
        <time>2019-04-07T12:21:48.579Z</time>
      </trkpt>
      <trkpt lat="44.38122" lon="2.81698">
        <ele>613.5830144</ele>
        <time>2019-04-07T12:21:50.579Z</time>
      </trkpt>
      <trkpt lat="44.38118" lon="2.81707">
        <ele>610.7220096</ele>
        <time>2019-04-07T12:21:51.579Z</time>
      </trkpt>
      <trkpt lat="44.38114" lon="2.81722">
        <ele>609</ele>
        <time>2019-04-07T12:21:53.579Z</time>
      </trkpt>
      <trkpt lat="44.38112" lon="2.81739">
        <ele>609</ele>
        <time>2019-04-07T12:21:55.579Z</time>
      </trkpt>
      <trkpt lat="44.3811" lon="2.81755">
        <ele>606.8610048</ele>
        <time>2019-04-07T12:21:57.579Z</time>
      </trkpt>
      <trkpt lat="44.38112" lon="2.81766">
        <ele>605</ele>
        <time>2019-04-07T12:21:59.579Z</time>
      </trkpt>
      <trkpt lat="44.38124" lon="2.81772">
        <ele>606</ele>
        <time>2019-04-07T12:22:02.579Z</time>
      </trkpt>
      <trkpt lat="44.38135" lon="2.81772">
        <ele>606</ele>
        <time>2019-04-07T12:22:04.579Z</time>
      </trkpt>
      <trkpt lat="44.38141" lon="2.81772">
        <ele>606</ele>
        <time>2019-04-07T12:22:05.579Z</time>
      </trkpt>
      <trkpt lat="44.38153" lon="2.8177">
        <ele>606</ele>
        <time>2019-04-07T12:22:07.579Z</time>
      </trkpt>
      <trkpt lat="44.38164" lon="2.81775">
        <ele>606</ele>
        <time>2019-04-07T12:22:09.579Z</time>
      </trkpt>
      <trkpt lat="44.38169" lon="2.8179">
        <ele>605</ele>
        <time>2019-04-07T12:22:11.579Z</time>
      </trkpt>
      <trkpt lat="44.38168" lon="2.81809">
        <ele>605</ele>
        <time>2019-04-07T12:22:13.579Z</time>
      </trkpt>
      <trkpt lat="44.38168" lon="2.81819">
        <ele>605</ele>
        <time>2019-04-07T12:22:14.579Z</time>
      </trkpt>
      <trkpt lat="44.38169" lon="2.81829">
        <ele>605</ele>
        <time>2019-04-07T12:22:15.579Z</time>
      </trkpt>
      <trkpt lat="44.38169" lon="2.81839">
        <ele>605</ele>
        <time>2019-04-07T12:22:16.579Z</time>
      </trkpt>
      <trkpt lat="44.3817" lon="2.81851">
        <ele>605</ele>
        <time>2019-04-07T12:22:17.579Z</time>
      </trkpt>
      <trkpt lat="44.38172" lon="2.81862">
        <ele>605</ele>
        <time>2019-04-07T12:22:18.579Z</time>
      </trkpt>
      <trkpt lat="44.38175" lon="2.81873">
        <ele>605</ele>
        <time>2019-04-07T12:22:19.579Z</time>
      </trkpt>
      <trkpt lat="44.3818" lon="2.81884">
        <ele>604.7220096</ele>
        <time>2019-04-07T12:22:20.579Z</time>
      </trkpt>
      <trkpt lat="44.38184" lon="2.81895">
        <ele>603</ele>
        <time>2019-04-07T12:22:21.579Z</time>
      </trkpt>
      <trkpt lat="44.3819" lon="2.81906">
        <ele>603</ele>
        <time>2019-04-07T12:22:22.579Z</time>
      </trkpt>
      <trkpt lat="44.38195" lon="2.81917">
        <ele>603</ele>
        <time>2019-04-07T12:22:23.579Z</time>
      </trkpt>
      <trkpt lat="44.38201" lon="2.81929">
        <ele>603</ele>
        <time>2019-04-07T12:22:24.579Z</time>
      </trkpt>
      <trkpt lat="44.38206" lon="2.81939">
        <ele>602.305024</ele>
        <time>2019-04-07T12:22:25.579Z</time>
      </trkpt>
      <trkpt lat="44.38211" lon="2.81948">
        <ele>598</ele>
        <time>2019-04-07T12:22:26.579Z</time>
      </trkpt>
      <trkpt lat="44.38216" lon="2.81954">
        <ele>598</ele>
        <time>2019-04-07T12:22:27.579Z</time>
      </trkpt>
      <trkpt lat="44.38229" lon="2.81961">
        <ele>598</ele>
        <time>2019-04-07T12:22:29.579Z</time>
      </trkpt>
      <trkpt lat="44.38243" lon="2.8196">
        <ele>596</ele>
        <time>2019-04-07T12:22:31.579Z</time>
      </trkpt>
      <trkpt lat="44.38255" lon="2.81958">
        <ele>596</ele>
        <time>2019-04-07T12:22:33.579Z</time>
      </trkpt>
      <trkpt lat="44.38267" lon="2.81956">
        <ele>595.8610048</ele>
        <time>2019-04-07T12:22:35.579Z</time>
      </trkpt>
      <trkpt lat="44.38277" lon="2.81951">
        <ele>595</ele>
        <time>2019-04-07T12:22:37.579Z</time>
      </trkpt>
      <trkpt lat="44.38287" lon="2.81947">
        <ele>595</ele>
        <time>2019-04-07T12:22:39.579Z</time>
      </trkpt>
      <trkpt lat="44.38296" lon="2.81945">
        <ele>594</ele>
        <time>2019-04-07T12:22:41.579Z</time>
      </trkpt>
      <trkpt lat="44.38306" lon="2.81943">
        <ele>594</ele>
        <time>2019-04-07T12:22:43.579Z</time>
      </trkpt>
      <trkpt lat="44.3831" lon="2.81943">
        <ele>594</ele>
        <time>2019-04-07T12:22:44.579Z</time>
      </trkpt>
      <trkpt lat="44.38315" lon="2.81944">
        <ele>594</ele>
        <time>2019-04-07T12:22:45.579Z</time>
      </trkpt>
      <trkpt lat="44.38323" lon="2.81951">
        <ele>594</ele>
        <time>2019-04-07T12:22:47.579Z</time>
      </trkpt>
      <trkpt lat="44.38323" lon="2.81966">
        <ele>594</ele>
        <time>2019-04-07T12:22:49.579Z</time>
      </trkpt>
      <trkpt lat="44.38326" lon="2.81982">
        <ele>593</ele>
        <time>2019-04-07T12:22:51.579Z</time>
      </trkpt>
      <trkpt lat="44.38328" lon="2.81991">
        <ele>593</ele>
        <time>2019-04-07T12:22:52.579Z</time>
      </trkpt>
      <trkpt lat="44.38329" lon="2.82">
        <ele>593</ele>
        <time>2019-04-07T12:22:53.579Z</time>
      </trkpt>
      <trkpt lat="44.38331" lon="2.82009">
        <ele>593</ele>
        <time>2019-04-07T12:22:54.579Z</time>
      </trkpt>
      <trkpt lat="44.38333" lon="2.82018">
        <ele>593</ele>
        <time>2019-04-07T12:22:55.579Z</time>
      </trkpt>
      <trkpt lat="44.38337" lon="2.82036">
        <ele>593</ele>
        <time>2019-04-07T12:22:57.579Z</time>
      </trkpt>
      <trkpt lat="44.38341" lon="2.82055">
        <ele>593</ele>
        <time>2019-04-07T12:22:59.579Z</time>
      </trkpt>
      <trkpt lat="44.38344" lon="2.82062">
        <ele>592.8610048</ele>
        <time>2019-04-07T12:23:00.579Z</time>
      </trkpt>
      <trkpt lat="44.38354" lon="2.82069">
        <ele>592</ele>
        <time>2019-04-07T12:23:02.579Z</time>
      </trkpt>
      <trkpt lat="44.38366" lon="2.82068">
        <ele>592</ele>
        <time>2019-04-07T12:23:04.579Z</time>
      </trkpt>
      <trkpt lat="44.38377" lon="2.82066">
        <ele>592</ele>
        <time>2019-04-07T12:23:06.579Z</time>
      </trkpt>
      <trkpt lat="44.38389" lon="2.82062">
        <ele>592</ele>
        <time>2019-04-07T12:23:08.579Z</time>
      </trkpt>
      <trkpt lat="44.384" lon="2.82059">
        <ele>591.7220096</ele>
        <time>2019-04-07T12:23:10.579Z</time>
      </trkpt>
      <trkpt lat="44.38411" lon="2.82057">
        <ele>590</ele>
        <time>2019-04-07T12:23:12.579Z</time>
      </trkpt>
      <trkpt lat="44.38423" lon="2.82054">
        <ele>590</ele>
        <time>2019-04-07T12:23:14.579Z</time>
      </trkpt>
      <trkpt lat="44.38434" lon="2.82053">
        <ele>590</ele>
        <time>2019-04-07T12:23:16.579Z</time>
      </trkpt>
      <trkpt lat="44.38444" lon="2.82051">
        <ele>590</ele>
        <time>2019-04-07T12:23:18.579Z</time>
      </trkpt>
      <trkpt lat="44.38455" lon="2.82049">
        <ele>589.8610048</ele>
        <time>2019-04-07T12:23:20.579Z</time>
      </trkpt>
      <trkpt lat="44.38465" lon="2.82046">
        <ele>589</ele>
        <time>2019-04-07T12:23:22.579Z</time>
      </trkpt>
      <trkpt lat="44.38474" lon="2.82043">
        <ele>589</ele>
        <time>2019-04-07T12:23:24.579Z</time>
      </trkpt>
      <trkpt lat="44.38482" lon="2.82042">
        <ele>589</ele>
        <time>2019-04-07T12:23:26.579Z</time>
      </trkpt>
      <trkpt lat="44.38491" lon="2.82042">
        <ele>589</ele>
        <time>2019-04-07T12:23:28.579Z</time>
      </trkpt>
      <trkpt lat="44.38501" lon="2.82043">
        <ele>587</ele>
        <time>2019-04-07T12:23:31.579Z</time>
      </trkpt>
      <trkpt lat="44.38507" lon="2.82044">
        <ele>587</ele>
        <time>2019-04-07T12:23:33.579Z</time>
      </trkpt>
      <trkpt lat="44.38509" lon="2.82046">
        <ele>587</ele>
        <time>2019-04-07T12:23:34.579Z</time>
      </trkpt>
      <trkpt lat="44.3851" lon="2.82051">
        <ele>587</ele>
        <time>2019-04-07T12:23:35.579Z</time>
      </trkpt>
      <trkpt lat="44.38509" lon="2.82061">
        <ele>587</ele>
        <time>2019-04-07T12:23:37.579Z</time>
      </trkpt>
      <trkpt lat="44.38509" lon="2.82071">
        <ele>587</ele>
        <time>2019-04-07T12:23:39.579Z</time>
      </trkpt>
      <trkpt lat="44.38509" lon="2.82084">
        <ele>586</ele>
        <time>2019-04-07T12:23:41.579Z</time>
      </trkpt>
      <trkpt lat="44.38509" lon="2.8209">
        <ele>586</ele>
        <time>2019-04-07T12:23:42.579Z</time>
      </trkpt>
      <trkpt lat="44.3851" lon="2.82101">
        <ele>586</ele>
        <time>2019-04-07T12:23:44.579Z</time>
      </trkpt>
      <trkpt lat="44.3851" lon="2.82113">
        <ele>586</ele>
        <time>2019-04-07T12:23:46.579Z</time>
      </trkpt>
      <trkpt lat="44.38511" lon="2.82125">
        <ele>586</ele>
        <time>2019-04-07T12:23:48.579Z</time>
      </trkpt>
      <trkpt lat="44.38511" lon="2.82131">
        <ele>586</ele>
        <time>2019-04-07T12:23:49.579Z</time>
      </trkpt>
      <trkpt lat="44.38512" lon="2.82141">
        <ele>586</ele>
        <time>2019-04-07T12:23:51.579Z</time>
      </trkpt>
      <trkpt lat="44.38514" lon="2.8215">
        <ele>586</ele>
        <time>2019-04-07T12:23:53.579Z</time>
      </trkpt>
      <trkpt lat="44.38514" lon="2.82161">
        <ele>586</ele>
        <time>2019-04-07T12:23:55.579Z</time>
      </trkpt>
      <trkpt lat="44.38513" lon="2.82168">
        <ele>586</ele>
        <time>2019-04-07T12:23:56.579Z</time>
      </trkpt>
      <trkpt lat="44.38514" lon="2.82174">
        <ele>586</ele>
        <time>2019-04-07T12:23:57.579Z</time>
      </trkpt>
      <trkpt lat="44.38514" lon="2.82179">
        <ele>586</ele>
        <time>2019-04-07T12:23:58.579Z</time>
      </trkpt>
      <trkpt lat="44.38514" lon="2.82184">
        <ele>586</ele>
        <time>2019-04-07T12:23:59.579Z</time>
      </trkpt>
      <trkpt lat="44.38515" lon="2.82189">
        <ele>586</ele>
        <time>2019-04-07T12:24:00.579Z</time>
      </trkpt>
      <trkpt lat="44.38516" lon="2.82195">
        <ele>586</ele>
        <time>2019-04-07T12:24:01.579Z</time>
      </trkpt>
      <trkpt lat="44.38518" lon="2.822">
        <ele>586</ele>
        <time>2019-04-07T12:24:02.579Z</time>
      </trkpt>
      <trkpt lat="44.38521" lon="2.82203">
        <ele>586</ele>
        <time>2019-04-07T12:24:03.579Z</time>
      </trkpt>
      <trkpt lat="44.38535" lon="2.82203">
        <ele>586</ele>
        <time>2019-04-07T12:24:06.579Z</time>
      </trkpt>
      <trkpt lat="44.38543" lon="2.82208">
        <ele>586</ele>
        <time>2019-04-07T12:24:08.579Z</time>
      </trkpt>
      <trkpt lat="44.38545" lon="2.82219">
        <ele>586.1389952</ele>
        <time>2019-04-07T12:24:10.579Z</time>
      </trkpt>
      <trkpt lat="44.38544" lon="2.82231">
        <ele>587</ele>
        <time>2019-04-07T12:24:12.579Z</time>
      </trkpt>
      <trkpt lat="44.38544" lon="2.82237">
        <ele>587</ele>
        <time>2019-04-07T12:24:13.579Z</time>
      </trkpt>
      <trkpt lat="44.38544" lon="2.82243">
        <ele>587</ele>
        <time>2019-04-07T12:24:14.579Z</time>
      </trkpt>
      <trkpt lat="44.38543" lon="2.82248">
        <ele>587</ele>
        <time>2019-04-07T12:24:15.579Z</time>
      </trkpt>
      <trkpt lat="44.38544" lon="2.82256">
        <ele>587</ele>
        <time>2019-04-07T12:24:17.579Z</time>
      </trkpt>
      <trkpt lat="44.38545" lon="2.82263">
        <ele>587</ele>
        <time>2019-04-07T12:24:23.579Z</time>
      </trkpt>
      <trkpt lat="44.38544" lon="2.82273">
        <ele>587</ele>
        <time>2019-04-07T12:24:26.579Z</time>
      </trkpt>
      <trkpt lat="44.38542" lon="2.82281">
        <ele>587</ele>
        <time>2019-04-07T12:24:28.579Z</time>
      </trkpt>
      <trkpt lat="44.38539" lon="2.82287">
        <ele>587.1389952</ele>
        <time>2019-04-07T12:24:30.579Z</time>
      </trkpt>
      <trkpt lat="44.38536" lon="2.82292">
        <ele>588</ele>
        <time>2019-04-07T12:24:32.579Z</time>
      </trkpt>
      <trkpt lat="44.38531" lon="2.82298">
        <ele>588</ele>
        <time>2019-04-07T12:24:35.579Z</time>
      </trkpt>
      <trkpt lat="44.38527" lon="2.82302">
        <ele>588</ele>
        <time>2019-04-07T12:24:37.579Z</time>
      </trkpt>
      <trkpt lat="44.38524" lon="2.82308">
        <ele>588</ele>
        <time>2019-04-07T12:24:39.579Z</time>
      </trkpt>
      <trkpt lat="44.38521" lon="2.82312">
        <ele>589</ele>
        <time>2019-04-07T12:24:41.579Z</time>
      </trkpt>
      <trkpt lat="44.38518" lon="2.82316">
        <ele>589</ele>
        <time>2019-04-07T12:24:44.579Z</time>
      </trkpt>
      <trkpt lat="44.38515" lon="2.82319">
        <ele>588.86373212121</ele>
        <time>2019-04-07T12:24:51.579Z</time>
      </trkpt>
    </trkseg>
  </trk>
</gpx>